<?xml version="1.0" encoding="UTF-8" standalone="no" ?>
<gpx xmlns="http://www.topografix.com/GPX/1/1" xmlns:xsi="http://www.w3.org/2001/XMLSchema-instance" xsi:schemaLocation="http://www.topografix.com/GPX/1/1 http://www.topografix.com/GPX/1/1/gpx.xsd" version="1.1" creator="VisuGPX - https://www.visugpx.com">
  <metadata>
    <name>Trail de Quillan 06 avril 2014</name>
    <desc><![CDATA[Un parcours de toute beauté ]]></desc>
  </metadata>
  <trk>
    <name><![CDATA[Untitled]]></name>
    <trkseg>
      <trkpt lat="42.87484" lon="2.18377">
        <ele>291.79998779297</ele>
        <time>2014-04-06T06:31:11.000Z</time>
      </trkpt>
      <trkpt lat="42.87479" lon="2.1838">
        <ele>291.79998779297</ele>
        <time>2014-04-06T06:31:14.000Z</time>
      </trkpt>
      <trkpt lat="42.87466" lon="2.18397">
        <ele>291.79998779297</ele>
        <time>2014-04-06T06:31:20.000Z</time>
      </trkpt>
      <trkpt lat="42.87454" lon="2.184">
        <ele>291.79998779297</ele>
        <time>2014-04-06T06:31:24.000Z</time>
      </trkpt>
      <trkpt lat="42.87432" lon="2.18406">
        <ele>291.79998779297</ele>
        <time>2014-04-06T06:31:31.000Z</time>
      </trkpt>
      <trkpt lat="42.87412" lon="2.1841">
        <ele>291.60000610352</ele>
        <time>2014-04-06T06:31:37.000Z</time>
      </trkpt>
      <trkpt lat="42.87396" lon="2.18414">
        <ele>291.20001220703</ele>
        <time>2014-04-06T06:31:42.000Z</time>
      </trkpt>
      <trkpt lat="42.87382" lon="2.18418">
        <ele>290.79998779297</ele>
        <time>2014-04-06T06:31:47.000Z</time>
      </trkpt>
      <trkpt lat="42.87373" lon="2.18422">
        <ele>290.39999389648</ele>
        <time>2014-04-06T06:31:50.000Z</time>
      </trkpt>
      <trkpt lat="42.87347" lon="2.18411">
        <ele>289.39999389648</ele>
        <time>2014-04-06T06:31:59.000Z</time>
      </trkpt>
      <trkpt lat="42.87344" lon="2.18403">
        <ele>289.39999389648</ele>
        <time>2014-04-06T06:32:01.000Z</time>
      </trkpt>
      <trkpt lat="42.87338" lon="2.18372">
        <ele>289.20001220703</ele>
        <time>2014-04-06T06:32:09.000Z</time>
      </trkpt>
      <trkpt lat="42.87335" lon="2.18351">
        <ele>289</ele>
        <time>2014-04-06T06:32:14.000Z</time>
      </trkpt>
      <trkpt lat="42.8733" lon="2.18327">
        <ele>289.20001220703</ele>
        <time>2014-04-06T06:32:20.000Z</time>
      </trkpt>
      <trkpt lat="42.87327" lon="2.18307">
        <ele>290</ele>
        <time>2014-04-06T06:32:25.000Z</time>
      </trkpt>
      <trkpt lat="42.87324" lon="2.18293">
        <ele>290.39999389648</ele>
        <time>2014-04-06T06:32:28.000Z</time>
      </trkpt>
      <trkpt lat="42.87323" lon="2.18289">
        <ele>290.60000610352</ele>
        <time>2014-04-06T06:32:30.000Z</time>
      </trkpt>
      <trkpt lat="42.87319" lon="2.18275">
        <ele>291</ele>
        <time>2014-04-06T06:32:34.000Z</time>
      </trkpt>
      <trkpt lat="42.87312" lon="2.1827">
        <ele>291</ele>
        <time>2014-04-06T06:32:37.000Z</time>
      </trkpt>
      <trkpt lat="42.87294" lon="2.18264">
        <ele>291</ele>
        <time>2014-04-06T06:32:42.000Z</time>
      </trkpt>
      <trkpt lat="42.8728" lon="2.18259">
        <ele>291</ele>
        <time>2014-04-06T06:32:47.000Z</time>
      </trkpt>
      <trkpt lat="42.87259" lon="2.18252">
        <ele>291</ele>
        <time>2014-04-06T06:32:54.000Z</time>
      </trkpt>
      <trkpt lat="42.87239" lon="2.18246">
        <ele>291</ele>
        <time>2014-04-06T06:33:00.000Z</time>
      </trkpt>
      <trkpt lat="42.87224" lon="2.18238">
        <ele>291.20001220703</ele>
        <time>2014-04-06T06:33:04.000Z</time>
      </trkpt>
      <trkpt lat="42.87206" lon="2.18225">
        <ele>291.39999389648</ele>
        <time>2014-04-06T06:33:10.000Z</time>
      </trkpt>
      <trkpt lat="42.87195" lon="2.18216">
        <ele>291.60000610352</ele>
        <time>2014-04-06T06:33:15.000Z</time>
      </trkpt>
      <trkpt lat="42.87185" lon="2.18205">
        <ele>291.60000610352</ele>
        <time>2014-04-06T06:33:20.000Z</time>
      </trkpt>
      <trkpt lat="42.87168" lon="2.1819">
        <ele>291.79998779297</ele>
        <time>2014-04-06T06:33:27.000Z</time>
      </trkpt>
      <trkpt lat="42.87156" lon="2.18177">
        <ele>292</ele>
        <time>2014-04-06T06:33:32.000Z</time>
      </trkpt>
      <trkpt lat="42.87147" lon="2.18161">
        <ele>292.39999389648</ele>
        <time>2014-04-06T06:33:37.000Z</time>
      </trkpt>
      <trkpt lat="42.8714" lon="2.18142">
        <ele>293.20001220703</ele>
        <time>2014-04-06T06:33:42.000Z</time>
      </trkpt>
      <trkpt lat="42.87133" lon="2.18125">
        <ele>294</ele>
        <time>2014-04-06T06:33:46.000Z</time>
      </trkpt>
      <trkpt lat="42.87124" lon="2.18103">
        <ele>295.20001220703</ele>
        <time>2014-04-06T06:33:52.000Z</time>
      </trkpt>
      <trkpt lat="42.87119" lon="2.18084">
        <ele>296.20001220703</ele>
        <time>2014-04-06T06:33:57.000Z</time>
      </trkpt>
      <trkpt lat="42.87115" lon="2.18078">
        <ele>296.79998779297</ele>
        <time>2014-04-06T06:34:00.000Z</time>
      </trkpt>
      <trkpt lat="42.87103" lon="2.18087">
        <ele>296.79998779297</ele>
        <time>2014-04-06T06:34:04.000Z</time>
      </trkpt>
      <trkpt lat="42.87091" lon="2.18095">
        <ele>297</ele>
        <time>2014-04-06T06:34:10.000Z</time>
      </trkpt>
      <trkpt lat="42.87085" lon="2.18094">
        <ele>297.20001220703</ele>
        <time>2014-04-06T06:34:12.000Z</time>
      </trkpt>
      <trkpt lat="42.8708" lon="2.1808">
        <ele>298.60000610352</ele>
        <time>2014-04-06T06:34:16.000Z</time>
      </trkpt>
      <trkpt lat="42.87087" lon="2.18061">
        <ele>300.39999389648</ele>
        <time>2014-04-06T06:34:22.000Z</time>
      </trkpt>
      <trkpt lat="42.87101" lon="2.18039">
        <ele>301.60000610352</ele>
        <time>2014-04-06T06:34:30.000Z</time>
      </trkpt>
      <trkpt lat="42.87101" lon="2.18024">
        <ele>302.79998779297</ele>
        <time>2014-04-06T06:34:34.000Z</time>
      </trkpt>
      <trkpt lat="42.87097" lon="2.18008">
        <ele>305</ele>
        <time>2014-04-06T06:34:39.000Z</time>
      </trkpt>
      <trkpt lat="42.87094" lon="2.17994">
        <ele>306.39999389648</ele>
        <time>2014-04-06T06:34:44.000Z</time>
      </trkpt>
      <trkpt lat="42.87088" lon="2.17979">
        <ele>307.39999389648</ele>
        <time>2014-04-06T06:34:50.000Z</time>
      </trkpt>
      <trkpt lat="42.87084" lon="2.17965">
        <ele>308.39999389648</ele>
        <time>2014-04-06T06:34:55.000Z</time>
      </trkpt>
      <trkpt lat="42.87083" lon="2.17963">
        <ele>308.39999389648</ele>
        <time>2014-04-06T06:34:56.000Z</time>
      </trkpt>
      <trkpt lat="42.87078" lon="2.1795">
        <ele>308.79998779297</ele>
        <time>2014-04-06T06:35:01.000Z</time>
      </trkpt>
      <trkpt lat="42.87077" lon="2.17947">
        <ele>309</ele>
        <time>2014-04-06T06:35:02.000Z</time>
      </trkpt>
      <trkpt lat="42.87071" lon="2.17935">
        <ele>309.39999389648</ele>
        <time>2014-04-06T06:35:07.000Z</time>
      </trkpt>
      <trkpt lat="42.87064" lon="2.17922">
        <ele>310.20001220703</ele>
        <time>2014-04-06T06:35:12.000Z</time>
      </trkpt>
      <trkpt lat="42.87054" lon="2.17906">
        <ele>310.60000610352</ele>
        <time>2014-04-06T06:35:20.000Z</time>
      </trkpt>
      <trkpt lat="42.87044" lon="2.17892">
        <ele>311</ele>
        <time>2014-04-06T06:35:26.000Z</time>
      </trkpt>
      <trkpt lat="42.87035" lon="2.17879">
        <ele>311.60000610352</ele>
        <time>2014-04-06T06:35:31.000Z</time>
      </trkpt>
      <trkpt lat="42.87024" lon="2.17873">
        <ele>312.60000610352</ele>
        <time>2014-04-06T06:35:36.000Z</time>
      </trkpt>
      <trkpt lat="42.87008" lon="2.17873">
        <ele>313.79998779297</ele>
        <time>2014-04-06T06:35:42.000Z</time>
      </trkpt>
      <trkpt lat="42.8699" lon="2.17862">
        <ele>314</ele>
        <time>2014-04-06T06:35:48.000Z</time>
      </trkpt>
      <trkpt lat="42.86976" lon="2.17846">
        <ele>313.79998779297</ele>
        <time>2014-04-06T06:35:55.000Z</time>
      </trkpt>
      <trkpt lat="42.86961" lon="2.17826">
        <ele>313.79998779297</ele>
        <time>2014-04-06T06:36:02.000Z</time>
      </trkpt>
      <trkpt lat="42.86947" lon="2.17808">
        <ele>314.20001220703</ele>
        <time>2014-04-06T06:36:09.000Z</time>
      </trkpt>
      <trkpt lat="42.86934" lon="2.17793">
        <ele>315</ele>
        <time>2014-04-06T06:36:14.000Z</time>
      </trkpt>
      <trkpt lat="42.86924" lon="2.17778">
        <ele>315.79998779297</ele>
        <time>2014-04-06T06:36:19.000Z</time>
      </trkpt>
      <trkpt lat="42.86924" lon="2.17762">
        <ele>317</ele>
        <time>2014-04-06T06:36:22.000Z</time>
      </trkpt>
      <trkpt lat="42.86925" lon="2.17758">
        <ele>317.20001220703</ele>
        <time>2014-04-06T06:36:23.000Z</time>
      </trkpt>
      <trkpt lat="42.86928" lon="2.17735">
        <ele>318.39999389648</ele>
        <time>2014-04-06T06:36:30.000Z</time>
      </trkpt>
      <trkpt lat="42.8693" lon="2.17717">
        <ele>319.20001220703</ele>
        <time>2014-04-06T06:36:34.000Z</time>
      </trkpt>
      <trkpt lat="42.8693" lon="2.17697">
        <ele>320.20001220703</ele>
        <time>2014-04-06T06:36:39.000Z</time>
      </trkpt>
      <trkpt lat="42.86921" lon="2.17685">
        <ele>321.60000610352</ele>
        <time>2014-04-06T06:36:44.000Z</time>
      </trkpt>
      <trkpt lat="42.86908" lon="2.17667">
        <ele>323</ele>
        <time>2014-04-06T06:36:51.000Z</time>
      </trkpt>
      <trkpt lat="42.86899" lon="2.17652">
        <ele>323.79998779297</ele>
        <time>2014-04-06T06:36:56.000Z</time>
      </trkpt>
      <trkpt lat="42.86893" lon="2.1764">
        <ele>324.39999389648</ele>
        <time>2014-04-06T06:37:00.000Z</time>
      </trkpt>
      <trkpt lat="42.86883" lon="2.17621">
        <ele>325.60000610352</ele>
        <time>2014-04-06T06:37:06.000Z</time>
      </trkpt>
      <trkpt lat="42.86874" lon="2.17605">
        <ele>326.39999389648</ele>
        <time>2014-04-06T06:37:11.000Z</time>
      </trkpt>
      <trkpt lat="42.86868" lon="2.17591">
        <ele>327.39999389648</ele>
        <time>2014-04-06T06:37:16.000Z</time>
      </trkpt>
      <trkpt lat="42.86857" lon="2.17569">
        <ele>328</ele>
        <time>2014-04-06T06:37:23.000Z</time>
      </trkpt>
      <trkpt lat="42.8685" lon="2.17553">
        <ele>328.39999389648</ele>
        <time>2014-04-06T06:37:28.000Z</time>
      </trkpt>
      <trkpt lat="42.86844" lon="2.17541">
        <ele>328.79998779297</ele>
        <time>2014-04-06T06:37:32.000Z</time>
      </trkpt>
      <trkpt lat="42.86836" lon="2.17527">
        <ele>329.39999389648</ele>
        <time>2014-04-06T06:37:37.000Z</time>
      </trkpt>
      <trkpt lat="42.86825" lon="2.17517">
        <ele>330</ele>
        <time>2014-04-06T06:37:42.000Z</time>
      </trkpt>
      <trkpt lat="42.86813" lon="2.17504">
        <ele>330.39999389648</ele>
        <time>2014-04-06T06:37:47.000Z</time>
      </trkpt>
      <trkpt lat="42.86786" lon="2.17474">
        <ele>330.79998779297</ele>
        <time>2014-04-06T06:37:59.000Z</time>
      </trkpt>
      <trkpt lat="42.86773" lon="2.17461">
        <ele>331.20001220703</ele>
        <time>2014-04-06T06:38:03.000Z</time>
      </trkpt>
      <trkpt lat="42.86758" lon="2.17446">
        <ele>331.60000610352</ele>
        <time>2014-04-06T06:38:09.000Z</time>
      </trkpt>
      <trkpt lat="42.86746" lon="2.17433">
        <ele>331.79998779297</ele>
        <time>2014-04-06T06:38:14.000Z</time>
      </trkpt>
      <trkpt lat="42.86733" lon="2.1742">
        <ele>331.39999389648</ele>
        <time>2014-04-06T06:38:19.000Z</time>
      </trkpt>
      <trkpt lat="42.86722" lon="2.17405">
        <ele>331.39999389648</ele>
        <time>2014-04-06T06:38:24.000Z</time>
      </trkpt>
      <trkpt lat="42.8671" lon="2.17386">
        <ele>331.60000610352</ele>
        <time>2014-04-06T06:38:31.000Z</time>
      </trkpt>
      <trkpt lat="42.86698" lon="2.17368">
        <ele>332.20001220703</ele>
        <time>2014-04-06T06:38:36.000Z</time>
      </trkpt>
      <trkpt lat="42.8669" lon="2.17353">
        <ele>332.79998779297</ele>
        <time>2014-04-06T06:38:41.000Z</time>
      </trkpt>
      <trkpt lat="42.86681" lon="2.17329">
        <ele>334.20001220703</ele>
        <time>2014-04-06T06:38:48.000Z</time>
      </trkpt>
      <trkpt lat="42.86677" lon="2.17318">
        <ele>335</ele>
        <time>2014-04-06T06:38:51.000Z</time>
      </trkpt>
      <trkpt lat="42.86665" lon="2.17298">
        <ele>337</ele>
        <time>2014-04-06T06:38:59.000Z</time>
      </trkpt>
      <trkpt lat="42.86652" lon="2.17279">
        <ele>338.20001220703</ele>
        <time>2014-04-06T06:39:06.000Z</time>
      </trkpt>
      <trkpt lat="42.86641" lon="2.17267">
        <ele>339.20001220703</ele>
        <time>2014-04-06T06:39:11.000Z</time>
      </trkpt>
      <trkpt lat="42.86633" lon="2.17257">
        <ele>340</ele>
        <time>2014-04-06T06:39:15.000Z</time>
      </trkpt>
      <trkpt lat="42.86622" lon="2.17246">
        <ele>340.60000610352</ele>
        <time>2014-04-06T06:39:20.000Z</time>
      </trkpt>
      <trkpt lat="42.86611" lon="2.17234">
        <ele>341.20001220703</ele>
        <time>2014-04-06T06:39:25.000Z</time>
      </trkpt>
      <trkpt lat="42.86609" lon="2.17231">
        <ele>341.39999389648</ele>
        <time>2014-04-06T06:39:26.000Z</time>
      </trkpt>
      <trkpt lat="42.86596" lon="2.17221">
        <ele>342</ele>
        <time>2014-04-06T06:39:31.000Z</time>
      </trkpt>
      <trkpt lat="42.86585" lon="2.1721">
        <ele>342.79998779297</ele>
        <time>2014-04-06T06:39:36.000Z</time>
      </trkpt>
      <trkpt lat="42.86582" lon="2.17204">
        <ele>343</ele>
        <time>2014-04-06T06:39:39.000Z</time>
      </trkpt>
      <trkpt lat="42.86585" lon="2.17182">
        <ele>344.79998779297</ele>
        <time>2014-04-06T06:39:45.000Z</time>
      </trkpt>
      <trkpt lat="42.86589" lon="2.17162">
        <ele>345.79998779297</ele>
        <time>2014-04-06T06:39:50.000Z</time>
      </trkpt>
      <trkpt lat="42.86593" lon="2.17142">
        <ele>346.20001220703</ele>
        <time>2014-04-06T06:39:56.000Z</time>
      </trkpt>
      <trkpt lat="42.86597" lon="2.17126">
        <ele>346.39999389648</ele>
        <time>2014-04-06T06:40:01.000Z</time>
      </trkpt>
      <trkpt lat="42.86601" lon="2.17106">
        <ele>346.60000610352</ele>
        <time>2014-04-06T06:40:08.000Z</time>
      </trkpt>
      <trkpt lat="42.86606" lon="2.17087">
        <ele>346.79998779297</ele>
        <time>2014-04-06T06:40:14.000Z</time>
      </trkpt>
      <trkpt lat="42.8661" lon="2.17067">
        <ele>347.39999389648</ele>
        <time>2014-04-06T06:40:20.000Z</time>
      </trkpt>
      <trkpt lat="42.86615" lon="2.17047">
        <ele>348</ele>
        <time>2014-04-06T06:40:26.000Z</time>
      </trkpt>
      <trkpt lat="42.86622" lon="2.17027">
        <ele>348.60000610352</ele>
        <time>2014-04-06T06:40:31.000Z</time>
      </trkpt>
      <trkpt lat="42.86628" lon="2.17009">
        <ele>349.20001220703</ele>
        <time>2014-04-06T06:40:36.000Z</time>
      </trkpt>
      <trkpt lat="42.86634" lon="2.16991">
        <ele>350.20001220703</ele>
        <time>2014-04-06T06:40:41.000Z</time>
      </trkpt>
      <trkpt lat="42.8664" lon="2.1697">
        <ele>352.39999389648</ele>
        <time>2014-04-06T06:40:48.000Z</time>
      </trkpt>
      <trkpt lat="42.86643" lon="2.16951">
        <ele>354.60000610352</ele>
        <time>2014-04-06T06:40:53.000Z</time>
      </trkpt>
      <trkpt lat="42.86648" lon="2.16934">
        <ele>356.60000610352</ele>
        <time>2014-04-06T06:40:57.000Z</time>
      </trkpt>
      <trkpt lat="42.86654" lon="2.16918">
        <ele>358.39999389648</ele>
        <time>2014-04-06T06:41:03.000Z</time>
      </trkpt>
      <trkpt lat="42.8666" lon="2.16905">
        <ele>359.60000610352</ele>
        <time>2014-04-06T06:41:06.000Z</time>
      </trkpt>
      <trkpt lat="42.8667" lon="2.16891">
        <ele>360.39999389648</ele>
        <time>2014-04-06T06:41:11.000Z</time>
      </trkpt>
      <trkpt lat="42.8668" lon="2.16879">
        <ele>359.20001220703</ele>
        <time>2014-04-06T06:41:17.000Z</time>
      </trkpt>
      <trkpt lat="42.86688" lon="2.16865">
        <ele>358.39999389648</ele>
        <time>2014-04-06T06:41:21.000Z</time>
      </trkpt>
      <trkpt lat="42.86698" lon="2.16845">
        <ele>358.20001220703</ele>
        <time>2014-04-06T06:41:27.000Z</time>
      </trkpt>
      <trkpt lat="42.86705" lon="2.16826">
        <ele>357.60000610352</ele>
        <time>2014-04-06T06:41:33.000Z</time>
      </trkpt>
      <trkpt lat="42.86707" lon="2.16818">
        <ele>357</ele>
        <time>2014-04-06T06:41:35.000Z</time>
      </trkpt>
      <trkpt lat="42.86715" lon="2.16795">
        <ele>355</ele>
        <time>2014-04-06T06:41:41.000Z</time>
      </trkpt>
      <trkpt lat="42.86718" lon="2.16783">
        <ele>354</ele>
        <time>2014-04-06T06:41:43.000Z</time>
      </trkpt>
      <trkpt lat="42.86722" lon="2.16768">
        <ele>353.20001220703</ele>
        <time>2014-04-06T06:41:47.000Z</time>
      </trkpt>
      <trkpt lat="42.86724" lon="2.1674">
        <ele>352.20001220703</ele>
        <time>2014-04-06T06:41:53.000Z</time>
      </trkpt>
      <trkpt lat="42.86723" lon="2.16717">
        <ele>352.20001220703</ele>
        <time>2014-04-06T06:41:57.000Z</time>
      </trkpt>
      <trkpt lat="42.86725" lon="2.16695">
        <ele>351.20001220703</ele>
        <time>2014-04-06T06:42:03.000Z</time>
      </trkpt>
      <trkpt lat="42.86726" lon="2.16679">
        <ele>350.60000610352</ele>
        <time>2014-04-06T06:42:06.000Z</time>
      </trkpt>
      <trkpt lat="42.86727" lon="2.16651">
        <ele>349</ele>
        <time>2014-04-06T06:42:13.000Z</time>
      </trkpt>
      <trkpt lat="42.86726" lon="2.16635">
        <ele>348</ele>
        <time>2014-04-06T06:42:16.000Z</time>
      </trkpt>
      <trkpt lat="42.86724" lon="2.16613">
        <ele>347</ele>
        <time>2014-04-06T06:42:21.000Z</time>
      </trkpt>
      <trkpt lat="42.86712" lon="2.16591">
        <ele>347.79998779297</ele>
        <time>2014-04-06T06:42:27.000Z</time>
      </trkpt>
      <trkpt lat="42.86699" lon="2.16574">
        <ele>349</ele>
        <time>2014-04-06T06:42:33.000Z</time>
      </trkpt>
      <trkpt lat="42.86688" lon="2.16554">
        <ele>348.20001220703</ele>
        <time>2014-04-06T06:42:38.000Z</time>
      </trkpt>
      <trkpt lat="42.86683" lon="2.1653">
        <ele>345.60000610352</ele>
        <time>2014-04-06T06:42:43.000Z</time>
      </trkpt>
      <trkpt lat="42.86678" lon="2.16502">
        <ele>342</ele>
        <time>2014-04-06T06:42:49.000Z</time>
      </trkpt>
      <trkpt lat="42.86676" lon="2.16477">
        <ele>340.79998779297</ele>
        <time>2014-04-06T06:42:54.000Z</time>
      </trkpt>
      <trkpt lat="42.86679" lon="2.1646">
        <ele>339.79998779297</ele>
        <time>2014-04-06T06:42:57.000Z</time>
      </trkpt>
      <trkpt lat="42.86686" lon="2.16436">
        <ele>338.20001220703</ele>
        <time>2014-04-06T06:43:03.000Z</time>
      </trkpt>
      <trkpt lat="42.86687" lon="2.16429">
        <ele>337.79998779297</ele>
        <time>2014-04-06T06:43:05.000Z</time>
      </trkpt>
      <trkpt lat="42.86686" lon="2.16416">
        <ele>337.39999389648</ele>
        <time>2014-04-06T06:43:09.000Z</time>
      </trkpt>
      <trkpt lat="42.86685" lon="2.16412">
        <ele>337.39999389648</ele>
        <time>2014-04-06T06:43:11.000Z</time>
      </trkpt>
      <trkpt lat="42.86682" lon="2.16401">
        <ele>337.79998779297</ele>
        <time>2014-04-06T06:43:14.000Z</time>
      </trkpt>
      <trkpt lat="42.86669" lon="2.16376">
        <ele>339.39999389648</ele>
        <time>2014-04-06T06:43:21.000Z</time>
      </trkpt>
      <trkpt lat="42.86656" lon="2.16362">
        <ele>341.20001220703</ele>
        <time>2014-04-06T06:43:28.000Z</time>
      </trkpt>
      <trkpt lat="42.86641" lon="2.16352">
        <ele>343</ele>
        <time>2014-04-06T06:43:34.000Z</time>
      </trkpt>
      <trkpt lat="42.86632" lon="2.16338">
        <ele>344</ele>
        <time>2014-04-06T06:43:39.000Z</time>
      </trkpt>
      <trkpt lat="42.86623" lon="2.16327">
        <ele>345</ele>
        <time>2014-04-06T06:43:43.000Z</time>
      </trkpt>
      <trkpt lat="42.86618" lon="2.16319">
        <ele>345.79998779297</ele>
        <time>2014-04-06T06:43:47.000Z</time>
      </trkpt>
      <trkpt lat="42.86623" lon="2.16304">
        <ele>345.79998779297</ele>
        <time>2014-04-06T06:43:51.000Z</time>
      </trkpt>
      <trkpt lat="42.86638" lon="2.163">
        <ele>344.39999389648</ele>
        <time>2014-04-06T06:43:56.000Z</time>
      </trkpt>
      <trkpt lat="42.86655" lon="2.16291">
        <ele>342.79998779297</ele>
        <time>2014-04-06T06:44:03.000Z</time>
      </trkpt>
      <trkpt lat="42.86663" lon="2.1628">
        <ele>342</ele>
        <time>2014-04-06T06:44:07.000Z</time>
      </trkpt>
      <trkpt lat="42.86669" lon="2.16271">
        <ele>341.60000610352</ele>
        <time>2014-04-06T06:44:10.000Z</time>
      </trkpt>
      <trkpt lat="42.86666" lon="2.16254">
        <ele>342</ele>
        <time>2014-04-06T06:44:15.000Z</time>
      </trkpt>
      <trkpt lat="42.86664" lon="2.16251">
        <ele>342.39999389648</ele>
        <time>2014-04-06T06:44:16.000Z</time>
      </trkpt>
      <trkpt lat="42.86656" lon="2.16237">
        <ele>343.79998779297</ele>
        <time>2014-04-06T06:44:21.000Z</time>
      </trkpt>
      <trkpt lat="42.86645" lon="2.16221">
        <ele>345.60000610352</ele>
        <time>2014-04-06T06:44:26.000Z</time>
      </trkpt>
      <trkpt lat="42.8664" lon="2.16213">
        <ele>346.39999389648</ele>
        <time>2014-04-06T06:44:30.000Z</time>
      </trkpt>
      <trkpt lat="42.86633" lon="2.16192">
        <ele>347.79998779297</ele>
        <time>2014-04-06T06:44:37.000Z</time>
      </trkpt>
      <trkpt lat="42.86627" lon="2.16177">
        <ele>348.60000610352</ele>
        <time>2014-04-06T06:44:42.000Z</time>
      </trkpt>
      <trkpt lat="42.86622" lon="2.16167">
        <ele>349.20001220703</ele>
        <time>2014-04-06T06:44:45.000Z</time>
      </trkpt>
      <trkpt lat="42.86616" lon="2.16148">
        <ele>350.60000610352</ele>
        <time>2014-04-06T06:44:51.000Z</time>
      </trkpt>
      <trkpt lat="42.86617" lon="2.16124">
        <ele>351.39999389648</ele>
        <time>2014-04-06T06:44:59.000Z</time>
      </trkpt>
      <trkpt lat="42.86613" lon="2.16109">
        <ele>352.39999389648</ele>
        <time>2014-04-06T06:45:04.000Z</time>
      </trkpt>
      <trkpt lat="42.86609" lon="2.16089">
        <ele>353.60000610352</ele>
        <time>2014-04-06T06:45:10.000Z</time>
      </trkpt>
      <trkpt lat="42.86606" lon="2.16072">
        <ele>354.39999389648</ele>
        <time>2014-04-06T06:45:15.000Z</time>
      </trkpt>
      <trkpt lat="42.866" lon="2.16058">
        <ele>355.20001220703</ele>
        <time>2014-04-06T06:45:20.000Z</time>
      </trkpt>
      <trkpt lat="42.8659" lon="2.16043">
        <ele>356.39999389648</ele>
        <time>2014-04-06T06:45:26.000Z</time>
      </trkpt>
      <trkpt lat="42.86582" lon="2.16034">
        <ele>357.20001220703</ele>
        <time>2014-04-06T06:45:31.000Z</time>
      </trkpt>
      <trkpt lat="42.86569" lon="2.1603">
        <ele>358.20001220703</ele>
        <time>2014-04-06T06:45:37.000Z</time>
      </trkpt>
      <trkpt lat="42.86559" lon="2.16036">
        <ele>358.79998779297</ele>
        <time>2014-04-06T06:45:42.000Z</time>
      </trkpt>
      <trkpt lat="42.86544" lon="2.16039">
        <ele>359.60000610352</ele>
        <time>2014-04-06T06:45:49.000Z</time>
      </trkpt>
      <trkpt lat="42.8653" lon="2.1604">
        <ele>360.60000610352</ele>
        <time>2014-04-06T06:45:55.000Z</time>
      </trkpt>
      <trkpt lat="42.86528" lon="2.1604">
        <ele>360.79998779297</ele>
        <time>2014-04-06T06:45:56.000Z</time>
      </trkpt>
      <trkpt lat="42.86518" lon="2.16024">
        <ele>361.79998779297</ele>
        <time>2014-04-06T06:46:02.000Z</time>
      </trkpt>
      <trkpt lat="42.86513" lon="2.1601">
        <ele>362.79998779297</ele>
        <time>2014-04-06T06:46:07.000Z</time>
      </trkpt>
      <trkpt lat="42.86519" lon="2.15996">
        <ele>362.79998779297</ele>
        <time>2014-04-06T06:46:12.000Z</time>
      </trkpt>
      <trkpt lat="42.86529" lon="2.15979">
        <ele>362.79998779297</ele>
        <time>2014-04-06T06:46:17.000Z</time>
      </trkpt>
      <trkpt lat="42.86542" lon="2.15956">
        <ele>362.60000610352</ele>
        <time>2014-04-06T06:46:23.000Z</time>
      </trkpt>
      <trkpt lat="42.86554" lon="2.15938">
        <ele>362</ele>
        <time>2014-04-06T06:46:28.000Z</time>
      </trkpt>
      <trkpt lat="42.86567" lon="2.15923">
        <ele>360.79998779297</ele>
        <time>2014-04-06T06:46:33.000Z</time>
      </trkpt>
      <trkpt lat="42.86581" lon="2.15908">
        <ele>359.39999389648</ele>
        <time>2014-04-06T06:46:38.000Z</time>
      </trkpt>
      <trkpt lat="42.86597" lon="2.1589">
        <ele>358</ele>
        <time>2014-04-06T06:46:44.000Z</time>
      </trkpt>
      <trkpt lat="42.86611" lon="2.1587">
        <ele>357.20001220703</ele>
        <time>2014-04-06T06:46:49.000Z</time>
      </trkpt>
      <trkpt lat="42.86619" lon="2.1586">
        <ele>356.79998779297</ele>
        <time>2014-04-06T06:46:53.000Z</time>
      </trkpt>
      <trkpt lat="42.86625" lon="2.15853">
        <ele>356.39999389648</ele>
        <time>2014-04-06T06:46:55.000Z</time>
      </trkpt>
      <trkpt lat="42.86638" lon="2.15839">
        <ele>355.79998779297</ele>
        <time>2014-04-06T06:47:00.000Z</time>
      </trkpt>
      <trkpt lat="42.86653" lon="2.15821">
        <ele>355.60000610352</ele>
        <time>2014-04-06T06:47:06.000Z</time>
      </trkpt>
      <trkpt lat="42.8666" lon="2.15811">
        <ele>355.60000610352</ele>
        <time>2014-04-06T06:47:09.000Z</time>
      </trkpt>
      <trkpt lat="42.86674" lon="2.15809">
        <ele>356.39999389648</ele>
        <time>2014-04-06T06:47:14.000Z</time>
      </trkpt>
      <trkpt lat="42.86691" lon="2.15812">
        <ele>359</ele>
        <time>2014-04-06T06:47:20.000Z</time>
      </trkpt>
      <trkpt lat="42.86703" lon="2.15811">
        <ele>361</ele>
        <time>2014-04-06T06:47:25.000Z</time>
      </trkpt>
      <trkpt lat="42.86714" lon="2.15807">
        <ele>363.20001220703</ele>
        <time>2014-04-06T06:47:31.000Z</time>
      </trkpt>
      <trkpt lat="42.86725" lon="2.15802">
        <ele>365.39999389648</ele>
        <time>2014-04-06T06:47:38.000Z</time>
      </trkpt>
      <trkpt lat="42.86728" lon="2.15802">
        <ele>366</ele>
        <time>2014-04-06T06:47:40.000Z</time>
      </trkpt>
      <trkpt lat="42.86737" lon="2.1581">
        <ele>366.79998779297</ele>
        <time>2014-04-06T06:47:47.000Z</time>
      </trkpt>
      <trkpt lat="42.86747" lon="2.1582">
        <ele>367.20001220703</ele>
        <time>2014-04-06T06:47:54.000Z</time>
      </trkpt>
      <trkpt lat="42.86754" lon="2.15829">
        <ele>367</ele>
        <time>2014-04-06T06:48:00.000Z</time>
      </trkpt>
      <trkpt lat="42.86761" lon="2.15837">
        <ele>366.60000610352</ele>
        <time>2014-04-06T06:48:06.000Z</time>
      </trkpt>
      <trkpt lat="42.86767" lon="2.15844">
        <ele>366.60000610352</ele>
        <time>2014-04-06T06:48:12.000Z</time>
      </trkpt>
      <trkpt lat="42.86768" lon="2.15845">
        <ele>366.79998779297</ele>
        <time>2014-04-06T06:48:13.000Z</time>
      </trkpt>
      <trkpt lat="42.86776" lon="2.15852">
        <ele>367</ele>
        <time>2014-04-06T06:48:19.000Z</time>
      </trkpt>
      <trkpt lat="42.86783" lon="2.15858">
        <ele>367.20001220703</ele>
        <time>2014-04-06T06:48:24.000Z</time>
      </trkpt>
      <trkpt lat="42.86785" lon="2.15858">
        <ele>367.39999389648</ele>
        <time>2014-04-06T06:48:25.000Z</time>
      </trkpt>
      <trkpt lat="42.86793" lon="2.15861">
        <ele>368</ele>
        <time>2014-04-06T06:48:30.000Z</time>
      </trkpt>
      <trkpt lat="42.86795" lon="2.15861">
        <ele>368.20001220703</ele>
        <time>2014-04-06T06:48:31.000Z</time>
      </trkpt>
      <trkpt lat="42.86796" lon="2.15861">
        <ele>368.39999389648</ele>
        <time>2014-04-06T06:48:32.000Z</time>
      </trkpt>
      <trkpt lat="42.86796" lon="2.15854">
        <ele>369</ele>
        <time>2014-04-06T06:48:36.000Z</time>
      </trkpt>
      <trkpt lat="42.86796" lon="2.15845">
        <ele>369.60000610352</ele>
        <time>2014-04-06T06:48:41.000Z</time>
      </trkpt>
      <trkpt lat="42.86796" lon="2.15843">
        <ele>369.60000610352</ele>
        <time>2014-04-06T06:48:42.000Z</time>
      </trkpt>
      <trkpt lat="42.86794" lon="2.15827">
        <ele>370.79998779297</ele>
        <time>2014-04-06T06:48:50.000Z</time>
      </trkpt>
      <trkpt lat="42.86792" lon="2.15815">
        <ele>372</ele>
        <time>2014-04-06T06:48:55.000Z</time>
      </trkpt>
      <trkpt lat="42.86791" lon="2.15804">
        <ele>373</ele>
        <time>2014-04-06T06:49:00.000Z</time>
      </trkpt>
      <trkpt lat="42.86789" lon="2.15791">
        <ele>374.20001220703</ele>
        <time>2014-04-06T06:49:05.000Z</time>
      </trkpt>
      <trkpt lat="42.86786" lon="2.15779">
        <ele>375.20001220703</ele>
        <time>2014-04-06T06:49:10.000Z</time>
      </trkpt>
      <trkpt lat="42.86784" lon="2.15774">
        <ele>375.39999389648</ele>
        <time>2014-04-06T06:49:12.000Z</time>
      </trkpt>
      <trkpt lat="42.86782" lon="2.15762">
        <ele>376.60000610352</ele>
        <time>2014-04-06T06:49:17.000Z</time>
      </trkpt>
      <trkpt lat="42.86788" lon="2.15753">
        <ele>378</ele>
        <time>2014-04-06T06:49:23.000Z</time>
      </trkpt>
      <trkpt lat="42.86785" lon="2.15747">
        <ele>378.20001220703</ele>
        <time>2014-04-06T06:49:27.000Z</time>
      </trkpt>
      <trkpt lat="42.86781" lon="2.15743">
        <ele>377.79998779297</ele>
        <time>2014-04-06T06:49:31.000Z</time>
      </trkpt>
      <trkpt lat="42.86777" lon="2.15737">
        <ele>377.79998779297</ele>
        <time>2014-04-06T06:49:35.000Z</time>
      </trkpt>
      <trkpt lat="42.86778" lon="2.15727">
        <ele>377.79998779297</ele>
        <time>2014-04-06T06:49:39.000Z</time>
      </trkpt>
      <trkpt lat="42.86779" lon="2.15719">
        <ele>378</ele>
        <time>2014-04-06T06:49:41.000Z</time>
      </trkpt>
      <trkpt lat="42.86779" lon="2.157">
        <ele>378.20001220703</ele>
        <time>2014-04-06T06:49:47.000Z</time>
      </trkpt>
      <trkpt lat="42.86783" lon="2.1568">
        <ele>378.39999389648</ele>
        <time>2014-04-06T06:49:53.000Z</time>
      </trkpt>
      <trkpt lat="42.86786" lon="2.15659">
        <ele>379</ele>
        <time>2014-04-06T06:49:59.000Z</time>
      </trkpt>
      <trkpt lat="42.86787" lon="2.15644">
        <ele>379.39999389648</ele>
        <time>2014-04-06T06:50:03.000Z</time>
      </trkpt>
      <trkpt lat="42.86785" lon="2.15617">
        <ele>379.79998779297</ele>
        <time>2014-04-06T06:50:09.000Z</time>
      </trkpt>
      <trkpt lat="42.86785" lon="2.15596">
        <ele>380.39999389648</ele>
        <time>2014-04-06T06:50:14.000Z</time>
      </trkpt>
      <trkpt lat="42.86786" lon="2.15577">
        <ele>381.20001220703</ele>
        <time>2014-04-06T06:50:19.000Z</time>
      </trkpt>
      <trkpt lat="42.86787" lon="2.15549">
        <ele>383.39999389648</ele>
        <time>2014-04-06T06:50:26.000Z</time>
      </trkpt>
      <trkpt lat="42.86786" lon="2.15531">
        <ele>384.79998779297</ele>
        <time>2014-04-06T06:50:31.000Z</time>
      </trkpt>
      <trkpt lat="42.86784" lon="2.1551">
        <ele>386.39999389648</ele>
        <time>2014-04-06T06:50:37.000Z</time>
      </trkpt>
      <trkpt lat="42.86782" lon="2.15493">
        <ele>387.79998779297</ele>
        <time>2014-04-06T06:50:42.000Z</time>
      </trkpt>
      <trkpt lat="42.86784" lon="2.15481">
        <ele>389.20001220703</ele>
        <time>2014-04-06T06:50:46.000Z</time>
      </trkpt>
      <trkpt lat="42.86785" lon="2.1547">
        <ele>390.39999389648</ele>
        <time>2014-04-06T06:50:51.000Z</time>
      </trkpt>
      <trkpt lat="42.86792" lon="2.15463">
        <ele>391.39999389648</ele>
        <time>2014-04-06T06:50:56.000Z</time>
      </trkpt>
      <trkpt lat="42.86802" lon="2.15457">
        <ele>392.60000610352</ele>
        <time>2014-04-06T06:51:03.000Z</time>
      </trkpt>
      <trkpt lat="42.86809" lon="2.15452">
        <ele>393.39999389648</ele>
        <time>2014-04-06T06:51:08.000Z</time>
      </trkpt>
      <trkpt lat="42.86812" lon="2.15449">
        <ele>393.79998779297</ele>
        <time>2014-04-06T06:51:11.000Z</time>
      </trkpt>
      <trkpt lat="42.86814" lon="2.15445">
        <ele>394.39999389648</ele>
        <time>2014-04-06T06:51:14.000Z</time>
      </trkpt>
      <trkpt lat="42.86814" lon="2.15438">
        <ele>395.20001220703</ele>
        <time>2014-04-06T06:51:18.000Z</time>
      </trkpt>
      <trkpt lat="42.86816" lon="2.15423">
        <ele>396.79998779297</ele>
        <time>2014-04-06T06:51:26.000Z</time>
      </trkpt>
      <trkpt lat="42.86813" lon="2.15415">
        <ele>397.39999389648</ele>
        <time>2014-04-06T06:51:33.000Z</time>
      </trkpt>
      <trkpt lat="42.86811" lon="2.15415">
        <ele>397.39999389648</ele>
        <time>2014-04-06T06:51:34.000Z</time>
      </trkpt>
      <trkpt lat="42.86808" lon="2.15411">
        <ele>397.79998779297</ele>
        <time>2014-04-06T06:51:38.000Z</time>
      </trkpt>
      <trkpt lat="42.86808" lon="2.1541">
        <ele>397.79998779297</ele>
        <time>2014-04-06T06:51:39.000Z</time>
      </trkpt>
      <trkpt lat="42.86802" lon="2.15401">
        <ele>398.79998779297</ele>
        <time>2014-04-06T06:51:47.000Z</time>
      </trkpt>
      <trkpt lat="42.86796" lon="2.15394">
        <ele>399.79998779297</ele>
        <time>2014-04-06T06:51:54.000Z</time>
      </trkpt>
      <trkpt lat="42.86791" lon="2.15385">
        <ele>401</ele>
        <time>2014-04-06T06:52:00.000Z</time>
      </trkpt>
      <trkpt lat="42.8679" lon="2.15378">
        <ele>402</ele>
        <time>2014-04-06T06:52:04.000Z</time>
      </trkpt>
      <trkpt lat="42.86788" lon="2.15368">
        <ele>403.60000610352</ele>
        <time>2014-04-06T06:52:10.000Z</time>
      </trkpt>
      <trkpt lat="42.86787" lon="2.15364">
        <ele>404.20001220703</ele>
        <time>2014-04-06T06:52:12.000Z</time>
      </trkpt>
      <trkpt lat="42.86784" lon="2.15355">
        <ele>405.79998779297</ele>
        <time>2014-04-06T06:52:18.000Z</time>
      </trkpt>
      <trkpt lat="42.86784" lon="2.15354">
        <ele>406</ele>
        <time>2014-04-06T06:52:19.000Z</time>
      </trkpt>
      <trkpt lat="42.86781" lon="2.15342">
        <ele>408</ele>
        <time>2014-04-06T06:52:25.000Z</time>
      </trkpt>
      <trkpt lat="42.86781" lon="2.1534">
        <ele>408.39999389648</ele>
        <time>2014-04-06T06:52:26.000Z</time>
      </trkpt>
      <trkpt lat="42.86777" lon="2.15329">
        <ele>410.60000610352</ele>
        <time>2014-04-06T06:52:33.000Z</time>
      </trkpt>
      <trkpt lat="42.86775" lon="2.15319">
        <ele>412.39999389648</ele>
        <time>2014-04-06T06:52:39.000Z</time>
      </trkpt>
      <trkpt lat="42.86774" lon="2.15317">
        <ele>413</ele>
        <time>2014-04-06T06:52:41.000Z</time>
      </trkpt>
      <trkpt lat="42.86767" lon="2.15304">
        <ele>416</ele>
        <time>2014-04-06T06:52:49.000Z</time>
      </trkpt>
      <trkpt lat="42.86764" lon="2.153">
        <ele>417.20001220703</ele>
        <time>2014-04-06T06:52:52.000Z</time>
      </trkpt>
      <trkpt lat="42.86762" lon="2.15289">
        <ele>419.60000610352</ele>
        <time>2014-04-06T06:52:58.000Z</time>
      </trkpt>
      <trkpt lat="42.86761" lon="2.15278">
        <ele>421.79998779297</ele>
        <time>2014-04-06T06:53:04.000Z</time>
      </trkpt>
      <trkpt lat="42.86759" lon="2.15274">
        <ele>422.79998779297</ele>
        <time>2014-04-06T06:53:06.000Z</time>
      </trkpt>
      <trkpt lat="42.86756" lon="2.15265">
        <ele>425</ele>
        <time>2014-04-06T06:53:11.000Z</time>
      </trkpt>
      <trkpt lat="42.86752" lon="2.15252">
        <ele>428.39999389648</ele>
        <time>2014-04-06T06:53:19.000Z</time>
      </trkpt>
      <trkpt lat="42.8675" lon="2.15241">
        <ele>430.39999389648</ele>
        <time>2014-04-06T06:53:24.000Z</time>
      </trkpt>
      <trkpt lat="42.8675" lon="2.15237">
        <ele>431.20001220703</ele>
        <time>2014-04-06T06:53:26.000Z</time>
      </trkpt>
      <trkpt lat="42.86751" lon="2.15226">
        <ele>432.79998779297</ele>
        <time>2014-04-06T06:53:32.000Z</time>
      </trkpt>
      <trkpt lat="42.86751" lon="2.15225">
        <ele>433</ele>
        <time>2014-04-06T06:53:33.000Z</time>
      </trkpt>
      <trkpt lat="42.86751" lon="2.15224">
        <ele>433.39999389648</ele>
        <time>2014-04-06T06:53:34.000Z</time>
      </trkpt>
      <trkpt lat="42.8675" lon="2.15215">
        <ele>434.79998779297</ele>
        <time>2014-04-06T06:53:39.000Z</time>
      </trkpt>
      <trkpt lat="42.86749" lon="2.15194">
        <ele>438.39999389648</ele>
        <time>2014-04-06T06:53:50.000Z</time>
      </trkpt>
      <trkpt lat="42.86749" lon="2.15183">
        <ele>440.39999389648</ele>
        <time>2014-04-06T06:53:58.000Z</time>
      </trkpt>
      <trkpt lat="42.86748" lon="2.15174">
        <ele>441.79998779297</ele>
        <time>2014-04-06T06:54:04.000Z</time>
      </trkpt>
      <trkpt lat="42.86747" lon="2.15167">
        <ele>443</ele>
        <time>2014-04-06T06:54:09.000Z</time>
      </trkpt>
      <trkpt lat="42.86744" lon="2.15158">
        <ele>444.39999389648</ele>
        <time>2014-04-06T06:54:15.000Z</time>
      </trkpt>
      <trkpt lat="42.86743" lon="2.15151">
        <ele>445.60000610352</ele>
        <time>2014-04-06T06:54:20.000Z</time>
      </trkpt>
      <trkpt lat="42.86739" lon="2.15143">
        <ele>447</ele>
        <time>2014-04-06T06:54:26.000Z</time>
      </trkpt>
      <trkpt lat="42.86736" lon="2.15132">
        <ele>448.79998779297</ele>
        <time>2014-04-06T06:54:35.000Z</time>
      </trkpt>
      <trkpt lat="42.86737" lon="2.15127">
        <ele>449.79998779297</ele>
        <time>2014-04-06T06:54:39.000Z</time>
      </trkpt>
      <trkpt lat="42.86733" lon="2.1512">
        <ele>451</ele>
        <time>2014-04-06T06:54:44.000Z</time>
      </trkpt>
      <trkpt lat="42.86731" lon="2.15117">
        <ele>451.60000610352</ele>
        <time>2014-04-06T06:54:48.000Z</time>
      </trkpt>
      <trkpt lat="42.86726" lon="2.15114">
        <ele>452.60000610352</ele>
        <time>2014-04-06T06:54:54.000Z</time>
      </trkpt>
      <trkpt lat="42.86725" lon="2.15113">
        <ele>453</ele>
        <time>2014-04-06T06:54:56.000Z</time>
      </trkpt>
      <trkpt lat="42.86719" lon="2.1511">
        <ele>454</ele>
        <time>2014-04-06T06:55:02.000Z</time>
      </trkpt>
      <trkpt lat="42.86719" lon="2.1511">
        <ele>454</ele>
        <time>2014-04-06T06:55:03.000Z</time>
      </trkpt>
      <trkpt lat="42.86714" lon="2.15109">
        <ele>454.60000610352</ele>
        <time>2014-04-06T06:55:08.000Z</time>
      </trkpt>
      <trkpt lat="42.86709" lon="2.15105">
        <ele>455.79998779297</ele>
        <time>2014-04-06T06:55:14.000Z</time>
      </trkpt>
      <trkpt lat="42.86706" lon="2.15104">
        <ele>456.20001220703</ele>
        <time>2014-04-06T06:55:16.000Z</time>
      </trkpt>
      <trkpt lat="42.86703" lon="2.15103">
        <ele>456.79998779297</ele>
        <time>2014-04-06T06:55:19.000Z</time>
      </trkpt>
      <trkpt lat="42.86699" lon="2.15099">
        <ele>458</ele>
        <time>2014-04-06T06:55:23.000Z</time>
      </trkpt>
      <trkpt lat="42.86695" lon="2.15093">
        <ele>459.79998779297</ele>
        <time>2014-04-06T06:55:29.000Z</time>
      </trkpt>
      <trkpt lat="42.86694" lon="2.15093">
        <ele>459.79998779297</ele>
        <time>2014-04-06T06:55:30.000Z</time>
      </trkpt>
      <trkpt lat="42.86691" lon="2.15087">
        <ele>461.20001220703</ele>
        <time>2014-04-06T06:55:34.000Z</time>
      </trkpt>
      <trkpt lat="42.8669" lon="2.15085">
        <ele>462</ele>
        <time>2014-04-06T06:55:36.000Z</time>
      </trkpt>
      <trkpt lat="42.86684" lon="2.15078">
        <ele>464</ele>
        <time>2014-04-06T06:55:42.000Z</time>
      </trkpt>
      <trkpt lat="42.8668" lon="2.1507">
        <ele>466.20001220703</ele>
        <time>2014-04-06T06:55:48.000Z</time>
      </trkpt>
      <trkpt lat="42.86678" lon="2.15063">
        <ele>468</ele>
        <time>2014-04-06T06:55:51.000Z</time>
      </trkpt>
      <trkpt lat="42.86677" lon="2.15058">
        <ele>469.39999389648</ele>
        <time>2014-04-06T06:55:55.000Z</time>
      </trkpt>
      <trkpt lat="42.86676" lon="2.15047">
        <ele>471.79998779297</ele>
        <time>2014-04-06T06:56:01.000Z</time>
      </trkpt>
      <trkpt lat="42.86676" lon="2.15043">
        <ele>472.60000610352</ele>
        <time>2014-04-06T06:56:03.000Z</time>
      </trkpt>
      <trkpt lat="42.86676" lon="2.15042">
        <ele>473</ele>
        <time>2014-04-06T06:56:04.000Z</time>
      </trkpt>
      <trkpt lat="42.86674" lon="2.15031">
        <ele>475.79998779297</ele>
        <time>2014-04-06T06:56:11.000Z</time>
      </trkpt>
      <trkpt lat="42.86673" lon="2.1503">
        <ele>476.20001220703</ele>
        <time>2014-04-06T06:56:12.000Z</time>
      </trkpt>
      <trkpt lat="42.86672" lon="2.15023">
        <ele>477.79998779297</ele>
        <time>2014-04-06T06:56:17.000Z</time>
      </trkpt>
      <trkpt lat="42.86671" lon="2.15015">
        <ele>479.79998779297</ele>
        <time>2014-04-06T06:56:22.000Z</time>
      </trkpt>
      <trkpt lat="42.86671" lon="2.15013">
        <ele>480.20001220703</ele>
        <time>2014-04-06T06:56:23.000Z</time>
      </trkpt>
      <trkpt lat="42.8667" lon="2.15011">
        <ele>480.79998779297</ele>
        <time>2014-04-06T06:56:25.000Z</time>
      </trkpt>
      <trkpt lat="42.86669" lon="2.15008">
        <ele>481.79998779297</ele>
        <time>2014-04-06T06:56:28.000Z</time>
      </trkpt>
      <trkpt lat="42.86669" lon="2.15005">
        <ele>482.39999389648</ele>
        <time>2014-04-06T06:56:30.000Z</time>
      </trkpt>
      <trkpt lat="42.86668" lon="2.14999">
        <ele>483.79998779297</ele>
        <time>2014-04-06T06:56:35.000Z</time>
      </trkpt>
      <trkpt lat="42.86667" lon="2.14991">
        <ele>485.39999389648</ele>
        <time>2014-04-06T06:56:41.000Z</time>
      </trkpt>
      <trkpt lat="42.86667" lon="2.14988">
        <ele>486</ele>
        <time>2014-04-06T06:56:44.000Z</time>
      </trkpt>
      <trkpt lat="42.86667" lon="2.14984">
        <ele>486.60000610352</ele>
        <time>2014-04-06T06:56:47.000Z</time>
      </trkpt>
      <trkpt lat="42.86667" lon="2.14983">
        <ele>486.79998779297</ele>
        <time>2014-04-06T06:56:49.000Z</time>
      </trkpt>
      <trkpt lat="42.86665" lon="2.14964">
        <ele>489.79998779297</ele>
        <time>2014-04-06T06:57:03.000Z</time>
      </trkpt>
      <trkpt lat="42.86665" lon="2.14953">
        <ele>491.60000610352</ele>
        <time>2014-04-06T06:57:10.000Z</time>
      </trkpt>
      <trkpt lat="42.86665" lon="2.14952">
        <ele>491.79998779297</ele>
        <time>2014-04-06T06:57:11.000Z</time>
      </trkpt>
      <trkpt lat="42.86665" lon="2.14945">
        <ele>493</ele>
        <time>2014-04-06T06:57:16.000Z</time>
      </trkpt>
      <trkpt lat="42.86665" lon="2.14932">
        <ele>495.20001220703</ele>
        <time>2014-04-06T06:57:24.000Z</time>
      </trkpt>
      <trkpt lat="42.86664" lon="2.14924">
        <ele>496.20001220703</ele>
        <time>2014-04-06T06:57:30.000Z</time>
      </trkpt>
      <trkpt lat="42.86662" lon="2.14915">
        <ele>497.39999389648</ele>
        <time>2014-04-06T06:57:36.000Z</time>
      </trkpt>
      <trkpt lat="42.86662" lon="2.14909">
        <ele>498.60000610352</ele>
        <time>2014-04-06T06:57:40.000Z</time>
      </trkpt>
      <trkpt lat="42.8666" lon="2.14899">
        <ele>500.39999389648</ele>
        <time>2014-04-06T06:57:46.000Z</time>
      </trkpt>
      <trkpt lat="42.8666" lon="2.14896">
        <ele>501</ele>
        <time>2014-04-06T06:57:49.000Z</time>
      </trkpt>
      <trkpt lat="42.86657" lon="2.14888">
        <ele>502.20001220703</ele>
        <time>2014-04-06T06:57:55.000Z</time>
      </trkpt>
      <trkpt lat="42.86656" lon="2.14882">
        <ele>503.20001220703</ele>
        <time>2014-04-06T06:57:59.000Z</time>
      </trkpt>
      <trkpt lat="42.86652" lon="2.14873">
        <ele>504.79998779297</ele>
        <time>2014-04-06T06:58:05.000Z</time>
      </trkpt>
      <trkpt lat="42.8665" lon="2.14868">
        <ele>505.60000610352</ele>
        <time>2014-04-06T06:58:10.000Z</time>
      </trkpt>
      <trkpt lat="42.86647" lon="2.14862">
        <ele>506.39999389648</ele>
        <time>2014-04-06T06:58:16.000Z</time>
      </trkpt>
      <trkpt lat="42.86644" lon="2.14858">
        <ele>507</ele>
        <time>2014-04-06T06:58:20.000Z</time>
      </trkpt>
      <trkpt lat="42.86641" lon="2.14847">
        <ele>509.20001220703</ele>
        <time>2014-04-06T06:58:28.000Z</time>
      </trkpt>
      <trkpt lat="42.86638" lon="2.14838">
        <ele>511</ele>
        <time>2014-04-06T06:58:34.000Z</time>
      </trkpt>
      <trkpt lat="42.86636" lon="2.14822">
        <ele>514.20001220703</ele>
        <time>2014-04-06T06:58:44.000Z</time>
      </trkpt>
      <trkpt lat="42.86634" lon="2.14809">
        <ele>516.59997558594</ele>
        <time>2014-04-06T06:58:51.000Z</time>
      </trkpt>
      <trkpt lat="42.86636" lon="2.14801">
        <ele>518.40002441406</ele>
        <time>2014-04-06T06:58:57.000Z</time>
      </trkpt>
      <trkpt lat="42.86634" lon="2.14792">
        <ele>520.20001220703</ele>
        <time>2014-04-06T06:59:03.000Z</time>
      </trkpt>
      <trkpt lat="42.86633" lon="2.14783">
        <ele>522</ele>
        <time>2014-04-06T06:59:08.000Z</time>
      </trkpt>
      <trkpt lat="42.86632" lon="2.14774">
        <ele>524</ele>
        <time>2014-04-06T06:59:13.000Z</time>
      </trkpt>
      <trkpt lat="42.86633" lon="2.14768">
        <ele>525.20001220703</ele>
        <time>2014-04-06T06:59:17.000Z</time>
      </trkpt>
      <trkpt lat="42.86633" lon="2.14765">
        <ele>526</ele>
        <time>2014-04-06T06:59:19.000Z</time>
      </trkpt>
      <trkpt lat="42.86635" lon="2.14758">
        <ele>527.20001220703</ele>
        <time>2014-04-06T06:59:24.000Z</time>
      </trkpt>
      <trkpt lat="42.86636" lon="2.14756">
        <ele>527.59997558594</ele>
        <time>2014-04-06T06:59:25.000Z</time>
      </trkpt>
      <trkpt lat="42.86636" lon="2.14749">
        <ele>529</ele>
        <time>2014-04-06T06:59:30.000Z</time>
      </trkpt>
      <trkpt lat="42.86636" lon="2.14748">
        <ele>529.20001220703</ele>
        <time>2014-04-06T06:59:31.000Z</time>
      </trkpt>
      <trkpt lat="42.86637" lon="2.14742">
        <ele>530.20001220703</ele>
        <time>2014-04-06T06:59:35.000Z</time>
      </trkpt>
      <trkpt lat="42.86635" lon="2.14731">
        <ele>532</ele>
        <time>2014-04-06T06:59:43.000Z</time>
      </trkpt>
      <trkpt lat="42.86634" lon="2.14723">
        <ele>533.59997558594</ele>
        <time>2014-04-06T06:59:48.000Z</time>
      </trkpt>
      <trkpt lat="42.86633" lon="2.14715">
        <ele>535</ele>
        <time>2014-04-06T06:59:53.000Z</time>
      </trkpt>
      <trkpt lat="42.86632" lon="2.14714">
        <ele>535.40002441406</ele>
        <time>2014-04-06T06:59:54.000Z</time>
      </trkpt>
      <trkpt lat="42.86631" lon="2.14703">
        <ele>537.20001220703</ele>
        <time>2014-04-06T07:00:01.000Z</time>
      </trkpt>
      <trkpt lat="42.8663" lon="2.14696">
        <ele>538.59997558594</ele>
        <time>2014-04-06T07:00:06.000Z</time>
      </trkpt>
      <trkpt lat="42.86628" lon="2.1469">
        <ele>540</ele>
        <time>2014-04-06T07:00:10.000Z</time>
      </trkpt>
      <trkpt lat="42.86626" lon="2.14683">
        <ele>541.40002441406</ele>
        <time>2014-04-06T07:00:15.000Z</time>
      </trkpt>
      <trkpt lat="42.86626" lon="2.14677">
        <ele>542.59997558594</ele>
        <time>2014-04-06T07:00:19.000Z</time>
      </trkpt>
      <trkpt lat="42.86621" lon="2.14665">
        <ele>545.40002441406</ele>
        <time>2014-04-06T07:00:28.000Z</time>
      </trkpt>
      <trkpt lat="42.86621" lon="2.14663">
        <ele>546.20001220703</ele>
        <time>2014-04-06T07:00:30.000Z</time>
      </trkpt>
      <trkpt lat="42.86623" lon="2.1465">
        <ele>549</ele>
        <time>2014-04-06T07:00:38.000Z</time>
      </trkpt>
      <trkpt lat="42.86624" lon="2.14637">
        <ele>552.40002441406</ele>
        <time>2014-04-06T07:00:46.000Z</time>
      </trkpt>
      <trkpt lat="42.86624" lon="2.14628">
        <ele>554.79998779297</ele>
        <time>2014-04-06T07:00:53.000Z</time>
      </trkpt>
      <trkpt lat="42.86625" lon="2.14613">
        <ele>558.59997558594</ele>
        <time>2014-04-06T07:00:59.000Z</time>
      </trkpt>
      <trkpt lat="42.86626" lon="2.14599">
        <ele>562.40002441406</ele>
        <time>2014-04-06T07:01:04.000Z</time>
      </trkpt>
      <trkpt lat="42.86625" lon="2.14595">
        <ele>563.40002441406</ele>
        <time>2014-04-06T07:01:05.000Z</time>
      </trkpt>
      <trkpt lat="42.86625" lon="2.14581">
        <ele>567</ele>
        <time>2014-04-06T07:01:10.000Z</time>
      </trkpt>
      <trkpt lat="42.8663" lon="2.14578">
        <ele>567.20001220703</ele>
        <time>2014-04-06T07:01:13.000Z</time>
      </trkpt>
      <trkpt lat="42.86633" lon="2.14578">
        <ele>566.40002441406</ele>
        <time>2014-04-06T07:01:15.000Z</time>
      </trkpt>
      <trkpt lat="42.86638" lon="2.14578">
        <ele>565.40002441406</ele>
        <time>2014-04-06T07:01:19.000Z</time>
      </trkpt>
      <trkpt lat="42.86648" lon="2.1458">
        <ele>563.20001220703</ele>
        <time>2014-04-06T07:01:26.000Z</time>
      </trkpt>
      <trkpt lat="42.86657" lon="2.14583">
        <ele>561</ele>
        <time>2014-04-06T07:01:33.000Z</time>
      </trkpt>
      <trkpt lat="42.86664" lon="2.14583">
        <ele>559.59997558594</ele>
        <time>2014-04-06T07:01:39.000Z</time>
      </trkpt>
      <trkpt lat="42.8667" lon="2.14582">
        <ele>558</ele>
        <time>2014-04-06T07:01:45.000Z</time>
      </trkpt>
      <trkpt lat="42.86671" lon="2.14581">
        <ele>557.59997558594</ele>
        <time>2014-04-06T07:01:46.000Z</time>
      </trkpt>
      <trkpt lat="42.86673" lon="2.14572">
        <ele>559</ele>
        <time>2014-04-06T07:01:51.000Z</time>
      </trkpt>
      <trkpt lat="42.86673" lon="2.14568">
        <ele>560.20001220703</ele>
        <time>2014-04-06T07:01:53.000Z</time>
      </trkpt>
      <trkpt lat="42.86671" lon="2.14554">
        <ele>564</ele>
        <time>2014-04-06T07:01:58.000Z</time>
      </trkpt>
      <trkpt lat="42.8667" lon="2.14551">
        <ele>565.59997558594</ele>
        <time>2014-04-06T07:01:59.000Z</time>
      </trkpt>
      <trkpt lat="42.86667" lon="2.1454">
        <ele>569.79998779297</ele>
        <time>2014-04-06T07:02:03.000Z</time>
      </trkpt>
      <trkpt lat="42.86666" lon="2.14537">
        <ele>570.59997558594</ele>
        <time>2014-04-06T07:02:04.000Z</time>
      </trkpt>
      <trkpt lat="42.86667" lon="2.14534">
        <ele>571</ele>
        <time>2014-04-06T07:02:05.000Z</time>
      </trkpt>
      <trkpt lat="42.86667" lon="2.14527">
        <ele>573</ele>
        <time>2014-04-06T07:02:08.000Z</time>
      </trkpt>
      <trkpt lat="42.86667" lon="2.14525">
        <ele>573.59997558594</ele>
        <time>2014-04-06T07:02:09.000Z</time>
      </trkpt>
      <trkpt lat="42.86667" lon="2.14523">
        <ele>574.20001220703</ele>
        <time>2014-04-06T07:02:10.000Z</time>
      </trkpt>
      <trkpt lat="42.86669" lon="2.14512">
        <ele>576</ele>
        <time>2014-04-06T07:02:14.000Z</time>
      </trkpt>
      <trkpt lat="42.86672" lon="2.14499">
        <ele>577.59997558594</ele>
        <time>2014-04-06T07:02:20.000Z</time>
      </trkpt>
      <trkpt lat="42.86673" lon="2.14497">
        <ele>577.79998779297</ele>
        <time>2014-04-06T07:02:21.000Z</time>
      </trkpt>
      <trkpt lat="42.86674" lon="2.14494">
        <ele>577.79998779297</ele>
        <time>2014-04-06T07:02:23.000Z</time>
      </trkpt>
      <trkpt lat="42.86674" lon="2.14489">
        <ele>578.79998779297</ele>
        <time>2014-04-06T07:02:26.000Z</time>
      </trkpt>
      <trkpt lat="42.86674" lon="2.14479">
        <ele>580.79998779297</ele>
        <time>2014-04-06T07:02:32.000Z</time>
      </trkpt>
      <trkpt lat="42.86674" lon="2.14478">
        <ele>581</ele>
        <time>2014-04-06T07:02:33.000Z</time>
      </trkpt>
      <trkpt lat="42.86675" lon="2.14476">
        <ele>581</ele>
        <time>2014-04-06T07:02:35.000Z</time>
      </trkpt>
      <trkpt lat="42.86675" lon="2.14471">
        <ele>581.79998779297</ele>
        <time>2014-04-06T07:02:38.000Z</time>
      </trkpt>
      <trkpt lat="42.86676" lon="2.14467">
        <ele>582.20001220703</ele>
        <time>2014-04-06T07:02:40.000Z</time>
      </trkpt>
      <trkpt lat="42.86677" lon="2.14459">
        <ele>583.20001220703</ele>
        <time>2014-04-06T07:02:44.000Z</time>
      </trkpt>
      <trkpt lat="42.86679" lon="2.1445">
        <ele>584.59997558594</ele>
        <time>2014-04-06T07:02:49.000Z</time>
      </trkpt>
      <trkpt lat="42.8668" lon="2.14447">
        <ele>584.79998779297</ele>
        <time>2014-04-06T07:02:51.000Z</time>
      </trkpt>
      <trkpt lat="42.8668" lon="2.14445">
        <ele>584.79998779297</ele>
        <time>2014-04-06T07:02:52.000Z</time>
      </trkpt>
      <trkpt lat="42.86681" lon="2.14436">
        <ele>586.20001220703</ele>
        <time>2014-04-06T07:02:59.000Z</time>
      </trkpt>
      <trkpt lat="42.86681" lon="2.14432">
        <ele>587</ele>
        <time>2014-04-06T07:03:01.000Z</time>
      </trkpt>
      <trkpt lat="42.86681" lon="2.1443">
        <ele>587.40002441406</ele>
        <time>2014-04-06T07:03:03.000Z</time>
      </trkpt>
      <trkpt lat="42.86682" lon="2.14422">
        <ele>588.59997558594</ele>
        <time>2014-04-06T07:03:08.000Z</time>
      </trkpt>
      <trkpt lat="42.86682" lon="2.14421">
        <ele>589</ele>
        <time>2014-04-06T07:03:10.000Z</time>
      </trkpt>
      <trkpt lat="42.86681" lon="2.14409">
        <ele>591.20001220703</ele>
        <time>2014-04-06T07:03:16.000Z</time>
      </trkpt>
      <trkpt lat="42.86681" lon="2.14406">
        <ele>592.20001220703</ele>
        <time>2014-04-06T07:03:19.000Z</time>
      </trkpt>
      <trkpt lat="42.8668" lon="2.14404">
        <ele>592.59997558594</ele>
        <time>2014-04-06T07:03:21.000Z</time>
      </trkpt>
      <trkpt lat="42.8668" lon="2.14395">
        <ele>594.20001220703</ele>
        <time>2014-04-06T07:03:26.000Z</time>
      </trkpt>
      <trkpt lat="42.86681" lon="2.14387">
        <ele>595</ele>
        <time>2014-04-06T07:03:31.000Z</time>
      </trkpt>
      <trkpt lat="42.8668" lon="2.14387">
        <ele>595.20001220703</ele>
        <time>2014-04-06T07:03:32.000Z</time>
      </trkpt>
      <trkpt lat="42.86681" lon="2.14386">
        <ele>595.20001220703</ele>
        <time>2014-04-06T07:03:33.000Z</time>
      </trkpt>
      <trkpt lat="42.86681" lon="2.14379">
        <ele>596.20001220703</ele>
        <time>2014-04-06T07:03:37.000Z</time>
      </trkpt>
      <trkpt lat="42.8668" lon="2.14367">
        <ele>598.20001220703</ele>
        <time>2014-04-06T07:03:45.000Z</time>
      </trkpt>
      <trkpt lat="42.86679" lon="2.14363">
        <ele>599.40002441406</ele>
        <time>2014-04-06T07:03:47.000Z</time>
      </trkpt>
      <trkpt lat="42.8668" lon="2.14354">
        <ele>600.20001220703</ele>
        <time>2014-04-06T07:03:51.000Z</time>
      </trkpt>
      <trkpt lat="42.86679" lon="2.14349">
        <ele>601.40002441406</ele>
        <time>2014-04-06T07:03:55.000Z</time>
      </trkpt>
      <trkpt lat="42.86678" lon="2.14344">
        <ele>602.79998779297</ele>
        <time>2014-04-06T07:04:00.000Z</time>
      </trkpt>
      <trkpt lat="42.86677" lon="2.14337">
        <ele>604</ele>
        <time>2014-04-06T07:04:05.000Z</time>
      </trkpt>
      <trkpt lat="42.86676" lon="2.14337">
        <ele>604.40002441406</ele>
        <time>2014-04-06T07:04:06.000Z</time>
      </trkpt>
      <trkpt lat="42.86676" lon="2.14332">
        <ele>605.20001220703</ele>
        <time>2014-04-06T07:04:10.000Z</time>
      </trkpt>
      <trkpt lat="42.86677" lon="2.14331">
        <ele>605.20001220703</ele>
        <time>2014-04-06T07:04:11.000Z</time>
      </trkpt>
      <trkpt lat="42.86677" lon="2.14324">
        <ele>606</ele>
        <time>2014-04-06T07:04:16.000Z</time>
      </trkpt>
      <trkpt lat="42.86676" lon="2.14317">
        <ele>607.59997558594</ele>
        <time>2014-04-06T07:04:21.000Z</time>
      </trkpt>
      <trkpt lat="42.86675" lon="2.14315">
        <ele>608</ele>
        <time>2014-04-06T07:04:22.000Z</time>
      </trkpt>
      <trkpt lat="42.86676" lon="2.1431">
        <ele>608.59997558594</ele>
        <time>2014-04-06T07:04:24.000Z</time>
      </trkpt>
      <trkpt lat="42.86675" lon="2.14302">
        <ele>610.20001220703</ele>
        <time>2014-04-06T07:04:27.000Z</time>
      </trkpt>
      <trkpt lat="42.86674" lon="2.14299">
        <ele>610.79998779297</ele>
        <time>2014-04-06T07:04:28.000Z</time>
      </trkpt>
      <trkpt lat="42.86673" lon="2.14291">
        <ele>612.40002441406</ele>
        <time>2014-04-06T07:04:31.000Z</time>
      </trkpt>
      <trkpt lat="42.86673" lon="2.14285">
        <ele>613.20001220703</ele>
        <time>2014-04-06T07:04:34.000Z</time>
      </trkpt>
      <trkpt lat="42.86672" lon="2.14275">
        <ele>615.20001220703</ele>
        <time>2014-04-06T07:04:38.000Z</time>
      </trkpt>
      <trkpt lat="42.86671" lon="2.14269">
        <ele>616.20001220703</ele>
        <time>2014-04-06T07:04:41.000Z</time>
      </trkpt>
      <trkpt lat="42.86669" lon="2.14261">
        <ele>617.79998779297</ele>
        <time>2014-04-06T07:04:45.000Z</time>
      </trkpt>
      <trkpt lat="42.86669" lon="2.14255">
        <ele>618.59997558594</ele>
        <time>2014-04-06T07:04:49.000Z</time>
      </trkpt>
      <trkpt lat="42.86669" lon="2.14252">
        <ele>619.20001220703</ele>
        <time>2014-04-06T07:04:51.000Z</time>
      </trkpt>
      <trkpt lat="42.86667" lon="2.14243">
        <ele>620.59997558594</ele>
        <time>2014-04-06T07:04:56.000Z</time>
      </trkpt>
      <trkpt lat="42.86665" lon="2.14236">
        <ele>622.59997558594</ele>
        <time>2014-04-06T07:05:01.000Z</time>
      </trkpt>
      <trkpt lat="42.86667" lon="2.14229">
        <ele>622.79998779297</ele>
        <time>2014-04-06T07:05:05.000Z</time>
      </trkpt>
      <trkpt lat="42.86668" lon="2.1422">
        <ele>623.59997558594</ele>
        <time>2014-04-06T07:05:09.000Z</time>
      </trkpt>
      <trkpt lat="42.86669" lon="2.14217">
        <ele>624</ele>
        <time>2014-04-06T07:05:10.000Z</time>
      </trkpt>
      <trkpt lat="42.86672" lon="2.14206">
        <ele>625</ele>
        <time>2014-04-06T07:05:14.000Z</time>
      </trkpt>
      <trkpt lat="42.86674" lon="2.14196">
        <ele>626.20001220703</ele>
        <time>2014-04-06T07:05:19.000Z</time>
      </trkpt>
      <trkpt lat="42.86677" lon="2.14183">
        <ele>627.59997558594</ele>
        <time>2014-04-06T07:05:25.000Z</time>
      </trkpt>
      <trkpt lat="42.86674" lon="2.14173">
        <ele>629.40002441406</ele>
        <time>2014-04-06T07:05:29.000Z</time>
      </trkpt>
      <trkpt lat="42.86675" lon="2.14172">
        <ele>629.59997558594</ele>
        <time>2014-04-06T07:05:30.000Z</time>
      </trkpt>
      <trkpt lat="42.86675" lon="2.14168">
        <ele>630.20001220703</ele>
        <time>2014-04-06T07:05:31.000Z</time>
      </trkpt>
      <trkpt lat="42.86677" lon="2.14162">
        <ele>632.20001220703</ele>
        <time>2014-04-06T07:05:34.000Z</time>
      </trkpt>
      <trkpt lat="42.86685" lon="2.14153">
        <ele>635</ele>
        <time>2014-04-06T07:05:41.000Z</time>
      </trkpt>
      <trkpt lat="42.86688" lon="2.14151">
        <ele>635.40002441406</ele>
        <time>2014-04-06T07:05:43.000Z</time>
      </trkpt>
      <trkpt lat="42.86693" lon="2.14147">
        <ele>636.79998779297</ele>
        <time>2014-04-06T07:05:49.000Z</time>
      </trkpt>
      <trkpt lat="42.86697" lon="2.14146">
        <ele>637</ele>
        <time>2014-04-06T07:05:52.000Z</time>
      </trkpt>
      <trkpt lat="42.86707" lon="2.14143">
        <ele>638</ele>
        <time>2014-04-06T07:06:00.000Z</time>
      </trkpt>
      <trkpt lat="42.86709" lon="2.14141">
        <ele>638.59997558594</ele>
        <time>2014-04-06T07:06:01.000Z</time>
      </trkpt>
      <trkpt lat="42.86712" lon="2.14141">
        <ele>638.59997558594</ele>
        <time>2014-04-06T07:06:05.000Z</time>
      </trkpt>
      <trkpt lat="42.86715" lon="2.1414">
        <ele>639.20001220703</ele>
        <time>2014-04-06T07:06:07.000Z</time>
      </trkpt>
      <trkpt lat="42.86719" lon="2.14138">
        <ele>639.59997558594</ele>
        <time>2014-04-06T07:06:11.000Z</time>
      </trkpt>
      <trkpt lat="42.86721" lon="2.14138">
        <ele>639.79998779297</ele>
        <time>2014-04-06T07:06:14.000Z</time>
      </trkpt>
      <trkpt lat="42.86723" lon="2.14138">
        <ele>639.79998779297</ele>
        <time>2014-04-06T07:06:17.000Z</time>
      </trkpt>
      <trkpt lat="42.8673" lon="2.1414">
        <ele>638.79998779297</ele>
        <time>2014-04-06T07:06:22.000Z</time>
      </trkpt>
      <trkpt lat="42.86731" lon="2.1414">
        <ele>638.59997558594</ele>
        <time>2014-04-06T07:06:23.000Z</time>
      </trkpt>
      <trkpt lat="42.86736" lon="2.1414">
        <ele>638.40002441406</ele>
        <time>2014-04-06T07:06:28.000Z</time>
      </trkpt>
      <trkpt lat="42.86737" lon="2.14141">
        <ele>638</ele>
        <time>2014-04-06T07:06:29.000Z</time>
      </trkpt>
      <trkpt lat="42.86741" lon="2.14142">
        <ele>637.20001220703</ele>
        <time>2014-04-06T07:06:32.000Z</time>
      </trkpt>
      <trkpt lat="42.86747" lon="2.14146">
        <ele>635.20001220703</ele>
        <time>2014-04-06T07:06:39.000Z</time>
      </trkpt>
      <trkpt lat="42.86749" lon="2.14146">
        <ele>635.20001220703</ele>
        <time>2014-04-06T07:06:40.000Z</time>
      </trkpt>
      <trkpt lat="42.86755" lon="2.14147">
        <ele>637</ele>
        <time>2014-04-06T07:06:45.000Z</time>
      </trkpt>
      <trkpt lat="42.86761" lon="2.14149">
        <ele>639</ele>
        <time>2014-04-06T07:06:52.000Z</time>
      </trkpt>
      <trkpt lat="42.86764" lon="2.14149">
        <ele>640.20001220703</ele>
        <time>2014-04-06T07:06:54.000Z</time>
      </trkpt>
      <trkpt lat="42.86768" lon="2.14148">
        <ele>642.59997558594</ele>
        <time>2014-04-06T07:06:58.000Z</time>
      </trkpt>
      <trkpt lat="42.86776" lon="2.14152">
        <ele>644.59997558594</ele>
        <time>2014-04-06T07:07:05.000Z</time>
      </trkpt>
      <trkpt lat="42.86779" lon="2.14155">
        <ele>645</ele>
        <time>2014-04-06T07:07:08.000Z</time>
      </trkpt>
      <trkpt lat="42.86785" lon="2.1416">
        <ele>645</ele>
        <time>2014-04-06T07:07:14.000Z</time>
      </trkpt>
      <trkpt lat="42.86786" lon="2.14161">
        <ele>645</ele>
        <time>2014-04-06T07:07:15.000Z</time>
      </trkpt>
      <trkpt lat="42.86792" lon="2.14167">
        <ele>645.59997558594</ele>
        <time>2014-04-06T07:07:23.000Z</time>
      </trkpt>
      <trkpt lat="42.86797" lon="2.14171">
        <ele>646.40002441406</ele>
        <time>2014-04-06T07:07:29.000Z</time>
      </trkpt>
      <trkpt lat="42.86801" lon="2.14173">
        <ele>647.79998779297</ele>
        <time>2014-04-06T07:07:34.000Z</time>
      </trkpt>
      <trkpt lat="42.86808" lon="2.14174">
        <ele>651</ele>
        <time>2014-04-06T07:07:41.000Z</time>
      </trkpt>
      <trkpt lat="42.8681" lon="2.14174">
        <ele>651.79998779297</ele>
        <time>2014-04-06T07:07:42.000Z</time>
      </trkpt>
      <trkpt lat="42.86817" lon="2.14173">
        <ele>655.59997558594</ele>
        <time>2014-04-06T07:07:48.000Z</time>
      </trkpt>
      <trkpt lat="42.86823" lon="2.14173">
        <ele>658.20001220703</ele>
        <time>2014-04-06T07:07:54.000Z</time>
      </trkpt>
      <trkpt lat="42.86827" lon="2.14173">
        <ele>660.40002441406</ele>
        <time>2014-04-06T07:07:58.000Z</time>
      </trkpt>
      <trkpt lat="42.86828" lon="2.14173">
        <ele>660.40002441406</ele>
        <time>2014-04-06T07:07:59.000Z</time>
      </trkpt>
      <trkpt lat="42.86831" lon="2.14175">
        <ele>661.79998779297</ele>
        <time>2014-04-06T07:08:04.000Z</time>
      </trkpt>
      <trkpt lat="42.86835" lon="2.14177">
        <ele>662.59997558594</ele>
        <time>2014-04-06T07:08:08.000Z</time>
      </trkpt>
      <trkpt lat="42.8684" lon="2.14179">
        <ele>664.40002441406</ele>
        <time>2014-04-06T07:08:13.000Z</time>
      </trkpt>
      <trkpt lat="42.86841" lon="2.14179">
        <ele>664.40002441406</ele>
        <time>2014-04-06T07:08:14.000Z</time>
      </trkpt>
      <trkpt lat="42.86843" lon="2.14182">
        <ele>664.59997558594</ele>
        <time>2014-04-06T07:08:16.000Z</time>
      </trkpt>
      <trkpt lat="42.86851" lon="2.14188">
        <ele>666.40002441406</ele>
        <time>2014-04-06T07:08:23.000Z</time>
      </trkpt>
      <trkpt lat="42.86853" lon="2.14189">
        <ele>666.59997558594</ele>
        <time>2014-04-06T07:08:24.000Z</time>
      </trkpt>
      <trkpt lat="42.86857" lon="2.14194">
        <ele>667</ele>
        <time>2014-04-06T07:08:30.000Z</time>
      </trkpt>
      <trkpt lat="42.86858" lon="2.14196">
        <ele>666.40002441406</ele>
        <time>2014-04-06T07:08:32.000Z</time>
      </trkpt>
      <trkpt lat="42.86861" lon="2.14201">
        <ele>666</ele>
        <time>2014-04-06T07:08:36.000Z</time>
      </trkpt>
      <trkpt lat="42.86869" lon="2.14214">
        <ele>665</ele>
        <time>2014-04-06T07:08:47.000Z</time>
      </trkpt>
      <trkpt lat="42.86874" lon="2.1422">
        <ele>665.20001220703</ele>
        <time>2014-04-06T07:08:53.000Z</time>
      </trkpt>
      <trkpt lat="42.86883" lon="2.14221">
        <ele>669.40002441406</ele>
        <time>2014-04-06T07:09:01.000Z</time>
      </trkpt>
      <trkpt lat="42.86888" lon="2.14222">
        <ele>671.59997558594</ele>
        <time>2014-04-06T07:09:06.000Z</time>
      </trkpt>
      <trkpt lat="42.8689" lon="2.14223">
        <ele>672.79998779297</ele>
        <time>2014-04-06T07:09:09.000Z</time>
      </trkpt>
      <trkpt lat="42.86898" lon="2.14224">
        <ele>676.40002441406</ele>
        <time>2014-04-06T07:09:14.000Z</time>
      </trkpt>
      <trkpt lat="42.86905" lon="2.14226">
        <ele>679</ele>
        <time>2014-04-06T07:09:19.000Z</time>
      </trkpt>
      <trkpt lat="42.86914" lon="2.14235">
        <ele>680.59997558594</ele>
        <time>2014-04-06T07:09:26.000Z</time>
      </trkpt>
      <trkpt lat="42.8692" lon="2.14244">
        <ele>679.59997558594</ele>
        <time>2014-04-06T07:09:32.000Z</time>
      </trkpt>
      <trkpt lat="42.86925" lon="2.14249">
        <ele>678.40002441406</ele>
        <time>2014-04-06T07:09:37.000Z</time>
      </trkpt>
      <trkpt lat="42.86926" lon="2.14252">
        <ele>677.79998779297</ele>
        <time>2014-04-06T07:09:39.000Z</time>
      </trkpt>
      <trkpt lat="42.86932" lon="2.14257">
        <ele>676.79998779297</ele>
        <time>2014-04-06T07:09:44.000Z</time>
      </trkpt>
      <trkpt lat="42.86934" lon="2.14258">
        <ele>676.79998779297</ele>
        <time>2014-04-06T07:09:46.000Z</time>
      </trkpt>
      <trkpt lat="42.86935" lon="2.14258">
        <ele>677</ele>
        <time>2014-04-06T07:09:47.000Z</time>
      </trkpt>
      <trkpt lat="42.86936" lon="2.14258">
        <ele>677.20001220703</ele>
        <time>2014-04-06T07:09:49.000Z</time>
      </trkpt>
      <trkpt lat="42.86941" lon="2.14262">
        <ele>676.59997558594</ele>
        <time>2014-04-06T07:09:53.000Z</time>
      </trkpt>
      <trkpt lat="42.86946" lon="2.14266">
        <ele>675.79998779297</ele>
        <time>2014-04-06T07:09:59.000Z</time>
      </trkpt>
      <trkpt lat="42.86946" lon="2.14266">
        <ele>676</ele>
        <time>2014-04-06T07:10:00.000Z</time>
      </trkpt>
      <trkpt lat="42.86952" lon="2.14269">
        <ele>675.79998779297</ele>
        <time>2014-04-06T07:10:06.000Z</time>
      </trkpt>
      <trkpt lat="42.86957" lon="2.1427">
        <ele>676</ele>
        <time>2014-04-06T07:10:12.000Z</time>
      </trkpt>
      <trkpt lat="42.86959" lon="2.14272">
        <ele>675.59997558594</ele>
        <time>2014-04-06T07:10:13.000Z</time>
      </trkpt>
      <trkpt lat="42.86965" lon="2.14277">
        <ele>675</ele>
        <time>2014-04-06T07:10:19.000Z</time>
      </trkpt>
      <trkpt lat="42.8697" lon="2.14279">
        <ele>675</ele>
        <time>2014-04-06T07:10:23.000Z</time>
      </trkpt>
      <trkpt lat="42.8698" lon="2.14279">
        <ele>676.40002441406</ele>
        <time>2014-04-06T07:10:31.000Z</time>
      </trkpt>
      <trkpt lat="42.86981" lon="2.14279">
        <ele>676.79998779297</ele>
        <time>2014-04-06T07:10:32.000Z</time>
      </trkpt>
      <trkpt lat="42.86984" lon="2.14272">
        <ele>679.59997558594</ele>
        <time>2014-04-06T07:10:39.000Z</time>
      </trkpt>
      <trkpt lat="42.86985" lon="2.14269">
        <ele>680.79998779297</ele>
        <time>2014-04-06T07:10:42.000Z</time>
      </trkpt>
      <trkpt lat="42.86985" lon="2.14267">
        <ele>681.59997558594</ele>
        <time>2014-04-06T07:10:44.000Z</time>
      </trkpt>
      <trkpt lat="42.86986" lon="2.14262">
        <ele>683.40002441406</ele>
        <time>2014-04-06T07:10:49.000Z</time>
      </trkpt>
      <trkpt lat="42.86986" lon="2.14259">
        <ele>684.79998779297</ele>
        <time>2014-04-06T07:10:53.000Z</time>
      </trkpt>
      <trkpt lat="42.86986" lon="2.14254">
        <ele>686.20001220703</ele>
        <time>2014-04-06T07:10:59.000Z</time>
      </trkpt>
      <trkpt lat="42.86987" lon="2.14247">
        <ele>688.79998779297</ele>
        <time>2014-04-06T07:11:05.000Z</time>
      </trkpt>
      <trkpt lat="42.86987" lon="2.14245">
        <ele>689.20001220703</ele>
        <time>2014-04-06T07:11:06.000Z</time>
      </trkpt>
      <trkpt lat="42.8699" lon="2.14239">
        <ele>690.79998779297</ele>
        <time>2014-04-06T07:11:10.000Z</time>
      </trkpt>
      <trkpt lat="42.8699" lon="2.14237">
        <ele>691.40002441406</ele>
        <time>2014-04-06T07:11:11.000Z</time>
      </trkpt>
      <trkpt lat="42.86992" lon="2.14235">
        <ele>692.20001220703</ele>
        <time>2014-04-06T07:11:13.000Z</time>
      </trkpt>
      <trkpt lat="42.86993" lon="2.14229">
        <ele>693.59997558594</ele>
        <time>2014-04-06T07:11:17.000Z</time>
      </trkpt>
      <trkpt lat="42.86993" lon="2.14225">
        <ele>694.59997558594</ele>
        <time>2014-04-06T07:11:21.000Z</time>
      </trkpt>
      <trkpt lat="42.86992" lon="2.14218">
        <ele>696</ele>
        <time>2014-04-06T07:11:28.000Z</time>
      </trkpt>
      <trkpt lat="42.8699" lon="2.14213">
        <ele>697</ele>
        <time>2014-04-06T07:11:33.000Z</time>
      </trkpt>
      <trkpt lat="42.86991" lon="2.14209">
        <ele>698</ele>
        <time>2014-04-06T07:11:37.000Z</time>
      </trkpt>
      <trkpt lat="42.8699" lon="2.14207">
        <ele>698.40002441406</ele>
        <time>2014-04-06T07:11:39.000Z</time>
      </trkpt>
      <trkpt lat="42.8699" lon="2.14203">
        <ele>699.40002441406</ele>
        <time>2014-04-06T07:11:42.000Z</time>
      </trkpt>
      <trkpt lat="42.86989" lon="2.14198">
        <ele>700.40002441406</ele>
        <time>2014-04-06T07:11:47.000Z</time>
      </trkpt>
      <trkpt lat="42.86988" lon="2.14194">
        <ele>701.40002441406</ele>
        <time>2014-04-06T07:11:50.000Z</time>
      </trkpt>
      <trkpt lat="42.86989" lon="2.1419">
        <ele>702.20001220703</ele>
        <time>2014-04-06T07:11:53.000Z</time>
      </trkpt>
      <trkpt lat="42.8699" lon="2.14188">
        <ele>702.79998779297</ele>
        <time>2014-04-06T07:11:56.000Z</time>
      </trkpt>
      <trkpt lat="42.86988" lon="2.14182">
        <ele>704</ele>
        <time>2014-04-06T07:12:01.000Z</time>
      </trkpt>
      <trkpt lat="42.86988" lon="2.14182">
        <ele>704.20001220703</ele>
        <time>2014-04-06T07:12:02.000Z</time>
      </trkpt>
      <trkpt lat="42.86987" lon="2.14176">
        <ele>705.59997558594</ele>
        <time>2014-04-06T07:12:06.000Z</time>
      </trkpt>
      <trkpt lat="42.86986" lon="2.14175">
        <ele>705.59997558594</ele>
        <time>2014-04-06T07:12:07.000Z</time>
      </trkpt>
      <trkpt lat="42.86986" lon="2.14175">
        <ele>705.79998779297</ele>
        <time>2014-04-06T07:12:08.000Z</time>
      </trkpt>
      <trkpt lat="42.86985" lon="2.14171">
        <ele>706.40002441406</ele>
        <time>2014-04-06T07:12:11.000Z</time>
      </trkpt>
      <trkpt lat="42.86984" lon="2.14169">
        <ele>707</ele>
        <time>2014-04-06T07:12:14.000Z</time>
      </trkpt>
      <trkpt lat="42.86985" lon="2.14164">
        <ele>708.40002441406</ele>
        <time>2014-04-06T07:12:21.000Z</time>
      </trkpt>
      <trkpt lat="42.86984" lon="2.14158">
        <ele>709.79998779297</ele>
        <time>2014-04-06T07:12:26.000Z</time>
      </trkpt>
      <trkpt lat="42.86986" lon="2.14149">
        <ele>711.79998779297</ele>
        <time>2014-04-06T07:12:31.000Z</time>
      </trkpt>
      <trkpt lat="42.86987" lon="2.14147">
        <ele>712.40002441406</ele>
        <time>2014-04-06T07:12:33.000Z</time>
      </trkpt>
      <trkpt lat="42.86989" lon="2.14141">
        <ele>713.79998779297</ele>
        <time>2014-04-06T07:12:37.000Z</time>
      </trkpt>
      <trkpt lat="42.8699" lon="2.1414">
        <ele>714.20001220703</ele>
        <time>2014-04-06T07:12:39.000Z</time>
      </trkpt>
      <trkpt lat="42.86997" lon="2.14124">
        <ele>717.79998779297</ele>
        <time>2014-04-06T07:12:48.000Z</time>
      </trkpt>
      <trkpt lat="42.87" lon="2.14115">
        <ele>719.79998779297</ele>
        <time>2014-04-06T07:12:56.000Z</time>
      </trkpt>
      <trkpt lat="42.87001" lon="2.14114">
        <ele>720</ele>
        <time>2014-04-06T07:12:57.000Z</time>
      </trkpt>
      <trkpt lat="42.87005" lon="2.14104">
        <ele>722</ele>
        <time>2014-04-06T07:13:03.000Z</time>
      </trkpt>
      <trkpt lat="42.8701" lon="2.14088">
        <ele>725.59997558594</ele>
        <time>2014-04-06T07:13:11.000Z</time>
      </trkpt>
      <trkpt lat="42.8701" lon="2.14086">
        <ele>726</ele>
        <time>2014-04-06T07:13:12.000Z</time>
      </trkpt>
      <trkpt lat="42.87009" lon="2.1408">
        <ele>727</ele>
        <time>2014-04-06T07:13:16.000Z</time>
      </trkpt>
      <trkpt lat="42.87006" lon="2.14072">
        <ele>728.20001220703</ele>
        <time>2014-04-06T07:13:21.000Z</time>
      </trkpt>
      <trkpt lat="42.87006" lon="2.1407">
        <ele>728.40002441406</ele>
        <time>2014-04-06T07:13:22.000Z</time>
      </trkpt>
      <trkpt lat="42.87005" lon="2.14064">
        <ele>729.40002441406</ele>
        <time>2014-04-06T07:13:27.000Z</time>
      </trkpt>
      <trkpt lat="42.87004" lon="2.14062">
        <ele>729.59997558594</ele>
        <time>2014-04-06T07:13:28.000Z</time>
      </trkpt>
      <trkpt lat="42.87003" lon="2.14059">
        <ele>730.20001220703</ele>
        <time>2014-04-06T07:13:31.000Z</time>
      </trkpt>
      <trkpt lat="42.87001" lon="2.14057">
        <ele>730.40002441406</ele>
        <time>2014-04-06T07:13:33.000Z</time>
      </trkpt>
      <trkpt lat="42.86997" lon="2.14052">
        <ele>731.20001220703</ele>
        <time>2014-04-06T07:13:37.000Z</time>
      </trkpt>
      <trkpt lat="42.86997" lon="2.14051">
        <ele>731.59997558594</ele>
        <time>2014-04-06T07:13:38.000Z</time>
      </trkpt>
      <trkpt lat="42.86993" lon="2.14038">
        <ele>733.59997558594</ele>
        <time>2014-04-06T07:13:42.000Z</time>
      </trkpt>
      <trkpt lat="42.86973" lon="2.1399">
        <ele>741.79998779297</ele>
        <time>2014-04-06T07:14:01.000Z</time>
      </trkpt>
      <trkpt lat="42.86969" lon="2.1398">
        <ele>743.20001220703</ele>
        <time>2014-04-06T07:14:05.000Z</time>
      </trkpt>
      <trkpt lat="42.86967" lon="2.13968">
        <ele>744.20001220703</ele>
        <time>2014-04-06T07:14:09.000Z</time>
      </trkpt>
      <trkpt lat="42.86962" lon="2.13958">
        <ele>745.40002441406</ele>
        <time>2014-04-06T07:14:12.000Z</time>
      </trkpt>
      <trkpt lat="42.86956" lon="2.13943">
        <ele>747.40002441406</ele>
        <time>2014-04-06T07:14:17.000Z</time>
      </trkpt>
      <trkpt lat="42.86949" lon="2.13929">
        <ele>749.20001220703</ele>
        <time>2014-04-06T07:14:22.000Z</time>
      </trkpt>
      <trkpt lat="42.86944" lon="2.13917">
        <ele>750.59997558594</ele>
        <time>2014-04-06T07:14:27.000Z</time>
      </trkpt>
      <trkpt lat="42.86935" lon="2.13895">
        <ele>751.59997558594</ele>
        <time>2014-04-06T07:14:34.000Z</time>
      </trkpt>
      <trkpt lat="42.86926" lon="2.13877">
        <ele>752</ele>
        <time>2014-04-06T07:14:41.000Z</time>
      </trkpt>
      <trkpt lat="42.86918" lon="2.13859">
        <ele>751.79998779297</ele>
        <time>2014-04-06T07:14:48.000Z</time>
      </trkpt>
      <trkpt lat="42.86911" lon="2.13844">
        <ele>752.79998779297</ele>
        <time>2014-04-06T07:14:54.000Z</time>
      </trkpt>
      <trkpt lat="42.86906" lon="2.13831">
        <ele>754</ele>
        <time>2014-04-06T07:14:59.000Z</time>
      </trkpt>
      <trkpt lat="42.86902" lon="2.13821">
        <ele>755</ele>
        <time>2014-04-06T07:15:03.000Z</time>
      </trkpt>
      <trkpt lat="42.86901" lon="2.13815">
        <ele>755.40002441406</ele>
        <time>2014-04-06T07:15:05.000Z</time>
      </trkpt>
      <trkpt lat="42.86898" lon="2.13801">
        <ele>756.20001220703</ele>
        <time>2014-04-06T07:15:10.000Z</time>
      </trkpt>
      <trkpt lat="42.86897" lon="2.13787">
        <ele>756.79998779297</ele>
        <time>2014-04-06T07:15:14.000Z</time>
      </trkpt>
      <trkpt lat="42.86893" lon="2.13769">
        <ele>757.79998779297</ele>
        <time>2014-04-06T07:15:19.000Z</time>
      </trkpt>
      <trkpt lat="42.86889" lon="2.1375">
        <ele>759.20001220703</ele>
        <time>2014-04-06T07:15:25.000Z</time>
      </trkpt>
      <trkpt lat="42.86885" lon="2.13735">
        <ele>761.20001220703</ele>
        <time>2014-04-06T07:15:30.000Z</time>
      </trkpt>
      <trkpt lat="42.86883" lon="2.13719">
        <ele>762.59997558594</ele>
        <time>2014-04-06T07:15:35.000Z</time>
      </trkpt>
      <trkpt lat="42.8688" lon="2.13706">
        <ele>764</ele>
        <time>2014-04-06T07:15:39.000Z</time>
      </trkpt>
      <trkpt lat="42.86875" lon="2.13689">
        <ele>765.79998779297</ele>
        <time>2014-04-06T07:15:45.000Z</time>
      </trkpt>
      <trkpt lat="42.86871" lon="2.13672">
        <ele>767.40002441406</ele>
        <time>2014-04-06T07:15:50.000Z</time>
      </trkpt>
      <trkpt lat="42.86863" lon="2.13648">
        <ele>770</ele>
        <time>2014-04-06T07:15:58.000Z</time>
      </trkpt>
      <trkpt lat="42.86862" lon="2.13646">
        <ele>770.20001220703</ele>
        <time>2014-04-06T07:15:59.000Z</time>
      </trkpt>
      <trkpt lat="42.86857" lon="2.1364">
        <ele>771.20001220703</ele>
        <time>2014-04-06T07:16:04.000Z</time>
      </trkpt>
      <trkpt lat="42.86855" lon="2.13636">
        <ele>771.79998779297</ele>
        <time>2014-04-06T07:16:08.000Z</time>
      </trkpt>
      <trkpt lat="42.8685" lon="2.13631">
        <ele>772.59997558594</ele>
        <time>2014-04-06T07:16:14.000Z</time>
      </trkpt>
      <trkpt lat="42.86847" lon="2.13626">
        <ele>773.20001220703</ele>
        <time>2014-04-06T07:16:19.000Z</time>
      </trkpt>
      <trkpt lat="42.86846" lon="2.13625">
        <ele>773.20001220703</ele>
        <time>2014-04-06T07:16:20.000Z</time>
      </trkpt>
      <trkpt lat="42.86846" lon="2.13625">
        <ele>773.40002441406</ele>
        <time>2014-04-06T07:16:21.000Z</time>
      </trkpt>
      <trkpt lat="42.86843" lon="2.1362">
        <ele>773.79998779297</ele>
        <time>2014-04-06T07:16:26.000Z</time>
      </trkpt>
      <trkpt lat="42.86836" lon="2.13612">
        <ele>774.59997558594</ele>
        <time>2014-04-06T07:16:33.000Z</time>
      </trkpt>
      <trkpt lat="42.86834" lon="2.13609">
        <ele>774.79998779297</ele>
        <time>2014-04-06T07:16:35.000Z</time>
      </trkpt>
      <trkpt lat="42.8683" lon="2.13594">
        <ele>775.79998779297</ele>
        <time>2014-04-06T07:16:40.000Z</time>
      </trkpt>
      <trkpt lat="42.86828" lon="2.1358">
        <ele>776.40002441406</ele>
        <time>2014-04-06T07:16:44.000Z</time>
      </trkpt>
      <trkpt lat="42.86822" lon="2.13563">
        <ele>779</ele>
        <time>2014-04-06T07:16:49.000Z</time>
      </trkpt>
      <trkpt lat="42.86821" lon="2.13557">
        <ele>779.59997558594</ele>
        <time>2014-04-06T07:16:51.000Z</time>
      </trkpt>
      <trkpt lat="42.8682" lon="2.13552">
        <ele>780</ele>
        <time>2014-04-06T07:16:53.000Z</time>
      </trkpt>
      <trkpt lat="42.86814" lon="2.13538">
        <ele>782.59997558594</ele>
        <time>2014-04-06T07:16:58.000Z</time>
      </trkpt>
      <trkpt lat="42.86811" lon="2.13516">
        <ele>784</ele>
        <time>2014-04-06T07:17:06.000Z</time>
      </trkpt>
      <trkpt lat="42.86807" lon="2.135">
        <ele>785.59997558594</ele>
        <time>2014-04-06T07:17:12.000Z</time>
      </trkpt>
      <trkpt lat="42.86807" lon="2.13497">
        <ele>785.79998779297</ele>
        <time>2014-04-06T07:17:13.000Z</time>
      </trkpt>
      <trkpt lat="42.86804" lon="2.13484">
        <ele>787.40002441406</ele>
        <time>2014-04-06T07:17:18.000Z</time>
      </trkpt>
      <trkpt lat="42.86801" lon="2.13471">
        <ele>789.40002441406</ele>
        <time>2014-04-06T07:17:23.000Z</time>
      </trkpt>
      <trkpt lat="42.86798" lon="2.13461">
        <ele>791</ele>
        <time>2014-04-06T07:17:27.000Z</time>
      </trkpt>
      <trkpt lat="42.86794" lon="2.13451">
        <ele>792.59997558594</ele>
        <time>2014-04-06T07:17:32.000Z</time>
      </trkpt>
      <trkpt lat="42.86791" lon="2.13439">
        <ele>794.59997558594</ele>
        <time>2014-04-06T07:17:37.000Z</time>
      </trkpt>
      <trkpt lat="42.86789" lon="2.13434">
        <ele>795.40002441406</ele>
        <time>2014-04-06T07:17:39.000Z</time>
      </trkpt>
      <trkpt lat="42.86783" lon="2.1342">
        <ele>798.40002441406</ele>
        <time>2014-04-06T07:17:45.000Z</time>
      </trkpt>
      <trkpt lat="42.86781" lon="2.13419">
        <ele>799.40002441406</ele>
        <time>2014-04-06T07:17:47.000Z</time>
      </trkpt>
      <trkpt lat="42.86779" lon="2.13409">
        <ele>800.20001220703</ele>
        <time>2014-04-06T07:17:53.000Z</time>
      </trkpt>
      <trkpt lat="42.86779" lon="2.13408">
        <ele>800.20001220703</ele>
        <time>2014-04-06T07:17:54.000Z</time>
      </trkpt>
      <trkpt lat="42.86779" lon="2.13403">
        <ele>799.79998779297</ele>
        <time>2014-04-06T07:17:55.000Z</time>
      </trkpt>
      <trkpt lat="42.86779" lon="2.134">
        <ele>800.20001220703</ele>
        <time>2014-04-06T07:17:57.000Z</time>
      </trkpt>
      <trkpt lat="42.86778" lon="2.134">
        <ele>800.20001220703</ele>
        <time>2014-04-06T07:17:58.000Z</time>
      </trkpt>
      <trkpt lat="42.86778" lon="2.13396">
        <ele>800.20001220703</ele>
        <time>2014-04-06T07:18:00.000Z</time>
      </trkpt>
      <trkpt lat="42.86777" lon="2.13388">
        <ele>800.59997558594</ele>
        <time>2014-04-06T07:18:05.000Z</time>
      </trkpt>
      <trkpt lat="42.86776" lon="2.13385">
        <ele>800.79998779297</ele>
        <time>2014-04-06T07:18:07.000Z</time>
      </trkpt>
      <trkpt lat="42.86775" lon="2.13379">
        <ele>801.20001220703</ele>
        <time>2014-04-06T07:18:11.000Z</time>
      </trkpt>
      <trkpt lat="42.86771" lon="2.13366">
        <ele>802</ele>
        <time>2014-04-06T07:18:19.000Z</time>
      </trkpt>
      <trkpt lat="42.86769" lon="2.13363">
        <ele>802.40002441406</ele>
        <time>2014-04-06T07:18:21.000Z</time>
      </trkpt>
      <trkpt lat="42.86765" lon="2.13357">
        <ele>803.40002441406</ele>
        <time>2014-04-06T07:18:27.000Z</time>
      </trkpt>
      <trkpt lat="42.86763" lon="2.13353">
        <ele>803.79998779297</ele>
        <time>2014-04-06T07:18:30.000Z</time>
      </trkpt>
      <trkpt lat="42.8676" lon="2.13347">
        <ele>804.40002441406</ele>
        <time>2014-04-06T07:18:35.000Z</time>
      </trkpt>
      <trkpt lat="42.86759" lon="2.13345">
        <ele>804.59997558594</ele>
        <time>2014-04-06T07:18:37.000Z</time>
      </trkpt>
      <trkpt lat="42.86758" lon="2.13341">
        <ele>804.59997558594</ele>
        <time>2014-04-06T07:18:39.000Z</time>
      </trkpt>
      <trkpt lat="42.86758" lon="2.13338">
        <ele>804.40002441406</ele>
        <time>2014-04-06T07:18:42.000Z</time>
      </trkpt>
      <trkpt lat="42.86757" lon="2.13334">
        <ele>804.40002441406</ele>
        <time>2014-04-06T07:18:44.000Z</time>
      </trkpt>
      <trkpt lat="42.86751" lon="2.13325">
        <ele>805.40002441406</ele>
        <time>2014-04-06T07:18:51.000Z</time>
      </trkpt>
      <trkpt lat="42.8675" lon="2.13322">
        <ele>805.59997558594</ele>
        <time>2014-04-06T07:18:53.000Z</time>
      </trkpt>
      <trkpt lat="42.86748" lon="2.13316">
        <ele>806.40002441406</ele>
        <time>2014-04-06T07:18:56.000Z</time>
      </trkpt>
      <trkpt lat="42.86746" lon="2.13314">
        <ele>806.79998779297</ele>
        <time>2014-04-06T07:18:58.000Z</time>
      </trkpt>
      <trkpt lat="42.86743" lon="2.13302">
        <ele>807.79998779297</ele>
        <time>2014-04-06T07:19:05.000Z</time>
      </trkpt>
      <trkpt lat="42.86741" lon="2.13294">
        <ele>808.59997558594</ele>
        <time>2014-04-06T07:19:10.000Z</time>
      </trkpt>
      <trkpt lat="42.86738" lon="2.13286">
        <ele>809.59997558594</ele>
        <time>2014-04-06T07:19:15.000Z</time>
      </trkpt>
      <trkpt lat="42.86737" lon="2.13285">
        <ele>809.79998779297</ele>
        <time>2014-04-06T07:19:16.000Z</time>
      </trkpt>
      <trkpt lat="42.86735" lon="2.13281">
        <ele>810.40002441406</ele>
        <time>2014-04-06T07:19:18.000Z</time>
      </trkpt>
      <trkpt lat="42.86731" lon="2.13274">
        <ele>811.79998779297</ele>
        <time>2014-04-06T07:19:23.000Z</time>
      </trkpt>
      <trkpt lat="42.86729" lon="2.1327">
        <ele>812.59997558594</ele>
        <time>2014-04-06T07:19:26.000Z</time>
      </trkpt>
      <trkpt lat="42.86728" lon="2.13269">
        <ele>812.79998779297</ele>
        <time>2014-04-06T07:19:28.000Z</time>
      </trkpt>
      <trkpt lat="42.86728" lon="2.13267">
        <ele>813</ele>
        <time>2014-04-06T07:19:29.000Z</time>
      </trkpt>
      <trkpt lat="42.86723" lon="2.1326">
        <ele>814.59997558594</ele>
        <time>2014-04-06T07:19:35.000Z</time>
      </trkpt>
      <trkpt lat="42.86722" lon="2.13259">
        <ele>815.20001220703</ele>
        <time>2014-04-06T07:19:36.000Z</time>
      </trkpt>
      <trkpt lat="42.8672" lon="2.13257">
        <ele>816</ele>
        <time>2014-04-06T07:19:38.000Z</time>
      </trkpt>
      <trkpt lat="42.86719" lon="2.13246">
        <ele>815.79998779297</ele>
        <time>2014-04-06T07:19:45.000Z</time>
      </trkpt>
      <trkpt lat="42.86716" lon="2.13242">
        <ele>816.79998779297</ele>
        <time>2014-04-06T07:19:49.000Z</time>
      </trkpt>
      <trkpt lat="42.86714" lon="2.13234">
        <ele>817.79998779297</ele>
        <time>2014-04-06T07:19:54.000Z</time>
      </trkpt>
      <trkpt lat="42.86713" lon="2.13228">
        <ele>818.20001220703</ele>
        <time>2014-04-06T07:19:57.000Z</time>
      </trkpt>
      <trkpt lat="42.86709" lon="2.13224">
        <ele>819.79998779297</ele>
        <time>2014-04-06T07:20:01.000Z</time>
      </trkpt>
      <trkpt lat="42.86706" lon="2.13221">
        <ele>820.79998779297</ele>
        <time>2014-04-06T07:20:04.000Z</time>
      </trkpt>
      <trkpt lat="42.86706" lon="2.13218">
        <ele>820.79998779297</ele>
        <time>2014-04-06T07:20:06.000Z</time>
      </trkpt>
      <trkpt lat="42.86704" lon="2.1321">
        <ele>821.59997558594</ele>
        <time>2014-04-06T07:20:12.000Z</time>
      </trkpt>
      <trkpt lat="42.86703" lon="2.13209">
        <ele>821.79998779297</ele>
        <time>2014-04-06T07:20:13.000Z</time>
      </trkpt>
      <trkpt lat="42.867" lon="2.13203">
        <ele>822.79998779297</ele>
        <time>2014-04-06T07:20:17.000Z</time>
      </trkpt>
      <trkpt lat="42.86697" lon="2.13197">
        <ele>823.59997558594</ele>
        <time>2014-04-06T07:20:22.000Z</time>
      </trkpt>
      <trkpt lat="42.86695" lon="2.1319">
        <ele>824</ele>
        <time>2014-04-06T07:20:27.000Z</time>
      </trkpt>
      <trkpt lat="42.86692" lon="2.13185">
        <ele>824.79998779297</ele>
        <time>2014-04-06T07:20:31.000Z</time>
      </trkpt>
      <trkpt lat="42.86688" lon="2.13178">
        <ele>825.59997558594</ele>
        <time>2014-04-06T07:20:36.000Z</time>
      </trkpt>
      <trkpt lat="42.86685" lon="2.13165">
        <ele>825.59997558594</ele>
        <time>2014-04-06T07:20:42.000Z</time>
      </trkpt>
      <trkpt lat="42.86684" lon="2.13162">
        <ele>826</ele>
        <time>2014-04-06T07:20:43.000Z</time>
      </trkpt>
      <trkpt lat="42.86683" lon="2.13158">
        <ele>826.40002441406</ele>
        <time>2014-04-06T07:20:47.000Z</time>
      </trkpt>
      <trkpt lat="42.86684" lon="2.13156">
        <ele>826.40002441406</ele>
        <time>2014-04-06T07:20:48.000Z</time>
      </trkpt>
      <trkpt lat="42.86682" lon="2.13143">
        <ele>826.79998779297</ele>
        <time>2014-04-06T07:20:54.000Z</time>
      </trkpt>
      <trkpt lat="42.8668" lon="2.13134">
        <ele>827.40002441406</ele>
        <time>2014-04-06T07:20:58.000Z</time>
      </trkpt>
      <trkpt lat="42.86678" lon="2.13124">
        <ele>828</ele>
        <time>2014-04-06T07:21:02.000Z</time>
      </trkpt>
      <trkpt lat="42.86678" lon="2.13121">
        <ele>828</ele>
        <time>2014-04-06T07:21:03.000Z</time>
      </trkpt>
      <trkpt lat="42.86674" lon="2.1311">
        <ele>828.79998779297</ele>
        <time>2014-04-06T07:21:07.000Z</time>
      </trkpt>
      <trkpt lat="42.86672" lon="2.13104">
        <ele>829.40002441406</ele>
        <time>2014-04-06T07:21:10.000Z</time>
      </trkpt>
      <trkpt lat="42.8667" lon="2.13098">
        <ele>829.59997558594</ele>
        <time>2014-04-06T07:21:13.000Z</time>
      </trkpt>
      <trkpt lat="42.86669" lon="2.13093">
        <ele>829.79998779297</ele>
        <time>2014-04-06T07:21:15.000Z</time>
      </trkpt>
      <trkpt lat="42.86667" lon="2.13087">
        <ele>830.20001220703</ele>
        <time>2014-04-06T07:21:17.000Z</time>
      </trkpt>
      <trkpt lat="42.86662" lon="2.13076">
        <ele>832.40002441406</ele>
        <time>2014-04-06T07:21:22.000Z</time>
      </trkpt>
      <trkpt lat="42.86657" lon="2.13068">
        <ele>834.59997558594</ele>
        <time>2014-04-06T07:21:26.000Z</time>
      </trkpt>
      <trkpt lat="42.86654" lon="2.13061">
        <ele>836.20001220703</ele>
        <time>2014-04-06T07:21:30.000Z</time>
      </trkpt>
      <trkpt lat="42.86654" lon="2.1306">
        <ele>836.40002441406</ele>
        <time>2014-04-06T07:21:31.000Z</time>
      </trkpt>
      <trkpt lat="42.86652" lon="2.13054">
        <ele>837.20001220703</ele>
        <time>2014-04-06T07:21:34.000Z</time>
      </trkpt>
      <trkpt lat="42.86647" lon="2.13043">
        <ele>839.40002441406</ele>
        <time>2014-04-06T07:21:40.000Z</time>
      </trkpt>
      <trkpt lat="42.86643" lon="2.13037">
        <ele>840.79998779297</ele>
        <time>2014-04-06T07:21:43.000Z</time>
      </trkpt>
      <trkpt lat="42.8664" lon="2.13027">
        <ele>842.40002441406</ele>
        <time>2014-04-06T07:21:47.000Z</time>
      </trkpt>
      <trkpt lat="42.86633" lon="2.13015">
        <ele>844.79998779297</ele>
        <time>2014-04-06T07:21:54.000Z</time>
      </trkpt>
      <trkpt lat="42.86628" lon="2.13007">
        <ele>846.59997558594</ele>
        <time>2014-04-06T07:21:58.000Z</time>
      </trkpt>
      <trkpt lat="42.86623" lon="2.12998">
        <ele>848.20001220703</ele>
        <time>2014-04-06T07:22:02.000Z</time>
      </trkpt>
      <trkpt lat="42.86621" lon="2.12995">
        <ele>848.79998779297</ele>
        <time>2014-04-06T07:22:04.000Z</time>
      </trkpt>
      <trkpt lat="42.86617" lon="2.12984">
        <ele>850</ele>
        <time>2014-04-06T07:22:10.000Z</time>
      </trkpt>
      <trkpt lat="42.86615" lon="2.12982">
        <ele>850.40002441406</ele>
        <time>2014-04-06T07:22:11.000Z</time>
      </trkpt>
      <trkpt lat="42.86614" lon="2.1298">
        <ele>850.79998779297</ele>
        <time>2014-04-06T07:22:12.000Z</time>
      </trkpt>
      <trkpt lat="42.86613" lon="2.12976">
        <ele>851.20001220703</ele>
        <time>2014-04-06T07:22:15.000Z</time>
      </trkpt>
      <trkpt lat="42.8661" lon="2.1297">
        <ele>851.79998779297</ele>
        <time>2014-04-06T07:22:18.000Z</time>
      </trkpt>
      <trkpt lat="42.86608" lon="2.12968">
        <ele>852.40002441406</ele>
        <time>2014-04-06T07:22:20.000Z</time>
      </trkpt>
      <trkpt lat="42.86601" lon="2.12958">
        <ele>854</ele>
        <time>2014-04-06T07:22:25.000Z</time>
      </trkpt>
      <trkpt lat="42.866" lon="2.12958">
        <ele>854.20001220703</ele>
        <time>2014-04-06T07:22:26.000Z</time>
      </trkpt>
      <trkpt lat="42.866" lon="2.12956">
        <ele>854.20001220703</ele>
        <time>2014-04-06T07:22:27.000Z</time>
      </trkpt>
      <trkpt lat="42.86594" lon="2.12947">
        <ele>855.40002441406</ele>
        <time>2014-04-06T07:22:33.000Z</time>
      </trkpt>
      <trkpt lat="42.86593" lon="2.12945">
        <ele>855.40002441406</ele>
        <time>2014-04-06T07:22:34.000Z</time>
      </trkpt>
      <trkpt lat="42.86591" lon="2.12939">
        <ele>855.40002441406</ele>
        <time>2014-04-06T07:22:37.000Z</time>
      </trkpt>
      <trkpt lat="42.8659" lon="2.12936">
        <ele>855.40002441406</ele>
        <time>2014-04-06T07:22:39.000Z</time>
      </trkpt>
      <trkpt lat="42.86586" lon="2.12928">
        <ele>855.59997558594</ele>
        <time>2014-04-06T07:22:44.000Z</time>
      </trkpt>
      <trkpt lat="42.86583" lon="2.12922">
        <ele>855.59997558594</ele>
        <time>2014-04-06T07:22:48.000Z</time>
      </trkpt>
      <trkpt lat="42.86582" lon="2.12919">
        <ele>855.79998779297</ele>
        <time>2014-04-06T07:22:50.000Z</time>
      </trkpt>
      <trkpt lat="42.86576" lon="2.12912">
        <ele>857.20001220703</ele>
        <time>2014-04-06T07:22:55.000Z</time>
      </trkpt>
      <trkpt lat="42.86575" lon="2.12908">
        <ele>857.40002441406</ele>
        <time>2014-04-06T07:22:57.000Z</time>
      </trkpt>
      <trkpt lat="42.86572" lon="2.12904">
        <ele>858</ele>
        <time>2014-04-06T07:23:01.000Z</time>
      </trkpt>
      <trkpt lat="42.8657" lon="2.12902">
        <ele>858.20001220703</ele>
        <time>2014-04-06T07:23:03.000Z</time>
      </trkpt>
      <trkpt lat="42.86565" lon="2.12896">
        <ele>859.20001220703</ele>
        <time>2014-04-06T07:23:09.000Z</time>
      </trkpt>
      <trkpt lat="42.8656" lon="2.12889">
        <ele>860</ele>
        <time>2014-04-06T07:23:15.000Z</time>
      </trkpt>
      <trkpt lat="42.86557" lon="2.12886">
        <ele>860.59997558594</ele>
        <time>2014-04-06T07:23:18.000Z</time>
      </trkpt>
      <trkpt lat="42.8655" lon="2.12878">
        <ele>861.59997558594</ele>
        <time>2014-04-06T07:23:24.000Z</time>
      </trkpt>
      <trkpt lat="42.86548" lon="2.12877">
        <ele>861.79998779297</ele>
        <time>2014-04-06T07:23:25.000Z</time>
      </trkpt>
      <trkpt lat="42.86548" lon="2.12876">
        <ele>861.79998779297</ele>
        <time>2014-04-06T07:23:26.000Z</time>
      </trkpt>
      <trkpt lat="42.86541" lon="2.12869">
        <ele>862.79998779297</ele>
        <time>2014-04-06T07:23:31.000Z</time>
      </trkpt>
      <trkpt lat="42.8654" lon="2.12869">
        <ele>863</ele>
        <time>2014-04-06T07:23:32.000Z</time>
      </trkpt>
      <trkpt lat="42.86531" lon="2.12862">
        <ele>864.20001220703</ele>
        <time>2014-04-06T07:23:37.000Z</time>
      </trkpt>
      <trkpt lat="42.86526" lon="2.12859">
        <ele>864.59997558594</ele>
        <time>2014-04-06T07:23:40.000Z</time>
      </trkpt>
      <trkpt lat="42.86519" lon="2.12849">
        <ele>864.59997558594</ele>
        <time>2014-04-06T07:23:46.000Z</time>
      </trkpt>
      <trkpt lat="42.86517" lon="2.12847">
        <ele>864.59997558594</ele>
        <time>2014-04-06T07:23:47.000Z</time>
      </trkpt>
      <trkpt lat="42.86508" lon="2.12838">
        <ele>864.40002441406</ele>
        <time>2014-04-06T07:23:52.000Z</time>
      </trkpt>
      <trkpt lat="42.86502" lon="2.12832">
        <ele>864.40002441406</ele>
        <time>2014-04-06T07:23:55.000Z</time>
      </trkpt>
      <trkpt lat="42.86501" lon="2.12831">
        <ele>864.59997558594</ele>
        <time>2014-04-06T07:23:56.000Z</time>
      </trkpt>
      <trkpt lat="42.86495" lon="2.12829">
        <ele>865.59997558594</ele>
        <time>2014-04-06T07:24:02.000Z</time>
      </trkpt>
      <trkpt lat="42.86494" lon="2.12829">
        <ele>865.79998779297</ele>
        <time>2014-04-06T07:24:03.000Z</time>
      </trkpt>
      <trkpt lat="42.86492" lon="2.12828">
        <ele>866</ele>
        <time>2014-04-06T07:24:05.000Z</time>
      </trkpt>
      <trkpt lat="42.8649" lon="2.12826">
        <ele>866.40002441406</ele>
        <time>2014-04-06T07:24:09.000Z</time>
      </trkpt>
      <trkpt lat="42.86485" lon="2.12823">
        <ele>867</ele>
        <time>2014-04-06T07:24:13.000Z</time>
      </trkpt>
      <trkpt lat="42.86479" lon="2.12822">
        <ele>867.79998779297</ele>
        <time>2014-04-06T07:24:18.000Z</time>
      </trkpt>
      <trkpt lat="42.8647" lon="2.12817">
        <ele>868.79998779297</ele>
        <time>2014-04-06T07:24:25.000Z</time>
      </trkpt>
      <trkpt lat="42.86469" lon="2.12816">
        <ele>869</ele>
        <time>2014-04-06T07:24:26.000Z</time>
      </trkpt>
      <trkpt lat="42.86463" lon="2.12807">
        <ele>868.40002441406</ele>
        <time>2014-04-06T07:24:30.000Z</time>
      </trkpt>
      <trkpt lat="42.8646" lon="2.12806">
        <ele>868.59997558594</ele>
        <time>2014-04-06T07:24:31.000Z</time>
      </trkpt>
      <trkpt lat="42.86447" lon="2.12801">
        <ele>869.79998779297</ele>
        <time>2014-04-06T07:24:37.000Z</time>
      </trkpt>
      <trkpt lat="42.86435" lon="2.12792">
        <ele>869.20001220703</ele>
        <time>2014-04-06T07:24:43.000Z</time>
      </trkpt>
      <trkpt lat="42.86434" lon="2.12791">
        <ele>869.20001220703</ele>
        <time>2014-04-06T07:24:44.000Z</time>
      </trkpt>
      <trkpt lat="42.86425" lon="2.12787">
        <ele>869.20001220703</ele>
        <time>2014-04-06T07:24:50.000Z</time>
      </trkpt>
      <trkpt lat="42.86422" lon="2.12784">
        <ele>868.79998779297</ele>
        <time>2014-04-06T07:24:51.000Z</time>
      </trkpt>
      <trkpt lat="42.86418" lon="2.12782">
        <ele>868.79998779297</ele>
        <time>2014-04-06T07:24:53.000Z</time>
      </trkpt>
      <trkpt lat="42.86415" lon="2.12784">
        <ele>869.40002441406</ele>
        <time>2014-04-06T07:24:57.000Z</time>
      </trkpt>
      <trkpt lat="42.86412" lon="2.12784">
        <ele>870</ele>
        <time>2014-04-06T07:25:01.000Z</time>
      </trkpt>
      <trkpt lat="42.86411" lon="2.12785">
        <ele>870</ele>
        <time>2014-04-06T07:25:02.000Z</time>
      </trkpt>
      <trkpt lat="42.86406" lon="2.12779">
        <ele>869</ele>
        <time>2014-04-06T07:25:06.000Z</time>
      </trkpt>
      <trkpt lat="42.86404" lon="2.12779">
        <ele>869</ele>
        <time>2014-04-06T07:25:07.000Z</time>
      </trkpt>
      <trkpt lat="42.864" lon="2.12778">
        <ele>869</ele>
        <time>2014-04-06T07:25:09.000Z</time>
      </trkpt>
      <trkpt lat="42.86396" lon="2.12774">
        <ele>868.20001220703</ele>
        <time>2014-04-06T07:25:12.000Z</time>
      </trkpt>
      <trkpt lat="42.86385" lon="2.12769">
        <ele>867.59997558594</ele>
        <time>2014-04-06T07:25:17.000Z</time>
      </trkpt>
      <trkpt lat="42.86377" lon="2.12772">
        <ele>869</ele>
        <time>2014-04-06T07:25:23.000Z</time>
      </trkpt>
      <trkpt lat="42.86376" lon="2.12775">
        <ele>870</ele>
        <time>2014-04-06T07:25:29.000Z</time>
      </trkpt>
      <trkpt lat="42.86378" lon="2.12778">
        <ele>870.79998779297</ele>
        <time>2014-04-06T07:25:35.000Z</time>
      </trkpt>
      <trkpt lat="42.86377" lon="2.1278">
        <ele>871.20001220703</ele>
        <time>2014-04-06T07:25:39.000Z</time>
      </trkpt>
      <trkpt lat="42.86376" lon="2.12782">
        <ele>872</ele>
        <time>2014-04-06T07:25:43.000Z</time>
      </trkpt>
      <trkpt lat="42.86375" lon="2.12786">
        <ele>873.20001220703</ele>
        <time>2014-04-06T07:25:50.000Z</time>
      </trkpt>
      <trkpt lat="42.86374" lon="2.12789">
        <ele>874.20001220703</ele>
        <time>2014-04-06T07:25:54.000Z</time>
      </trkpt>
      <trkpt lat="42.86372" lon="2.12793">
        <ele>875.40002441406</ele>
        <time>2014-04-06T07:26:00.000Z</time>
      </trkpt>
      <trkpt lat="42.86369" lon="2.12798">
        <ele>877</ele>
        <time>2014-04-06T07:26:06.000Z</time>
      </trkpt>
      <trkpt lat="42.86367" lon="2.128">
        <ele>877.79998779297</ele>
        <time>2014-04-06T07:26:11.000Z</time>
      </trkpt>
      <trkpt lat="42.86364" lon="2.12801">
        <ele>878.20001220703</ele>
        <time>2014-04-06T07:26:16.000Z</time>
      </trkpt>
      <trkpt lat="42.8636" lon="2.12801">
        <ele>878.59997558594</ele>
        <time>2014-04-06T07:26:21.000Z</time>
      </trkpt>
      <trkpt lat="42.86354" lon="2.12801">
        <ele>879</ele>
        <time>2014-04-06T07:26:26.000Z</time>
      </trkpt>
      <trkpt lat="42.86351" lon="2.128">
        <ele>879</ele>
        <time>2014-04-06T07:26:27.000Z</time>
      </trkpt>
      <trkpt lat="42.86343" lon="2.12798">
        <ele>879</ele>
        <time>2014-04-06T07:26:31.000Z</time>
      </trkpt>
      <trkpt lat="42.86333" lon="2.12797">
        <ele>879.40002441406</ele>
        <time>2014-04-06T07:26:35.000Z</time>
      </trkpt>
      <trkpt lat="42.86318" lon="2.12798">
        <ele>879.79998779297</ele>
        <time>2014-04-06T07:26:41.000Z</time>
      </trkpt>
      <trkpt lat="42.86309" lon="2.12805">
        <ele>881.79998779297</ele>
        <time>2014-04-06T07:26:47.000Z</time>
      </trkpt>
      <trkpt lat="42.86309" lon="2.12806">
        <ele>882</ele>
        <time>2014-04-06T07:26:49.000Z</time>
      </trkpt>
      <trkpt lat="42.86306" lon="2.1281">
        <ele>883</ele>
        <time>2014-04-06T07:26:52.000Z</time>
      </trkpt>
      <trkpt lat="42.863" lon="2.12814">
        <ele>884.20001220703</ele>
        <time>2014-04-06T07:26:58.000Z</time>
      </trkpt>
      <trkpt lat="42.86299" lon="2.12814">
        <ele>884.20001220703</ele>
        <time>2014-04-06T07:26:59.000Z</time>
      </trkpt>
      <trkpt lat="42.86295" lon="2.12815">
        <ele>884.40002441406</ele>
        <time>2014-04-06T07:27:02.000Z</time>
      </trkpt>
      <trkpt lat="42.86288" lon="2.12818">
        <ele>885.20001220703</ele>
        <time>2014-04-06T07:27:08.000Z</time>
      </trkpt>
      <trkpt lat="42.86287" lon="2.12818">
        <ele>885.40002441406</ele>
        <time>2014-04-06T07:27:09.000Z</time>
      </trkpt>
      <trkpt lat="42.86281" lon="2.12822">
        <ele>886.40002441406</ele>
        <time>2014-04-06T07:27:15.000Z</time>
      </trkpt>
      <trkpt lat="42.86278" lon="2.12824">
        <ele>887</ele>
        <time>2014-04-06T07:27:18.000Z</time>
      </trkpt>
      <trkpt lat="42.8627" lon="2.12828">
        <ele>887.79998779297</ele>
        <time>2014-04-06T07:27:24.000Z</time>
      </trkpt>
      <trkpt lat="42.86265" lon="2.12832">
        <ele>888.79998779297</ele>
        <time>2014-04-06T07:27:29.000Z</time>
      </trkpt>
      <trkpt lat="42.86264" lon="2.12833">
        <ele>889.20001220703</ele>
        <time>2014-04-06T07:27:30.000Z</time>
      </trkpt>
      <trkpt lat="42.8626" lon="2.12839">
        <ele>891</ele>
        <time>2014-04-06T07:27:35.000Z</time>
      </trkpt>
      <trkpt lat="42.86259" lon="2.1284">
        <ele>891.20001220703</ele>
        <time>2014-04-06T07:27:36.000Z</time>
      </trkpt>
      <trkpt lat="42.86254" lon="2.12843">
        <ele>892.20001220703</ele>
        <time>2014-04-06T07:27:40.000Z</time>
      </trkpt>
      <trkpt lat="42.86253" lon="2.12845">
        <ele>893</ele>
        <time>2014-04-06T07:27:42.000Z</time>
      </trkpt>
      <trkpt lat="42.86251" lon="2.1285">
        <ele>894.59997558594</ele>
        <time>2014-04-06T07:27:47.000Z</time>
      </trkpt>
      <trkpt lat="42.86248" lon="2.12853">
        <ele>895</ele>
        <time>2014-04-06T07:27:50.000Z</time>
      </trkpt>
      <trkpt lat="42.86243" lon="2.12858">
        <ele>896</ele>
        <time>2014-04-06T07:27:56.000Z</time>
      </trkpt>
      <trkpt lat="42.8624" lon="2.12861">
        <ele>896.59997558594</ele>
        <time>2014-04-06T07:28:01.000Z</time>
      </trkpt>
      <trkpt lat="42.8624" lon="2.12862">
        <ele>896.79998779297</ele>
        <time>2014-04-06T07:28:02.000Z</time>
      </trkpt>
      <trkpt lat="42.86232" lon="2.12866">
        <ele>896.79998779297</ele>
        <time>2014-04-06T07:28:08.000Z</time>
      </trkpt>
      <trkpt lat="42.86223" lon="2.12869">
        <ele>896.59997558594</ele>
        <time>2014-04-06T07:28:13.000Z</time>
      </trkpt>
      <trkpt lat="42.86214" lon="2.12877">
        <ele>897.40002441406</ele>
        <time>2014-04-06T07:28:19.000Z</time>
      </trkpt>
      <trkpt lat="42.86208" lon="2.12882">
        <ele>897.79998779297</ele>
        <time>2014-04-06T07:28:23.000Z</time>
      </trkpt>
      <trkpt lat="42.86207" lon="2.12887">
        <ele>899.20001220703</ele>
        <time>2014-04-06T07:28:27.000Z</time>
      </trkpt>
      <trkpt lat="42.86207" lon="2.12891">
        <ele>900.20001220703</ele>
        <time>2014-04-06T07:28:31.000Z</time>
      </trkpt>
      <trkpt lat="42.86207" lon="2.12892">
        <ele>900.40002441406</ele>
        <time>2014-04-06T07:28:32.000Z</time>
      </trkpt>
      <trkpt lat="42.86207" lon="2.12893">
        <ele>900.59997558594</ele>
        <time>2014-04-06T07:28:33.000Z</time>
      </trkpt>
      <trkpt lat="42.86206" lon="2.12901">
        <ele>902.40002441406</ele>
        <time>2014-04-06T07:28:41.000Z</time>
      </trkpt>
      <trkpt lat="42.86208" lon="2.12905">
        <ele>904</ele>
        <time>2014-04-06T07:28:47.000Z</time>
      </trkpt>
      <trkpt lat="42.86211" lon="2.12907">
        <ele>905.20001220703</ele>
        <time>2014-04-06T07:28:53.000Z</time>
      </trkpt>
      <trkpt lat="42.86217" lon="2.12908">
        <ele>906.59997558594</ele>
        <time>2014-04-06T07:28:59.000Z</time>
      </trkpt>
      <trkpt lat="42.86219" lon="2.1291">
        <ele>907.40002441406</ele>
        <time>2014-04-06T07:29:04.000Z</time>
      </trkpt>
      <trkpt lat="42.86222" lon="2.12912">
        <ele>908.79998779297</ele>
        <time>2014-04-06T07:29:09.000Z</time>
      </trkpt>
      <trkpt lat="42.86224" lon="2.12916">
        <ele>910.20001220703</ele>
        <time>2014-04-06T07:29:14.000Z</time>
      </trkpt>
      <trkpt lat="42.86227" lon="2.12918">
        <ele>911.59997558594</ele>
        <time>2014-04-06T07:29:19.000Z</time>
      </trkpt>
      <trkpt lat="42.86229" lon="2.1292">
        <ele>912.59997558594</ele>
        <time>2014-04-06T07:29:23.000Z</time>
      </trkpt>
      <trkpt lat="42.8623" lon="2.12924">
        <ele>914.40002441406</ele>
        <time>2014-04-06T07:29:28.000Z</time>
      </trkpt>
      <trkpt lat="42.86233" lon="2.12928">
        <ele>916.20001220703</ele>
        <time>2014-04-06T07:29:33.000Z</time>
      </trkpt>
      <trkpt lat="42.86235" lon="2.1293">
        <ele>917.40002441406</ele>
        <time>2014-04-06T07:29:38.000Z</time>
      </trkpt>
      <trkpt lat="42.86237" lon="2.12933">
        <ele>918.79998779297</ele>
        <time>2014-04-06T07:29:44.000Z</time>
      </trkpt>
      <trkpt lat="42.8624" lon="2.12934">
        <ele>920</ele>
        <time>2014-04-06T07:29:49.000Z</time>
      </trkpt>
      <trkpt lat="42.86242" lon="2.12935">
        <ele>921</ele>
        <time>2014-04-06T07:29:54.000Z</time>
      </trkpt>
      <trkpt lat="42.86245" lon="2.12936">
        <ele>921.79998779297</ele>
        <time>2014-04-06T07:29:58.000Z</time>
      </trkpt>
      <trkpt lat="42.86249" lon="2.12937">
        <ele>923</ele>
        <time>2014-04-06T07:30:03.000Z</time>
      </trkpt>
      <trkpt lat="42.86254" lon="2.12937">
        <ele>923.79998779297</ele>
        <time>2014-04-06T07:30:09.000Z</time>
      </trkpt>
      <trkpt lat="42.86257" lon="2.12938">
        <ele>924.40002441406</ele>
        <time>2014-04-06T07:30:12.000Z</time>
      </trkpt>
      <trkpt lat="42.86259" lon="2.1294">
        <ele>925.20001220703</ele>
        <time>2014-04-06T07:30:17.000Z</time>
      </trkpt>
      <trkpt lat="42.86262" lon="2.12942">
        <ele>926</ele>
        <time>2014-04-06T07:30:22.000Z</time>
      </trkpt>
      <trkpt lat="42.86264" lon="2.12945">
        <ele>927.40002441406</ele>
        <time>2014-04-06T07:30:27.000Z</time>
      </trkpt>
      <trkpt lat="42.86269" lon="2.12948">
        <ele>929</ele>
        <time>2014-04-06T07:30:34.000Z</time>
      </trkpt>
      <trkpt lat="42.86272" lon="2.12949">
        <ele>929.59997558594</ele>
        <time>2014-04-06T07:30:38.000Z</time>
      </trkpt>
      <trkpt lat="42.86275" lon="2.12952">
        <ele>930.79998779297</ele>
        <time>2014-04-06T07:30:43.000Z</time>
      </trkpt>
      <trkpt lat="42.86277" lon="2.12952">
        <ele>931</ele>
        <time>2014-04-06T07:30:45.000Z</time>
      </trkpt>
      <trkpt lat="42.8628" lon="2.12953">
        <ele>931.79998779297</ele>
        <time>2014-04-06T07:30:48.000Z</time>
      </trkpt>
      <trkpt lat="42.86283" lon="2.12957">
        <ele>933.59997558594</ele>
        <time>2014-04-06T07:30:55.000Z</time>
      </trkpt>
      <trkpt lat="42.86286" lon="2.12961">
        <ele>935.20001220703</ele>
        <time>2014-04-06T07:31:00.000Z</time>
      </trkpt>
      <trkpt lat="42.86288" lon="2.12965">
        <ele>937</ele>
        <time>2014-04-06T07:31:05.000Z</time>
      </trkpt>
      <trkpt lat="42.86289" lon="2.12971">
        <ele>939.40002441406</ele>
        <time>2014-04-06T07:31:12.000Z</time>
      </trkpt>
      <trkpt lat="42.86291" lon="2.12976">
        <ele>941.20001220703</ele>
        <time>2014-04-06T07:31:18.000Z</time>
      </trkpt>
      <trkpt lat="42.86292" lon="2.12979">
        <ele>942.59997558594</ele>
        <time>2014-04-06T07:31:22.000Z</time>
      </trkpt>
      <trkpt lat="42.86296" lon="2.12983">
        <ele>944.40002441406</ele>
        <time>2014-04-06T07:31:28.000Z</time>
      </trkpt>
      <trkpt lat="42.86297" lon="2.12983">
        <ele>944.79998779297</ele>
        <time>2014-04-06T07:31:29.000Z</time>
      </trkpt>
      <trkpt lat="42.86299" lon="2.12984">
        <ele>945</ele>
        <time>2014-04-06T07:31:31.000Z</time>
      </trkpt>
      <trkpt lat="42.86303" lon="2.12986">
        <ele>946.20001220703</ele>
        <time>2014-04-06T07:31:36.000Z</time>
      </trkpt>
      <trkpt lat="42.86305" lon="2.12988">
        <ele>947.20001220703</ele>
        <time>2014-04-06T07:31:39.000Z</time>
      </trkpt>
      <trkpt lat="42.86306" lon="2.12991">
        <ele>948.59997558594</ele>
        <time>2014-04-06T07:31:43.000Z</time>
      </trkpt>
      <trkpt lat="42.86309" lon="2.12995">
        <ele>950.40002441406</ele>
        <time>2014-04-06T07:31:49.000Z</time>
      </trkpt>
      <trkpt lat="42.86312" lon="2.12999">
        <ele>952.20001220703</ele>
        <time>2014-04-06T07:31:55.000Z</time>
      </trkpt>
      <trkpt lat="42.86313" lon="2.13001">
        <ele>953.20001220703</ele>
        <time>2014-04-06T07:31:59.000Z</time>
      </trkpt>
      <trkpt lat="42.86314" lon="2.13002">
        <ele>953.79998779297</ele>
        <time>2014-04-06T07:32:01.000Z</time>
      </trkpt>
      <trkpt lat="42.86316" lon="2.13006">
        <ele>955.40002441406</ele>
        <time>2014-04-06T07:32:08.000Z</time>
      </trkpt>
      <trkpt lat="42.86318" lon="2.13011">
        <ele>957.59997558594</ele>
        <time>2014-04-06T07:32:15.000Z</time>
      </trkpt>
      <trkpt lat="42.86321" lon="2.13013">
        <ele>958.79998779297</ele>
        <time>2014-04-06T07:32:21.000Z</time>
      </trkpt>
      <trkpt lat="42.86323" lon="2.13015">
        <ele>959.59997558594</ele>
        <time>2014-04-06T07:32:26.000Z</time>
      </trkpt>
      <trkpt lat="42.86325" lon="2.13018">
        <ele>961</ele>
        <time>2014-04-06T07:32:31.000Z</time>
      </trkpt>
      <trkpt lat="42.86326" lon="2.1302">
        <ele>962</ele>
        <time>2014-04-06T07:32:36.000Z</time>
      </trkpt>
      <trkpt lat="42.86328" lon="2.13022">
        <ele>963</ele>
        <time>2014-04-06T07:32:40.000Z</time>
      </trkpt>
      <trkpt lat="42.8633" lon="2.13027">
        <ele>965</ele>
        <time>2014-04-06T07:32:48.000Z</time>
      </trkpt>
      <trkpt lat="42.86333" lon="2.1303">
        <ele>966.59997558594</ele>
        <time>2014-04-06T07:32:54.000Z</time>
      </trkpt>
      <trkpt lat="42.86335" lon="2.13033">
        <ele>967.20001220703</ele>
        <time>2014-04-06T07:32:58.000Z</time>
      </trkpt>
      <trkpt lat="42.86337" lon="2.13036">
        <ele>968</ele>
        <time>2014-04-06T07:33:03.000Z</time>
      </trkpt>
      <trkpt lat="42.86339" lon="2.13038">
        <ele>968.59997558594</ele>
        <time>2014-04-06T07:33:08.000Z</time>
      </trkpt>
      <trkpt lat="42.86341" lon="2.13043">
        <ele>969.79998779297</ele>
        <time>2014-04-06T07:33:14.000Z</time>
      </trkpt>
      <trkpt lat="42.86341" lon="2.13048">
        <ele>971.59997558594</ele>
        <time>2014-04-06T07:33:20.000Z</time>
      </trkpt>
      <trkpt lat="42.86342" lon="2.13051">
        <ele>972.79998779297</ele>
        <time>2014-04-06T07:33:24.000Z</time>
      </trkpt>
      <trkpt lat="42.86344" lon="2.13054">
        <ele>973.59997558594</ele>
        <time>2014-04-06T07:33:28.000Z</time>
      </trkpt>
      <trkpt lat="42.86345" lon="2.13058">
        <ele>975</ele>
        <time>2014-04-06T07:33:33.000Z</time>
      </trkpt>
      <trkpt lat="42.86346" lon="2.13062">
        <ele>976.40002441406</ele>
        <time>2014-04-06T07:33:38.000Z</time>
      </trkpt>
      <trkpt lat="42.86349" lon="2.13068">
        <ele>978</ele>
        <time>2014-04-06T07:33:45.000Z</time>
      </trkpt>
      <trkpt lat="42.8635" lon="2.13069">
        <ele>978</ele>
        <time>2014-04-06T07:33:46.000Z</time>
      </trkpt>
      <trkpt lat="42.86352" lon="2.13073">
        <ele>979.20001220703</ele>
        <time>2014-04-06T07:33:50.000Z</time>
      </trkpt>
      <trkpt lat="42.86352" lon="2.13079">
        <ele>981.59997558594</ele>
        <time>2014-04-06T07:33:57.000Z</time>
      </trkpt>
      <trkpt lat="42.86353" lon="2.13082">
        <ele>982.40002441406</ele>
        <time>2014-04-06T07:34:01.000Z</time>
      </trkpt>
      <trkpt lat="42.86355" lon="2.13085">
        <ele>983.40002441406</ele>
        <time>2014-04-06T07:34:06.000Z</time>
      </trkpt>
      <trkpt lat="42.86355" lon="2.1309">
        <ele>984.59997558594</ele>
        <time>2014-04-06T07:34:11.000Z</time>
      </trkpt>
      <trkpt lat="42.86356" lon="2.13094">
        <ele>985.40002441406</ele>
        <time>2014-04-06T07:34:15.000Z</time>
      </trkpt>
      <trkpt lat="42.86357" lon="2.13099">
        <ele>987</ele>
        <time>2014-04-06T07:34:21.000Z</time>
      </trkpt>
      <trkpt lat="42.8636" lon="2.13104">
        <ele>987.79998779297</ele>
        <time>2014-04-06T07:34:26.000Z</time>
      </trkpt>
      <trkpt lat="42.86361" lon="2.1311">
        <ele>989.40002441406</ele>
        <time>2014-04-06T07:34:32.000Z</time>
      </trkpt>
      <trkpt lat="42.86361" lon="2.13117">
        <ele>991.20001220703</ele>
        <time>2014-04-06T07:34:39.000Z</time>
      </trkpt>
      <trkpt lat="42.8636" lon="2.13121">
        <ele>992.79998779297</ele>
        <time>2014-04-06T07:34:44.000Z</time>
      </trkpt>
      <trkpt lat="42.86361" lon="2.13125">
        <ele>993.59997558594</ele>
        <time>2014-04-06T07:34:48.000Z</time>
      </trkpt>
      <trkpt lat="42.86362" lon="2.13128">
        <ele>994.40002441406</ele>
        <time>2014-04-06T07:34:53.000Z</time>
      </trkpt>
      <trkpt lat="42.86362" lon="2.13131">
        <ele>995.20001220703</ele>
        <time>2014-04-06T07:34:58.000Z</time>
      </trkpt>
      <trkpt lat="42.8636" lon="2.13133">
        <ele>996.40002441406</ele>
        <time>2014-04-06T07:35:03.000Z</time>
      </trkpt>
      <trkpt lat="42.86359" lon="2.13138">
        <ele>998</ele>
        <time>2014-04-06T07:35:09.000Z</time>
      </trkpt>
      <trkpt lat="42.86359" lon="2.13141">
        <ele>999.20001220703</ele>
        <time>2014-04-06T07:35:14.000Z</time>
      </trkpt>
      <trkpt lat="42.86359" lon="2.13145">
        <ele>1000.4000244141</ele>
        <time>2014-04-06T07:35:19.000Z</time>
      </trkpt>
      <trkpt lat="42.86358" lon="2.13148">
        <ele>1001.4000244141</ele>
        <time>2014-04-06T07:35:23.000Z</time>
      </trkpt>
      <trkpt lat="42.86358" lon="2.13152">
        <ele>1002.5999755859</ele>
        <time>2014-04-06T07:35:28.000Z</time>
      </trkpt>
      <trkpt lat="42.86357" lon="2.13158">
        <ele>1004.5999755859</ele>
        <time>2014-04-06T07:35:34.000Z</time>
      </trkpt>
      <trkpt lat="42.86356" lon="2.13165">
        <ele>1007.200012207</ele>
        <time>2014-04-06T07:35:41.000Z</time>
      </trkpt>
      <trkpt lat="42.86355" lon="2.1317">
        <ele>1008.4000244141</ele>
        <time>2014-04-06T07:35:47.000Z</time>
      </trkpt>
      <trkpt lat="42.86355" lon="2.13176">
        <ele>1008.799987793</ele>
        <time>2014-04-06T07:35:53.000Z</time>
      </trkpt>
      <trkpt lat="42.86355" lon="2.13185">
        <ele>1009.4000244141</ele>
        <time>2014-04-06T07:35:59.000Z</time>
      </trkpt>
      <trkpt lat="42.86354" lon="2.13188">
        <ele>1009.799987793</ele>
        <time>2014-04-06T07:36:00.000Z</time>
      </trkpt>
      <trkpt lat="42.86351" lon="2.13197">
        <ele>1011.4000244141</ele>
        <time>2014-04-06T07:36:04.000Z</time>
      </trkpt>
      <trkpt lat="42.86348" lon="2.1321">
        <ele>1013.5999755859</ele>
        <time>2014-04-06T07:36:09.000Z</time>
      </trkpt>
      <trkpt lat="42.86339" lon="2.13221">
        <ele>1017.5999755859</ele>
        <time>2014-04-06T07:36:14.000Z</time>
      </trkpt>
      <trkpt lat="42.86337" lon="2.13223">
        <ele>1018.4000244141</ele>
        <time>2014-04-06T07:36:15.000Z</time>
      </trkpt>
      <trkpt lat="42.86333" lon="2.13231">
        <ele>1020.4000244141</ele>
        <time>2014-04-06T07:36:18.000Z</time>
      </trkpt>
      <trkpt lat="42.86329" lon="2.13237">
        <ele>1021</ele>
        <time>2014-04-06T07:36:23.000Z</time>
      </trkpt>
      <trkpt lat="42.86325" lon="2.13245">
        <ele>1022</ele>
        <time>2014-04-06T07:36:28.000Z</time>
      </trkpt>
      <trkpt lat="42.86322" lon="2.13255">
        <ele>1022.799987793</ele>
        <time>2014-04-06T07:36:32.000Z</time>
      </trkpt>
      <trkpt lat="42.86323" lon="2.13263">
        <ele>1022.799987793</ele>
        <time>2014-04-06T07:36:35.000Z</time>
      </trkpt>
      <trkpt lat="42.86318" lon="2.13276">
        <ele>1023.5999755859</ele>
        <time>2014-04-06T07:36:40.000Z</time>
      </trkpt>
      <trkpt lat="42.86317" lon="2.13278">
        <ele>1023.799987793</ele>
        <time>2014-04-06T07:36:41.000Z</time>
      </trkpt>
      <trkpt lat="42.86314" lon="2.13287">
        <ele>1024.4000244141</ele>
        <time>2014-04-06T07:36:45.000Z</time>
      </trkpt>
      <trkpt lat="42.86313" lon="2.13301">
        <ele>1024.8000488281</ele>
        <time>2014-04-06T07:36:49.000Z</time>
      </trkpt>
      <trkpt lat="42.86313" lon="2.13309">
        <ele>1025.1999511719</ele>
        <time>2014-04-06T07:36:53.000Z</time>
      </trkpt>
      <trkpt lat="42.86311" lon="2.13318">
        <ele>1025.5999755859</ele>
        <time>2014-04-06T07:36:57.000Z</time>
      </trkpt>
      <trkpt lat="42.86311" lon="2.13321">
        <ele>1025.8000488281</ele>
        <time>2014-04-06T07:36:59.000Z</time>
      </trkpt>
      <trkpt lat="42.8631" lon="2.13331">
        <ele>1026.1999511719</ele>
        <time>2014-04-06T07:37:03.000Z</time>
      </trkpt>
      <trkpt lat="42.86311" lon="2.13339">
        <ele>1026.4000244141</ele>
        <time>2014-04-06T07:37:07.000Z</time>
      </trkpt>
      <trkpt lat="42.86311" lon="2.13344">
        <ele>1026.5999755859</ele>
        <time>2014-04-06T07:37:09.000Z</time>
      </trkpt>
      <trkpt lat="42.86309" lon="2.13351">
        <ele>1027</ele>
        <time>2014-04-06T07:37:14.000Z</time>
      </trkpt>
      <trkpt lat="42.86308" lon="2.13352">
        <ele>1027.1999511719</ele>
        <time>2014-04-06T07:37:15.000Z</time>
      </trkpt>
      <trkpt lat="42.86304" lon="2.13355">
        <ele>1028.1999511719</ele>
        <time>2014-04-06T07:37:20.000Z</time>
      </trkpt>
      <trkpt lat="42.86303" lon="2.13356">
        <ele>1028.4000244141</ele>
        <time>2014-04-06T07:37:22.000Z</time>
      </trkpt>
      <trkpt lat="42.86299" lon="2.13364">
        <ele>1029.4000244141</ele>
        <time>2014-04-06T07:37:29.000Z</time>
      </trkpt>
      <trkpt lat="42.86298" lon="2.13366">
        <ele>1029.8000488281</ele>
        <time>2014-04-06T07:37:31.000Z</time>
      </trkpt>
      <trkpt lat="42.86297" lon="2.13368">
        <ele>1030.1999511719</ele>
        <time>2014-04-06T07:37:33.000Z</time>
      </trkpt>
      <trkpt lat="42.86294" lon="2.13372">
        <ele>1031</ele>
        <time>2014-04-06T07:37:38.000Z</time>
      </trkpt>
      <trkpt lat="42.86294" lon="2.13372">
        <ele>1031.1999511719</ele>
        <time>2014-04-06T07:37:39.000Z</time>
      </trkpt>
      <trkpt lat="42.86289" lon="2.13374">
        <ele>1032.4000244141</ele>
        <time>2014-04-06T07:37:47.000Z</time>
      </trkpt>
      <trkpt lat="42.86286" lon="2.13379">
        <ele>1033.4000244141</ele>
        <time>2014-04-06T07:37:53.000Z</time>
      </trkpt>
      <trkpt lat="42.86284" lon="2.13382">
        <ele>1034</ele>
        <time>2014-04-06T07:37:59.000Z</time>
      </trkpt>
      <trkpt lat="42.8628" lon="2.1339">
        <ele>1035.5999755859</ele>
        <time>2014-04-06T07:38:09.000Z</time>
      </trkpt>
      <trkpt lat="42.86279" lon="2.13396">
        <ele>1036.5999755859</ele>
        <time>2014-04-06T07:38:15.000Z</time>
      </trkpt>
      <trkpt lat="42.86278" lon="2.13397">
        <ele>1036.8000488281</ele>
        <time>2014-04-06T07:38:16.000Z</time>
      </trkpt>
      <trkpt lat="42.86276" lon="2.13404">
        <ele>1038</ele>
        <time>2014-04-06T07:38:21.000Z</time>
      </trkpt>
      <trkpt lat="42.86276" lon="2.13411">
        <ele>1038.5999755859</ele>
        <time>2014-04-06T07:38:26.000Z</time>
      </trkpt>
      <trkpt lat="42.86273" lon="2.13415">
        <ele>1039.8000488281</ele>
        <time>2014-04-06T07:38:30.000Z</time>
      </trkpt>
      <trkpt lat="42.86272" lon="2.13423">
        <ele>1041.1999511719</ele>
        <time>2014-04-06T07:38:36.000Z</time>
      </trkpt>
      <trkpt lat="42.86272" lon="2.13429">
        <ele>1042</ele>
        <time>2014-04-06T07:38:40.000Z</time>
      </trkpt>
      <trkpt lat="42.86272" lon="2.13435">
        <ele>1043</ele>
        <time>2014-04-06T07:38:44.000Z</time>
      </trkpt>
      <trkpt lat="42.86271" lon="2.13442">
        <ele>1044.1999511719</ele>
        <time>2014-04-06T07:38:49.000Z</time>
      </trkpt>
      <trkpt lat="42.8627" lon="2.13453">
        <ele>1046</ele>
        <time>2014-04-06T07:38:57.000Z</time>
      </trkpt>
      <trkpt lat="42.8627" lon="2.13454">
        <ele>1046.1999511719</ele>
        <time>2014-04-06T07:38:58.000Z</time>
      </trkpt>
      <trkpt lat="42.8627" lon="2.13462">
        <ele>1047.1999511719</ele>
        <time>2014-04-06T07:39:04.000Z</time>
      </trkpt>
      <trkpt lat="42.86269" lon="2.13468">
        <ele>1048.5999755859</ele>
        <time>2014-04-06T07:39:09.000Z</time>
      </trkpt>
      <trkpt lat="42.86267" lon="2.13472">
        <ele>1049.8000488281</ele>
        <time>2014-04-06T07:39:15.000Z</time>
      </trkpt>
      <trkpt lat="42.86266" lon="2.13477">
        <ele>1050.8000488281</ele>
        <time>2014-04-06T07:39:20.000Z</time>
      </trkpt>
      <trkpt lat="42.86265" lon="2.13481">
        <ele>1051.8000488281</ele>
        <time>2014-04-06T07:39:25.000Z</time>
      </trkpt>
      <trkpt lat="42.86265" lon="2.13486">
        <ele>1052.8000488281</ele>
        <time>2014-04-06T07:39:29.000Z</time>
      </trkpt>
      <trkpt lat="42.86265" lon="2.13487">
        <ele>1053</ele>
        <time>2014-04-06T07:39:30.000Z</time>
      </trkpt>
      <trkpt lat="42.86264" lon="2.13494">
        <ele>1054.5999755859</ele>
        <time>2014-04-06T07:39:36.000Z</time>
      </trkpt>
      <trkpt lat="42.86263" lon="2.13498">
        <ele>1055.8000488281</ele>
        <time>2014-04-06T07:39:39.000Z</time>
      </trkpt>
      <trkpt lat="42.86262" lon="2.13504">
        <ele>1056.1999511719</ele>
        <time>2014-04-06T07:39:43.000Z</time>
      </trkpt>
      <trkpt lat="42.86263" lon="2.13518">
        <ele>1055.8000488281</ele>
        <time>2014-04-06T07:39:52.000Z</time>
      </trkpt>
      <trkpt lat="42.86258" lon="2.13523">
        <ele>1057.8000488281</ele>
        <time>2014-04-06T07:39:57.000Z</time>
      </trkpt>
      <trkpt lat="42.86256" lon="2.13529">
        <ele>1059.4000244141</ele>
        <time>2014-04-06T07:40:02.000Z</time>
      </trkpt>
      <trkpt lat="42.86254" lon="2.13537">
        <ele>1060.4000244141</ele>
        <time>2014-04-06T07:40:07.000Z</time>
      </trkpt>
      <trkpt lat="42.86249" lon="2.13543">
        <ele>1062.8000488281</ele>
        <time>2014-04-06T07:40:12.000Z</time>
      </trkpt>
      <trkpt lat="42.86248" lon="2.13546">
        <ele>1063</ele>
        <time>2014-04-06T07:40:13.000Z</time>
      </trkpt>
      <trkpt lat="42.86244" lon="2.13563">
        <ele>1064.4000244141</ele>
        <time>2014-04-06T07:40:19.000Z</time>
      </trkpt>
      <trkpt lat="42.8624" lon="2.13571">
        <ele>1065.5999755859</ele>
        <time>2014-04-06T07:40:23.000Z</time>
      </trkpt>
      <trkpt lat="42.86239" lon="2.13571">
        <ele>1065.8000488281</ele>
        <time>2014-04-06T07:40:24.000Z</time>
      </trkpt>
      <trkpt lat="42.86236" lon="2.13576">
        <ele>1066.8000488281</ele>
        <time>2014-04-06T07:40:28.000Z</time>
      </trkpt>
      <trkpt lat="42.86233" lon="2.13586">
        <ele>1067.5999755859</ele>
        <time>2014-04-06T07:40:33.000Z</time>
      </trkpt>
      <trkpt lat="42.8623" lon="2.13591">
        <ele>1067.5999755859</ele>
        <time>2014-04-06T07:40:36.000Z</time>
      </trkpt>
      <trkpt lat="42.86228" lon="2.13594">
        <ele>1067.5999755859</ele>
        <time>2014-04-06T07:40:38.000Z</time>
      </trkpt>
      <trkpt lat="42.86224" lon="2.13597">
        <ele>1068.5999755859</ele>
        <time>2014-04-06T07:40:42.000Z</time>
      </trkpt>
      <trkpt lat="42.86218" lon="2.136">
        <ele>1070.1999511719</ele>
        <time>2014-04-06T07:40:46.000Z</time>
      </trkpt>
      <trkpt lat="42.86211" lon="2.13613">
        <ele>1070.8000488281</ele>
        <time>2014-04-06T07:40:52.000Z</time>
      </trkpt>
      <trkpt lat="42.86208" lon="2.13625">
        <ele>1070</ele>
        <time>2014-04-06T07:40:57.000Z</time>
      </trkpt>
      <trkpt lat="42.86206" lon="2.13637">
        <ele>1069.5999755859</ele>
        <time>2014-04-06T07:41:02.000Z</time>
      </trkpt>
      <trkpt lat="42.86199" lon="2.13644">
        <ele>1071.1999511719</ele>
        <time>2014-04-06T07:41:08.000Z</time>
      </trkpt>
      <trkpt lat="42.86195" lon="2.1365">
        <ele>1072</ele>
        <time>2014-04-06T07:41:12.000Z</time>
      </trkpt>
      <trkpt lat="42.86194" lon="2.13653">
        <ele>1072.1999511719</ele>
        <time>2014-04-06T07:41:14.000Z</time>
      </trkpt>
      <trkpt lat="42.86192" lon="2.13657">
        <ele>1072.8000488281</ele>
        <time>2014-04-06T07:41:16.000Z</time>
      </trkpt>
      <trkpt lat="42.86186" lon="2.13663">
        <ele>1074.4000244141</ele>
        <time>2014-04-06T07:41:20.000Z</time>
      </trkpt>
      <trkpt lat="42.86182" lon="2.13667">
        <ele>1075.5999755859</ele>
        <time>2014-04-06T07:41:23.000Z</time>
      </trkpt>
      <trkpt lat="42.86177" lon="2.13667">
        <ele>1077.8000488281</ele>
        <time>2014-04-06T07:41:28.000Z</time>
      </trkpt>
      <trkpt lat="42.86173" lon="2.13668">
        <ele>1079</ele>
        <time>2014-04-06T07:41:34.000Z</time>
      </trkpt>
      <trkpt lat="42.86173" lon="2.13669">
        <ele>1079.1999511719</ele>
        <time>2014-04-06T07:41:35.000Z</time>
      </trkpt>
      <trkpt lat="42.86168" lon="2.13668">
        <ele>1081.1999511719</ele>
        <time>2014-04-06T07:41:39.000Z</time>
      </trkpt>
      <trkpt lat="42.86167" lon="2.13668">
        <ele>1081.5999755859</ele>
        <time>2014-04-06T07:41:40.000Z</time>
      </trkpt>
      <trkpt lat="42.86162" lon="2.13665">
        <ele>1081.5999755859</ele>
        <time>2014-04-06T07:41:48.000Z</time>
      </trkpt>
      <trkpt lat="42.86158" lon="2.13661">
        <ele>1081.4000244141</ele>
        <time>2014-04-06T07:41:56.000Z</time>
      </trkpt>
      <trkpt lat="42.86154" lon="2.13658">
        <ele>1080.8000488281</ele>
        <time>2014-04-06T07:42:04.000Z</time>
      </trkpt>
      <trkpt lat="42.8615" lon="2.13657">
        <ele>1080.4000244141</ele>
        <time>2014-04-06T07:42:10.000Z</time>
      </trkpt>
      <trkpt lat="42.86147" lon="2.13658">
        <ele>1080</ele>
        <time>2014-04-06T07:42:15.000Z</time>
      </trkpt>
      <trkpt lat="42.8614" lon="2.13659">
        <ele>1079</ele>
        <time>2014-04-06T07:42:21.000Z</time>
      </trkpt>
      <trkpt lat="42.86133" lon="2.13652">
        <ele>1078.4000244141</ele>
        <time>2014-04-06T07:42:27.000Z</time>
      </trkpt>
      <trkpt lat="42.86131" lon="2.1365">
        <ele>1078.1999511719</ele>
        <time>2014-04-06T07:42:29.000Z</time>
      </trkpt>
      <trkpt lat="42.86126" lon="2.1364">
        <ele>1077.8000488281</ele>
        <time>2014-04-06T07:42:35.000Z</time>
      </trkpt>
      <trkpt lat="42.8612" lon="2.1363">
        <ele>1077.1999511719</ele>
        <time>2014-04-06T07:42:40.000Z</time>
      </trkpt>
      <trkpt lat="42.8612" lon="2.13629">
        <ele>1077</ele>
        <time>2014-04-06T07:42:41.000Z</time>
      </trkpt>
      <trkpt lat="42.86117" lon="2.13625">
        <ele>1076.8000488281</ele>
        <time>2014-04-06T07:42:44.000Z</time>
      </trkpt>
      <trkpt lat="42.86115" lon="2.13623">
        <ele>1076.5999755859</ele>
        <time>2014-04-06T07:42:46.000Z</time>
      </trkpt>
      <trkpt lat="42.86108" lon="2.1362">
        <ele>1075.4000244141</ele>
        <time>2014-04-06T07:42:52.000Z</time>
      </trkpt>
      <trkpt lat="42.86107" lon="2.13621">
        <ele>1075.1999511719</ele>
        <time>2014-04-06T07:42:53.000Z</time>
      </trkpt>
      <trkpt lat="42.86103" lon="2.13621">
        <ele>1074.5999755859</ele>
        <time>2014-04-06T07:42:56.000Z</time>
      </trkpt>
      <trkpt lat="42.86099" lon="2.1362">
        <ele>1074</ele>
        <time>2014-04-06T07:43:00.000Z</time>
      </trkpt>
      <trkpt lat="42.86096" lon="2.13621">
        <ele>1073.5999755859</ele>
        <time>2014-04-06T07:43:03.000Z</time>
      </trkpt>
      <trkpt lat="42.8609" lon="2.13619">
        <ele>1072.4000244141</ele>
        <time>2014-04-06T07:43:08.000Z</time>
      </trkpt>
      <trkpt lat="42.86081" lon="2.13612">
        <ele>1070.4000244141</ele>
        <time>2014-04-06T07:43:13.000Z</time>
      </trkpt>
      <trkpt lat="42.86078" lon="2.13604">
        <ele>1069.5999755859</ele>
        <time>2014-04-06T07:43:16.000Z</time>
      </trkpt>
      <trkpt lat="42.86077" lon="2.13591">
        <ele>1069</ele>
        <time>2014-04-06T07:43:20.000Z</time>
      </trkpt>
      <trkpt lat="42.86078" lon="2.13585">
        <ele>1069.4000244141</ele>
        <time>2014-04-06T07:43:22.000Z</time>
      </trkpt>
      <trkpt lat="42.8608" lon="2.13579">
        <ele>1069.5999755859</ele>
        <time>2014-04-06T07:43:24.000Z</time>
      </trkpt>
      <trkpt lat="42.86083" lon="2.13569">
        <ele>1070</ele>
        <time>2014-04-06T07:43:28.000Z</time>
      </trkpt>
      <trkpt lat="42.86082" lon="2.13558">
        <ele>1069</ele>
        <time>2014-04-06T07:43:31.000Z</time>
      </trkpt>
      <trkpt lat="42.8608" lon="2.13547">
        <ele>1067.8000488281</ele>
        <time>2014-04-06T07:43:34.000Z</time>
      </trkpt>
      <trkpt lat="42.86073" lon="2.13532">
        <ele>1064.8000488281</ele>
        <time>2014-04-06T07:43:39.000Z</time>
      </trkpt>
      <trkpt lat="42.86065" lon="2.13528">
        <ele>1062.1999511719</ele>
        <time>2014-04-06T07:43:43.000Z</time>
      </trkpt>
      <trkpt lat="42.86049" lon="2.13522">
        <ele>1057</ele>
        <time>2014-04-06T07:43:49.000Z</time>
      </trkpt>
      <trkpt lat="42.86035" lon="2.13521">
        <ele>1052.4000244141</ele>
        <time>2014-04-06T07:43:55.000Z</time>
      </trkpt>
      <trkpt lat="42.86017" lon="2.13524">
        <ele>1047.1999511719</ele>
        <time>2014-04-06T07:44:01.000Z</time>
      </trkpt>
      <trkpt lat="42.86015" lon="2.13527">
        <ele>1046.5999755859</ele>
        <time>2014-04-06T07:44:02.000Z</time>
      </trkpt>
      <trkpt lat="42.8601" lon="2.13542">
        <ele>1045.5999755859</ele>
        <time>2014-04-06T07:44:07.000Z</time>
      </trkpt>
      <trkpt lat="42.85999" lon="2.13546">
        <ele>1042.4000244141</ele>
        <time>2014-04-06T07:44:12.000Z</time>
      </trkpt>
      <trkpt lat="42.8599" lon="2.13558">
        <ele>1039.8000488281</ele>
        <time>2014-04-06T07:44:16.000Z</time>
      </trkpt>
      <trkpt lat="42.85987" lon="2.13576">
        <ele>1039.1999511719</ele>
        <time>2014-04-06T07:44:21.000Z</time>
      </trkpt>
      <trkpt lat="42.85984" lon="2.13581">
        <ele>1038.5999755859</ele>
        <time>2014-04-06T07:44:23.000Z</time>
      </trkpt>
      <trkpt lat="42.85978" lon="2.136">
        <ele>1035.5999755859</ele>
        <time>2014-04-06T07:44:30.000Z</time>
      </trkpt>
      <trkpt lat="42.85973" lon="2.13607">
        <ele>1033.5999755859</ele>
        <time>2014-04-06T07:44:35.000Z</time>
      </trkpt>
      <trkpt lat="42.85965" lon="2.13613">
        <ele>1030.5999755859</ele>
        <time>2014-04-06T07:44:41.000Z</time>
      </trkpt>
      <trkpt lat="42.85959" lon="2.13615">
        <ele>1028.4000244141</ele>
        <time>2014-04-06T07:44:44.000Z</time>
      </trkpt>
      <trkpt lat="42.85949" lon="2.1361">
        <ele>1025</ele>
        <time>2014-04-06T07:44:49.000Z</time>
      </trkpt>
      <trkpt lat="42.85947" lon="2.13608">
        <ele>1024.4000244141</ele>
        <time>2014-04-06T07:44:51.000Z</time>
      </trkpt>
      <trkpt lat="42.85945" lon="2.13607">
        <ele>1023.799987793</ele>
        <time>2014-04-06T07:44:53.000Z</time>
      </trkpt>
      <trkpt lat="42.85939" lon="2.13601">
        <ele>1022.200012207</ele>
        <time>2014-04-06T07:44:59.000Z</time>
      </trkpt>
      <trkpt lat="42.85938" lon="2.13599">
        <ele>1022</ele>
        <time>2014-04-06T07:45:00.000Z</time>
      </trkpt>
      <trkpt lat="42.8593" lon="2.1359">
        <ele>1019.799987793</ele>
        <time>2014-04-06T07:45:06.000Z</time>
      </trkpt>
      <trkpt lat="42.85926" lon="2.13583">
        <ele>1019</ele>
        <time>2014-04-06T07:45:10.000Z</time>
      </trkpt>
      <trkpt lat="42.85921" lon="2.13577">
        <ele>1017.200012207</ele>
        <time>2014-04-06T07:45:15.000Z</time>
      </trkpt>
      <trkpt lat="42.8592" lon="2.13575">
        <ele>1017</ele>
        <time>2014-04-06T07:45:16.000Z</time>
      </trkpt>
      <trkpt lat="42.85915" lon="2.13568">
        <ele>1015.799987793</ele>
        <time>2014-04-06T07:45:20.000Z</time>
      </trkpt>
      <trkpt lat="42.85911" lon="2.13566">
        <ele>1015</ele>
        <time>2014-04-06T07:45:22.000Z</time>
      </trkpt>
      <trkpt lat="42.85903" lon="2.1357">
        <ele>1013.799987793</ele>
        <time>2014-04-06T07:45:27.000Z</time>
      </trkpt>
      <trkpt lat="42.85896" lon="2.13576">
        <ele>1012.799987793</ele>
        <time>2014-04-06T07:45:31.000Z</time>
      </trkpt>
      <trkpt lat="42.85886" lon="2.13581">
        <ele>1011.4000244141</ele>
        <time>2014-04-06T07:45:36.000Z</time>
      </trkpt>
      <trkpt lat="42.85879" lon="2.13585">
        <ele>1010.4000244141</ele>
        <time>2014-04-06T07:45:39.000Z</time>
      </trkpt>
      <trkpt lat="42.85875" lon="2.13588">
        <ele>1009.799987793</ele>
        <time>2014-04-06T07:45:40.000Z</time>
      </trkpt>
      <trkpt lat="42.85871" lon="2.1359">
        <ele>1009.200012207</ele>
        <time>2014-04-06T07:45:41.000Z</time>
      </trkpt>
      <trkpt lat="42.85856" lon="2.13603">
        <ele>1006.4000244141</ele>
        <time>2014-04-06T07:45:47.000Z</time>
      </trkpt>
      <trkpt lat="42.85844" lon="2.13608">
        <ele>1004.799987793</ele>
        <time>2014-04-06T07:45:51.000Z</time>
      </trkpt>
      <trkpt lat="42.85834" lon="2.13618">
        <ele>1003.200012207</ele>
        <time>2014-04-06T07:45:55.000Z</time>
      </trkpt>
      <trkpt lat="42.85822" lon="2.13629">
        <ele>1000.799987793</ele>
        <time>2014-04-06T07:46:00.000Z</time>
      </trkpt>
      <trkpt lat="42.85811" lon="2.1364">
        <ele>999</ele>
        <time>2014-04-06T07:46:05.000Z</time>
      </trkpt>
      <trkpt lat="42.858" lon="2.13652">
        <ele>997.59997558594</ele>
        <time>2014-04-06T07:46:10.000Z</time>
      </trkpt>
      <trkpt lat="42.85784" lon="2.13663">
        <ele>996</ele>
        <time>2014-04-06T07:46:15.000Z</time>
      </trkpt>
      <trkpt lat="42.85778" lon="2.13666">
        <ele>995.40002441406</ele>
        <time>2014-04-06T07:46:17.000Z</time>
      </trkpt>
      <trkpt lat="42.85767" lon="2.13675">
        <ele>993.59997558594</ele>
        <time>2014-04-06T07:46:21.000Z</time>
      </trkpt>
      <trkpt lat="42.85762" lon="2.1368">
        <ele>992.79998779297</ele>
        <time>2014-04-06T07:46:23.000Z</time>
      </trkpt>
      <trkpt lat="42.85754" lon="2.13697">
        <ele>991.59997558594</ele>
        <time>2014-04-06T07:46:28.000Z</time>
      </trkpt>
      <trkpt lat="42.85746" lon="2.13711">
        <ele>991.20001220703</ele>
        <time>2014-04-06T07:46:32.000Z</time>
      </trkpt>
      <trkpt lat="42.85744" lon="2.13713">
        <ele>991.40002441406</ele>
        <time>2014-04-06T07:46:33.000Z</time>
      </trkpt>
      <trkpt lat="42.85728" lon="2.13715">
        <ele>992.20001220703</ele>
        <time>2014-04-06T07:46:38.000Z</time>
      </trkpt>
      <trkpt lat="42.85726" lon="2.13715">
        <ele>992.40002441406</ele>
        <time>2014-04-06T07:46:39.000Z</time>
      </trkpt>
      <trkpt lat="42.85709" lon="2.13724">
        <ele>993.40002441406</ele>
        <time>2014-04-06T07:46:45.000Z</time>
      </trkpt>
      <trkpt lat="42.85696" lon="2.13745">
        <ele>994</ele>
        <time>2014-04-06T07:46:52.000Z</time>
      </trkpt>
      <trkpt lat="42.85687" lon="2.13761">
        <ele>995.20001220703</ele>
        <time>2014-04-06T07:46:57.000Z</time>
      </trkpt>
      <trkpt lat="42.85673" lon="2.13778">
        <ele>997.20001220703</ele>
        <time>2014-04-06T07:47:03.000Z</time>
      </trkpt>
      <trkpt lat="42.85661" lon="2.13782">
        <ele>999.20001220703</ele>
        <time>2014-04-06T07:47:08.000Z</time>
      </trkpt>
      <trkpt lat="42.85653" lon="2.13782">
        <ele>1001</ele>
        <time>2014-04-06T07:47:12.000Z</time>
      </trkpt>
      <trkpt lat="42.85646" lon="2.13773">
        <ele>1002.4000244141</ele>
        <time>2014-04-06T07:47:17.000Z</time>
      </trkpt>
      <trkpt lat="42.8564" lon="2.13763">
        <ele>1003.4000244141</ele>
        <time>2014-04-06T07:47:23.000Z</time>
      </trkpt>
      <trkpt lat="42.85636" lon="2.13751">
        <ele>1004.200012207</ele>
        <time>2014-04-06T07:47:29.000Z</time>
      </trkpt>
      <trkpt lat="42.85635" lon="2.1375">
        <ele>1004.200012207</ele>
        <time>2014-04-06T07:47:30.000Z</time>
      </trkpt>
      <trkpt lat="42.85634" lon="2.13741">
        <ele>1004.799987793</ele>
        <time>2014-04-06T07:47:36.000Z</time>
      </trkpt>
      <trkpt lat="42.85633" lon="2.13736">
        <ele>1005.4000244141</ele>
        <time>2014-04-06T07:47:39.000Z</time>
      </trkpt>
      <trkpt lat="42.8563" lon="2.13727">
        <ele>1006.4000244141</ele>
        <time>2014-04-06T07:47:45.000Z</time>
      </trkpt>
      <trkpt lat="42.85627" lon="2.13719">
        <ele>1007.4000244141</ele>
        <time>2014-04-06T07:47:51.000Z</time>
      </trkpt>
      <trkpt lat="42.85627" lon="2.13717">
        <ele>1007.5999755859</ele>
        <time>2014-04-06T07:47:52.000Z</time>
      </trkpt>
      <trkpt lat="42.85624" lon="2.13709">
        <ele>1008.5999755859</ele>
        <time>2014-04-06T07:47:58.000Z</time>
      </trkpt>
      <trkpt lat="42.85624" lon="2.13708">
        <ele>1008.799987793</ele>
        <time>2014-04-06T07:48:00.000Z</time>
      </trkpt>
      <trkpt lat="42.85621" lon="2.13701">
        <ele>1009.799987793</ele>
        <time>2014-04-06T07:48:05.000Z</time>
      </trkpt>
      <trkpt lat="42.85619" lon="2.13694">
        <ele>1010.799987793</ele>
        <time>2014-04-06T07:48:10.000Z</time>
      </trkpt>
      <trkpt lat="42.85619" lon="2.13688">
        <ele>1011</ele>
        <time>2014-04-06T07:48:14.000Z</time>
      </trkpt>
      <trkpt lat="42.85617" lon="2.1368">
        <ele>1012</ele>
        <time>2014-04-06T07:48:19.000Z</time>
      </trkpt>
      <trkpt lat="42.85615" lon="2.13672">
        <ele>1013</ele>
        <time>2014-04-06T07:48:23.000Z</time>
      </trkpt>
      <trkpt lat="42.85613" lon="2.13665">
        <ele>1013.5999755859</ele>
        <time>2014-04-06T07:48:26.000Z</time>
      </trkpt>
      <trkpt lat="42.85613" lon="2.13663">
        <ele>1013.799987793</ele>
        <time>2014-04-06T07:48:27.000Z</time>
      </trkpt>
      <trkpt lat="42.85612" lon="2.13658">
        <ele>1014</ele>
        <time>2014-04-06T07:48:29.000Z</time>
      </trkpt>
      <trkpt lat="42.85606" lon="2.13642">
        <ele>1015.799987793</ele>
        <time>2014-04-06T07:48:35.000Z</time>
      </trkpt>
      <trkpt lat="42.85601" lon="2.1363">
        <ele>1017.200012207</ele>
        <time>2014-04-06T07:48:40.000Z</time>
      </trkpt>
      <trkpt lat="42.85599" lon="2.1362">
        <ele>1017.5999755859</ele>
        <time>2014-04-06T07:48:43.000Z</time>
      </trkpt>
      <trkpt lat="42.85596" lon="2.13609">
        <ele>1018.4000244141</ele>
        <time>2014-04-06T07:48:47.000Z</time>
      </trkpt>
      <trkpt lat="42.85595" lon="2.13604">
        <ele>1018.799987793</ele>
        <time>2014-04-06T07:48:49.000Z</time>
      </trkpt>
      <trkpt lat="42.85589" lon="2.13589">
        <ele>1020.4000244141</ele>
        <time>2014-04-06T07:48:54.000Z</time>
      </trkpt>
      <trkpt lat="42.85584" lon="2.13578">
        <ele>1021.4000244141</ele>
        <time>2014-04-06T07:48:59.000Z</time>
      </trkpt>
      <trkpt lat="42.85579" lon="2.13572">
        <ele>1023</ele>
        <time>2014-04-06T07:49:02.000Z</time>
      </trkpt>
      <trkpt lat="42.85577" lon="2.13562">
        <ele>1023.4000244141</ele>
        <time>2014-04-06T07:49:06.000Z</time>
      </trkpt>
      <trkpt lat="42.85577" lon="2.13558">
        <ele>1023.4000244141</ele>
        <time>2014-04-06T07:49:08.000Z</time>
      </trkpt>
      <trkpt lat="42.85573" lon="2.13546">
        <ele>1024.4000244141</ele>
        <time>2014-04-06T07:49:13.000Z</time>
      </trkpt>
      <trkpt lat="42.85568" lon="2.13534">
        <ele>1025.8000488281</ele>
        <time>2014-04-06T07:49:18.000Z</time>
      </trkpt>
      <trkpt lat="42.85567" lon="2.13521">
        <ele>1026</ele>
        <time>2014-04-06T07:49:23.000Z</time>
      </trkpt>
      <trkpt lat="42.85566" lon="2.13518">
        <ele>1026.1999511719</ele>
        <time>2014-04-06T07:49:24.000Z</time>
      </trkpt>
      <trkpt lat="42.85564" lon="2.1351">
        <ele>1026.8000488281</ele>
        <time>2014-04-06T07:49:27.000Z</time>
      </trkpt>
      <trkpt lat="42.85559" lon="2.13497">
        <ele>1028.5999755859</ele>
        <time>2014-04-06T07:49:32.000Z</time>
      </trkpt>
      <trkpt lat="42.85559" lon="2.13494">
        <ele>1028.4000244141</ele>
        <time>2014-04-06T07:49:33.000Z</time>
      </trkpt>
      <trkpt lat="42.85558" lon="2.13485">
        <ele>1028.5999755859</ele>
        <time>2014-04-06T07:49:37.000Z</time>
      </trkpt>
      <trkpt lat="42.85554" lon="2.13473">
        <ele>1030.5999755859</ele>
        <time>2014-04-06T07:49:42.000Z</time>
      </trkpt>
      <trkpt lat="42.85553" lon="2.13472">
        <ele>1030.8000488281</ele>
        <time>2014-04-06T07:49:43.000Z</time>
      </trkpt>
      <trkpt lat="42.85547" lon="2.13458">
        <ele>1033.5999755859</ele>
        <time>2014-04-06T07:49:49.000Z</time>
      </trkpt>
      <trkpt lat="42.85546" lon="2.13456">
        <ele>1034</ele>
        <time>2014-04-06T07:49:50.000Z</time>
      </trkpt>
      <trkpt lat="42.85541" lon="2.13441">
        <ele>1036.1999511719</ele>
        <time>2014-04-06T07:49:57.000Z</time>
      </trkpt>
      <trkpt lat="42.8554" lon="2.13439">
        <ele>1036.5999755859</ele>
        <time>2014-04-06T07:49:58.000Z</time>
      </trkpt>
      <trkpt lat="42.85539" lon="2.13433">
        <ele>1037.1999511719</ele>
        <time>2014-04-06T07:50:01.000Z</time>
      </trkpt>
      <trkpt lat="42.85537" lon="2.1342">
        <ele>1037.8000488281</ele>
        <time>2014-04-06T07:50:06.000Z</time>
      </trkpt>
      <trkpt lat="42.85536" lon="2.13415">
        <ele>1038.5999755859</ele>
        <time>2014-04-06T07:50:08.000Z</time>
      </trkpt>
      <trkpt lat="42.85534" lon="2.13408">
        <ele>1039.1999511719</ele>
        <time>2014-04-06T07:50:11.000Z</time>
      </trkpt>
      <trkpt lat="42.85534" lon="2.13396">
        <ele>1039</ele>
        <time>2014-04-06T07:50:16.000Z</time>
      </trkpt>
      <trkpt lat="42.85533" lon="2.13393">
        <ele>1039.1999511719</ele>
        <time>2014-04-06T07:50:17.000Z</time>
      </trkpt>
      <trkpt lat="42.85531" lon="2.13384">
        <ele>1040</ele>
        <time>2014-04-06T07:50:21.000Z</time>
      </trkpt>
      <trkpt lat="42.8553" lon="2.13378">
        <ele>1040.5999755859</ele>
        <time>2014-04-06T07:50:24.000Z</time>
      </trkpt>
      <trkpt lat="42.85528" lon="2.1337">
        <ele>1041.4000244141</ele>
        <time>2014-04-06T07:50:28.000Z</time>
      </trkpt>
      <trkpt lat="42.85528" lon="2.13363">
        <ele>1041.4000244141</ele>
        <time>2014-04-06T07:50:31.000Z</time>
      </trkpt>
      <trkpt lat="42.85524" lon="2.13353">
        <ele>1042.8000488281</ele>
        <time>2014-04-06T07:50:35.000Z</time>
      </trkpt>
      <trkpt lat="42.85519" lon="2.13343">
        <ele>1045</ele>
        <time>2014-04-06T07:50:39.000Z</time>
      </trkpt>
      <trkpt lat="42.85517" lon="2.13327">
        <ele>1045.8000488281</ele>
        <time>2014-04-06T07:50:45.000Z</time>
      </trkpt>
      <trkpt lat="42.85517" lon="2.13325">
        <ele>1046</ele>
        <time>2014-04-06T07:50:46.000Z</time>
      </trkpt>
      <trkpt lat="42.85516" lon="2.13317">
        <ele>1047.1999511719</ele>
        <time>2014-04-06T07:50:49.000Z</time>
      </trkpt>
      <trkpt lat="42.85513" lon="2.13306">
        <ele>1048.8000488281</ele>
        <time>2014-04-06T07:50:53.000Z</time>
      </trkpt>
      <trkpt lat="42.8551" lon="2.1329">
        <ele>1051.1999511719</ele>
        <time>2014-04-06T07:50:59.000Z</time>
      </trkpt>
      <trkpt lat="42.8551" lon="2.13288">
        <ele>1051.5999755859</ele>
        <time>2014-04-06T07:51:00.000Z</time>
      </trkpt>
      <trkpt lat="42.85509" lon="2.13278">
        <ele>1052.5999755859</ele>
        <time>2014-04-06T07:51:04.000Z</time>
      </trkpt>
      <trkpt lat="42.85508" lon="2.13269">
        <ele>1053.5999755859</ele>
        <time>2014-04-06T07:51:08.000Z</time>
      </trkpt>
      <trkpt lat="42.85507" lon="2.13259">
        <ele>1054.4000244141</ele>
        <time>2014-04-06T07:51:13.000Z</time>
      </trkpt>
      <trkpt lat="42.85507" lon="2.13252">
        <ele>1054.8000488281</ele>
        <time>2014-04-06T07:51:16.000Z</time>
      </trkpt>
      <trkpt lat="42.85506" lon="2.1324">
        <ele>1056</ele>
        <time>2014-04-06T07:51:21.000Z</time>
      </trkpt>
      <trkpt lat="42.85505" lon="2.13232">
        <ele>1056.4000244141</ele>
        <time>2014-04-06T07:51:24.000Z</time>
      </trkpt>
      <trkpt lat="42.85505" lon="2.13225">
        <ele>1056.8000488281</ele>
        <time>2014-04-06T07:51:27.000Z</time>
      </trkpt>
      <trkpt lat="42.85505" lon="2.13213">
        <ele>1057.4000244141</ele>
        <time>2014-04-06T07:51:32.000Z</time>
      </trkpt>
      <trkpt lat="42.85503" lon="2.13203">
        <ele>1058.4000244141</ele>
        <time>2014-04-06T07:51:36.000Z</time>
      </trkpt>
      <trkpt lat="42.85504" lon="2.1319">
        <ele>1058.5999755859</ele>
        <time>2014-04-06T07:51:42.000Z</time>
      </trkpt>
      <trkpt lat="42.85502" lon="2.13177">
        <ele>1060</ele>
        <time>2014-04-06T07:51:48.000Z</time>
      </trkpt>
      <trkpt lat="42.85501" lon="2.13175">
        <ele>1060.1999511719</ele>
        <time>2014-04-06T07:51:49.000Z</time>
      </trkpt>
      <trkpt lat="42.855" lon="2.13163">
        <ele>1061.1999511719</ele>
        <time>2014-04-06T07:51:55.000Z</time>
      </trkpt>
      <trkpt lat="42.85502" lon="2.1315">
        <ele>1061</ele>
        <time>2014-04-06T07:52:01.000Z</time>
      </trkpt>
      <trkpt lat="42.85502" lon="2.13147">
        <ele>1060.8000488281</ele>
        <time>2014-04-06T07:52:02.000Z</time>
      </trkpt>
      <trkpt lat="42.85504" lon="2.13139">
        <ele>1060.5999755859</ele>
        <time>2014-04-06T07:52:05.000Z</time>
      </trkpt>
      <trkpt lat="42.85509" lon="2.13127">
        <ele>1059.1999511719</ele>
        <time>2014-04-06T07:52:10.000Z</time>
      </trkpt>
      <trkpt lat="42.85511" lon="2.13116">
        <ele>1058.8000488281</ele>
        <time>2014-04-06T07:52:15.000Z</time>
      </trkpt>
      <trkpt lat="42.85513" lon="2.13111">
        <ele>1058.5999755859</ele>
        <time>2014-04-06T07:52:17.000Z</time>
      </trkpt>
      <trkpt lat="42.85518" lon="2.13097">
        <ele>1057.4000244141</ele>
        <time>2014-04-06T07:52:23.000Z</time>
      </trkpt>
      <trkpt lat="42.85519" lon="2.13095">
        <ele>1057.4000244141</ele>
        <time>2014-04-06T07:52:24.000Z</time>
      </trkpt>
      <trkpt lat="42.85525" lon="2.13085">
        <ele>1056.1999511719</ele>
        <time>2014-04-06T07:52:29.000Z</time>
      </trkpt>
      <trkpt lat="42.85529" lon="2.13076">
        <ele>1056.5999755859</ele>
        <time>2014-04-06T07:52:33.000Z</time>
      </trkpt>
      <trkpt lat="42.85534" lon="2.13068">
        <ele>1057.1999511719</ele>
        <time>2014-04-06T07:52:37.000Z</time>
      </trkpt>
      <trkpt lat="42.85537" lon="2.13062">
        <ele>1057.8000488281</ele>
        <time>2014-04-06T07:52:40.000Z</time>
      </trkpt>
      <trkpt lat="42.85547" lon="2.13047">
        <ele>1058.1999511719</ele>
        <time>2014-04-06T07:52:48.000Z</time>
      </trkpt>
      <trkpt lat="42.85549" lon="2.13046">
        <ele>1058.1999511719</ele>
        <time>2014-04-06T07:52:49.000Z</time>
      </trkpt>
      <trkpt lat="42.8556" lon="2.13035">
        <ele>1058</ele>
        <time>2014-04-06T07:52:56.000Z</time>
      </trkpt>
      <trkpt lat="42.85565" lon="2.13024">
        <ele>1059.1999511719</ele>
        <time>2014-04-06T07:53:01.000Z</time>
      </trkpt>
      <trkpt lat="42.85565" lon="2.13019">
        <ele>1060.5999755859</ele>
        <time>2014-04-06T07:53:03.000Z</time>
      </trkpt>
      <trkpt lat="42.85558" lon="2.13016">
        <ele>1063.4000244141</ele>
        <time>2014-04-06T07:53:08.000Z</time>
      </trkpt>
      <trkpt lat="42.85554" lon="2.13019">
        <ele>1064</ele>
        <time>2014-04-06T07:53:11.000Z</time>
      </trkpt>
      <trkpt lat="42.85544" lon="2.13029">
        <ele>1064.1999511719</ele>
        <time>2014-04-06T07:53:17.000Z</time>
      </trkpt>
      <trkpt lat="42.85537" lon="2.13035">
        <ele>1064.8000488281</ele>
        <time>2014-04-06T07:53:22.000Z</time>
      </trkpt>
      <trkpt lat="42.85526" lon="2.13044">
        <ele>1066</ele>
        <time>2014-04-06T07:53:30.000Z</time>
      </trkpt>
      <trkpt lat="42.85518" lon="2.13051">
        <ele>1066.5999755859</ele>
        <time>2014-04-06T07:53:36.000Z</time>
      </trkpt>
      <trkpt lat="42.85511" lon="2.13058">
        <ele>1067.1999511719</ele>
        <time>2014-04-06T07:53:41.000Z</time>
      </trkpt>
      <trkpt lat="42.855" lon="2.13067">
        <ele>1068.5999755859</ele>
        <time>2014-04-06T07:53:48.000Z</time>
      </trkpt>
      <trkpt lat="42.85491" lon="2.13072">
        <ele>1068.5999755859</ele>
        <time>2014-04-06T07:53:54.000Z</time>
      </trkpt>
      <trkpt lat="42.85482" lon="2.13074">
        <ele>1069.4000244141</ele>
        <time>2014-04-06T07:54:00.000Z</time>
      </trkpt>
      <trkpt lat="42.85474" lon="2.13073">
        <ele>1070.5999755859</ele>
        <time>2014-04-06T07:54:05.000Z</time>
      </trkpt>
      <trkpt lat="42.85467" lon="2.13072">
        <ele>1071.4000244141</ele>
        <time>2014-04-06T07:54:09.000Z</time>
      </trkpt>
      <trkpt lat="42.85458" lon="2.13075">
        <ele>1072.1999511719</ele>
        <time>2014-04-06T07:54:15.000Z</time>
      </trkpt>
      <trkpt lat="42.8545" lon="2.13084">
        <ele>1072.1999511719</ele>
        <time>2014-04-06T07:54:21.000Z</time>
      </trkpt>
      <trkpt lat="42.85446" lon="2.13097">
        <ele>1074</ele>
        <time>2014-04-06T07:54:27.000Z</time>
      </trkpt>
      <trkpt lat="42.85442" lon="2.1311">
        <ele>1075.8000488281</ele>
        <time>2014-04-06T07:54:33.000Z</time>
      </trkpt>
      <trkpt lat="42.85436" lon="2.13119">
        <ele>1078</ele>
        <time>2014-04-06T07:54:38.000Z</time>
      </trkpt>
      <trkpt lat="42.8543" lon="2.13123">
        <ele>1080</ele>
        <time>2014-04-06T07:54:42.000Z</time>
      </trkpt>
      <trkpt lat="42.85419" lon="2.13122">
        <ele>1082.4000244141</ele>
        <time>2014-04-06T07:54:49.000Z</time>
      </trkpt>
      <trkpt lat="42.85409" lon="2.13117">
        <ele>1082.8000488281</ele>
        <time>2014-04-06T07:54:55.000Z</time>
      </trkpt>
      <trkpt lat="42.85401" lon="2.13113">
        <ele>1082.8000488281</ele>
        <time>2014-04-06T07:54:59.000Z</time>
      </trkpt>
      <trkpt lat="42.85392" lon="2.13108">
        <ele>1082.8000488281</ele>
        <time>2014-04-06T07:55:03.000Z</time>
      </trkpt>
      <trkpt lat="42.8539" lon="2.13107">
        <ele>1082.8000488281</ele>
        <time>2014-04-06T07:55:04.000Z</time>
      </trkpt>
      <trkpt lat="42.8538" lon="2.13102">
        <ele>1083</ele>
        <time>2014-04-06T07:55:08.000Z</time>
      </trkpt>
      <trkpt lat="42.85368" lon="2.13095">
        <ele>1083</ele>
        <time>2014-04-06T07:55:13.000Z</time>
      </trkpt>
      <trkpt lat="42.85359" lon="2.13088">
        <ele>1083</ele>
        <time>2014-04-06T07:55:17.000Z</time>
      </trkpt>
      <trkpt lat="42.85343" lon="2.13075">
        <ele>1084.1999511719</ele>
        <time>2014-04-06T07:55:23.000Z</time>
      </trkpt>
      <trkpt lat="42.85337" lon="2.1307">
        <ele>1084.8000488281</ele>
        <time>2014-04-06T07:55:26.000Z</time>
      </trkpt>
      <trkpt lat="42.85329" lon="2.13064">
        <ele>1085.5999755859</ele>
        <time>2014-04-06T07:55:30.000Z</time>
      </trkpt>
      <trkpt lat="42.85316" lon="2.13053">
        <ele>1086.8000488281</ele>
        <time>2014-04-06T07:55:36.000Z</time>
      </trkpt>
      <trkpt lat="42.85308" lon="2.1305">
        <ele>1087.4000244141</ele>
        <time>2014-04-06T07:55:40.000Z</time>
      </trkpt>
      <trkpt lat="42.85294" lon="2.13053">
        <ele>1088.5999755859</ele>
        <time>2014-04-06T07:55:46.000Z</time>
      </trkpt>
      <trkpt lat="42.8528" lon="2.13058">
        <ele>1089.5999755859</ele>
        <time>2014-04-06T07:55:51.000Z</time>
      </trkpt>
      <trkpt lat="42.85278" lon="2.1306">
        <ele>1089.8000488281</ele>
        <time>2014-04-06T07:55:52.000Z</time>
      </trkpt>
      <trkpt lat="42.85263" lon="2.13068">
        <ele>1091</ele>
        <time>2014-04-06T07:55:58.000Z</time>
      </trkpt>
      <trkpt lat="42.8525" lon="2.13076">
        <ele>1092</ele>
        <time>2014-04-06T07:56:04.000Z</time>
      </trkpt>
      <trkpt lat="42.85249" lon="2.13077">
        <ele>1092.1999511719</ele>
        <time>2014-04-06T07:56:05.000Z</time>
      </trkpt>
      <trkpt lat="42.8524" lon="2.13081">
        <ele>1093.1999511719</ele>
        <time>2014-04-06T07:56:09.000Z</time>
      </trkpt>
      <trkpt lat="42.85236" lon="2.13083">
        <ele>1093.5999755859</ele>
        <time>2014-04-06T07:56:11.000Z</time>
      </trkpt>
      <trkpt lat="42.85228" lon="2.1309">
        <ele>1094.5999755859</ele>
        <time>2014-04-06T07:56:16.000Z</time>
      </trkpt>
      <trkpt lat="42.85223" lon="2.13092">
        <ele>1095.1999511719</ele>
        <time>2014-04-06T07:56:18.000Z</time>
      </trkpt>
      <trkpt lat="42.85214" lon="2.13098">
        <ele>1096.1999511719</ele>
        <time>2014-04-06T07:56:22.000Z</time>
      </trkpt>
      <trkpt lat="42.85201" lon="2.13105">
        <ele>1097.4000244141</ele>
        <time>2014-04-06T07:56:28.000Z</time>
      </trkpt>
      <trkpt lat="42.85199" lon="2.13107">
        <ele>1097.5999755859</ele>
        <time>2014-04-06T07:56:29.000Z</time>
      </trkpt>
      <trkpt lat="42.85197" lon="2.13108">
        <ele>1097.8000488281</ele>
        <time>2014-04-06T07:56:30.000Z</time>
      </trkpt>
      <trkpt lat="42.85191" lon="2.13113">
        <ele>1098.1999511719</ele>
        <time>2014-04-06T07:56:33.000Z</time>
      </trkpt>
      <trkpt lat="42.85182" lon="2.1312">
        <ele>1098.5999755859</ele>
        <time>2014-04-06T07:56:37.000Z</time>
      </trkpt>
      <trkpt lat="42.85174" lon="2.13126">
        <ele>1099</ele>
        <time>2014-04-06T07:56:41.000Z</time>
      </trkpt>
      <trkpt lat="42.85173" lon="2.13127">
        <ele>1099</ele>
        <time>2014-04-06T07:56:42.000Z</time>
      </trkpt>
      <trkpt lat="42.85163" lon="2.13137">
        <ele>1099.8000488281</ele>
        <time>2014-04-06T07:56:47.000Z</time>
      </trkpt>
      <trkpt lat="42.85156" lon="2.13139">
        <ele>1101.4000244141</ele>
        <time>2014-04-06T07:56:50.000Z</time>
      </trkpt>
      <trkpt lat="42.8515" lon="2.13146">
        <ele>1102.4000244141</ele>
        <time>2014-04-06T07:56:54.000Z</time>
      </trkpt>
      <trkpt lat="42.85142" lon="2.13155">
        <ele>1103.5999755859</ele>
        <time>2014-04-06T07:56:59.000Z</time>
      </trkpt>
      <trkpt lat="42.85141" lon="2.13157">
        <ele>1103.8000488281</ele>
        <time>2014-04-06T07:57:00.000Z</time>
      </trkpt>
      <trkpt lat="42.85137" lon="2.13166">
        <ele>1104</ele>
        <time>2014-04-06T07:57:04.000Z</time>
      </trkpt>
      <trkpt lat="42.85133" lon="2.13174">
        <ele>1105</ele>
        <time>2014-04-06T07:57:08.000Z</time>
      </trkpt>
      <trkpt lat="42.85132" lon="2.13175">
        <ele>1105.1999511719</ele>
        <time>2014-04-06T07:57:09.000Z</time>
      </trkpt>
      <trkpt lat="42.85128" lon="2.1318">
        <ele>1106</ele>
        <time>2014-04-06T07:57:11.000Z</time>
      </trkpt>
      <trkpt lat="42.85124" lon="2.13183">
        <ele>1106.8000488281</ele>
        <time>2014-04-06T07:57:14.000Z</time>
      </trkpt>
      <trkpt lat="42.85121" lon="2.13188">
        <ele>1107.5999755859</ele>
        <time>2014-04-06T07:57:17.000Z</time>
      </trkpt>
      <trkpt lat="42.85113" lon="2.13197">
        <ele>1108.8000488281</ele>
        <time>2014-04-06T07:57:22.000Z</time>
      </trkpt>
      <trkpt lat="42.85107" lon="2.13208">
        <ele>1109.5999755859</ele>
        <time>2014-04-06T07:57:27.000Z</time>
      </trkpt>
      <trkpt lat="42.85102" lon="2.13217">
        <ele>1110.1999511719</ele>
        <time>2014-04-06T07:57:31.000Z</time>
      </trkpt>
      <trkpt lat="42.85101" lon="2.13219">
        <ele>1110.1999511719</ele>
        <time>2014-04-06T07:57:32.000Z</time>
      </trkpt>
      <trkpt lat="42.85095" lon="2.13229">
        <ele>1110.5999755859</ele>
        <time>2014-04-06T07:57:36.000Z</time>
      </trkpt>
      <trkpt lat="42.85089" lon="2.13238">
        <ele>1111</ele>
        <time>2014-04-06T07:57:40.000Z</time>
      </trkpt>
      <trkpt lat="42.85088" lon="2.13242">
        <ele>1111</ele>
        <time>2014-04-06T07:57:42.000Z</time>
      </trkpt>
      <trkpt lat="42.85082" lon="2.13247">
        <ele>1111.4000244141</ele>
        <time>2014-04-06T07:57:45.000Z</time>
      </trkpt>
      <trkpt lat="42.85076" lon="2.13257">
        <ele>1113</ele>
        <time>2014-04-06T07:57:51.000Z</time>
      </trkpt>
      <trkpt lat="42.85074" lon="2.13259">
        <ele>1113.8000488281</ele>
        <time>2014-04-06T07:57:52.000Z</time>
      </trkpt>
      <trkpt lat="42.85069" lon="2.13267">
        <ele>1114.8000488281</ele>
        <time>2014-04-06T07:57:56.000Z</time>
      </trkpt>
      <trkpt lat="42.85067" lon="2.1327">
        <ele>1115.5999755859</ele>
        <time>2014-04-06T07:57:58.000Z</time>
      </trkpt>
      <trkpt lat="42.85062" lon="2.13278">
        <ele>1116.8000488281</ele>
        <time>2014-04-06T07:58:02.000Z</time>
      </trkpt>
      <trkpt lat="42.8506" lon="2.13285">
        <ele>1117.1999511719</ele>
        <time>2014-04-06T07:58:07.000Z</time>
      </trkpt>
      <trkpt lat="42.8506" lon="2.13287">
        <ele>1117.1999511719</ele>
        <time>2014-04-06T07:58:08.000Z</time>
      </trkpt>
      <trkpt lat="42.85058" lon="2.13291">
        <ele>1117.4000244141</ele>
        <time>2014-04-06T07:58:10.000Z</time>
      </trkpt>
      <trkpt lat="42.85053" lon="2.133">
        <ele>1118.5999755859</ele>
        <time>2014-04-06T07:58:15.000Z</time>
      </trkpt>
      <trkpt lat="42.85052" lon="2.13304">
        <ele>1118.8000488281</ele>
        <time>2014-04-06T07:58:17.000Z</time>
      </trkpt>
      <trkpt lat="42.85051" lon="2.13306">
        <ele>1119</ele>
        <time>2014-04-06T07:58:19.000Z</time>
      </trkpt>
      <trkpt lat="42.85049" lon="2.13315">
        <ele>1119.1999511719</ele>
        <time>2014-04-06T07:58:25.000Z</time>
      </trkpt>
      <trkpt lat="42.85049" lon="2.13316">
        <ele>1119.4000244141</ele>
        <time>2014-04-06T07:58:26.000Z</time>
      </trkpt>
      <trkpt lat="42.85048" lon="2.13317">
        <ele>1119.5999755859</ele>
        <time>2014-04-06T07:58:27.000Z</time>
      </trkpt>
      <trkpt lat="42.85046" lon="2.13319">
        <ele>1119.8000488281</ele>
        <time>2014-04-06T07:58:30.000Z</time>
      </trkpt>
      <trkpt lat="42.85044" lon="2.13322">
        <ele>1120.1999511719</ele>
        <time>2014-04-06T07:58:33.000Z</time>
      </trkpt>
      <trkpt lat="42.85041" lon="2.13327">
        <ele>1120.8000488281</ele>
        <time>2014-04-06T07:58:37.000Z</time>
      </trkpt>
      <trkpt lat="42.85039" lon="2.13328">
        <ele>1121.1999511719</ele>
        <time>2014-04-06T07:58:39.000Z</time>
      </trkpt>
      <trkpt lat="42.85039" lon="2.13329">
        <ele>1121.1999511719</ele>
        <time>2014-04-06T07:58:40.000Z</time>
      </trkpt>
      <trkpt lat="42.85033" lon="2.13336">
        <ele>1122.5999755859</ele>
        <time>2014-04-06T07:58:46.000Z</time>
      </trkpt>
      <trkpt lat="42.8503" lon="2.13339">
        <ele>1123.1999511719</ele>
        <time>2014-04-06T07:58:48.000Z</time>
      </trkpt>
      <trkpt lat="42.85025" lon="2.13347">
        <ele>1124.1999511719</ele>
        <time>2014-04-06T07:58:53.000Z</time>
      </trkpt>
      <trkpt lat="42.85025" lon="2.13348">
        <ele>1124.4000244141</ele>
        <time>2014-04-06T07:58:54.000Z</time>
      </trkpt>
      <trkpt lat="42.85023" lon="2.13353">
        <ele>1124.5999755859</ele>
        <time>2014-04-06T07:58:58.000Z</time>
      </trkpt>
      <trkpt lat="42.8502" lon="2.13364">
        <ele>1125</ele>
        <time>2014-04-06T07:59:05.000Z</time>
      </trkpt>
      <trkpt lat="42.8502" lon="2.13365">
        <ele>1125</ele>
        <time>2014-04-06T07:59:06.000Z</time>
      </trkpt>
      <trkpt lat="42.8502" lon="2.13366">
        <ele>1125</ele>
        <time>2014-04-06T07:59:07.000Z</time>
      </trkpt>
      <trkpt lat="42.8502" lon="2.13371">
        <ele>1125</ele>
        <time>2014-04-06T07:59:10.000Z</time>
      </trkpt>
      <trkpt lat="42.8502" lon="2.13374">
        <ele>1125</ele>
        <time>2014-04-06T07:59:12.000Z</time>
      </trkpt>
      <trkpt lat="42.8502" lon="2.13379">
        <ele>1125</ele>
        <time>2014-04-06T07:59:16.000Z</time>
      </trkpt>
      <trkpt lat="42.8502" lon="2.13382">
        <ele>1125</ele>
        <time>2014-04-06T07:59:18.000Z</time>
      </trkpt>
      <trkpt lat="42.85018" lon="2.13384">
        <ele>1125.1999511719</ele>
        <time>2014-04-06T07:59:20.000Z</time>
      </trkpt>
      <trkpt lat="42.85018" lon="2.13385">
        <ele>1125.1999511719</ele>
        <time>2014-04-06T07:59:21.000Z</time>
      </trkpt>
      <trkpt lat="42.85015" lon="2.13391">
        <ele>1125.4000244141</ele>
        <time>2014-04-06T07:59:26.000Z</time>
      </trkpt>
      <trkpt lat="42.85011" lon="2.13398">
        <ele>1125.8000488281</ele>
        <time>2014-04-06T07:59:30.000Z</time>
      </trkpt>
      <trkpt lat="42.85009" lon="2.13403">
        <ele>1125.8000488281</ele>
        <time>2014-04-06T07:59:34.000Z</time>
      </trkpt>
      <trkpt lat="42.85009" lon="2.13405">
        <ele>1125.8000488281</ele>
        <time>2014-04-06T07:59:35.000Z</time>
      </trkpt>
      <trkpt lat="42.85008" lon="2.13405">
        <ele>1125.8000488281</ele>
        <time>2014-04-06T07:59:36.000Z</time>
      </trkpt>
      <trkpt lat="42.85008" lon="2.1341">
        <ele>1125.5999755859</ele>
        <time>2014-04-06T07:59:40.000Z</time>
      </trkpt>
      <trkpt lat="42.85008" lon="2.13411">
        <ele>1125.5999755859</ele>
        <time>2014-04-06T07:59:41.000Z</time>
      </trkpt>
      <trkpt lat="42.85007" lon="2.13412">
        <ele>1125.5999755859</ele>
        <time>2014-04-06T07:59:42.000Z</time>
      </trkpt>
      <trkpt lat="42.85001" lon="2.13418">
        <ele>1126</ele>
        <time>2014-04-06T07:59:47.000Z</time>
      </trkpt>
      <trkpt lat="42.84992" lon="2.1343">
        <ele>1129</ele>
        <time>2014-04-06T07:59:53.000Z</time>
      </trkpt>
      <trkpt lat="42.84991" lon="2.13431">
        <ele>1129.1999511719</ele>
        <time>2014-04-06T07:59:54.000Z</time>
      </trkpt>
      <trkpt lat="42.84992" lon="2.13439">
        <ele>1129.1999511719</ele>
        <time>2014-04-06T07:59:58.000Z</time>
      </trkpt>
      <trkpt lat="42.84992" lon="2.13443">
        <ele>1129.1999511719</ele>
        <time>2014-04-06T08:00:00.000Z</time>
      </trkpt>
      <trkpt lat="42.84987" lon="2.13453">
        <ele>1131</ele>
        <time>2014-04-06T08:00:04.000Z</time>
      </trkpt>
      <trkpt lat="42.84985" lon="2.13458">
        <ele>1131.5999755859</ele>
        <time>2014-04-06T08:00:07.000Z</time>
      </trkpt>
      <trkpt lat="42.84983" lon="2.13462">
        <ele>1132.1999511719</ele>
        <time>2014-04-06T08:00:09.000Z</time>
      </trkpt>
      <trkpt lat="42.84982" lon="2.13465">
        <ele>1132.5999755859</ele>
        <time>2014-04-06T08:00:12.000Z</time>
      </trkpt>
      <trkpt lat="42.84982" lon="2.1347">
        <ele>1132.5999755859</ele>
        <time>2014-04-06T08:00:14.000Z</time>
      </trkpt>
      <trkpt lat="42.84982" lon="2.13483">
        <ele>1132.8000488281</ele>
        <time>2014-04-06T08:00:20.000Z</time>
      </trkpt>
      <trkpt lat="42.84981" lon="2.13498">
        <ele>1133</ele>
        <time>2014-04-06T08:00:26.000Z</time>
      </trkpt>
      <trkpt lat="42.84979" lon="2.13506">
        <ele>1134</ele>
        <time>2014-04-06T08:00:29.000Z</time>
      </trkpt>
      <trkpt lat="42.84976" lon="2.13516">
        <ele>1135.1999511719</ele>
        <time>2014-04-06T08:00:33.000Z</time>
      </trkpt>
      <trkpt lat="42.84976" lon="2.1352">
        <ele>1135.5999755859</ele>
        <time>2014-04-06T08:00:35.000Z</time>
      </trkpt>
      <trkpt lat="42.84975" lon="2.13525">
        <ele>1136</ele>
        <time>2014-04-06T08:00:39.000Z</time>
      </trkpt>
      <trkpt lat="42.84971" lon="2.13536">
        <ele>1137.1999511719</ele>
        <time>2014-04-06T08:00:51.000Z</time>
      </trkpt>
      <trkpt lat="42.8497" lon="2.13543">
        <ele>1137.8000488281</ele>
        <time>2014-04-06T08:00:56.000Z</time>
      </trkpt>
      <trkpt lat="42.84969" lon="2.13547">
        <ele>1138</ele>
        <time>2014-04-06T08:00:59.000Z</time>
      </trkpt>
      <trkpt lat="42.84964" lon="2.1356">
        <ele>1139</ele>
        <time>2014-04-06T08:01:04.000Z</time>
      </trkpt>
      <trkpt lat="42.84961" lon="2.13563">
        <ele>1139.4000244141</ele>
        <time>2014-04-06T08:01:05.000Z</time>
      </trkpt>
      <trkpt lat="42.84951" lon="2.13572">
        <ele>1140.8000488281</ele>
        <time>2014-04-06T08:01:10.000Z</time>
      </trkpt>
      <trkpt lat="42.8495" lon="2.13573">
        <ele>1140.8000488281</ele>
        <time>2014-04-06T08:01:11.000Z</time>
      </trkpt>
      <trkpt lat="42.84948" lon="2.13578">
        <ele>1141</ele>
        <time>2014-04-06T08:01:15.000Z</time>
      </trkpt>
      <trkpt lat="42.84947" lon="2.13579">
        <ele>1141.1999511719</ele>
        <time>2014-04-06T08:01:16.000Z</time>
      </trkpt>
      <trkpt lat="42.84943" lon="2.13581">
        <ele>1141.5999755859</ele>
        <time>2014-04-06T08:01:19.000Z</time>
      </trkpt>
      <trkpt lat="42.84941" lon="2.13583">
        <ele>1141.5999755859</ele>
        <time>2014-04-06T08:01:21.000Z</time>
      </trkpt>
      <trkpt lat="42.84934" lon="2.13588">
        <ele>1142.1999511719</ele>
        <time>2014-04-06T08:01:26.000Z</time>
      </trkpt>
      <trkpt lat="42.84933" lon="2.13589">
        <ele>1142.4000244141</ele>
        <time>2014-04-06T08:01:27.000Z</time>
      </trkpt>
      <trkpt lat="42.84929" lon="2.13594">
        <ele>1142.8000488281</ele>
        <time>2014-04-06T08:01:32.000Z</time>
      </trkpt>
      <trkpt lat="42.84923" lon="2.136">
        <ele>1143</ele>
        <time>2014-04-06T08:01:37.000Z</time>
      </trkpt>
      <trkpt lat="42.84922" lon="2.13602">
        <ele>1143</ele>
        <time>2014-04-06T08:01:38.000Z</time>
      </trkpt>
      <trkpt lat="42.84922" lon="2.13603">
        <ele>1143</ele>
        <time>2014-04-06T08:01:39.000Z</time>
      </trkpt>
      <trkpt lat="42.8492" lon="2.13608">
        <ele>1143</ele>
        <time>2014-04-06T08:01:42.000Z</time>
      </trkpt>
      <trkpt lat="42.84918" lon="2.13612">
        <ele>1142.8000488281</ele>
        <time>2014-04-06T08:01:45.000Z</time>
      </trkpt>
      <trkpt lat="42.84919" lon="2.13616">
        <ele>1142.8000488281</ele>
        <time>2014-04-06T08:01:47.000Z</time>
      </trkpt>
      <trkpt lat="42.84918" lon="2.13624">
        <ele>1142.4000244141</ele>
        <time>2014-04-06T08:01:52.000Z</time>
      </trkpt>
      <trkpt lat="42.84917" lon="2.13626">
        <ele>1142.4000244141</ele>
        <time>2014-04-06T08:01:53.000Z</time>
      </trkpt>
      <trkpt lat="42.84917" lon="2.1363">
        <ele>1142.4000244141</ele>
        <time>2014-04-06T08:01:55.000Z</time>
      </trkpt>
      <trkpt lat="42.84915" lon="2.13637">
        <ele>1142.5999755859</ele>
        <time>2014-04-06T08:02:00.000Z</time>
      </trkpt>
      <trkpt lat="42.84912" lon="2.13641">
        <ele>1143.1999511719</ele>
        <time>2014-04-06T08:02:03.000Z</time>
      </trkpt>
      <trkpt lat="42.84909" lon="2.13646">
        <ele>1143.8000488281</ele>
        <time>2014-04-06T08:02:06.000Z</time>
      </trkpt>
      <trkpt lat="42.84903" lon="2.13654">
        <ele>1145</ele>
        <time>2014-04-06T08:02:12.000Z</time>
      </trkpt>
      <trkpt lat="42.84903" lon="2.13656">
        <ele>1145.1999511719</ele>
        <time>2014-04-06T08:02:13.000Z</time>
      </trkpt>
      <trkpt lat="42.849" lon="2.1366">
        <ele>1145.8000488281</ele>
        <time>2014-04-06T08:02:16.000Z</time>
      </trkpt>
      <trkpt lat="42.84895" lon="2.13666">
        <ele>1146.5999755859</ele>
        <time>2014-04-06T08:02:22.000Z</time>
      </trkpt>
      <trkpt lat="42.84891" lon="2.13673">
        <ele>1148</ele>
        <time>2014-04-06T08:02:27.000Z</time>
      </trkpt>
      <trkpt lat="42.84889" lon="2.13677">
        <ele>1148.8000488281</ele>
        <time>2014-04-06T08:02:30.000Z</time>
      </trkpt>
      <trkpt lat="42.84888" lon="2.13679">
        <ele>1149</ele>
        <time>2014-04-06T08:02:32.000Z</time>
      </trkpt>
      <trkpt lat="42.84885" lon="2.13685">
        <ele>1149.8000488281</ele>
        <time>2014-04-06T08:02:37.000Z</time>
      </trkpt>
      <trkpt lat="42.84883" lon="2.1369">
        <ele>1150.4000244141</ele>
        <time>2014-04-06T08:02:41.000Z</time>
      </trkpt>
      <trkpt lat="42.84882" lon="2.13693">
        <ele>1150.5999755859</ele>
        <time>2014-04-06T08:02:43.000Z</time>
      </trkpt>
      <trkpt lat="42.84881" lon="2.13702">
        <ele>1151</ele>
        <time>2014-04-06T08:02:46.000Z</time>
      </trkpt>
      <trkpt lat="42.84879" lon="2.13713">
        <ele>1151.5999755859</ele>
        <time>2014-04-06T08:02:50.000Z</time>
      </trkpt>
      <trkpt lat="42.84878" lon="2.13718">
        <ele>1151.8000488281</ele>
        <time>2014-04-06T08:02:52.000Z</time>
      </trkpt>
      <trkpt lat="42.84872" lon="2.13729">
        <ele>1152.8000488281</ele>
        <time>2014-04-06T08:02:56.000Z</time>
      </trkpt>
      <trkpt lat="42.84869" lon="2.13738">
        <ele>1153.1999511719</ele>
        <time>2014-04-06T08:02:59.000Z</time>
      </trkpt>
      <trkpt lat="42.84862" lon="2.13749">
        <ele>1154</ele>
        <time>2014-04-06T08:03:04.000Z</time>
      </trkpt>
      <trkpt lat="42.8486" lon="2.13752">
        <ele>1154.1999511719</ele>
        <time>2014-04-06T08:03:05.000Z</time>
      </trkpt>
      <trkpt lat="42.84855" lon="2.1377">
        <ele>1155</ele>
        <time>2014-04-06T08:03:11.000Z</time>
      </trkpt>
      <trkpt lat="42.8485" lon="2.13785">
        <ele>1155.4000244141</ele>
        <time>2014-04-06T08:03:16.000Z</time>
      </trkpt>
      <trkpt lat="42.84848" lon="2.13794">
        <ele>1155.5999755859</ele>
        <time>2014-04-06T08:03:19.000Z</time>
      </trkpt>
      <trkpt lat="42.84843" lon="2.13808">
        <ele>1155.5999755859</ele>
        <time>2014-04-06T08:03:24.000Z</time>
      </trkpt>
      <trkpt lat="42.84842" lon="2.13812">
        <ele>1155.5999755859</ele>
        <time>2014-04-06T08:03:25.000Z</time>
      </trkpt>
      <trkpt lat="42.84837" lon="2.13825">
        <ele>1155.4000244141</ele>
        <time>2014-04-06T08:03:29.000Z</time>
      </trkpt>
      <trkpt lat="42.84831" lon="2.13839">
        <ele>1155.8000488281</ele>
        <time>2014-04-06T08:03:34.000Z</time>
      </trkpt>
      <trkpt lat="42.84828" lon="2.13856">
        <ele>1156.8000488281</ele>
        <time>2014-04-06T08:03:39.000Z</time>
      </trkpt>
      <trkpt lat="42.84821" lon="2.13872">
        <ele>1158.4000244141</ele>
        <time>2014-04-06T08:03:44.000Z</time>
      </trkpt>
      <trkpt lat="42.84819" lon="2.13886">
        <ele>1159.1999511719</ele>
        <time>2014-04-06T08:03:49.000Z</time>
      </trkpt>
      <trkpt lat="42.84815" lon="2.13897">
        <ele>1159.8000488281</ele>
        <time>2014-04-06T08:03:53.000Z</time>
      </trkpt>
      <trkpt lat="42.8481" lon="2.13906">
        <ele>1160.8000488281</ele>
        <time>2014-04-06T08:03:57.000Z</time>
      </trkpt>
      <trkpt lat="42.84809" lon="2.13909">
        <ele>1161</ele>
        <time>2014-04-06T08:03:58.000Z</time>
      </trkpt>
      <trkpt lat="42.84805" lon="2.13924">
        <ele>1161.8000488281</ele>
        <time>2014-04-06T08:04:03.000Z</time>
      </trkpt>
      <trkpt lat="42.84801" lon="2.13941">
        <ele>1162.4000244141</ele>
        <time>2014-04-06T08:04:09.000Z</time>
      </trkpt>
      <trkpt lat="42.84796" lon="2.13954">
        <ele>1162.5999755859</ele>
        <time>2014-04-06T08:04:14.000Z</time>
      </trkpt>
      <trkpt lat="42.84795" lon="2.13957">
        <ele>1162.8000488281</ele>
        <time>2014-04-06T08:04:15.000Z</time>
      </trkpt>
      <trkpt lat="42.84794" lon="2.13969">
        <ele>1162.5999755859</ele>
        <time>2014-04-06T08:04:19.000Z</time>
      </trkpt>
      <trkpt lat="42.84794" lon="2.13985">
        <ele>1162.4000244141</ele>
        <time>2014-04-06T08:04:24.000Z</time>
      </trkpt>
      <trkpt lat="42.84794" lon="2.13989">
        <ele>1162.1999511719</ele>
        <time>2014-04-06T08:04:25.000Z</time>
      </trkpt>
      <trkpt lat="42.84791" lon="2.13998">
        <ele>1162</ele>
        <time>2014-04-06T08:04:28.000Z</time>
      </trkpt>
      <trkpt lat="42.84789" lon="2.14005">
        <ele>1161.5999755859</ele>
        <time>2014-04-06T08:04:31.000Z</time>
      </trkpt>
      <trkpt lat="42.84781" lon="2.14017">
        <ele>1160.5999755859</ele>
        <time>2014-04-06T08:04:35.000Z</time>
      </trkpt>
      <trkpt lat="42.84775" lon="2.14027">
        <ele>1159.4000244141</ele>
        <time>2014-04-06T08:04:39.000Z</time>
      </trkpt>
      <trkpt lat="42.8477" lon="2.14033">
        <ele>1158.5999755859</ele>
        <time>2014-04-06T08:04:41.000Z</time>
      </trkpt>
      <trkpt lat="42.8476" lon="2.14048">
        <ele>1156</ele>
        <time>2014-04-06T08:04:47.000Z</time>
      </trkpt>
      <trkpt lat="42.84752" lon="2.1406">
        <ele>1153.5999755859</ele>
        <time>2014-04-06T08:04:52.000Z</time>
      </trkpt>
      <trkpt lat="42.84752" lon="2.14063">
        <ele>1153.1999511719</ele>
        <time>2014-04-06T08:04:53.000Z</time>
      </trkpt>
      <trkpt lat="42.84751" lon="2.14075">
        <ele>1151.4000244141</ele>
        <time>2014-04-06T08:04:57.000Z</time>
      </trkpt>
      <trkpt lat="42.84757" lon="2.1408">
        <ele>1151.4000244141</ele>
        <time>2014-04-06T08:05:01.000Z</time>
      </trkpt>
      <trkpt lat="42.84764" lon="2.14084">
        <ele>1152</ele>
        <time>2014-04-06T08:05:06.000Z</time>
      </trkpt>
      <trkpt lat="42.84766" lon="2.14087">
        <ele>1151.8000488281</ele>
        <time>2014-04-06T08:05:07.000Z</time>
      </trkpt>
      <trkpt lat="42.84772" lon="2.14095">
        <ele>1151</ele>
        <time>2014-04-06T08:05:10.000Z</time>
      </trkpt>
      <trkpt lat="42.84776" lon="2.14112">
        <ele>1148.4000244141</ele>
        <time>2014-04-06T08:05:15.000Z</time>
      </trkpt>
      <trkpt lat="42.84778" lon="2.14118">
        <ele>1147.5999755859</ele>
        <time>2014-04-06T08:05:17.000Z</time>
      </trkpt>
      <trkpt lat="42.84779" lon="2.14138">
        <ele>1144</ele>
        <time>2014-04-06T08:05:22.000Z</time>
      </trkpt>
      <trkpt lat="42.84778" lon="2.1415">
        <ele>1141.1999511719</ele>
        <time>2014-04-06T08:05:25.000Z</time>
      </trkpt>
      <trkpt lat="42.84775" lon="2.14168">
        <ele>1137</ele>
        <time>2014-04-06T08:05:30.000Z</time>
      </trkpt>
      <trkpt lat="42.84773" lon="2.1418">
        <ele>1134.4000244141</ele>
        <time>2014-04-06T08:05:34.000Z</time>
      </trkpt>
      <trkpt lat="42.84773" lon="2.14186">
        <ele>1133.4000244141</ele>
        <time>2014-04-06T08:05:37.000Z</time>
      </trkpt>
      <trkpt lat="42.84772" lon="2.1419">
        <ele>1132.5999755859</ele>
        <time>2014-04-06T08:05:38.000Z</time>
      </trkpt>
      <trkpt lat="42.84771" lon="2.14197">
        <ele>1131</ele>
        <time>2014-04-06T08:05:40.000Z</time>
      </trkpt>
      <trkpt lat="42.84764" lon="2.14214">
        <ele>1125.4000244141</ele>
        <time>2014-04-06T08:05:46.000Z</time>
      </trkpt>
      <trkpt lat="42.84763" lon="2.14217">
        <ele>1124.4000244141</ele>
        <time>2014-04-06T08:05:47.000Z</time>
      </trkpt>
      <trkpt lat="42.84759" lon="2.14226">
        <ele>1121.4000244141</ele>
        <time>2014-04-06T08:05:51.000Z</time>
      </trkpt>
      <trkpt lat="42.84757" lon="2.14233">
        <ele>1119.1999511719</ele>
        <time>2014-04-06T08:05:54.000Z</time>
      </trkpt>
      <trkpt lat="42.84753" lon="2.14241">
        <ele>1116</ele>
        <time>2014-04-06T08:05:58.000Z</time>
      </trkpt>
      <trkpt lat="42.84752" lon="2.14246">
        <ele>1114.8000488281</ele>
        <time>2014-04-06T08:06:00.000Z</time>
      </trkpt>
      <trkpt lat="42.84751" lon="2.14257">
        <ele>1112.4000244141</ele>
        <time>2014-04-06T08:06:04.000Z</time>
      </trkpt>
      <trkpt lat="42.84746" lon="2.14272">
        <ele>1109.5999755859</ele>
        <time>2014-04-06T08:06:10.000Z</time>
      </trkpt>
      <trkpt lat="42.84744" lon="2.14278">
        <ele>1108.4000244141</ele>
        <time>2014-04-06T08:06:12.000Z</time>
      </trkpt>
      <trkpt lat="42.84739" lon="2.14298">
        <ele>1104.8000488281</ele>
        <time>2014-04-06T08:06:18.000Z</time>
      </trkpt>
      <trkpt lat="42.84734" lon="2.14313">
        <ele>1102</ele>
        <time>2014-04-06T08:06:22.000Z</time>
      </trkpt>
      <trkpt lat="42.84734" lon="2.14316">
        <ele>1101.4000244141</ele>
        <time>2014-04-06T08:06:23.000Z</time>
      </trkpt>
      <trkpt lat="42.84726" lon="2.14335">
        <ele>1097.1999511719</ele>
        <time>2014-04-06T08:06:30.000Z</time>
      </trkpt>
      <trkpt lat="42.84718" lon="2.14349">
        <ele>1094.1999511719</ele>
        <time>2014-04-06T08:06:34.000Z</time>
      </trkpt>
      <trkpt lat="42.84716" lon="2.14353">
        <ele>1093.1999511719</ele>
        <time>2014-04-06T08:06:35.000Z</time>
      </trkpt>
      <trkpt lat="42.84705" lon="2.14374">
        <ele>1089.1999511719</ele>
        <time>2014-04-06T08:06:40.000Z</time>
      </trkpt>
      <trkpt lat="42.84697" lon="2.14399">
        <ele>1085.8000488281</ele>
        <time>2014-04-06T08:06:46.000Z</time>
      </trkpt>
      <trkpt lat="42.84692" lon="2.14417">
        <ele>1083.4000244141</ele>
        <time>2014-04-06T08:06:51.000Z</time>
      </trkpt>
      <trkpt lat="42.84679" lon="2.14432">
        <ele>1080</ele>
        <time>2014-04-06T08:06:57.000Z</time>
      </trkpt>
      <trkpt lat="42.84665" lon="2.14452">
        <ele>1076.8000488281</ele>
        <time>2014-04-06T08:07:03.000Z</time>
      </trkpt>
      <trkpt lat="42.84654" lon="2.14463">
        <ele>1078.8000488281</ele>
        <time>2014-04-06T08:07:08.000Z</time>
      </trkpt>
      <trkpt lat="42.84651" lon="2.14468">
        <ele>1079.4000244141</ele>
        <time>2014-04-06T08:07:10.000Z</time>
      </trkpt>
      <trkpt lat="42.84647" lon="2.14479">
        <ele>1079.5999755859</ele>
        <time>2014-04-06T08:07:13.000Z</time>
      </trkpt>
      <trkpt lat="42.84645" lon="2.14494">
        <ele>1079.4000244141</ele>
        <time>2014-04-06T08:07:17.000Z</time>
      </trkpt>
      <trkpt lat="42.84643" lon="2.14509">
        <ele>1079</ele>
        <time>2014-04-06T08:07:21.000Z</time>
      </trkpt>
      <trkpt lat="42.84636" lon="2.14532">
        <ele>1079</ele>
        <time>2014-04-06T08:07:27.000Z</time>
      </trkpt>
      <trkpt lat="42.8463" lon="2.14548">
        <ele>1079</ele>
        <time>2014-04-06T08:07:32.000Z</time>
      </trkpt>
      <trkpt lat="42.84622" lon="2.14567">
        <ele>1078.5999755859</ele>
        <time>2014-04-06T08:07:38.000Z</time>
      </trkpt>
      <trkpt lat="42.84611" lon="2.14588">
        <ele>1079.1999511719</ele>
        <time>2014-04-06T08:07:46.000Z</time>
      </trkpt>
      <trkpt lat="42.84604" lon="2.146">
        <ele>1080.8000488281</ele>
        <time>2014-04-06T08:07:51.000Z</time>
      </trkpt>
      <trkpt lat="42.84598" lon="2.14614">
        <ele>1082.4000244141</ele>
        <time>2014-04-06T08:07:57.000Z</time>
      </trkpt>
      <trkpt lat="42.84593" lon="2.14621">
        <ele>1083.1999511719</ele>
        <time>2014-04-06T08:08:01.000Z</time>
      </trkpt>
      <trkpt lat="42.84586" lon="2.14631">
        <ele>1084.1999511719</ele>
        <time>2014-04-06T08:08:07.000Z</time>
      </trkpt>
      <trkpt lat="42.84581" lon="2.1464">
        <ele>1085.1999511719</ele>
        <time>2014-04-06T08:08:12.000Z</time>
      </trkpt>
      <trkpt lat="42.8458" lon="2.14642">
        <ele>1085.4000244141</ele>
        <time>2014-04-06T08:08:13.000Z</time>
      </trkpt>
      <trkpt lat="42.84573" lon="2.14652">
        <ele>1087</ele>
        <time>2014-04-06T08:08:19.000Z</time>
      </trkpt>
      <trkpt lat="42.84571" lon="2.14653">
        <ele>1087.4000244141</ele>
        <time>2014-04-06T08:08:20.000Z</time>
      </trkpt>
      <trkpt lat="42.84559" lon="2.1466">
        <ele>1089</ele>
        <time>2014-04-06T08:08:28.000Z</time>
      </trkpt>
      <trkpt lat="42.84557" lon="2.14661">
        <ele>1089.4000244141</ele>
        <time>2014-04-06T08:08:30.000Z</time>
      </trkpt>
      <trkpt lat="42.8455" lon="2.14669">
        <ele>1090</ele>
        <time>2014-04-06T08:08:35.000Z</time>
      </trkpt>
      <trkpt lat="42.84548" lon="2.14672">
        <ele>1090.1999511719</ele>
        <time>2014-04-06T08:08:37.000Z</time>
      </trkpt>
      <trkpt lat="42.84542" lon="2.14679">
        <ele>1090.8000488281</ele>
        <time>2014-04-06T08:08:42.000Z</time>
      </trkpt>
      <trkpt lat="42.84538" lon="2.14691">
        <ele>1090.8000488281</ele>
        <time>2014-04-06T08:08:48.000Z</time>
      </trkpt>
      <trkpt lat="42.84536" lon="2.14698">
        <ele>1090.5999755859</ele>
        <time>2014-04-06T08:08:51.000Z</time>
      </trkpt>
      <trkpt lat="42.84529" lon="2.14712">
        <ele>1090</ele>
        <time>2014-04-06T08:08:57.000Z</time>
      </trkpt>
      <trkpt lat="42.84522" lon="2.14728">
        <ele>1088.5999755859</ele>
        <time>2014-04-06T08:09:03.000Z</time>
      </trkpt>
      <trkpt lat="42.84515" lon="2.14741">
        <ele>1087</ele>
        <time>2014-04-06T08:09:08.000Z</time>
      </trkpt>
      <trkpt lat="42.84507" lon="2.14756">
        <ele>1084.4000244141</ele>
        <time>2014-04-06T08:09:13.000Z</time>
      </trkpt>
      <trkpt lat="42.84496" lon="2.14773">
        <ele>1081.4000244141</ele>
        <time>2014-04-06T08:09:18.000Z</time>
      </trkpt>
      <trkpt lat="42.84489" lon="2.14791">
        <ele>1078.5999755859</ele>
        <time>2014-04-06T08:09:23.000Z</time>
      </trkpt>
      <trkpt lat="42.84483" lon="2.14815">
        <ele>1074.1999511719</ele>
        <time>2014-04-06T08:09:29.000Z</time>
      </trkpt>
      <trkpt lat="42.8448" lon="2.14832">
        <ele>1070.8000488281</ele>
        <time>2014-04-06T08:09:33.000Z</time>
      </trkpt>
      <trkpt lat="42.84475" lon="2.14858">
        <ele>1069.4000244141</ele>
        <time>2014-04-06T08:09:40.000Z</time>
      </trkpt>
      <trkpt lat="42.84471" lon="2.14879">
        <ele>1067.8000488281</ele>
        <time>2014-04-06T08:09:46.000Z</time>
      </trkpt>
      <trkpt lat="42.84468" lon="2.14893">
        <ele>1066.5999755859</ele>
        <time>2014-04-06T08:09:50.000Z</time>
      </trkpt>
      <trkpt lat="42.84464" lon="2.14915">
        <ele>1064.5999755859</ele>
        <time>2014-04-06T08:09:56.000Z</time>
      </trkpt>
      <trkpt lat="42.8446" lon="2.14933">
        <ele>1063.4000244141</ele>
        <time>2014-04-06T08:10:01.000Z</time>
      </trkpt>
      <trkpt lat="42.84456" lon="2.14955">
        <ele>1062.1999511719</ele>
        <time>2014-04-06T08:10:07.000Z</time>
      </trkpt>
      <trkpt lat="42.84452" lon="2.14974">
        <ele>1061</ele>
        <time>2014-04-06T08:10:12.000Z</time>
      </trkpt>
      <trkpt lat="42.8445" lon="2.14993">
        <ele>1060.1999511719</ele>
        <time>2014-04-06T08:10:17.000Z</time>
      </trkpt>
      <trkpt lat="42.84447" lon="2.15012">
        <ele>1058.4000244141</ele>
        <time>2014-04-06T08:10:22.000Z</time>
      </trkpt>
      <trkpt lat="42.84445" lon="2.15034">
        <ele>1056.4000244141</ele>
        <time>2014-04-06T08:10:27.000Z</time>
      </trkpt>
      <trkpt lat="42.84445" lon="2.15048">
        <ele>1056</ele>
        <time>2014-04-06T08:10:31.000Z</time>
      </trkpt>
      <trkpt lat="42.84447" lon="2.15054">
        <ele>1056.4000244141</ele>
        <time>2014-04-06T08:10:33.000Z</time>
      </trkpt>
      <trkpt lat="42.84449" lon="2.1507">
        <ele>1056.4000244141</ele>
        <time>2014-04-06T08:10:37.000Z</time>
      </trkpt>
      <trkpt lat="42.84446" lon="2.15096">
        <ele>1054.4000244141</ele>
        <time>2014-04-06T08:10:43.000Z</time>
      </trkpt>
      <trkpt lat="42.84444" lon="2.15124">
        <ele>1054.1999511719</ele>
        <time>2014-04-06T08:10:50.000Z</time>
      </trkpt>
      <trkpt lat="42.84442" lon="2.15147">
        <ele>1053.4000244141</ele>
        <time>2014-04-06T08:10:56.000Z</time>
      </trkpt>
      <trkpt lat="42.84437" lon="2.15169">
        <ele>1052</ele>
        <time>2014-04-06T08:11:02.000Z</time>
      </trkpt>
      <trkpt lat="42.84432" lon="2.15185">
        <ele>1051</ele>
        <time>2014-04-06T08:11:07.000Z</time>
      </trkpt>
      <trkpt lat="42.84425" lon="2.15203">
        <ele>1050</ele>
        <time>2014-04-06T08:11:12.000Z</time>
      </trkpt>
      <trkpt lat="42.84417" lon="2.15222">
        <ele>1048.5999755859</ele>
        <time>2014-04-06T08:11:17.000Z</time>
      </trkpt>
      <trkpt lat="42.8441" lon="2.15237">
        <ele>1048</ele>
        <time>2014-04-06T08:11:21.000Z</time>
      </trkpt>
      <trkpt lat="42.84406" lon="2.15248">
        <ele>1047.5999755859</ele>
        <time>2014-04-06T08:11:24.000Z</time>
      </trkpt>
      <trkpt lat="42.84399" lon="2.15259">
        <ele>1045.8000488281</ele>
        <time>2014-04-06T08:11:28.000Z</time>
      </trkpt>
      <trkpt lat="42.84398" lon="2.15262">
        <ele>1045.4000244141</ele>
        <time>2014-04-06T08:11:29.000Z</time>
      </trkpt>
      <trkpt lat="42.84389" lon="2.15282">
        <ele>1044</ele>
        <time>2014-04-06T08:11:35.000Z</time>
      </trkpt>
      <trkpt lat="42.84379" lon="2.15305">
        <ele>1042.5999755859</ele>
        <time>2014-04-06T08:11:41.000Z</time>
      </trkpt>
      <trkpt lat="42.84368" lon="2.15321">
        <ele>1040.8000488281</ele>
        <time>2014-04-06T08:11:46.000Z</time>
      </trkpt>
      <trkpt lat="42.84355" lon="2.15336">
        <ele>1038.8000488281</ele>
        <time>2014-04-06T08:11:51.000Z</time>
      </trkpt>
      <trkpt lat="42.84342" lon="2.15355">
        <ele>1036</ele>
        <time>2014-04-06T08:11:57.000Z</time>
      </trkpt>
      <trkpt lat="42.84334" lon="2.15367">
        <ele>1034.1999511719</ele>
        <time>2014-04-06T08:12:01.000Z</time>
      </trkpt>
      <trkpt lat="42.84326" lon="2.15378">
        <ele>1032.4000244141</ele>
        <time>2014-04-06T08:12:05.000Z</time>
      </trkpt>
      <trkpt lat="42.84316" lon="2.15396">
        <ele>1030.5999755859</ele>
        <time>2014-04-06T08:12:11.000Z</time>
      </trkpt>
      <trkpt lat="42.84303" lon="2.15418">
        <ele>1028</ele>
        <time>2014-04-06T08:12:17.000Z</time>
      </trkpt>
      <trkpt lat="42.84293" lon="2.15439">
        <ele>1025.8000488281</ele>
        <time>2014-04-06T08:12:23.000Z</time>
      </trkpt>
      <trkpt lat="42.84292" lon="2.15456">
        <ele>1026</ele>
        <time>2014-04-06T08:12:27.000Z</time>
      </trkpt>
      <trkpt lat="42.84297" lon="2.15471">
        <ele>1028</ele>
        <time>2014-04-06T08:12:32.000Z</time>
      </trkpt>
      <trkpt lat="42.843" lon="2.15482">
        <ele>1029</ele>
        <time>2014-04-06T08:12:37.000Z</time>
      </trkpt>
      <trkpt lat="42.84301" lon="2.15483">
        <ele>1029.4000244141</ele>
        <time>2014-04-06T08:12:38.000Z</time>
      </trkpt>
      <trkpt lat="42.84305" lon="2.15486">
        <ele>1030.5999755859</ele>
        <time>2014-04-06T08:12:44.000Z</time>
      </trkpt>
      <trkpt lat="42.84314" lon="2.15496">
        <ele>1033</ele>
        <time>2014-04-06T08:12:54.000Z</time>
      </trkpt>
      <trkpt lat="42.84314" lon="2.15498">
        <ele>1033</ele>
        <time>2014-04-06T08:12:55.000Z</time>
      </trkpt>
      <trkpt lat="42.84314" lon="2.15503">
        <ele>1033.1999511719</ele>
        <time>2014-04-06T08:12:58.000Z</time>
      </trkpt>
      <trkpt lat="42.84314" lon="2.15505">
        <ele>1033.1999511719</ele>
        <time>2014-04-06T08:13:00.000Z</time>
      </trkpt>
      <trkpt lat="42.84313" lon="2.15511">
        <ele>1033</ele>
        <time>2014-04-06T08:13:06.000Z</time>
      </trkpt>
      <trkpt lat="42.84312" lon="2.15515">
        <ele>1032.5999755859</ele>
        <time>2014-04-06T08:13:10.000Z</time>
      </trkpt>
      <trkpt lat="42.8431" lon="2.15522">
        <ele>1032.5999755859</ele>
        <time>2014-04-06T08:13:15.000Z</time>
      </trkpt>
      <trkpt lat="42.8431" lon="2.15526">
        <ele>1032.4000244141</ele>
        <time>2014-04-06T08:13:18.000Z</time>
      </trkpt>
      <trkpt lat="42.8431" lon="2.1553">
        <ele>1032.5999755859</ele>
        <time>2014-04-06T08:13:22.000Z</time>
      </trkpt>
      <trkpt lat="42.84311" lon="2.15537">
        <ele>1032.8000488281</ele>
        <time>2014-04-06T08:13:27.000Z</time>
      </trkpt>
      <trkpt lat="42.84311" lon="2.15538">
        <ele>1032.8000488281</ele>
        <time>2014-04-06T08:13:28.000Z</time>
      </trkpt>
      <trkpt lat="42.84311" lon="2.1554">
        <ele>1033</ele>
        <time>2014-04-06T08:13:29.000Z</time>
      </trkpt>
      <trkpt lat="42.84312" lon="2.15545">
        <ele>1033</ele>
        <time>2014-04-06T08:13:33.000Z</time>
      </trkpt>
      <trkpt lat="42.84314" lon="2.15551">
        <ele>1033.5999755859</ele>
        <time>2014-04-06T08:13:37.000Z</time>
      </trkpt>
      <trkpt lat="42.84315" lon="2.15554">
        <ele>1034</ele>
        <time>2014-04-06T08:13:39.000Z</time>
      </trkpt>
      <trkpt lat="42.8432" lon="2.15567">
        <ele>1035.1999511719</ele>
        <time>2014-04-06T08:13:47.000Z</time>
      </trkpt>
      <trkpt lat="42.84326" lon="2.1558">
        <ele>1036.4000244141</ele>
        <time>2014-04-06T08:13:55.000Z</time>
      </trkpt>
      <trkpt lat="42.84337" lon="2.15594">
        <ele>1037.5999755859</ele>
        <time>2014-04-06T08:14:05.000Z</time>
      </trkpt>
      <trkpt lat="42.84347" lon="2.156">
        <ele>1038.8000488281</ele>
        <time>2014-04-06T08:14:13.000Z</time>
      </trkpt>
      <trkpt lat="42.8435" lon="2.15604">
        <ele>1039.1999511719</ele>
        <time>2014-04-06T08:14:17.000Z</time>
      </trkpt>
      <trkpt lat="42.84357" lon="2.1561">
        <ele>1040</ele>
        <time>2014-04-06T08:14:24.000Z</time>
      </trkpt>
      <trkpt lat="42.8436" lon="2.15614">
        <ele>1040.4000244141</ele>
        <time>2014-04-06T08:14:28.000Z</time>
      </trkpt>
      <trkpt lat="42.84362" lon="2.15616">
        <ele>1040.5999755859</ele>
        <time>2014-04-06T08:14:30.000Z</time>
      </trkpt>
      <trkpt lat="42.8437" lon="2.15617">
        <ele>1042.1999511719</ele>
        <time>2014-04-06T08:14:35.000Z</time>
      </trkpt>
      <trkpt lat="42.84378" lon="2.15617">
        <ele>1043.5999755859</ele>
        <time>2014-04-06T08:14:38.000Z</time>
      </trkpt>
      <trkpt lat="42.84392" lon="2.15624">
        <ele>1046</ele>
        <time>2014-04-06T08:14:45.000Z</time>
      </trkpt>
      <trkpt lat="42.84403" lon="2.15626">
        <ele>1048.1999511719</ele>
        <time>2014-04-06T08:14:49.000Z</time>
      </trkpt>
      <trkpt lat="42.84415" lon="2.15627">
        <ele>1050.5999755859</ele>
        <time>2014-04-06T08:14:55.000Z</time>
      </trkpt>
      <trkpt lat="42.84424" lon="2.15629">
        <ele>1051.8000488281</ele>
        <time>2014-04-06T08:15:00.000Z</time>
      </trkpt>
      <trkpt lat="42.84433" lon="2.15628">
        <ele>1052.5999755859</ele>
        <time>2014-04-06T08:15:04.000Z</time>
      </trkpt>
      <trkpt lat="42.84444" lon="2.15626">
        <ele>1054</ele>
        <time>2014-04-06T08:15:09.000Z</time>
      </trkpt>
      <trkpt lat="42.84457" lon="2.15618">
        <ele>1055.4000244141</ele>
        <time>2014-04-06T08:15:15.000Z</time>
      </trkpt>
      <trkpt lat="42.84469" lon="2.15604">
        <ele>1056.1999511719</ele>
        <time>2014-04-06T08:15:21.000Z</time>
      </trkpt>
      <trkpt lat="42.84484" lon="2.15592">
        <ele>1056.5999755859</ele>
        <time>2014-04-06T08:15:27.000Z</time>
      </trkpt>
      <trkpt lat="42.84493" lon="2.15581">
        <ele>1057</ele>
        <time>2014-04-06T08:15:31.000Z</time>
      </trkpt>
      <trkpt lat="42.84507" lon="2.15566">
        <ele>1059.8000488281</ele>
        <time>2014-04-06T08:15:37.000Z</time>
      </trkpt>
      <trkpt lat="42.84517" lon="2.15556">
        <ele>1061.5999755859</ele>
        <time>2014-04-06T08:15:42.000Z</time>
      </trkpt>
      <trkpt lat="42.84528" lon="2.15547">
        <ele>1063.4000244141</ele>
        <time>2014-04-06T08:15:48.000Z</time>
      </trkpt>
      <trkpt lat="42.84529" lon="2.15544">
        <ele>1063.5999755859</ele>
        <time>2014-04-06T08:15:49.000Z</time>
      </trkpt>
      <trkpt lat="42.84532" lon="2.15538">
        <ele>1064.1999511719</ele>
        <time>2014-04-06T08:15:52.000Z</time>
      </trkpt>
      <trkpt lat="42.84539" lon="2.15527">
        <ele>1065.1999511719</ele>
        <time>2014-04-06T08:15:57.000Z</time>
      </trkpt>
      <trkpt lat="42.84544" lon="2.15521">
        <ele>1065.5999755859</ele>
        <time>2014-04-06T08:16:01.000Z</time>
      </trkpt>
      <trkpt lat="42.84545" lon="2.15518">
        <ele>1065.5999755859</ele>
        <time>2014-04-06T08:16:02.000Z</time>
      </trkpt>
      <trkpt lat="42.84546" lon="2.15514">
        <ele>1065.8000488281</ele>
        <time>2014-04-06T08:16:04.000Z</time>
      </trkpt>
      <trkpt lat="42.84547" lon="2.15505">
        <ele>1066.1999511719</ele>
        <time>2014-04-06T08:16:07.000Z</time>
      </trkpt>
      <trkpt lat="42.84554" lon="2.15497">
        <ele>1066.8000488281</ele>
        <time>2014-04-06T08:16:12.000Z</time>
      </trkpt>
      <trkpt lat="42.84561" lon="2.15494">
        <ele>1067</ele>
        <time>2014-04-06T08:16:18.000Z</time>
      </trkpt>
      <trkpt lat="42.84564" lon="2.15494">
        <ele>1067.1999511719</ele>
        <time>2014-04-06T08:16:20.000Z</time>
      </trkpt>
      <trkpt lat="42.8457" lon="2.15491">
        <ele>1067.5999755859</ele>
        <time>2014-04-06T08:16:24.000Z</time>
      </trkpt>
      <trkpt lat="42.84571" lon="2.1549">
        <ele>1067.5999755859</ele>
        <time>2014-04-06T08:16:25.000Z</time>
      </trkpt>
      <trkpt lat="42.84574" lon="2.1549">
        <ele>1067.5999755859</ele>
        <time>2014-04-06T08:16:26.000Z</time>
      </trkpt>
      <trkpt lat="42.84583" lon="2.15485">
        <ele>1068.1999511719</ele>
        <time>2014-04-06T08:16:30.000Z</time>
      </trkpt>
      <trkpt lat="42.84585" lon="2.15485">
        <ele>1068</ele>
        <time>2014-04-06T08:16:31.000Z</time>
      </trkpt>
      <trkpt lat="42.8459" lon="2.15481">
        <ele>1067.4000244141</ele>
        <time>2014-04-06T08:16:34.000Z</time>
      </trkpt>
      <trkpt lat="42.84601" lon="2.1548">
        <ele>1065.5999755859</ele>
        <time>2014-04-06T08:16:39.000Z</time>
      </trkpt>
      <trkpt lat="42.8461" lon="2.15486">
        <ele>1063.5999755859</ele>
        <time>2014-04-06T08:16:43.000Z</time>
      </trkpt>
      <trkpt lat="42.84612" lon="2.15486">
        <ele>1063</ele>
        <time>2014-04-06T08:16:44.000Z</time>
      </trkpt>
      <trkpt lat="42.84616" lon="2.15487">
        <ele>1062.1999511719</ele>
        <time>2014-04-06T08:16:46.000Z</time>
      </trkpt>
      <trkpt lat="42.84629" lon="2.15493">
        <ele>1059.8000488281</ele>
        <time>2014-04-06T08:16:50.000Z</time>
      </trkpt>
      <trkpt lat="42.8464" lon="2.15497">
        <ele>1058</ele>
        <time>2014-04-06T08:16:54.000Z</time>
      </trkpt>
      <trkpt lat="42.84655" lon="2.15508">
        <ele>1056.4000244141</ele>
        <time>2014-04-06T08:16:59.000Z</time>
      </trkpt>
      <trkpt lat="42.84665" lon="2.1552">
        <ele>1056.1999511719</ele>
        <time>2014-04-06T08:17:03.000Z</time>
      </trkpt>
      <trkpt lat="42.84677" lon="2.15532">
        <ele>1053.5999755859</ele>
        <time>2014-04-06T08:17:08.000Z</time>
      </trkpt>
      <trkpt lat="42.8468" lon="2.15534">
        <ele>1053.1999511719</ele>
        <time>2014-04-06T08:17:09.000Z</time>
      </trkpt>
      <trkpt lat="42.84689" lon="2.15545">
        <ele>1051.4000244141</ele>
        <time>2014-04-06T08:17:13.000Z</time>
      </trkpt>
      <trkpt lat="42.84701" lon="2.15558">
        <ele>1049.4000244141</ele>
        <time>2014-04-06T08:17:17.000Z</time>
      </trkpt>
      <trkpt lat="42.84715" lon="2.15574">
        <ele>1047.1999511719</ele>
        <time>2014-04-06T08:17:23.000Z</time>
      </trkpt>
      <trkpt lat="42.84717" lon="2.15576">
        <ele>1047.1999511719</ele>
        <time>2014-04-06T08:17:24.000Z</time>
      </trkpt>
      <trkpt lat="42.84724" lon="2.15592">
        <ele>1047.5999755859</ele>
        <time>2014-04-06T08:17:29.000Z</time>
      </trkpt>
      <trkpt lat="42.84725" lon="2.15598">
        <ele>1048</ele>
        <time>2014-04-06T08:17:31.000Z</time>
      </trkpt>
      <trkpt lat="42.84732" lon="2.15598">
        <ele>1046.1999511719</ele>
        <time>2014-04-06T08:17:35.000Z</time>
      </trkpt>
      <trkpt lat="42.84739" lon="2.15593">
        <ele>1043.4000244141</ele>
        <time>2014-04-06T08:17:39.000Z</time>
      </trkpt>
      <trkpt lat="42.84742" lon="2.15591">
        <ele>1042.5999755859</ele>
        <time>2014-04-06T08:17:40.000Z</time>
      </trkpt>
      <trkpt lat="42.84747" lon="2.1559">
        <ele>1040.8000488281</ele>
        <time>2014-04-06T08:17:42.000Z</time>
      </trkpt>
      <trkpt lat="42.8476" lon="2.15584">
        <ele>1038.5999755859</ele>
        <time>2014-04-06T08:17:48.000Z</time>
      </trkpt>
      <trkpt lat="42.84762" lon="2.15583">
        <ele>1038.1999511719</ele>
        <time>2014-04-06T08:17:49.000Z</time>
      </trkpt>
      <trkpt lat="42.84772" lon="2.15579">
        <ele>1036.8000488281</ele>
        <time>2014-04-06T08:17:53.000Z</time>
      </trkpt>
      <trkpt lat="42.84784" lon="2.15568">
        <ele>1034</ele>
        <time>2014-04-06T08:17:59.000Z</time>
      </trkpt>
      <trkpt lat="42.84786" lon="2.15566">
        <ele>1033.4000244141</ele>
        <time>2014-04-06T08:18:00.000Z</time>
      </trkpt>
      <trkpt lat="42.84797" lon="2.15557">
        <ele>1030.5999755859</ele>
        <time>2014-04-06T08:18:06.000Z</time>
      </trkpt>
      <trkpt lat="42.84799" lon="2.15555">
        <ele>1030.1999511719</ele>
        <time>2014-04-06T08:18:07.000Z</time>
      </trkpt>
      <trkpt lat="42.84806" lon="2.15549">
        <ele>1028.1999511719</ele>
        <time>2014-04-06T08:18:11.000Z</time>
      </trkpt>
      <trkpt lat="42.8481" lon="2.15539">
        <ele>1025.5999755859</ele>
        <time>2014-04-06T08:18:15.000Z</time>
      </trkpt>
      <trkpt lat="42.84812" lon="2.15535">
        <ele>1024.5999755859</ele>
        <time>2014-04-06T08:18:16.000Z</time>
      </trkpt>
      <trkpt lat="42.84813" lon="2.15531">
        <ele>1023.799987793</ele>
        <time>2014-04-06T08:18:17.000Z</time>
      </trkpt>
      <trkpt lat="42.84818" lon="2.15519">
        <ele>1020.4000244141</ele>
        <time>2014-04-06T08:18:21.000Z</time>
      </trkpt>
      <trkpt lat="42.84819" lon="2.15516">
        <ele>1019.4000244141</ele>
        <time>2014-04-06T08:18:22.000Z</time>
      </trkpt>
      <trkpt lat="42.84822" lon="2.1551">
        <ele>1017.799987793</ele>
        <time>2014-04-06T08:18:24.000Z</time>
      </trkpt>
      <trkpt lat="42.84826" lon="2.15502">
        <ele>1015.4000244141</ele>
        <time>2014-04-06T08:18:28.000Z</time>
      </trkpt>
      <trkpt lat="42.84828" lon="2.15499">
        <ele>1014.5999755859</ele>
        <time>2014-04-06T08:18:29.000Z</time>
      </trkpt>
      <trkpt lat="42.84831" lon="2.15487">
        <ele>1012</ele>
        <time>2014-04-06T08:18:33.000Z</time>
      </trkpt>
      <trkpt lat="42.84832" lon="2.15484">
        <ele>1011.200012207</ele>
        <time>2014-04-06T08:18:34.000Z</time>
      </trkpt>
      <trkpt lat="42.84833" lon="2.15466">
        <ele>1008</ele>
        <time>2014-04-06T08:18:39.000Z</time>
      </trkpt>
      <trkpt lat="42.84833" lon="2.15461">
        <ele>1007</ele>
        <time>2014-04-06T08:18:41.000Z</time>
      </trkpt>
      <trkpt lat="42.84835" lon="2.15436">
        <ele>1002.5999755859</ele>
        <time>2014-04-06T08:18:48.000Z</time>
      </trkpt>
      <trkpt lat="42.84837" lon="2.15425">
        <ele>1001</ele>
        <time>2014-04-06T08:18:51.000Z</time>
      </trkpt>
      <trkpt lat="42.84843" lon="2.15416">
        <ele>1000</ele>
        <time>2014-04-06T08:18:56.000Z</time>
      </trkpt>
      <trkpt lat="42.84843" lon="2.15413">
        <ele>999.59997558594</ele>
        <time>2014-04-06T08:18:58.000Z</time>
      </trkpt>
      <trkpt lat="42.84841" lon="2.15407">
        <ele>998.59997558594</ele>
        <time>2014-04-06T08:19:01.000Z</time>
      </trkpt>
      <trkpt lat="42.84843" lon="2.154">
        <ele>997.59997558594</ele>
        <time>2014-04-06T08:19:04.000Z</time>
      </trkpt>
      <trkpt lat="42.84847" lon="2.15394">
        <ele>996.79998779297</ele>
        <time>2014-04-06T08:19:06.000Z</time>
      </trkpt>
      <trkpt lat="42.8485" lon="2.15389">
        <ele>996.40002441406</ele>
        <time>2014-04-06T08:19:08.000Z</time>
      </trkpt>
      <trkpt lat="42.8486" lon="2.15377">
        <ele>994.59997558594</ele>
        <time>2014-04-06T08:19:13.000Z</time>
      </trkpt>
      <trkpt lat="42.84862" lon="2.15376">
        <ele>994.40002441406</ele>
        <time>2014-04-06T08:19:14.000Z</time>
      </trkpt>
      <trkpt lat="42.84864" lon="2.15375">
        <ele>994.20001220703</ele>
        <time>2014-04-06T08:19:15.000Z</time>
      </trkpt>
      <trkpt lat="42.84873" lon="2.15363">
        <ele>991.79998779297</ele>
        <time>2014-04-06T08:19:21.000Z</time>
      </trkpt>
      <trkpt lat="42.84875" lon="2.15361">
        <ele>991.40002441406</ele>
        <time>2014-04-06T08:19:22.000Z</time>
      </trkpt>
      <trkpt lat="42.84876" lon="2.1536">
        <ele>991</ele>
        <time>2014-04-06T08:19:24.000Z</time>
      </trkpt>
      <trkpt lat="42.84883" lon="2.15351">
        <ele>988.79998779297</ele>
        <time>2014-04-06T08:19:28.000Z</time>
      </trkpt>
      <trkpt lat="42.84887" lon="2.15346">
        <ele>987.20001220703</ele>
        <time>2014-04-06T08:19:31.000Z</time>
      </trkpt>
      <trkpt lat="42.84895" lon="2.15342">
        <ele>985.79998779297</ele>
        <time>2014-04-06T08:19:35.000Z</time>
      </trkpt>
      <trkpt lat="42.84903" lon="2.15334">
        <ele>983.20001220703</ele>
        <time>2014-04-06T08:19:39.000Z</time>
      </trkpt>
      <trkpt lat="42.84905" lon="2.15333">
        <ele>982.79998779297</ele>
        <time>2014-04-06T08:19:40.000Z</time>
      </trkpt>
      <trkpt lat="42.84907" lon="2.15332">
        <ele>982.40002441406</ele>
        <time>2014-04-06T08:19:41.000Z</time>
      </trkpt>
      <trkpt lat="42.84917" lon="2.15328">
        <ele>980.79998779297</ele>
        <time>2014-04-06T08:19:45.000Z</time>
      </trkpt>
      <trkpt lat="42.84932" lon="2.1532">
        <ele>977.59997558594</ele>
        <time>2014-04-06T08:19:51.000Z</time>
      </trkpt>
      <trkpt lat="42.84937" lon="2.15319">
        <ele>976.59997558594</ele>
        <time>2014-04-06T08:19:53.000Z</time>
      </trkpt>
      <trkpt lat="42.84957" lon="2.15317">
        <ele>973.79998779297</ele>
        <time>2014-04-06T08:19:59.000Z</time>
      </trkpt>
      <trkpt lat="42.8497" lon="2.15319">
        <ele>973</ele>
        <time>2014-04-06T08:20:03.000Z</time>
      </trkpt>
      <trkpt lat="42.84972" lon="2.15319">
        <ele>972.79998779297</ele>
        <time>2014-04-06T08:20:04.000Z</time>
      </trkpt>
      <trkpt lat="42.8498" lon="2.15319">
        <ele>971.79998779297</ele>
        <time>2014-04-06T08:20:07.000Z</time>
      </trkpt>
      <trkpt lat="42.84995" lon="2.15321">
        <ele>971</ele>
        <time>2014-04-06T08:20:13.000Z</time>
      </trkpt>
      <trkpt lat="42.84998" lon="2.15322">
        <ele>971</ele>
        <time>2014-04-06T08:20:14.000Z</time>
      </trkpt>
      <trkpt lat="42.85009" lon="2.1533">
        <ele>968.79998779297</ele>
        <time>2014-04-06T08:20:18.000Z</time>
      </trkpt>
      <trkpt lat="42.85018" lon="2.15343">
        <ele>968.40002441406</ele>
        <time>2014-04-06T08:20:23.000Z</time>
      </trkpt>
      <trkpt lat="42.85018" lon="2.15345">
        <ele>968.79998779297</ele>
        <time>2014-04-06T08:20:24.000Z</time>
      </trkpt>
      <trkpt lat="42.85024" lon="2.15354">
        <ele>968.59997558594</ele>
        <time>2014-04-06T08:20:28.000Z</time>
      </trkpt>
      <trkpt lat="42.85028" lon="2.1536">
        <ele>969</ele>
        <time>2014-04-06T08:20:31.000Z</time>
      </trkpt>
      <trkpt lat="42.85028" lon="2.15363">
        <ele>969.20001220703</ele>
        <time>2014-04-06T08:20:32.000Z</time>
      </trkpt>
      <trkpt lat="42.85032" lon="2.15368">
        <ele>969.40002441406</ele>
        <time>2014-04-06T08:20:36.000Z</time>
      </trkpt>
      <trkpt lat="42.85037" lon="2.15373">
        <ele>968.20001220703</ele>
        <time>2014-04-06T08:20:40.000Z</time>
      </trkpt>
      <trkpt lat="42.85045" lon="2.15383">
        <ele>967.20001220703</ele>
        <time>2014-04-06T08:20:45.000Z</time>
      </trkpt>
      <trkpt lat="42.85048" lon="2.15393">
        <ele>968.79998779297</ele>
        <time>2014-04-06T08:20:50.000Z</time>
      </trkpt>
      <trkpt lat="42.85051" lon="2.15399">
        <ele>969</ele>
        <time>2014-04-06T08:20:53.000Z</time>
      </trkpt>
      <trkpt lat="42.85061" lon="2.15417">
        <ele>969.40002441406</ele>
        <time>2014-04-06T08:20:59.000Z</time>
      </trkpt>
      <trkpt lat="42.85065" lon="2.15428">
        <ele>969.20001220703</ele>
        <time>2014-04-06T08:21:03.000Z</time>
      </trkpt>
      <trkpt lat="42.8507" lon="2.15439">
        <ele>968.40002441406</ele>
        <time>2014-04-06T08:21:07.000Z</time>
      </trkpt>
      <trkpt lat="42.85073" lon="2.15455">
        <ele>969.59997558594</ele>
        <time>2014-04-06T08:21:12.000Z</time>
      </trkpt>
      <trkpt lat="42.8508" lon="2.15474">
        <ele>969.79998779297</ele>
        <time>2014-04-06T08:21:18.000Z</time>
      </trkpt>
      <trkpt lat="42.85086" lon="2.15489">
        <ele>970</ele>
        <time>2014-04-06T08:21:23.000Z</time>
      </trkpt>
      <trkpt lat="42.85085" lon="2.15499">
        <ele>972.20001220703</ele>
        <time>2014-04-06T08:21:26.000Z</time>
      </trkpt>
      <trkpt lat="42.85084" lon="2.15502">
        <ele>972.40002441406</ele>
        <time>2014-04-06T08:21:27.000Z</time>
      </trkpt>
      <trkpt lat="42.85081" lon="2.15516">
        <ele>970</ele>
        <time>2014-04-06T08:21:32.000Z</time>
      </trkpt>
      <trkpt lat="42.8508" lon="2.15527">
        <ele>967.59997558594</ele>
        <time>2014-04-06T08:21:36.000Z</time>
      </trkpt>
      <trkpt lat="42.85078" lon="2.15539">
        <ele>965.40002441406</ele>
        <time>2014-04-06T08:21:40.000Z</time>
      </trkpt>
      <trkpt lat="42.85076" lon="2.15542">
        <ele>965</ele>
        <time>2014-04-06T08:21:42.000Z</time>
      </trkpt>
      <trkpt lat="42.85074" lon="2.15545">
        <ele>964.79998779297</ele>
        <time>2014-04-06T08:21:44.000Z</time>
      </trkpt>
      <trkpt lat="42.85071" lon="2.15559">
        <ele>962.20001220703</ele>
        <time>2014-04-06T08:21:49.000Z</time>
      </trkpt>
      <trkpt lat="42.85064" lon="2.15576">
        <ele>960.20001220703</ele>
        <time>2014-04-06T08:21:55.000Z</time>
      </trkpt>
      <trkpt lat="42.85059" lon="2.15583">
        <ele>959.79998779297</ele>
        <time>2014-04-06T08:21:59.000Z</time>
      </trkpt>
      <trkpt lat="42.85061" lon="2.1559">
        <ele>956.40002441406</ele>
        <time>2014-04-06T08:22:03.000Z</time>
      </trkpt>
      <trkpt lat="42.85069" lon="2.15592">
        <ele>953.40002441406</ele>
        <time>2014-04-06T08:22:07.000Z</time>
      </trkpt>
      <trkpt lat="42.85071" lon="2.15592">
        <ele>952.59997558594</ele>
        <time>2014-04-06T08:22:08.000Z</time>
      </trkpt>
      <trkpt lat="42.85083" lon="2.15603">
        <ele>944.79998779297</ele>
        <time>2014-04-06T08:22:14.000Z</time>
      </trkpt>
      <trkpt lat="42.8509" lon="2.15606">
        <ele>942.59997558594</ele>
        <time>2014-04-06T08:22:17.000Z</time>
      </trkpt>
      <trkpt lat="42.8509" lon="2.15616">
        <ele>939.20001220703</ele>
        <time>2014-04-06T08:22:22.000Z</time>
      </trkpt>
      <trkpt lat="42.85085" lon="2.1562">
        <ele>937.79998779297</ele>
        <time>2014-04-06T08:22:25.000Z</time>
      </trkpt>
      <trkpt lat="42.8508" lon="2.15626">
        <ele>936.40002441406</ele>
        <time>2014-04-06T08:22:28.000Z</time>
      </trkpt>
      <trkpt lat="42.85072" lon="2.15636">
        <ele>935.20001220703</ele>
        <time>2014-04-06T08:22:33.000Z</time>
      </trkpt>
      <trkpt lat="42.8507" lon="2.1564">
        <ele>934.40002441406</ele>
        <time>2014-04-06T08:22:35.000Z</time>
      </trkpt>
      <trkpt lat="42.85062" lon="2.15654">
        <ele>931.40002441406</ele>
        <time>2014-04-06T08:22:41.000Z</time>
      </trkpt>
      <trkpt lat="42.85061" lon="2.15656">
        <ele>931</ele>
        <time>2014-04-06T08:22:42.000Z</time>
      </trkpt>
      <trkpt lat="42.85069" lon="2.15667">
        <ele>924.40002441406</ele>
        <time>2014-04-06T08:22:51.000Z</time>
      </trkpt>
      <trkpt lat="42.85067" lon="2.15671">
        <ele>922.79998779297</ele>
        <time>2014-04-06T08:22:53.000Z</time>
      </trkpt>
      <trkpt lat="42.85061" lon="2.15681">
        <ele>920.59997558594</ele>
        <time>2014-04-06T08:22:58.000Z</time>
      </trkpt>
      <trkpt lat="42.85058" lon="2.15688">
        <ele>918.40002441406</ele>
        <time>2014-04-06T08:23:02.000Z</time>
      </trkpt>
      <trkpt lat="42.85053" lon="2.15697">
        <ele>916.20001220703</ele>
        <time>2014-04-06T08:23:06.000Z</time>
      </trkpt>
      <trkpt lat="42.8505" lon="2.15703">
        <ele>914.40002441406</ele>
        <time>2014-04-06T08:23:09.000Z</time>
      </trkpt>
      <trkpt lat="42.85046" lon="2.15711">
        <ele>912.20001220703</ele>
        <time>2014-04-06T08:23:13.000Z</time>
      </trkpt>
      <trkpt lat="42.85048" lon="2.15719">
        <ele>908.40002441406</ele>
        <time>2014-04-06T08:23:18.000Z</time>
      </trkpt>
      <trkpt lat="42.85055" lon="2.15717">
        <ele>906.79998779297</ele>
        <time>2014-04-06T08:23:23.000Z</time>
      </trkpt>
      <trkpt lat="42.85057" lon="2.15717">
        <ele>906.40002441406</ele>
        <time>2014-04-06T08:23:24.000Z</time>
      </trkpt>
      <trkpt lat="42.85058" lon="2.15717">
        <ele>905.79998779297</ele>
        <time>2014-04-06T08:23:25.000Z</time>
      </trkpt>
      <trkpt lat="42.85068" lon="2.15718">
        <ele>902</ele>
        <time>2014-04-06T08:23:31.000Z</time>
      </trkpt>
      <trkpt lat="42.85072" lon="2.15719">
        <ele>900.40002441406</ele>
        <time>2014-04-06T08:23:34.000Z</time>
      </trkpt>
      <trkpt lat="42.85075" lon="2.1572">
        <ele>899.20001220703</ele>
        <time>2014-04-06T08:23:36.000Z</time>
      </trkpt>
      <trkpt lat="42.85082" lon="2.15721">
        <ele>896</ele>
        <time>2014-04-06T08:23:40.000Z</time>
      </trkpt>
      <trkpt lat="42.85084" lon="2.15722">
        <ele>895.40002441406</ele>
        <time>2014-04-06T08:23:41.000Z</time>
      </trkpt>
      <trkpt lat="42.8509" lon="2.15724">
        <ele>894.40002441406</ele>
        <time>2014-04-06T08:23:44.000Z</time>
      </trkpt>
      <trkpt lat="42.85096" lon="2.15729">
        <ele>892.20001220703</ele>
        <time>2014-04-06T08:23:48.000Z</time>
      </trkpt>
      <trkpt lat="42.85093" lon="2.15735">
        <ele>889.40002441406</ele>
        <time>2014-04-06T08:23:52.000Z</time>
      </trkpt>
      <trkpt lat="42.85088" lon="2.15744">
        <ele>885.40002441406</ele>
        <time>2014-04-06T08:23:57.000Z</time>
      </trkpt>
      <trkpt lat="42.85082" lon="2.15755">
        <ele>881.40002441406</ele>
        <time>2014-04-06T08:24:02.000Z</time>
      </trkpt>
      <trkpt lat="42.85074" lon="2.15768">
        <ele>878</ele>
        <time>2014-04-06T08:24:08.000Z</time>
      </trkpt>
      <trkpt lat="42.85072" lon="2.1577">
        <ele>877.40002441406</ele>
        <time>2014-04-06T08:24:09.000Z</time>
      </trkpt>
      <trkpt lat="42.85067" lon="2.15784">
        <ele>873.20001220703</ele>
        <time>2014-04-06T08:24:14.000Z</time>
      </trkpt>
      <trkpt lat="42.85066" lon="2.15786">
        <ele>872.59997558594</ele>
        <time>2014-04-06T08:24:15.000Z</time>
      </trkpt>
      <trkpt lat="42.85062" lon="2.15801">
        <ele>867.40002441406</ele>
        <time>2014-04-06T08:24:21.000Z</time>
      </trkpt>
      <trkpt lat="42.85061" lon="2.15804">
        <ele>867</ele>
        <time>2014-04-06T08:24:22.000Z</time>
      </trkpt>
      <trkpt lat="42.85055" lon="2.1581">
        <ele>866.59997558594</ele>
        <time>2014-04-06T08:24:26.000Z</time>
      </trkpt>
      <trkpt lat="42.85054" lon="2.15812">
        <ele>866.20001220703</ele>
        <time>2014-04-06T08:24:27.000Z</time>
      </trkpt>
      <trkpt lat="42.85049" lon="2.15821">
        <ele>864.59997558594</ele>
        <time>2014-04-06T08:24:31.000Z</time>
      </trkpt>
      <trkpt lat="42.85046" lon="2.15827">
        <ele>863.20001220703</ele>
        <time>2014-04-06T08:24:35.000Z</time>
      </trkpt>
      <trkpt lat="42.85043" lon="2.15832">
        <ele>862.40002441406</ele>
        <time>2014-04-06T08:24:38.000Z</time>
      </trkpt>
      <trkpt lat="42.85037" lon="2.15844">
        <ele>860.20001220703</ele>
        <time>2014-04-06T08:24:43.000Z</time>
      </trkpt>
      <trkpt lat="42.85034" lon="2.15855">
        <ele>857</ele>
        <time>2014-04-06T08:24:47.000Z</time>
      </trkpt>
      <trkpt lat="42.85032" lon="2.15865">
        <ele>853.40002441406</ele>
        <time>2014-04-06T08:24:51.000Z</time>
      </trkpt>
      <trkpt lat="42.85032" lon="2.15874">
        <ele>850</ele>
        <time>2014-04-06T08:24:55.000Z</time>
      </trkpt>
      <trkpt lat="42.85033" lon="2.15884">
        <ele>845.20001220703</ele>
        <time>2014-04-06T08:24:59.000Z</time>
      </trkpt>
      <trkpt lat="42.85034" lon="2.15892">
        <ele>841.40002441406</ele>
        <time>2014-04-06T08:25:03.000Z</time>
      </trkpt>
      <trkpt lat="42.85034" lon="2.15903">
        <ele>836.59997558594</ele>
        <time>2014-04-06T08:25:07.000Z</time>
      </trkpt>
      <trkpt lat="42.85034" lon="2.15907">
        <ele>835.59997558594</ele>
        <time>2014-04-06T08:25:08.000Z</time>
      </trkpt>
      <trkpt lat="42.85032" lon="2.15915">
        <ele>832.59997558594</ele>
        <time>2014-04-06T08:25:11.000Z</time>
      </trkpt>
      <trkpt lat="42.85028" lon="2.15929">
        <ele>829.79998779297</ele>
        <time>2014-04-06T08:25:17.000Z</time>
      </trkpt>
      <trkpt lat="42.85026" lon="2.15938">
        <ele>827.79998779297</ele>
        <time>2014-04-06T08:25:21.000Z</time>
      </trkpt>
      <trkpt lat="42.85025" lon="2.1594">
        <ele>827.40002441406</ele>
        <time>2014-04-06T08:25:22.000Z</time>
      </trkpt>
      <trkpt lat="42.85021" lon="2.15952">
        <ele>825.40002441406</ele>
        <time>2014-04-06T08:25:27.000Z</time>
      </trkpt>
      <trkpt lat="42.85016" lon="2.15961">
        <ele>824.79998779297</ele>
        <time>2014-04-06T08:25:31.000Z</time>
      </trkpt>
      <trkpt lat="42.85013" lon="2.15972">
        <ele>822.40002441406</ele>
        <time>2014-04-06T08:25:35.000Z</time>
      </trkpt>
      <trkpt lat="42.85013" lon="2.15977">
        <ele>820.79998779297</ele>
        <time>2014-04-06T08:25:37.000Z</time>
      </trkpt>
      <trkpt lat="42.85016" lon="2.15974">
        <ele>819.79998779297</ele>
        <time>2014-04-06T08:25:40.000Z</time>
      </trkpt>
      <trkpt lat="42.85027" lon="2.15965">
        <ele>818</ele>
        <time>2014-04-06T08:25:45.000Z</time>
      </trkpt>
      <trkpt lat="42.85029" lon="2.15962">
        <ele>817.59997558594</ele>
        <time>2014-04-06T08:25:46.000Z</time>
      </trkpt>
      <trkpt lat="42.8504" lon="2.15949">
        <ele>816.40002441406</ele>
        <time>2014-04-06T08:25:52.000Z</time>
      </trkpt>
      <trkpt lat="42.8505" lon="2.15938">
        <ele>815.20001220703</ele>
        <time>2014-04-06T08:25:56.000Z</time>
      </trkpt>
      <trkpt lat="42.85061" lon="2.15926">
        <ele>813.40002441406</ele>
        <time>2014-04-06T08:26:01.000Z</time>
      </trkpt>
      <trkpt lat="42.85075" lon="2.15909">
        <ele>813</ele>
        <time>2014-04-06T08:26:07.000Z</time>
      </trkpt>
      <trkpt lat="42.85083" lon="2.15899">
        <ele>813.40002441406</ele>
        <time>2014-04-06T08:26:12.000Z</time>
      </trkpt>
      <trkpt lat="42.85085" lon="2.15897">
        <ele>813.40002441406</ele>
        <time>2014-04-06T08:26:13.000Z</time>
      </trkpt>
      <trkpt lat="42.85099" lon="2.15885">
        <ele>815.20001220703</ele>
        <time>2014-04-06T08:26:19.000Z</time>
      </trkpt>
      <trkpt lat="42.85101" lon="2.15883">
        <ele>815.59997558594</ele>
        <time>2014-04-06T08:26:20.000Z</time>
      </trkpt>
      <trkpt lat="42.8511" lon="2.15887">
        <ele>810.40002441406</ele>
        <time>2014-04-06T08:26:24.000Z</time>
      </trkpt>
      <trkpt lat="42.85108" lon="2.15895">
        <ele>807.20001220703</ele>
        <time>2014-04-06T08:26:27.000Z</time>
      </trkpt>
      <trkpt lat="42.85106" lon="2.15896">
        <ele>807</ele>
        <time>2014-04-06T08:26:28.000Z</time>
      </trkpt>
      <trkpt lat="42.85097" lon="2.15905">
        <ele>805.40002441406</ele>
        <time>2014-04-06T08:26:33.000Z</time>
      </trkpt>
      <trkpt lat="42.85088" lon="2.15918">
        <ele>802.79998779297</ele>
        <time>2014-04-06T08:26:38.000Z</time>
      </trkpt>
      <trkpt lat="42.85082" lon="2.15934">
        <ele>799.79998779297</ele>
        <time>2014-04-06T08:26:43.000Z</time>
      </trkpt>
      <trkpt lat="42.85076" lon="2.1595">
        <ele>797.79998779297</ele>
        <time>2014-04-06T08:26:49.000Z</time>
      </trkpt>
      <trkpt lat="42.85067" lon="2.15971">
        <ele>795.20001220703</ele>
        <time>2014-04-06T08:26:55.000Z</time>
      </trkpt>
      <trkpt lat="42.85062" lon="2.15979">
        <ele>794.79998779297</ele>
        <time>2014-04-06T08:26:58.000Z</time>
      </trkpt>
      <trkpt lat="42.85054" lon="2.15998">
        <ele>792.20001220703</ele>
        <time>2014-04-06T08:27:04.000Z</time>
      </trkpt>
      <trkpt lat="42.85047" lon="2.16013">
        <ele>792</ele>
        <time>2014-04-06T08:27:09.000Z</time>
      </trkpt>
      <trkpt lat="42.85042" lon="2.16027">
        <ele>791.20001220703</ele>
        <time>2014-04-06T08:27:13.000Z</time>
      </trkpt>
      <trkpt lat="42.85037" lon="2.16043">
        <ele>789.79998779297</ele>
        <time>2014-04-06T08:27:18.000Z</time>
      </trkpt>
      <trkpt lat="42.85036" lon="2.16047">
        <ele>789.40002441406</ele>
        <time>2014-04-06T08:27:19.000Z</time>
      </trkpt>
      <trkpt lat="42.85036" lon="2.16051">
        <ele>789</ele>
        <time>2014-04-06T08:27:20.000Z</time>
      </trkpt>
      <trkpt lat="42.85034" lon="2.16071">
        <ele>785</ele>
        <time>2014-04-06T08:27:25.000Z</time>
      </trkpt>
      <trkpt lat="42.85031" lon="2.16086">
        <ele>782.59997558594</ele>
        <time>2014-04-06T08:27:29.000Z</time>
      </trkpt>
      <trkpt lat="42.85027" lon="2.16101">
        <ele>781.40002441406</ele>
        <time>2014-04-06T08:27:33.000Z</time>
      </trkpt>
      <trkpt lat="42.85023" lon="2.16119">
        <ele>778.59997558594</ele>
        <time>2014-04-06T08:27:37.000Z</time>
      </trkpt>
      <trkpt lat="42.8502" lon="2.16132">
        <ele>777</ele>
        <time>2014-04-06T08:27:40.000Z</time>
      </trkpt>
      <trkpt lat="42.85016" lon="2.1615">
        <ele>774.40002441406</ele>
        <time>2014-04-06T08:27:45.000Z</time>
      </trkpt>
      <trkpt lat="42.85016" lon="2.16152">
        <ele>773.79998779297</ele>
        <time>2014-04-06T08:27:46.000Z</time>
      </trkpt>
      <trkpt lat="42.85017" lon="2.16163">
        <ele>770.20001220703</ele>
        <time>2014-04-06T08:27:51.000Z</time>
      </trkpt>
      <trkpt lat="42.85015" lon="2.16172">
        <ele>769</ele>
        <time>2014-04-06T08:27:55.000Z</time>
      </trkpt>
      <trkpt lat="42.85016" lon="2.1618">
        <ele>766.59997558594</ele>
        <time>2014-04-06T08:28:00.000Z</time>
      </trkpt>
      <trkpt lat="42.85017" lon="2.16181">
        <ele>766</ele>
        <time>2014-04-06T08:28:01.000Z</time>
      </trkpt>
      <trkpt lat="42.85022" lon="2.16186">
        <ele>762.59997558594</ele>
        <time>2014-04-06T08:28:05.000Z</time>
      </trkpt>
      <trkpt lat="42.85032" lon="2.16179">
        <ele>759.20001220703</ele>
        <time>2014-04-06T08:28:11.000Z</time>
      </trkpt>
      <trkpt lat="42.85037" lon="2.16172">
        <ele>758</ele>
        <time>2014-04-06T08:28:15.000Z</time>
      </trkpt>
      <trkpt lat="42.85042" lon="2.16173">
        <ele>755.20001220703</ele>
        <time>2014-04-06T08:28:20.000Z</time>
      </trkpt>
      <trkpt lat="42.85044" lon="2.16187">
        <ele>751.20001220703</ele>
        <time>2014-04-06T08:28:26.000Z</time>
      </trkpt>
      <trkpt lat="42.85044" lon="2.16189">
        <ele>751</ele>
        <time>2014-04-06T08:28:27.000Z</time>
      </trkpt>
      <trkpt lat="42.85043" lon="2.16193">
        <ele>750.40002441406</ele>
        <time>2014-04-06T08:28:29.000Z</time>
      </trkpt>
      <trkpt lat="42.85049" lon="2.16195">
        <ele>746.79998779297</ele>
        <time>2014-04-06T08:28:33.000Z</time>
      </trkpt>
      <trkpt lat="42.85057" lon="2.16189">
        <ele>744.20001220703</ele>
        <time>2014-04-06T08:28:37.000Z</time>
      </trkpt>
      <trkpt lat="42.85064" lon="2.16184">
        <ele>741.79998779297</ele>
        <time>2014-04-06T08:28:41.000Z</time>
      </trkpt>
      <trkpt lat="42.85066" lon="2.16182">
        <ele>741.20001220703</ele>
        <time>2014-04-06T08:28:43.000Z</time>
      </trkpt>
      <trkpt lat="42.85068" lon="2.16187">
        <ele>739.20001220703</ele>
        <time>2014-04-06T08:28:46.000Z</time>
      </trkpt>
      <trkpt lat="42.85068" lon="2.1619">
        <ele>738.20001220703</ele>
        <time>2014-04-06T08:28:47.000Z</time>
      </trkpt>
      <trkpt lat="42.85069" lon="2.16207">
        <ele>734.20001220703</ele>
        <time>2014-04-06T08:28:54.000Z</time>
      </trkpt>
      <trkpt lat="42.8507" lon="2.16208">
        <ele>733.59997558594</ele>
        <time>2014-04-06T08:28:55.000Z</time>
      </trkpt>
      <trkpt lat="42.85075" lon="2.16205">
        <ele>731.59997558594</ele>
        <time>2014-04-06T08:28:58.000Z</time>
      </trkpt>
      <trkpt lat="42.85083" lon="2.162">
        <ele>729.20001220703</ele>
        <time>2014-04-06T08:29:02.000Z</time>
      </trkpt>
      <trkpt lat="42.85084" lon="2.16198">
        <ele>729</ele>
        <time>2014-04-06T08:29:03.000Z</time>
      </trkpt>
      <trkpt lat="42.85088" lon="2.16193">
        <ele>728.20001220703</ele>
        <time>2014-04-06T08:29:06.000Z</time>
      </trkpt>
      <trkpt lat="42.85096" lon="2.16191">
        <ele>724.59997558594</ele>
        <time>2014-04-06T08:29:11.000Z</time>
      </trkpt>
      <trkpt lat="42.85097" lon="2.16202">
        <ele>722.20001220703</ele>
        <time>2014-04-06T08:29:15.000Z</time>
      </trkpt>
      <trkpt lat="42.85101" lon="2.16202">
        <ele>720.20001220703</ele>
        <time>2014-04-06T08:29:19.000Z</time>
      </trkpt>
      <trkpt lat="42.85108" lon="2.16188">
        <ele>719.59997558594</ele>
        <time>2014-04-06T08:29:23.000Z</time>
      </trkpt>
      <trkpt lat="42.85113" lon="2.1618">
        <ele>719</ele>
        <time>2014-04-06T08:29:26.000Z</time>
      </trkpt>
      <trkpt lat="42.85115" lon="2.16178">
        <ele>718.79998779297</ele>
        <time>2014-04-06T08:29:27.000Z</time>
      </trkpt>
      <trkpt lat="42.85123" lon="2.16171">
        <ele>716.20001220703</ele>
        <time>2014-04-06T08:29:32.000Z</time>
      </trkpt>
      <trkpt lat="42.85126" lon="2.16168">
        <ele>715.20001220703</ele>
        <time>2014-04-06T08:29:34.000Z</time>
      </trkpt>
      <trkpt lat="42.85133" lon="2.16164">
        <ele>713</ele>
        <time>2014-04-06T08:29:40.000Z</time>
      </trkpt>
      <trkpt lat="42.85134" lon="2.16166">
        <ele>712</ele>
        <time>2014-04-06T08:29:41.000Z</time>
      </trkpt>
      <trkpt lat="42.85136" lon="2.16182">
        <ele>707.79998779297</ele>
        <time>2014-04-06T08:29:46.000Z</time>
      </trkpt>
      <trkpt lat="42.85141" lon="2.162">
        <ele>702.40002441406</ele>
        <time>2014-04-06T08:29:52.000Z</time>
      </trkpt>
      <trkpt lat="42.85142" lon="2.16203">
        <ele>701.20001220703</ele>
        <time>2014-04-06T08:29:53.000Z</time>
      </trkpt>
      <trkpt lat="42.85144" lon="2.16205">
        <ele>699.79998779297</ele>
        <time>2014-04-06T08:29:55.000Z</time>
      </trkpt>
      <trkpt lat="42.85148" lon="2.16202">
        <ele>698.59997558594</ele>
        <time>2014-04-06T08:30:00.000Z</time>
      </trkpt>
      <trkpt lat="42.85152" lon="2.16204">
        <ele>696.40002441406</ele>
        <time>2014-04-06T08:30:03.000Z</time>
      </trkpt>
      <trkpt lat="42.85154" lon="2.16224">
        <ele>692</ele>
        <time>2014-04-06T08:30:10.000Z</time>
      </trkpt>
      <trkpt lat="42.85155" lon="2.16226">
        <ele>691.20001220703</ele>
        <time>2014-04-06T08:30:11.000Z</time>
      </trkpt>
      <trkpt lat="42.85153" lon="2.16236">
        <ele>690.59997558594</ele>
        <time>2014-04-06T08:30:14.000Z</time>
      </trkpt>
      <trkpt lat="42.85152" lon="2.1625">
        <ele>688.59997558594</ele>
        <time>2014-04-06T08:30:18.000Z</time>
      </trkpt>
      <trkpt lat="42.85152" lon="2.16259">
        <ele>687</ele>
        <time>2014-04-06T08:30:21.000Z</time>
      </trkpt>
      <trkpt lat="42.85151" lon="2.16277">
        <ele>683.79998779297</ele>
        <time>2014-04-06T08:30:27.000Z</time>
      </trkpt>
      <trkpt lat="42.85152" lon="2.16291">
        <ele>680.59997558594</ele>
        <time>2014-04-06T08:30:32.000Z</time>
      </trkpt>
      <trkpt lat="42.85156" lon="2.163">
        <ele>677.20001220703</ele>
        <time>2014-04-06T08:30:37.000Z</time>
      </trkpt>
      <trkpt lat="42.85159" lon="2.16309">
        <ele>674.40002441406</ele>
        <time>2014-04-06T08:30:42.000Z</time>
      </trkpt>
      <trkpt lat="42.85163" lon="2.16314">
        <ele>672</ele>
        <time>2014-04-06T08:30:47.000Z</time>
      </trkpt>
      <trkpt lat="42.85163" lon="2.16328">
        <ele>669.20001220703</ele>
        <time>2014-04-06T08:30:52.000Z</time>
      </trkpt>
      <trkpt lat="42.85164" lon="2.16331">
        <ele>668.59997558594</ele>
        <time>2014-04-06T08:30:54.000Z</time>
      </trkpt>
      <trkpt lat="42.85165" lon="2.16339">
        <ele>667.40002441406</ele>
        <time>2014-04-06T08:30:57.000Z</time>
      </trkpt>
      <trkpt lat="42.85167" lon="2.16355">
        <ele>665.20001220703</ele>
        <time>2014-04-06T08:31:03.000Z</time>
      </trkpt>
      <trkpt lat="42.85167" lon="2.16358">
        <ele>664.79998779297</ele>
        <time>2014-04-06T08:31:04.000Z</time>
      </trkpt>
      <trkpt lat="42.85166" lon="2.1637">
        <ele>664</ele>
        <time>2014-04-06T08:31:08.000Z</time>
      </trkpt>
      <trkpt lat="42.85169" lon="2.16386">
        <ele>661.59997558594</ele>
        <time>2014-04-06T08:31:13.000Z</time>
      </trkpt>
      <trkpt lat="42.85172" lon="2.16402">
        <ele>659.20001220703</ele>
        <time>2014-04-06T08:31:18.000Z</time>
      </trkpt>
      <trkpt lat="42.85177" lon="2.16415">
        <ele>656.40002441406</ele>
        <time>2014-04-06T08:31:22.000Z</time>
      </trkpt>
      <trkpt lat="42.85179" lon="2.16426">
        <ele>654.40002441406</ele>
        <time>2014-04-06T08:31:26.000Z</time>
      </trkpt>
      <trkpt lat="42.8518" lon="2.16429">
        <ele>654</ele>
        <time>2014-04-06T08:31:27.000Z</time>
      </trkpt>
      <trkpt lat="42.85183" lon="2.16437">
        <ele>652.20001220703</ele>
        <time>2014-04-06T08:31:30.000Z</time>
      </trkpt>
      <trkpt lat="42.8519" lon="2.16446">
        <ele>648.59997558594</ele>
        <time>2014-04-06T08:31:35.000Z</time>
      </trkpt>
      <trkpt lat="42.85192" lon="2.16452">
        <ele>647.59997558594</ele>
        <time>2014-04-06T08:31:38.000Z</time>
      </trkpt>
      <trkpt lat="42.85194" lon="2.16457">
        <ele>646.59997558594</ele>
        <time>2014-04-06T08:31:40.000Z</time>
      </trkpt>
      <trkpt lat="42.85201" lon="2.16473">
        <ele>643</ele>
        <time>2014-04-06T08:31:46.000Z</time>
      </trkpt>
      <trkpt lat="42.85204" lon="2.16477">
        <ele>641.59997558594</ele>
        <time>2014-04-06T08:31:48.000Z</time>
      </trkpt>
      <trkpt lat="42.8521" lon="2.16493">
        <ele>638.59997558594</ele>
        <time>2014-04-06T08:31:55.000Z</time>
      </trkpt>
      <trkpt lat="42.8521" lon="2.16495">
        <ele>638.20001220703</ele>
        <time>2014-04-06T08:31:56.000Z</time>
      </trkpt>
      <trkpt lat="42.85215" lon="2.16505">
        <ele>635.40002441406</ele>
        <time>2014-04-06T08:32:01.000Z</time>
      </trkpt>
      <trkpt lat="42.85218" lon="2.16516">
        <ele>632</ele>
        <time>2014-04-06T08:32:06.000Z</time>
      </trkpt>
      <trkpt lat="42.85218" lon="2.16526">
        <ele>630</ele>
        <time>2014-04-06T08:32:10.000Z</time>
      </trkpt>
      <trkpt lat="42.8522" lon="2.16533">
        <ele>627.79998779297</ele>
        <time>2014-04-06T08:32:13.000Z</time>
      </trkpt>
      <trkpt lat="42.85221" lon="2.16539">
        <ele>626.40002441406</ele>
        <time>2014-04-06T08:32:15.000Z</time>
      </trkpt>
      <trkpt lat="42.85223" lon="2.16544">
        <ele>624.79998779297</ele>
        <time>2014-04-06T08:32:17.000Z</time>
      </trkpt>
      <trkpt lat="42.85224" lon="2.16551">
        <ele>623</ele>
        <time>2014-04-06T08:32:20.000Z</time>
      </trkpt>
      <trkpt lat="42.85229" lon="2.16562">
        <ele>619.59997558594</ele>
        <time>2014-04-06T08:32:24.000Z</time>
      </trkpt>
      <trkpt lat="42.85232" lon="2.16573">
        <ele>616.40002441406</ele>
        <time>2014-04-06T08:32:29.000Z</time>
      </trkpt>
      <trkpt lat="42.85233" lon="2.16575">
        <ele>615.79998779297</ele>
        <time>2014-04-06T08:32:30.000Z</time>
      </trkpt>
      <trkpt lat="42.85235" lon="2.16581">
        <ele>614.20001220703</ele>
        <time>2014-04-06T08:32:33.000Z</time>
      </trkpt>
      <trkpt lat="42.85237" lon="2.16592">
        <ele>611</ele>
        <time>2014-04-06T08:32:38.000Z</time>
      </trkpt>
      <trkpt lat="42.85238" lon="2.16601">
        <ele>608.40002441406</ele>
        <time>2014-04-06T08:32:43.000Z</time>
      </trkpt>
      <trkpt lat="42.85239" lon="2.1661">
        <ele>605.59997558594</ele>
        <time>2014-04-06T08:32:47.000Z</time>
      </trkpt>
      <trkpt lat="42.85239" lon="2.16612">
        <ele>605</ele>
        <time>2014-04-06T08:32:48.000Z</time>
      </trkpt>
      <trkpt lat="42.85239" lon="2.16616">
        <ele>604</ele>
        <time>2014-04-06T08:32:50.000Z</time>
      </trkpt>
      <trkpt lat="42.85236" lon="2.16628">
        <ele>601.79998779297</ele>
        <time>2014-04-06T08:32:56.000Z</time>
      </trkpt>
      <trkpt lat="42.85235" lon="2.16635">
        <ele>600.20001220703</ele>
        <time>2014-04-06T08:33:00.000Z</time>
      </trkpt>
      <trkpt lat="42.85236" lon="2.16652">
        <ele>595.20001220703</ele>
        <time>2014-04-06T08:33:07.000Z</time>
      </trkpt>
      <trkpt lat="42.85237" lon="2.16669">
        <ele>590.59997558594</ele>
        <time>2014-04-06T08:33:13.000Z</time>
      </trkpt>
      <trkpt lat="42.85241" lon="2.16687">
        <ele>587.40002441406</ele>
        <time>2014-04-06T08:33:19.000Z</time>
      </trkpt>
      <trkpt lat="42.85241" lon="2.16691">
        <ele>586.59997558594</ele>
        <time>2014-04-06T08:33:20.000Z</time>
      </trkpt>
      <trkpt lat="42.85242" lon="2.16706">
        <ele>584.20001220703</ele>
        <time>2014-04-06T08:33:24.000Z</time>
      </trkpt>
      <trkpt lat="42.85242" lon="2.1671">
        <ele>583.59997558594</ele>
        <time>2014-04-06T08:33:25.000Z</time>
      </trkpt>
      <trkpt lat="42.85243" lon="2.16727">
        <ele>581</ele>
        <time>2014-04-06T08:33:30.000Z</time>
      </trkpt>
      <trkpt lat="42.85245" lon="2.16743">
        <ele>578.20001220703</ele>
        <time>2014-04-06T08:33:35.000Z</time>
      </trkpt>
      <trkpt lat="42.85244" lon="2.16752">
        <ele>577.20001220703</ele>
        <time>2014-04-06T08:33:37.000Z</time>
      </trkpt>
      <trkpt lat="42.85251" lon="2.16766">
        <ele>573.40002441406</ele>
        <time>2014-04-06T08:33:43.000Z</time>
      </trkpt>
      <trkpt lat="42.85259" lon="2.1677">
        <ele>570.79998779297</ele>
        <time>2014-04-06T08:33:47.000Z</time>
      </trkpt>
      <trkpt lat="42.85269" lon="2.16773">
        <ele>568</ele>
        <time>2014-04-06T08:33:52.000Z</time>
      </trkpt>
      <trkpt lat="42.85277" lon="2.16775">
        <ele>565.79998779297</ele>
        <time>2014-04-06T08:33:56.000Z</time>
      </trkpt>
      <trkpt lat="42.85278" lon="2.16776">
        <ele>565.20001220703</ele>
        <time>2014-04-06T08:33:57.000Z</time>
      </trkpt>
      <trkpt lat="42.85286" lon="2.16785">
        <ele>562.20001220703</ele>
        <time>2014-04-06T08:34:02.000Z</time>
      </trkpt>
      <trkpt lat="42.85295" lon="2.16794">
        <ele>559</ele>
        <time>2014-04-06T08:34:08.000Z</time>
      </trkpt>
      <trkpt lat="42.85303" lon="2.16803">
        <ele>556</ele>
        <time>2014-04-06T08:34:13.000Z</time>
      </trkpt>
      <trkpt lat="42.85304" lon="2.16804">
        <ele>555.59997558594</ele>
        <time>2014-04-06T08:34:14.000Z</time>
      </trkpt>
      <trkpt lat="42.85312" lon="2.16812">
        <ele>553</ele>
        <time>2014-04-06T08:34:19.000Z</time>
      </trkpt>
      <trkpt lat="42.85318" lon="2.16816">
        <ele>551</ele>
        <time>2014-04-06T08:34:23.000Z</time>
      </trkpt>
      <trkpt lat="42.85324" lon="2.1682">
        <ele>549.40002441406</ele>
        <time>2014-04-06T08:34:26.000Z</time>
      </trkpt>
      <trkpt lat="42.85334" lon="2.16826">
        <ele>546.40002441406</ele>
        <time>2014-04-06T08:34:32.000Z</time>
      </trkpt>
      <trkpt lat="42.85336" lon="2.16827">
        <ele>546</ele>
        <time>2014-04-06T08:34:33.000Z</time>
      </trkpt>
      <trkpt lat="42.85345" lon="2.16834">
        <ele>542.79998779297</ele>
        <time>2014-04-06T08:34:39.000Z</time>
      </trkpt>
      <trkpt lat="42.85358" lon="2.16843">
        <ele>538.40002441406</ele>
        <time>2014-04-06T08:34:46.000Z</time>
      </trkpt>
      <trkpt lat="42.85372" lon="2.16843">
        <ele>534.59997558594</ele>
        <time>2014-04-06T08:34:52.000Z</time>
      </trkpt>
      <trkpt lat="42.85374" lon="2.16843">
        <ele>534.40002441406</ele>
        <time>2014-04-06T08:34:53.000Z</time>
      </trkpt>
      <trkpt lat="42.8538" lon="2.16844">
        <ele>532.59997558594</ele>
        <time>2014-04-06T08:34:57.000Z</time>
      </trkpt>
      <trkpt lat="42.85384" lon="2.16847">
        <ele>531.20001220703</ele>
        <time>2014-04-06T08:35:00.000Z</time>
      </trkpt>
      <trkpt lat="42.85396" lon="2.16849">
        <ele>528</ele>
        <time>2014-04-06T08:35:05.000Z</time>
      </trkpt>
      <trkpt lat="42.85402" lon="2.16855">
        <ele>526</ele>
        <time>2014-04-06T08:35:10.000Z</time>
      </trkpt>
      <trkpt lat="42.85406" lon="2.16866">
        <ele>523.79998779297</ele>
        <time>2014-04-06T08:35:15.000Z</time>
      </trkpt>
      <trkpt lat="42.85407" lon="2.16869">
        <ele>523.40002441406</ele>
        <time>2014-04-06T08:35:16.000Z</time>
      </trkpt>
      <trkpt lat="42.85408" lon="2.16872">
        <ele>523</ele>
        <time>2014-04-06T08:35:17.000Z</time>
      </trkpt>
      <trkpt lat="42.85407" lon="2.16882">
        <ele>522.20001220703</ele>
        <time>2014-04-06T08:35:20.000Z</time>
      </trkpt>
      <trkpt lat="42.85407" lon="2.16888">
        <ele>521.59997558594</ele>
        <time>2014-04-06T08:35:22.000Z</time>
      </trkpt>
      <trkpt lat="42.85408" lon="2.16899">
        <ele>520.59997558594</ele>
        <time>2014-04-06T08:35:27.000Z</time>
      </trkpt>
      <trkpt lat="42.85407" lon="2.16902">
        <ele>520.20001220703</ele>
        <time>2014-04-06T08:35:28.000Z</time>
      </trkpt>
      <trkpt lat="42.85405" lon="2.16915">
        <ele>519.79998779297</ele>
        <time>2014-04-06T08:35:32.000Z</time>
      </trkpt>
      <trkpt lat="42.85402" lon="2.16924">
        <ele>519.20001220703</ele>
        <time>2014-04-06T08:35:35.000Z</time>
      </trkpt>
      <trkpt lat="42.85401" lon="2.16933">
        <ele>518.59997558594</ele>
        <time>2014-04-06T08:35:38.000Z</time>
      </trkpt>
      <trkpt lat="42.854" lon="2.1695">
        <ele>516.79998779297</ele>
        <time>2014-04-06T08:35:43.000Z</time>
      </trkpt>
      <trkpt lat="42.85399" lon="2.16981">
        <ele>513.40002441406</ele>
        <time>2014-04-06T08:35:52.000Z</time>
      </trkpt>
      <trkpt lat="42.85397" lon="2.1699">
        <ele>512.79998779297</ele>
        <time>2014-04-06T08:35:56.000Z</time>
      </trkpt>
      <trkpt lat="42.85392" lon="2.16994">
        <ele>513.59997558594</ele>
        <time>2014-04-06T08:36:00.000Z</time>
      </trkpt>
      <trkpt lat="42.85389" lon="2.16994">
        <ele>514.40002441406</ele>
        <time>2014-04-06T08:36:02.000Z</time>
      </trkpt>
      <trkpt lat="42.85386" lon="2.16994">
        <ele>515.20001220703</ele>
        <time>2014-04-06T08:36:04.000Z</time>
      </trkpt>
      <trkpt lat="42.85378" lon="2.17">
        <ele>516.40002441406</ele>
        <time>2014-04-06T08:36:08.000Z</time>
      </trkpt>
      <trkpt lat="42.85373" lon="2.17002">
        <ele>517.40002441406</ele>
        <time>2014-04-06T08:36:11.000Z</time>
      </trkpt>
      <trkpt lat="42.85365" lon="2.17013">
        <ele>518.40002441406</ele>
        <time>2014-04-06T08:36:18.000Z</time>
      </trkpt>
      <trkpt lat="42.85364" lon="2.17016">
        <ele>518.59997558594</ele>
        <time>2014-04-06T08:36:20.000Z</time>
      </trkpt>
      <trkpt lat="42.85364" lon="2.17017">
        <ele>518.40002441406</ele>
        <time>2014-04-06T08:36:22.000Z</time>
      </trkpt>
      <trkpt lat="42.8536" lon="2.17026">
        <ele>519</ele>
        <time>2014-04-06T08:36:27.000Z</time>
      </trkpt>
      <trkpt lat="42.85357" lon="2.17036">
        <ele>519</ele>
        <time>2014-04-06T08:36:33.000Z</time>
      </trkpt>
      <trkpt lat="42.85356" lon="2.17038">
        <ele>519</ele>
        <time>2014-04-06T08:36:34.000Z</time>
      </trkpt>
      <trkpt lat="42.85356" lon="2.17042">
        <ele>518.79998779297</ele>
        <time>2014-04-06T08:36:36.000Z</time>
      </trkpt>
      <trkpt lat="42.85353" lon="2.17053">
        <ele>518.79998779297</ele>
        <time>2014-04-06T08:36:42.000Z</time>
      </trkpt>
      <trkpt lat="42.85353" lon="2.17054">
        <ele>518.79998779297</ele>
        <time>2014-04-06T08:36:43.000Z</time>
      </trkpt>
      <trkpt lat="42.85345" lon="2.17078">
        <ele>519.20001220703</ele>
        <time>2014-04-06T08:36:58.000Z</time>
      </trkpt>
      <trkpt lat="42.85345" lon="2.1708">
        <ele>519.20001220703</ele>
        <time>2014-04-06T08:36:59.000Z</time>
      </trkpt>
      <trkpt lat="42.85343" lon="2.17088">
        <ele>519.20001220703</ele>
        <time>2014-04-06T08:37:04.000Z</time>
      </trkpt>
      <trkpt lat="42.85336" lon="2.17101">
        <ele>520.59997558594</ele>
        <time>2014-04-06T08:37:12.000Z</time>
      </trkpt>
      <trkpt lat="42.85329" lon="2.17111">
        <ele>522.40002441406</ele>
        <time>2014-04-06T08:37:19.000Z</time>
      </trkpt>
      <trkpt lat="42.85322" lon="2.17123">
        <ele>524.40002441406</ele>
        <time>2014-04-06T08:37:27.000Z</time>
      </trkpt>
      <trkpt lat="42.85315" lon="2.17134">
        <ele>526.20001220703</ele>
        <time>2014-04-06T08:37:35.000Z</time>
      </trkpt>
      <trkpt lat="42.8531" lon="2.17142">
        <ele>527.40002441406</ele>
        <time>2014-04-06T08:37:41.000Z</time>
      </trkpt>
      <trkpt lat="42.85305" lon="2.17152">
        <ele>529</ele>
        <time>2014-04-06T08:37:48.000Z</time>
      </trkpt>
      <trkpt lat="42.85298" lon="2.17161">
        <ele>530.59997558594</ele>
        <time>2014-04-06T08:37:55.000Z</time>
      </trkpt>
      <trkpt lat="42.85292" lon="2.1717">
        <ele>532</ele>
        <time>2014-04-06T08:38:02.000Z</time>
      </trkpt>
      <trkpt lat="42.85285" lon="2.17181">
        <ele>533.40002441406</ele>
        <time>2014-04-06T08:38:10.000Z</time>
      </trkpt>
      <trkpt lat="42.85279" lon="2.17191">
        <ele>534.40002441406</ele>
        <time>2014-04-06T08:38:17.000Z</time>
      </trkpt>
      <trkpt lat="42.85273" lon="2.17201">
        <ele>535</ele>
        <time>2014-04-06T08:38:24.000Z</time>
      </trkpt>
      <trkpt lat="42.85269" lon="2.17208">
        <ele>535.59997558594</ele>
        <time>2014-04-06T08:38:29.000Z</time>
      </trkpt>
      <trkpt lat="42.85263" lon="2.17218">
        <ele>536.40002441406</ele>
        <time>2014-04-06T08:38:36.000Z</time>
      </trkpt>
      <trkpt lat="42.85261" lon="2.17226">
        <ele>536.40002441406</ele>
        <time>2014-04-06T08:38:41.000Z</time>
      </trkpt>
      <trkpt lat="42.8526" lon="2.17227">
        <ele>536.40002441406</ele>
        <time>2014-04-06T08:38:42.000Z</time>
      </trkpt>
      <trkpt lat="42.85255" lon="2.17237">
        <ele>537</ele>
        <time>2014-04-06T08:38:49.000Z</time>
      </trkpt>
      <trkpt lat="42.8525" lon="2.17248">
        <ele>537.20001220703</ele>
        <time>2014-04-06T08:38:56.000Z</time>
      </trkpt>
      <trkpt lat="42.85246" lon="2.17256">
        <ele>538</ele>
        <time>2014-04-06T08:39:01.000Z</time>
      </trkpt>
      <trkpt lat="42.8524" lon="2.17266">
        <ele>538.79998779297</ele>
        <time>2014-04-06T08:39:08.000Z</time>
      </trkpt>
      <trkpt lat="42.85238" lon="2.17269">
        <ele>539.20001220703</ele>
        <time>2014-04-06T08:39:10.000Z</time>
      </trkpt>
      <trkpt lat="42.85234" lon="2.1728">
        <ele>539.40002441406</ele>
        <time>2014-04-06T08:39:17.000Z</time>
      </trkpt>
      <trkpt lat="42.85227" lon="2.1729">
        <ele>540.40002441406</ele>
        <time>2014-04-06T08:39:24.000Z</time>
      </trkpt>
      <trkpt lat="42.85221" lon="2.17298">
        <ele>541.40002441406</ele>
        <time>2014-04-06T08:39:30.000Z</time>
      </trkpt>
      <trkpt lat="42.85218" lon="2.17303">
        <ele>541.79998779297</ele>
        <time>2014-04-06T08:39:33.000Z</time>
      </trkpt>
      <trkpt lat="42.85213" lon="2.1731">
        <ele>542.59997558594</ele>
        <time>2014-04-06T08:39:38.000Z</time>
      </trkpt>
      <trkpt lat="42.85211" lon="2.17312">
        <ele>542.79998779297</ele>
        <time>2014-04-06T08:39:39.000Z</time>
      </trkpt>
      <trkpt lat="42.85195" lon="2.17331">
        <ele>545.59997558594</ele>
        <time>2014-04-06T08:39:54.000Z</time>
      </trkpt>
      <trkpt lat="42.85189" lon="2.17339">
        <ele>546.20001220703</ele>
        <time>2014-04-06T08:40:00.000Z</time>
      </trkpt>
      <trkpt lat="42.85182" lon="2.17346">
        <ele>547.20001220703</ele>
        <time>2014-04-06T08:40:06.000Z</time>
      </trkpt>
      <trkpt lat="42.85178" lon="2.1735">
        <ele>547.79998779297</ele>
        <time>2014-04-06T08:40:10.000Z</time>
      </trkpt>
      <trkpt lat="42.85171" lon="2.17356">
        <ele>548.79998779297</ele>
        <time>2014-04-06T08:40:16.000Z</time>
      </trkpt>
      <trkpt lat="42.8517" lon="2.17358">
        <ele>548.79998779297</ele>
        <time>2014-04-06T08:40:18.000Z</time>
      </trkpt>
      <trkpt lat="42.85164" lon="2.17364">
        <ele>549.79998779297</ele>
        <time>2014-04-06T08:40:24.000Z</time>
      </trkpt>
      <trkpt lat="42.85157" lon="2.17374">
        <ele>551</ele>
        <time>2014-04-06T08:40:31.000Z</time>
      </trkpt>
      <trkpt lat="42.85149" lon="2.1738">
        <ele>552.40002441406</ele>
        <time>2014-04-06T08:40:37.000Z</time>
      </trkpt>
      <trkpt lat="42.85143" lon="2.17389">
        <ele>553.20001220703</ele>
        <time>2014-04-06T08:40:43.000Z</time>
      </trkpt>
      <trkpt lat="42.85134" lon="2.17404">
        <ele>553.79998779297</ele>
        <time>2014-04-06T08:40:52.000Z</time>
      </trkpt>
      <trkpt lat="42.8513" lon="2.17412">
        <ele>553.59997558594</ele>
        <time>2014-04-06T08:40:58.000Z</time>
      </trkpt>
      <trkpt lat="42.85124" lon="2.17422">
        <ele>554.20001220703</ele>
        <time>2014-04-06T08:41:04.000Z</time>
      </trkpt>
      <trkpt lat="42.8512" lon="2.17432">
        <ele>554</ele>
        <time>2014-04-06T08:41:11.000Z</time>
      </trkpt>
      <trkpt lat="42.85116" lon="2.17442">
        <ele>553.79998779297</ele>
        <time>2014-04-06T08:41:17.000Z</time>
      </trkpt>
      <trkpt lat="42.85113" lon="2.1745">
        <ele>553.79998779297</ele>
        <time>2014-04-06T08:41:22.000Z</time>
      </trkpt>
      <trkpt lat="42.8511" lon="2.17457">
        <ele>554</ele>
        <time>2014-04-06T08:41:27.000Z</time>
      </trkpt>
      <trkpt lat="42.85109" lon="2.17459">
        <ele>554</ele>
        <time>2014-04-06T08:41:28.000Z</time>
      </trkpt>
      <trkpt lat="42.85102" lon="2.17467">
        <ele>555.20001220703</ele>
        <time>2014-04-06T08:41:34.000Z</time>
      </trkpt>
      <trkpt lat="42.85096" lon="2.17475">
        <ele>556.20001220703</ele>
        <time>2014-04-06T08:41:40.000Z</time>
      </trkpt>
      <trkpt lat="42.85091" lon="2.17482">
        <ele>557.20001220703</ele>
        <time>2014-04-06T08:41:45.000Z</time>
      </trkpt>
      <trkpt lat="42.85083" lon="2.17491">
        <ele>558.59997558594</ele>
        <time>2014-04-06T08:41:52.000Z</time>
      </trkpt>
      <trkpt lat="42.8508" lon="2.17493">
        <ele>559</ele>
        <time>2014-04-06T08:41:54.000Z</time>
      </trkpt>
      <trkpt lat="42.85069" lon="2.17502">
        <ele>561.59997558594</ele>
        <time>2014-04-06T08:42:03.000Z</time>
      </trkpt>
      <trkpt lat="42.85067" lon="2.17505">
        <ele>562.20001220703</ele>
        <time>2014-04-06T08:42:05.000Z</time>
      </trkpt>
      <trkpt lat="42.8506" lon="2.17507">
        <ele>564.40002441406</ele>
        <time>2014-04-06T08:42:11.000Z</time>
      </trkpt>
      <trkpt lat="42.85051" lon="2.17512">
        <ele>566.59997558594</ele>
        <time>2014-04-06T08:42:17.000Z</time>
      </trkpt>
      <trkpt lat="42.85042" lon="2.17517">
        <ele>569</ele>
        <time>2014-04-06T08:42:24.000Z</time>
      </trkpt>
      <trkpt lat="42.85035" lon="2.17521">
        <ele>570.59997558594</ele>
        <time>2014-04-06T08:42:29.000Z</time>
      </trkpt>
      <trkpt lat="42.85027" lon="2.17526">
        <ele>572.59997558594</ele>
        <time>2014-04-06T08:42:35.000Z</time>
      </trkpt>
      <trkpt lat="42.8502" lon="2.17531">
        <ele>574</ele>
        <time>2014-04-06T08:42:41.000Z</time>
      </trkpt>
      <trkpt lat="42.85015" lon="2.17534">
        <ele>574.79998779297</ele>
        <time>2014-04-06T08:42:45.000Z</time>
      </trkpt>
      <trkpt lat="42.85009" lon="2.1754">
        <ele>575.79998779297</ele>
        <time>2014-04-06T08:42:50.000Z</time>
      </trkpt>
      <trkpt lat="42.85008" lon="2.17541">
        <ele>576</ele>
        <time>2014-04-06T08:42:51.000Z</time>
      </trkpt>
      <trkpt lat="42.85003" lon="2.17548">
        <ele>576.40002441406</ele>
        <time>2014-04-06T08:42:56.000Z</time>
      </trkpt>
      <trkpt lat="42.85001" lon="2.17551">
        <ele>576.20001220703</ele>
        <time>2014-04-06T08:42:58.000Z</time>
      </trkpt>
      <trkpt lat="42.84997" lon="2.17556">
        <ele>576.59997558594</ele>
        <time>2014-04-06T08:43:02.000Z</time>
      </trkpt>
      <trkpt lat="42.84996" lon="2.17559">
        <ele>576.40002441406</ele>
        <time>2014-04-06T08:43:04.000Z</time>
      </trkpt>
      <trkpt lat="42.84993" lon="2.17567">
        <ele>575.79998779297</ele>
        <time>2014-04-06T08:43:08.000Z</time>
      </trkpt>
      <trkpt lat="42.8499" lon="2.17572">
        <ele>575.79998779297</ele>
        <time>2014-04-06T08:43:12.000Z</time>
      </trkpt>
      <trkpt lat="42.84983" lon="2.17583">
        <ele>576</ele>
        <time>2014-04-06T08:43:20.000Z</time>
      </trkpt>
      <trkpt lat="42.84978" lon="2.1759">
        <ele>576.40002441406</ele>
        <time>2014-04-06T08:43:26.000Z</time>
      </trkpt>
      <trkpt lat="42.8497" lon="2.176">
        <ele>577.20001220703</ele>
        <time>2014-04-06T08:43:33.000Z</time>
      </trkpt>
      <trkpt lat="42.84966" lon="2.17605">
        <ele>577.40002441406</ele>
        <time>2014-04-06T08:43:36.000Z</time>
      </trkpt>
      <trkpt lat="42.8496" lon="2.17613">
        <ele>578.20001220703</ele>
        <time>2014-04-06T08:43:41.000Z</time>
      </trkpt>
      <trkpt lat="42.84951" lon="2.1762">
        <ele>579.79998779297</ele>
        <time>2014-04-06T08:43:46.000Z</time>
      </trkpt>
      <trkpt lat="42.84944" lon="2.17624">
        <ele>581.20001220703</ele>
        <time>2014-04-06T08:43:50.000Z</time>
      </trkpt>
      <trkpt lat="42.84936" lon="2.17624">
        <ele>584</ele>
        <time>2014-04-06T08:43:55.000Z</time>
      </trkpt>
      <trkpt lat="42.84926" lon="2.17621">
        <ele>587.59997558594</ele>
        <time>2014-04-06T08:44:00.000Z</time>
      </trkpt>
      <trkpt lat="42.84925" lon="2.17621">
        <ele>588.20001220703</ele>
        <time>2014-04-06T08:44:01.000Z</time>
      </trkpt>
      <trkpt lat="42.84923" lon="2.17621">
        <ele>588.59997558594</ele>
        <time>2014-04-06T08:44:02.000Z</time>
      </trkpt>
      <trkpt lat="42.84915" lon="2.17623">
        <ele>591</ele>
        <time>2014-04-06T08:44:07.000Z</time>
      </trkpt>
      <trkpt lat="42.84907" lon="2.17626">
        <ele>593.79998779297</ele>
        <time>2014-04-06T08:44:12.000Z</time>
      </trkpt>
      <trkpt lat="42.84899" lon="2.1763">
        <ele>596.40002441406</ele>
        <time>2014-04-06T08:44:17.000Z</time>
      </trkpt>
      <trkpt lat="42.84894" lon="2.17635">
        <ele>597.59997558594</ele>
        <time>2014-04-06T08:44:23.000Z</time>
      </trkpt>
      <trkpt lat="42.84891" lon="2.1764">
        <ele>597.79998779297</ele>
        <time>2014-04-06T08:44:26.000Z</time>
      </trkpt>
      <trkpt lat="42.84889" lon="2.17643">
        <ele>597.59997558594</ele>
        <time>2014-04-06T08:44:28.000Z</time>
      </trkpt>
      <trkpt lat="42.84887" lon="2.1765">
        <ele>597.59997558594</ele>
        <time>2014-04-06T08:44:33.000Z</time>
      </trkpt>
      <trkpt lat="42.84885" lon="2.17657">
        <ele>596.79998779297</ele>
        <time>2014-04-06T08:44:37.000Z</time>
      </trkpt>
      <trkpt lat="42.84883" lon="2.17666">
        <ele>596.20001220703</ele>
        <time>2014-04-06T08:44:42.000Z</time>
      </trkpt>
      <trkpt lat="42.84883" lon="2.1767">
        <ele>595.79998779297</ele>
        <time>2014-04-06T08:44:44.000Z</time>
      </trkpt>
      <trkpt lat="42.84882" lon="2.17683">
        <ele>595.40002441406</ele>
        <time>2014-04-06T08:44:51.000Z</time>
      </trkpt>
      <trkpt lat="42.84882" lon="2.17685">
        <ele>595.40002441406</ele>
        <time>2014-04-06T08:44:52.000Z</time>
      </trkpt>
      <trkpt lat="42.84882" lon="2.17688">
        <ele>595</ele>
        <time>2014-04-06T08:44:54.000Z</time>
      </trkpt>
      <trkpt lat="42.84881" lon="2.17693">
        <ele>595</ele>
        <time>2014-04-06T08:44:57.000Z</time>
      </trkpt>
      <trkpt lat="42.8488" lon="2.17697">
        <ele>595</ele>
        <time>2014-04-06T08:44:59.000Z</time>
      </trkpt>
      <trkpt lat="42.84876" lon="2.17712">
        <ele>595.79998779297</ele>
        <time>2014-04-06T08:45:08.000Z</time>
      </trkpt>
      <trkpt lat="42.8487" lon="2.17723">
        <ele>597.40002441406</ele>
        <time>2014-04-06T08:45:16.000Z</time>
      </trkpt>
      <trkpt lat="42.84865" lon="2.17733">
        <ele>598.59997558594</ele>
        <time>2014-04-06T08:45:23.000Z</time>
      </trkpt>
      <trkpt lat="42.84865" lon="2.17734">
        <ele>598.79998779297</ele>
        <time>2014-04-06T08:45:24.000Z</time>
      </trkpt>
      <trkpt lat="42.84861" lon="2.1774">
        <ele>599.79998779297</ele>
        <time>2014-04-06T08:45:28.000Z</time>
      </trkpt>
      <trkpt lat="42.84855" lon="2.17749">
        <ele>601.40002441406</ele>
        <time>2014-04-06T08:45:35.000Z</time>
      </trkpt>
      <trkpt lat="42.8485" lon="2.17759">
        <ele>602.40002441406</ele>
        <time>2014-04-06T08:45:41.000Z</time>
      </trkpt>
      <trkpt lat="42.84848" lon="2.1777">
        <ele>601.79998779297</ele>
        <time>2014-04-06T08:45:46.000Z</time>
      </trkpt>
      <trkpt lat="42.84845" lon="2.17777">
        <ele>602</ele>
        <time>2014-04-06T08:45:49.000Z</time>
      </trkpt>
      <trkpt lat="42.84843" lon="2.17789">
        <ele>601.40002441406</ele>
        <time>2014-04-06T08:45:55.000Z</time>
      </trkpt>
      <trkpt lat="42.84843" lon="2.17791">
        <ele>601.20001220703</ele>
        <time>2014-04-06T08:45:56.000Z</time>
      </trkpt>
      <trkpt lat="42.84838" lon="2.17803">
        <ele>601.79998779297</ele>
        <time>2014-04-06T08:46:02.000Z</time>
      </trkpt>
      <trkpt lat="42.8483" lon="2.17813">
        <ele>604</ele>
        <time>2014-04-06T08:46:07.000Z</time>
      </trkpt>
      <trkpt lat="42.84819" lon="2.17824">
        <ele>608.40002441406</ele>
        <time>2014-04-06T08:46:14.000Z</time>
      </trkpt>
      <trkpt lat="42.8481" lon="2.17831">
        <ele>612.79998779297</ele>
        <time>2014-04-06T08:46:20.000Z</time>
      </trkpt>
      <trkpt lat="42.84802" lon="2.17839">
        <ele>615.40002441406</ele>
        <time>2014-04-06T08:46:26.000Z</time>
      </trkpt>
      <trkpt lat="42.84795" lon="2.1785">
        <ele>617.20001220703</ele>
        <time>2014-04-06T08:46:33.000Z</time>
      </trkpt>
      <trkpt lat="42.8479" lon="2.1786">
        <ele>618</ele>
        <time>2014-04-06T08:46:39.000Z</time>
      </trkpt>
      <trkpt lat="42.8479" lon="2.17861">
        <ele>618</ele>
        <time>2014-04-06T08:46:40.000Z</time>
      </trkpt>
      <trkpt lat="42.84789" lon="2.17865">
        <ele>618</ele>
        <time>2014-04-06T08:46:42.000Z</time>
      </trkpt>
      <trkpt lat="42.84785" lon="2.1788">
        <ele>617.40002441406</ele>
        <time>2014-04-06T08:46:51.000Z</time>
      </trkpt>
      <trkpt lat="42.84784" lon="2.17882">
        <ele>617.40002441406</ele>
        <time>2014-04-06T08:46:52.000Z</time>
      </trkpt>
      <trkpt lat="42.84783" lon="2.17889">
        <ele>616.59997558594</ele>
        <time>2014-04-06T08:46:56.000Z</time>
      </trkpt>
      <trkpt lat="42.84782" lon="2.17896">
        <ele>616.40002441406</ele>
        <time>2014-04-06T08:47:00.000Z</time>
      </trkpt>
      <trkpt lat="42.84779" lon="2.17903">
        <ele>616.40002441406</ele>
        <time>2014-04-06T08:47:04.000Z</time>
      </trkpt>
      <trkpt lat="42.84773" lon="2.17916">
        <ele>617.20001220703</ele>
        <time>2014-04-06T08:47:11.000Z</time>
      </trkpt>
      <trkpt lat="42.8477" lon="2.17933">
        <ele>616.79998779297</ele>
        <time>2014-04-06T08:47:18.000Z</time>
      </trkpt>
      <trkpt lat="42.84765" lon="2.17948">
        <ele>617.40002441406</ele>
        <time>2014-04-06T08:47:24.000Z</time>
      </trkpt>
      <trkpt lat="42.84762" lon="2.1796">
        <ele>617.79998779297</ele>
        <time>2014-04-06T08:47:30.000Z</time>
      </trkpt>
      <trkpt lat="42.8476" lon="2.17967">
        <ele>618.40002441406</ele>
        <time>2014-04-06T08:47:37.000Z</time>
      </trkpt>
      <trkpt lat="42.84759" lon="2.17969">
        <ele>618.40002441406</ele>
        <time>2014-04-06T08:47:43.000Z</time>
      </trkpt>
      <trkpt lat="42.84759" lon="2.17973">
        <ele>618</ele>
        <time>2014-04-06T08:47:47.000Z</time>
      </trkpt>
      <trkpt lat="42.84755" lon="2.17991">
        <ele>618.20001220703</ele>
        <time>2014-04-06T08:47:53.000Z</time>
      </trkpt>
      <trkpt lat="42.84749" lon="2.18004">
        <ele>620.20001220703</ele>
        <time>2014-04-06T08:47:58.000Z</time>
      </trkpt>
      <trkpt lat="42.84742" lon="2.18019">
        <ele>624</ele>
        <time>2014-04-06T08:48:04.000Z</time>
      </trkpt>
      <trkpt lat="42.84736" lon="2.18035">
        <ele>626.79998779297</ele>
        <time>2014-04-06T08:48:10.000Z</time>
      </trkpt>
      <trkpt lat="42.8473" lon="2.18054">
        <ele>630</ele>
        <time>2014-04-06T08:48:17.000Z</time>
      </trkpt>
      <trkpt lat="42.84729" lon="2.18059">
        <ele>630.20001220703</ele>
        <time>2014-04-06T08:48:19.000Z</time>
      </trkpt>
      <trkpt lat="42.84723" lon="2.18077">
        <ele>632.79998779297</ele>
        <time>2014-04-06T08:48:25.000Z</time>
      </trkpt>
      <trkpt lat="42.84723" lon="2.18081">
        <ele>632.59997558594</ele>
        <time>2014-04-06T08:48:27.000Z</time>
      </trkpt>
      <trkpt lat="42.84723" lon="2.181">
        <ele>632</ele>
        <time>2014-04-06T08:48:34.000Z</time>
      </trkpt>
      <trkpt lat="42.84724" lon="2.18102">
        <ele>631.59997558594</ele>
        <time>2014-04-06T08:48:35.000Z</time>
      </trkpt>
      <trkpt lat="42.84725" lon="2.18113">
        <ele>630.79998779297</ele>
        <time>2014-04-06T08:48:39.000Z</time>
      </trkpt>
      <trkpt lat="42.84728" lon="2.18132">
        <ele>628.40002441406</ele>
        <time>2014-04-06T08:48:46.000Z</time>
      </trkpt>
      <trkpt lat="42.84733" lon="2.18144">
        <ele>625.79998779297</ele>
        <time>2014-04-06T08:48:51.000Z</time>
      </trkpt>
      <trkpt lat="42.84734" lon="2.18147">
        <ele>625.40002441406</ele>
        <time>2014-04-06T08:48:52.000Z</time>
      </trkpt>
      <trkpt lat="42.84735" lon="2.1816">
        <ele>624.59997558594</ele>
        <time>2014-04-06T08:48:57.000Z</time>
      </trkpt>
      <trkpt lat="42.84735" lon="2.18171">
        <ele>623.79998779297</ele>
        <time>2014-04-06T08:49:01.000Z</time>
      </trkpt>
      <trkpt lat="42.84735" lon="2.18183">
        <ele>622.79998779297</ele>
        <time>2014-04-06T08:49:06.000Z</time>
      </trkpt>
      <trkpt lat="42.84734" lon="2.18186">
        <ele>622.59997558594</ele>
        <time>2014-04-06T08:49:07.000Z</time>
      </trkpt>
      <trkpt lat="42.84733" lon="2.18191">
        <ele>622.59997558594</ele>
        <time>2014-04-06T08:49:09.000Z</time>
      </trkpt>
      <trkpt lat="42.84724" lon="2.18204">
        <ele>624.79998779297</ele>
        <time>2014-04-06T08:49:16.000Z</time>
      </trkpt>
      <trkpt lat="42.84717" lon="2.18211">
        <ele>627.20001220703</ele>
        <time>2014-04-06T08:49:20.000Z</time>
      </trkpt>
      <trkpt lat="42.84707" lon="2.1822">
        <ele>629.79998779297</ele>
        <time>2014-04-06T08:49:25.000Z</time>
      </trkpt>
      <trkpt lat="42.84703" lon="2.18224">
        <ele>631</ele>
        <time>2014-04-06T08:49:28.000Z</time>
      </trkpt>
      <trkpt lat="42.84694" lon="2.18236">
        <ele>632.40002441406</ele>
        <time>2014-04-06T08:49:33.000Z</time>
      </trkpt>
      <trkpt lat="42.84689" lon="2.18243">
        <ele>633</ele>
        <time>2014-04-06T08:49:36.000Z</time>
      </trkpt>
      <trkpt lat="42.84677" lon="2.18252">
        <ele>635.59997558594</ele>
        <time>2014-04-06T08:49:42.000Z</time>
      </trkpt>
      <trkpt lat="42.84672" lon="2.18257">
        <ele>636.20001220703</ele>
        <time>2014-04-06T08:49:45.000Z</time>
      </trkpt>
      <trkpt lat="42.84662" lon="2.18266">
        <ele>638.20001220703</ele>
        <time>2014-04-06T08:49:51.000Z</time>
      </trkpt>
      <trkpt lat="42.84649" lon="2.1827">
        <ele>645</ele>
        <time>2014-04-06T08:49:57.000Z</time>
      </trkpt>
      <trkpt lat="42.84644" lon="2.18271">
        <ele>647.59997558594</ele>
        <time>2014-04-06T08:50:00.000Z</time>
      </trkpt>
      <trkpt lat="42.84638" lon="2.18281">
        <ele>648.59997558594</ele>
        <time>2014-04-06T08:50:04.000Z</time>
      </trkpt>
      <trkpt lat="42.84634" lon="2.18294">
        <ele>647.40002441406</ele>
        <time>2014-04-06T08:50:10.000Z</time>
      </trkpt>
      <trkpt lat="42.84629" lon="2.18306">
        <ele>647</ele>
        <time>2014-04-06T08:50:16.000Z</time>
      </trkpt>
      <trkpt lat="42.84628" lon="2.18309">
        <ele>646.79998779297</ele>
        <time>2014-04-06T08:50:17.000Z</time>
      </trkpt>
      <trkpt lat="42.84624" lon="2.18317">
        <ele>647.20001220703</ele>
        <time>2014-04-06T08:50:20.000Z</time>
      </trkpt>
      <trkpt lat="42.84621" lon="2.18329">
        <ele>645.59997558594</ele>
        <time>2014-04-06T08:50:24.000Z</time>
      </trkpt>
      <trkpt lat="42.8462" lon="2.18344">
        <ele>644.40002441406</ele>
        <time>2014-04-06T08:50:29.000Z</time>
      </trkpt>
      <trkpt lat="42.8462" lon="2.18347">
        <ele>644.59997558594</ele>
        <time>2014-04-06T08:50:30.000Z</time>
      </trkpt>
      <trkpt lat="42.84621" lon="2.1836">
        <ele>643.59997558594</ele>
        <time>2014-04-06T08:50:34.000Z</time>
      </trkpt>
      <trkpt lat="42.84621" lon="2.18363">
        <ele>643.40002441406</ele>
        <time>2014-04-06T08:50:35.000Z</time>
      </trkpt>
      <trkpt lat="42.8462" lon="2.1838">
        <ele>643.20001220703</ele>
        <time>2014-04-06T08:50:40.000Z</time>
      </trkpt>
      <trkpt lat="42.84621" lon="2.18383">
        <ele>642.79998779297</ele>
        <time>2014-04-06T08:50:41.000Z</time>
      </trkpt>
      <trkpt lat="42.84624" lon="2.18398">
        <ele>640.59997558594</ele>
        <time>2014-04-06T08:50:45.000Z</time>
      </trkpt>
      <trkpt lat="42.84624" lon="2.18411">
        <ele>639.79998779297</ele>
        <time>2014-04-06T08:50:49.000Z</time>
      </trkpt>
      <trkpt lat="42.84623" lon="2.18447">
        <ele>640</ele>
        <time>2014-04-06T08:50:59.000Z</time>
      </trkpt>
      <trkpt lat="42.84619" lon="2.18461">
        <ele>642.59997558594</ele>
        <time>2014-04-06T08:51:03.000Z</time>
      </trkpt>
      <trkpt lat="42.84619" lon="2.18477">
        <ele>642.59997558594</ele>
        <time>2014-04-06T08:51:08.000Z</time>
      </trkpt>
      <trkpt lat="42.84619" lon="2.18491">
        <ele>642.20001220703</ele>
        <time>2014-04-06T08:51:12.000Z</time>
      </trkpt>
      <trkpt lat="42.8462" lon="2.18502">
        <ele>642</ele>
        <time>2014-04-06T08:51:15.000Z</time>
      </trkpt>
      <trkpt lat="42.84621" lon="2.18515">
        <ele>642</ele>
        <time>2014-04-06T08:51:20.000Z</time>
      </trkpt>
      <trkpt lat="42.8462" lon="2.18525">
        <ele>642.79998779297</ele>
        <time>2014-04-06T08:51:23.000Z</time>
      </trkpt>
      <trkpt lat="42.84623" lon="2.18546">
        <ele>642.20001220703</ele>
        <time>2014-04-06T08:51:29.000Z</time>
      </trkpt>
      <trkpt lat="42.84626" lon="2.18555">
        <ele>640.59997558594</ele>
        <time>2014-04-06T08:51:32.000Z</time>
      </trkpt>
      <trkpt lat="42.8464" lon="2.18573">
        <ele>633.59997558594</ele>
        <time>2014-04-06T08:51:39.000Z</time>
      </trkpt>
      <trkpt lat="42.84649" lon="2.18592">
        <ele>629.79998779297</ele>
        <time>2014-04-06T08:51:45.000Z</time>
      </trkpt>
      <trkpt lat="42.84657" lon="2.18607">
        <ele>627.59997558594</ele>
        <time>2014-04-06T08:51:50.000Z</time>
      </trkpt>
      <trkpt lat="42.84679" lon="2.18635">
        <ele>621</ele>
        <time>2014-04-06T08:52:01.000Z</time>
      </trkpt>
      <trkpt lat="42.8469" lon="2.18653">
        <ele>619.40002441406</ele>
        <time>2014-04-06T08:52:07.000Z</time>
      </trkpt>
      <trkpt lat="42.84689" lon="2.18669">
        <ele>621.59997558594</ele>
        <time>2014-04-06T08:52:11.000Z</time>
      </trkpt>
      <trkpt lat="42.8468" lon="2.18688">
        <ele>623.59997558594</ele>
        <time>2014-04-06T08:52:17.000Z</time>
      </trkpt>
      <trkpt lat="42.84673" lon="2.187">
        <ele>625.59997558594</ele>
        <time>2014-04-06T08:52:22.000Z</time>
      </trkpt>
      <trkpt lat="42.84664" lon="2.18714">
        <ele>628.40002441406</ele>
        <time>2014-04-06T08:52:27.000Z</time>
      </trkpt>
      <trkpt lat="42.8466" lon="2.18722">
        <ele>629.59997558594</ele>
        <time>2014-04-06T08:52:29.000Z</time>
      </trkpt>
      <trkpt lat="42.8466" lon="2.18725">
        <ele>629.79998779297</ele>
        <time>2014-04-06T08:52:30.000Z</time>
      </trkpt>
      <trkpt lat="42.84659" lon="2.18733">
        <ele>629.59997558594</ele>
        <time>2014-04-06T08:52:32.000Z</time>
      </trkpt>
      <trkpt lat="42.84659" lon="2.18751">
        <ele>628.59997558594</ele>
        <time>2014-04-06T08:52:37.000Z</time>
      </trkpt>
      <trkpt lat="42.84662" lon="2.18766">
        <ele>625.20001220703</ele>
        <time>2014-04-06T08:52:41.000Z</time>
      </trkpt>
      <trkpt lat="42.84665" lon="2.18793">
        <ele>620.40002441406</ele>
        <time>2014-04-06T08:52:48.000Z</time>
      </trkpt>
      <trkpt lat="42.84662" lon="2.18814">
        <ele>619.79998779297</ele>
        <time>2014-04-06T08:52:53.000Z</time>
      </trkpt>
      <trkpt lat="42.84659" lon="2.18832">
        <ele>619</ele>
        <time>2014-04-06T08:52:58.000Z</time>
      </trkpt>
      <trkpt lat="42.84653" lon="2.1885">
        <ele>618.79998779297</ele>
        <time>2014-04-06T08:53:04.000Z</time>
      </trkpt>
      <trkpt lat="42.84646" lon="2.18869">
        <ele>619.20001220703</ele>
        <time>2014-04-06T08:53:10.000Z</time>
      </trkpt>
      <trkpt lat="42.84641" lon="2.18882">
        <ele>619.40002441406</ele>
        <time>2014-04-06T08:53:14.000Z</time>
      </trkpt>
      <trkpt lat="42.8464" lon="2.18885">
        <ele>619.40002441406</ele>
        <time>2014-04-06T08:53:15.000Z</time>
      </trkpt>
      <trkpt lat="42.84634" lon="2.18901">
        <ele>619.20001220703</ele>
        <time>2014-04-06T08:53:20.000Z</time>
      </trkpt>
      <trkpt lat="42.8463" lon="2.18913">
        <ele>619.59997558594</ele>
        <time>2014-04-06T08:53:24.000Z</time>
      </trkpt>
      <trkpt lat="42.84628" lon="2.18916">
        <ele>619.59997558594</ele>
        <time>2014-04-06T08:53:25.000Z</time>
      </trkpt>
      <trkpt lat="42.84623" lon="2.1893">
        <ele>619</ele>
        <time>2014-04-06T08:53:30.000Z</time>
      </trkpt>
      <trkpt lat="42.84614" lon="2.18944">
        <ele>619.59997558594</ele>
        <time>2014-04-06T08:53:35.000Z</time>
      </trkpt>
      <trkpt lat="42.84606" lon="2.18964">
        <ele>618.79998779297</ele>
        <time>2014-04-06T08:53:40.000Z</time>
      </trkpt>
      <trkpt lat="42.84602" lon="2.18983">
        <ele>616</ele>
        <time>2014-04-06T08:53:45.000Z</time>
      </trkpt>
      <trkpt lat="42.84598" lon="2.19001">
        <ele>613.59997558594</ele>
        <time>2014-04-06T08:53:49.000Z</time>
      </trkpt>
      <trkpt lat="42.84592" lon="2.19028">
        <ele>610.59997558594</ele>
        <time>2014-04-06T08:53:56.000Z</time>
      </trkpt>
      <trkpt lat="42.84587" lon="2.1905">
        <ele>608.59997558594</ele>
        <time>2014-04-06T08:54:02.000Z</time>
      </trkpt>
      <trkpt lat="42.84581" lon="2.19073">
        <ele>606.79998779297</ele>
        <time>2014-04-06T08:54:08.000Z</time>
      </trkpt>
      <trkpt lat="42.84576" lon="2.19091">
        <ele>606</ele>
        <time>2014-04-06T08:54:13.000Z</time>
      </trkpt>
      <trkpt lat="42.84568" lon="2.19113">
        <ele>606.40002441406</ele>
        <time>2014-04-06T08:54:19.000Z</time>
      </trkpt>
      <trkpt lat="42.84561" lon="2.19137">
        <ele>606</ele>
        <time>2014-04-06T08:54:25.000Z</time>
      </trkpt>
      <trkpt lat="42.8456" lon="2.19141">
        <ele>605.59997558594</ele>
        <time>2014-04-06T08:54:26.000Z</time>
      </trkpt>
      <trkpt lat="42.84552" lon="2.19163">
        <ele>605.40002441406</ele>
        <time>2014-04-06T08:54:32.000Z</time>
      </trkpt>
      <trkpt lat="42.84544" lon="2.19184">
        <ele>604.20001220703</ele>
        <time>2014-04-06T08:54:38.000Z</time>
      </trkpt>
      <trkpt lat="42.84529" lon="2.19219">
        <ele>600.79998779297</ele>
        <time>2014-04-06T08:54:49.000Z</time>
      </trkpt>
      <trkpt lat="42.84521" lon="2.19239">
        <ele>598.20001220703</ele>
        <time>2014-04-06T08:54:55.000Z</time>
      </trkpt>
      <trkpt lat="42.84513" lon="2.19254">
        <ele>597</ele>
        <time>2014-04-06T08:55:00.000Z</time>
      </trkpt>
      <trkpt lat="42.84503" lon="2.19278">
        <ele>593.79998779297</ele>
        <time>2014-04-06T08:55:07.000Z</time>
      </trkpt>
      <trkpt lat="42.84491" lon="2.193">
        <ele>593.59997558594</ele>
        <time>2014-04-06T08:55:13.000Z</time>
      </trkpt>
      <trkpt lat="42.8448" lon="2.19318">
        <ele>593.79998779297</ele>
        <time>2014-04-06T08:55:19.000Z</time>
      </trkpt>
      <trkpt lat="42.84467" lon="2.19332">
        <ele>595.79998779297</ele>
        <time>2014-04-06T08:55:25.000Z</time>
      </trkpt>
      <trkpt lat="42.84465" lon="2.19334">
        <ele>596.20001220703</ele>
        <time>2014-04-06T08:55:26.000Z</time>
      </trkpt>
      <trkpt lat="42.84455" lon="2.19339">
        <ele>599.20001220703</ele>
        <time>2014-04-06T08:55:30.000Z</time>
      </trkpt>
      <trkpt lat="42.8444" lon="2.19359">
        <ele>600</ele>
        <time>2014-04-06T08:55:37.000Z</time>
      </trkpt>
      <trkpt lat="42.84432" lon="2.19373">
        <ele>599.40002441406</ele>
        <time>2014-04-06T08:55:42.000Z</time>
      </trkpt>
      <trkpt lat="42.84426" lon="2.19381">
        <ele>599.79998779297</ele>
        <time>2014-04-06T08:55:46.000Z</time>
      </trkpt>
      <trkpt lat="42.8442" lon="2.19402">
        <ele>596.20001220703</ele>
        <time>2014-04-06T08:55:52.000Z</time>
      </trkpt>
      <trkpt lat="42.84418" lon="2.19405">
        <ele>596.20001220703</ele>
        <time>2014-04-06T08:55:53.000Z</time>
      </trkpt>
      <trkpt lat="42.84406" lon="2.19423">
        <ele>599.79998779297</ele>
        <time>2014-04-06T08:56:00.000Z</time>
      </trkpt>
      <trkpt lat="42.84402" lon="2.19437">
        <ele>602.20001220703</ele>
        <time>2014-04-06T08:56:05.000Z</time>
      </trkpt>
      <trkpt lat="42.84399" lon="2.19454">
        <ele>603</ele>
        <time>2014-04-06T08:56:10.000Z</time>
      </trkpt>
      <trkpt lat="42.844" lon="2.19473">
        <ele>601</ele>
        <time>2014-04-06T08:56:16.000Z</time>
      </trkpt>
      <trkpt lat="42.84401" lon="2.19477">
        <ele>599.79998779297</ele>
        <time>2014-04-06T08:56:17.000Z</time>
      </trkpt>
      <trkpt lat="42.84405" lon="2.19493">
        <ele>596.79998779297</ele>
        <time>2014-04-06T08:56:22.000Z</time>
      </trkpt>
      <trkpt lat="42.8441" lon="2.19511">
        <ele>593</ele>
        <time>2014-04-06T08:56:28.000Z</time>
      </trkpt>
      <trkpt lat="42.84417" lon="2.19529">
        <ele>590</ele>
        <time>2014-04-06T08:56:34.000Z</time>
      </trkpt>
      <trkpt lat="42.8442" lon="2.19542">
        <ele>589.20001220703</ele>
        <time>2014-04-06T08:56:38.000Z</time>
      </trkpt>
      <trkpt lat="42.84424" lon="2.19557">
        <ele>588.20001220703</ele>
        <time>2014-04-06T08:56:42.000Z</time>
      </trkpt>
      <trkpt lat="42.84426" lon="2.19577">
        <ele>588.59997558594</ele>
        <time>2014-04-06T08:56:47.000Z</time>
      </trkpt>
      <trkpt lat="42.84427" lon="2.19595">
        <ele>588</ele>
        <time>2014-04-06T08:56:52.000Z</time>
      </trkpt>
      <trkpt lat="42.84428" lon="2.19618">
        <ele>587</ele>
        <time>2014-04-06T08:56:58.000Z</time>
      </trkpt>
      <trkpt lat="42.84427" lon="2.19642">
        <ele>586.79998779297</ele>
        <time>2014-04-06T08:57:04.000Z</time>
      </trkpt>
      <trkpt lat="42.84426" lon="2.19653">
        <ele>587.79998779297</ele>
        <time>2014-04-06T08:57:07.000Z</time>
      </trkpt>
      <trkpt lat="42.84424" lon="2.1967">
        <ele>588.20001220703</ele>
        <time>2014-04-06T08:57:12.000Z</time>
      </trkpt>
      <trkpt lat="42.84422" lon="2.19694">
        <ele>582.79998779297</ele>
        <time>2014-04-06T08:57:19.000Z</time>
      </trkpt>
      <trkpt lat="42.84421" lon="2.19712">
        <ele>579</ele>
        <time>2014-04-06T08:57:24.000Z</time>
      </trkpt>
      <trkpt lat="42.84421" lon="2.19715">
        <ele>578</ele>
        <time>2014-04-06T08:57:25.000Z</time>
      </trkpt>
      <trkpt lat="42.84417" lon="2.19727">
        <ele>576.79998779297</ele>
        <time>2014-04-06T08:57:29.000Z</time>
      </trkpt>
      <trkpt lat="42.84412" lon="2.19737">
        <ele>575.79998779297</ele>
        <time>2014-04-06T08:57:33.000Z</time>
      </trkpt>
      <trkpt lat="42.8441" lon="2.19745">
        <ele>574</ele>
        <time>2014-04-06T08:57:36.000Z</time>
      </trkpt>
      <trkpt lat="42.84409" lon="2.1975">
        <ele>572.79998779297</ele>
        <time>2014-04-06T08:57:38.000Z</time>
      </trkpt>
      <trkpt lat="42.84408" lon="2.19756">
        <ele>570.79998779297</ele>
        <time>2014-04-06T08:57:45.000Z</time>
      </trkpt>
      <trkpt lat="42.84409" lon="2.19757">
        <ele>570.20001220703</ele>
        <time>2014-04-06T08:57:46.000Z</time>
      </trkpt>
      <trkpt lat="42.8441" lon="2.1976">
        <ele>569</ele>
        <time>2014-04-06T08:57:52.000Z</time>
      </trkpt>
      <trkpt lat="42.84411" lon="2.19765">
        <ele>567.20001220703</ele>
        <time>2014-04-06T08:57:55.000Z</time>
      </trkpt>
      <trkpt lat="42.84411" lon="2.19766">
        <ele>566.79998779297</ele>
        <time>2014-04-06T08:57:56.000Z</time>
      </trkpt>
      <trkpt lat="42.8441" lon="2.1977">
        <ele>565.59997558594</ele>
        <time>2014-04-06T08:57:59.000Z</time>
      </trkpt>
      <trkpt lat="42.84411" lon="2.19774">
        <ele>564</ele>
        <time>2014-04-06T08:58:02.000Z</time>
      </trkpt>
      <trkpt lat="42.84409" lon="2.19775">
        <ele>564</ele>
        <time>2014-04-06T08:58:04.000Z</time>
      </trkpt>
      <trkpt lat="42.84409" lon="2.19781">
        <ele>561.79998779297</ele>
        <time>2014-04-06T08:58:09.000Z</time>
      </trkpt>
      <trkpt lat="42.84409" lon="2.19784">
        <ele>560.79998779297</ele>
        <time>2014-04-06T08:58:11.000Z</time>
      </trkpt>
      <trkpt lat="42.84409" lon="2.19786">
        <ele>560.20001220703</ele>
        <time>2014-04-06T08:58:13.000Z</time>
      </trkpt>
      <trkpt lat="42.84412" lon="2.19784">
        <ele>560</ele>
        <time>2014-04-06T08:58:17.000Z</time>
      </trkpt>
      <trkpt lat="42.84413" lon="2.19784">
        <ele>560</ele>
        <time>2014-04-06T08:58:18.000Z</time>
      </trkpt>
      <trkpt lat="42.84414" lon="2.19783">
        <ele>559.59997558594</ele>
        <time>2014-04-06T08:58:22.000Z</time>
      </trkpt>
      <trkpt lat="42.84416" lon="2.19783">
        <ele>559.40002441406</ele>
        <time>2014-04-06T08:58:25.000Z</time>
      </trkpt>
      <trkpt lat="42.84422" lon="2.19779">
        <ele>557.59997558594</ele>
        <time>2014-04-06T08:58:30.000Z</time>
      </trkpt>
      <trkpt lat="42.84423" lon="2.19777">
        <ele>557.79998779297</ele>
        <time>2014-04-06T08:58:31.000Z</time>
      </trkpt>
      <trkpt lat="42.84427" lon="2.19769">
        <ele>558</ele>
        <time>2014-04-06T08:58:36.000Z</time>
      </trkpt>
      <trkpt lat="42.8443" lon="2.19768">
        <ele>557.20001220703</ele>
        <time>2014-04-06T08:58:38.000Z</time>
      </trkpt>
      <trkpt lat="42.84433" lon="2.19766">
        <ele>556</ele>
        <time>2014-04-06T08:58:41.000Z</time>
      </trkpt>
      <trkpt lat="42.84433" lon="2.19766">
        <ele>555.79998779297</ele>
        <time>2014-04-06T08:58:42.000Z</time>
      </trkpt>
      <trkpt lat="42.84437" lon="2.19763">
        <ele>555</ele>
        <time>2014-04-06T08:58:47.000Z</time>
      </trkpt>
      <trkpt lat="42.84437" lon="2.19764">
        <ele>554.40002441406</ele>
        <time>2014-04-06T08:58:48.000Z</time>
      </trkpt>
      <trkpt lat="42.84438" lon="2.19769">
        <ele>551.79998779297</ele>
        <time>2014-04-06T08:58:54.000Z</time>
      </trkpt>
      <trkpt lat="42.8444" lon="2.19777">
        <ele>548.59997558594</ele>
        <time>2014-04-06T08:58:59.000Z</time>
      </trkpt>
      <trkpt lat="42.84439" lon="2.19778">
        <ele>548.40002441406</ele>
        <time>2014-04-06T08:59:00.000Z</time>
      </trkpt>
      <trkpt lat="42.84441" lon="2.19779">
        <ele>547.20001220703</ele>
        <time>2014-04-06T08:59:04.000Z</time>
      </trkpt>
      <trkpt lat="42.84442" lon="2.1978">
        <ele>545.79998779297</ele>
        <time>2014-04-06T08:59:10.000Z</time>
      </trkpt>
      <trkpt lat="42.84444" lon="2.19782">
        <ele>544.59997558594</ele>
        <time>2014-04-06T08:59:12.000Z</time>
      </trkpt>
      <trkpt lat="42.84443" lon="2.19787">
        <ele>543</ele>
        <time>2014-04-06T08:59:17.000Z</time>
      </trkpt>
      <trkpt lat="42.84443" lon="2.19794">
        <ele>540.79998779297</ele>
        <time>2014-04-06T08:59:23.000Z</time>
      </trkpt>
      <trkpt lat="42.84442" lon="2.19798">
        <ele>540</ele>
        <time>2014-04-06T08:59:26.000Z</time>
      </trkpt>
      <trkpt lat="42.84439" lon="2.19809">
        <ele>538.40002441406</ele>
        <time>2014-04-06T08:59:33.000Z</time>
      </trkpt>
      <trkpt lat="42.84439" lon="2.1981">
        <ele>537.79998779297</ele>
        <time>2014-04-06T08:59:34.000Z</time>
      </trkpt>
      <trkpt lat="42.8444" lon="2.19813">
        <ele>536.20001220703</ele>
        <time>2014-04-06T08:59:37.000Z</time>
      </trkpt>
      <trkpt lat="42.84439" lon="2.19816">
        <ele>535.79998779297</ele>
        <time>2014-04-06T08:59:42.000Z</time>
      </trkpt>
      <trkpt lat="42.84438" lon="2.1982">
        <ele>534.79998779297</ele>
        <time>2014-04-06T08:59:48.000Z</time>
      </trkpt>
      <trkpt lat="42.84438" lon="2.19824">
        <ele>533.40002441406</ele>
        <time>2014-04-06T08:59:52.000Z</time>
      </trkpt>
      <trkpt lat="42.84438" lon="2.19828">
        <ele>532</ele>
        <time>2014-04-06T08:59:55.000Z</time>
      </trkpt>
      <trkpt lat="42.84437" lon="2.19835">
        <ele>530.20001220703</ele>
        <time>2014-04-06T08:59:59.000Z</time>
      </trkpt>
      <trkpt lat="42.84435" lon="2.19844">
        <ele>527.40002441406</ele>
        <time>2014-04-06T09:00:03.000Z</time>
      </trkpt>
      <trkpt lat="42.84434" lon="2.1985">
        <ele>525.20001220703</ele>
        <time>2014-04-06T09:00:10.000Z</time>
      </trkpt>
      <trkpt lat="42.84435" lon="2.19854">
        <ele>523.40002441406</ele>
        <time>2014-04-06T09:00:14.000Z</time>
      </trkpt>
      <trkpt lat="42.84432" lon="2.19858">
        <ele>522.59997558594</ele>
        <time>2014-04-06T09:00:18.000Z</time>
      </trkpt>
      <trkpt lat="42.84427" lon="2.19867">
        <ele>521</ele>
        <time>2014-04-06T09:00:24.000Z</time>
      </trkpt>
      <trkpt lat="42.84427" lon="2.19868">
        <ele>520.79998779297</ele>
        <time>2014-04-06T09:00:25.000Z</time>
      </trkpt>
      <trkpt lat="42.84426" lon="2.19874">
        <ele>518.59997558594</ele>
        <time>2014-04-06T09:00:30.000Z</time>
      </trkpt>
      <trkpt lat="42.84425" lon="2.19875">
        <ele>518.40002441406</ele>
        <time>2014-04-06T09:00:31.000Z</time>
      </trkpt>
      <trkpt lat="42.84418" lon="2.1988">
        <ele>518.79998779297</ele>
        <time>2014-04-06T09:00:36.000Z</time>
      </trkpt>
      <trkpt lat="42.84417" lon="2.19881">
        <ele>519.20001220703</ele>
        <time>2014-04-06T09:00:37.000Z</time>
      </trkpt>
      <trkpt lat="42.84416" lon="2.19881">
        <ele>519.20001220703</ele>
        <time>2014-04-06T09:00:38.000Z</time>
      </trkpt>
      <trkpt lat="42.84415" lon="2.19883">
        <ele>519</ele>
        <time>2014-04-06T09:00:41.000Z</time>
      </trkpt>
      <trkpt lat="42.84411" lon="2.19886">
        <ele>519.40002441406</ele>
        <time>2014-04-06T09:00:47.000Z</time>
      </trkpt>
      <trkpt lat="42.8441" lon="2.19888">
        <ele>518.79998779297</ele>
        <time>2014-04-06T09:00:51.000Z</time>
      </trkpt>
      <trkpt lat="42.84408" lon="2.19889">
        <ele>519</ele>
        <time>2014-04-06T09:00:56.000Z</time>
      </trkpt>
      <trkpt lat="42.84405" lon="2.19897">
        <ele>517.20001220703</ele>
        <time>2014-04-06T09:01:00.000Z</time>
      </trkpt>
      <trkpt lat="42.84402" lon="2.19901">
        <ele>516.79998779297</ele>
        <time>2014-04-06T09:01:04.000Z</time>
      </trkpt>
      <trkpt lat="42.844" lon="2.19906">
        <ele>515.40002441406</ele>
        <time>2014-04-06T09:01:07.000Z</time>
      </trkpt>
      <trkpt lat="42.84398" lon="2.19912">
        <ele>514</ele>
        <time>2014-04-06T09:01:11.000Z</time>
      </trkpt>
      <trkpt lat="42.84397" lon="2.19916">
        <ele>512.59997558594</ele>
        <time>2014-04-06T09:01:14.000Z</time>
      </trkpt>
      <trkpt lat="42.84396" lon="2.19921">
        <ele>510.60000610352</ele>
        <time>2014-04-06T09:01:19.000Z</time>
      </trkpt>
      <trkpt lat="42.84396" lon="2.19922">
        <ele>510</ele>
        <time>2014-04-06T09:01:21.000Z</time>
      </trkpt>
      <trkpt lat="42.84395" lon="2.19927">
        <ele>508.20001220703</ele>
        <time>2014-04-06T09:01:26.000Z</time>
      </trkpt>
      <trkpt lat="42.84394" lon="2.19929">
        <ele>507.20001220703</ele>
        <time>2014-04-06T09:01:30.000Z</time>
      </trkpt>
      <trkpt lat="42.84393" lon="2.19933">
        <ele>505.60000610352</ele>
        <time>2014-04-06T09:01:34.000Z</time>
      </trkpt>
      <trkpt lat="42.8439" lon="2.19937">
        <ele>505.20001220703</ele>
        <time>2014-04-06T09:01:38.000Z</time>
      </trkpt>
      <trkpt lat="42.84386" lon="2.19941">
        <ele>505</ele>
        <time>2014-04-06T09:01:43.000Z</time>
      </trkpt>
      <trkpt lat="42.84385" lon="2.19947">
        <ele>502.60000610352</ele>
        <time>2014-04-06T09:01:47.000Z</time>
      </trkpt>
      <trkpt lat="42.84385" lon="2.19948">
        <ele>502</ele>
        <time>2014-04-06T09:01:48.000Z</time>
      </trkpt>
      <trkpt lat="42.84384" lon="2.19951">
        <ele>500.79998779297</ele>
        <time>2014-04-06T09:01:50.000Z</time>
      </trkpt>
      <trkpt lat="42.84383" lon="2.19957">
        <ele>498.39999389648</ele>
        <time>2014-04-06T09:01:54.000Z</time>
      </trkpt>
      <trkpt lat="42.8438" lon="2.19964">
        <ele>496.39999389648</ele>
        <time>2014-04-06T09:01:58.000Z</time>
      </trkpt>
      <trkpt lat="42.84378" lon="2.19967">
        <ele>496.39999389648</ele>
        <time>2014-04-06T09:02:01.000Z</time>
      </trkpt>
      <trkpt lat="42.84376" lon="2.19975">
        <ele>492.79998779297</ele>
        <time>2014-04-06T09:02:05.000Z</time>
      </trkpt>
      <trkpt lat="42.8437" lon="2.19982">
        <ele>492.79998779297</ele>
        <time>2014-04-06T09:02:09.000Z</time>
      </trkpt>
      <trkpt lat="42.84368" lon="2.19985">
        <ele>492.39999389648</ele>
        <time>2014-04-06T09:02:12.000Z</time>
      </trkpt>
      <trkpt lat="42.84364" lon="2.19996">
        <ele>489.60000610352</ele>
        <time>2014-04-06T09:02:18.000Z</time>
      </trkpt>
      <trkpt lat="42.84359" lon="2.20003">
        <ele>489</ele>
        <time>2014-04-06T09:02:22.000Z</time>
      </trkpt>
      <trkpt lat="42.84354" lon="2.20014">
        <ele>486.60000610352</ele>
        <time>2014-04-06T09:02:28.000Z</time>
      </trkpt>
      <trkpt lat="42.8435" lon="2.20018">
        <ele>487</ele>
        <time>2014-04-06T09:02:32.000Z</time>
      </trkpt>
      <trkpt lat="42.84349" lon="2.20018">
        <ele>487.20001220703</ele>
        <time>2014-04-06T09:02:33.000Z</time>
      </trkpt>
      <trkpt lat="42.84347" lon="2.2002">
        <ele>487.20001220703</ele>
        <time>2014-04-06T09:02:35.000Z</time>
      </trkpt>
      <trkpt lat="42.84344" lon="2.20026">
        <ele>486.79998779297</ele>
        <time>2014-04-06T09:02:39.000Z</time>
      </trkpt>
      <trkpt lat="42.84337" lon="2.20032">
        <ele>487.60000610352</ele>
        <time>2014-04-06T09:02:46.000Z</time>
      </trkpt>
      <trkpt lat="42.84337" lon="2.20032">
        <ele>487.39999389648</ele>
        <time>2014-04-06T09:02:47.000Z</time>
      </trkpt>
      <trkpt lat="42.84333" lon="2.20037">
        <ele>487</ele>
        <time>2014-04-06T09:02:52.000Z</time>
      </trkpt>
      <trkpt lat="42.84329" lon="2.20043">
        <ele>482.79998779297</ele>
        <time>2014-04-06T09:02:57.000Z</time>
      </trkpt>
      <trkpt lat="42.84324" lon="2.20049">
        <ele>478.20001220703</ele>
        <time>2014-04-06T09:03:02.000Z</time>
      </trkpt>
      <trkpt lat="42.84325" lon="2.20058">
        <ele>473.79998779297</ele>
        <time>2014-04-06T09:03:06.000Z</time>
      </trkpt>
      <trkpt lat="42.84322" lon="2.20065">
        <ele>469.79998779297</ele>
        <time>2014-04-06T09:03:10.000Z</time>
      </trkpt>
      <trkpt lat="42.84321" lon="2.20068">
        <ele>468.20001220703</ele>
        <time>2014-04-06T09:03:11.000Z</time>
      </trkpt>
      <trkpt lat="42.84315" lon="2.20075">
        <ele>463.79998779297</ele>
        <time>2014-04-06T09:03:14.000Z</time>
      </trkpt>
      <trkpt lat="42.84308" lon="2.2008">
        <ele>459.79998779297</ele>
        <time>2014-04-06T09:03:19.000Z</time>
      </trkpt>
      <trkpt lat="42.84297" lon="2.20079">
        <ele>458.20001220703</ele>
        <time>2014-04-06T09:03:26.000Z</time>
      </trkpt>
      <trkpt lat="42.84296" lon="2.20078">
        <ele>458.20001220703</ele>
        <time>2014-04-06T09:03:27.000Z</time>
      </trkpt>
      <trkpt lat="42.84294" lon="2.20077">
        <ele>458.20001220703</ele>
        <time>2014-04-06T09:03:29.000Z</time>
      </trkpt>
      <trkpt lat="42.84292" lon="2.2007">
        <ele>461</ele>
        <time>2014-04-06T09:03:34.000Z</time>
      </trkpt>
      <trkpt lat="42.84292" lon="2.20068">
        <ele>461.79998779297</ele>
        <time>2014-04-06T09:03:35.000Z</time>
      </trkpt>
      <trkpt lat="42.8429" lon="2.20065">
        <ele>462.79998779297</ele>
        <time>2014-04-06T09:03:37.000Z</time>
      </trkpt>
      <trkpt lat="42.84286" lon="2.20065">
        <ele>461.79998779297</ele>
        <time>2014-04-06T09:03:41.000Z</time>
      </trkpt>
      <trkpt lat="42.84284" lon="2.20065">
        <ele>461.39999389648</ele>
        <time>2014-04-06T09:03:43.000Z</time>
      </trkpt>
      <trkpt lat="42.84283" lon="2.20066">
        <ele>460.79998779297</ele>
        <time>2014-04-06T09:03:45.000Z</time>
      </trkpt>
      <trkpt lat="42.84277" lon="2.20063">
        <ele>460.39999389648</ele>
        <time>2014-04-06T09:03:50.000Z</time>
      </trkpt>
      <trkpt lat="42.8427" lon="2.20061">
        <ele>459.79998779297</ele>
        <time>2014-04-06T09:03:54.000Z</time>
      </trkpt>
      <trkpt lat="42.84267" lon="2.2006">
        <ele>459.39999389648</ele>
        <time>2014-04-06T09:03:56.000Z</time>
      </trkpt>
      <trkpt lat="42.84261" lon="2.20058">
        <ele>459</ele>
        <time>2014-04-06T09:03:59.000Z</time>
      </trkpt>
      <trkpt lat="42.84257" lon="2.2006">
        <ele>457.39999389648</ele>
        <time>2014-04-06T09:04:05.000Z</time>
      </trkpt>
      <trkpt lat="42.84256" lon="2.20059">
        <ele>457.20001220703</ele>
        <time>2014-04-06T09:04:06.000Z</time>
      </trkpt>
      <trkpt lat="42.84252" lon="2.20059">
        <ele>456.60000610352</ele>
        <time>2014-04-06T09:04:10.000Z</time>
      </trkpt>
      <trkpt lat="42.84249" lon="2.2006">
        <ele>455</ele>
        <time>2014-04-06T09:04:13.000Z</time>
      </trkpt>
      <trkpt lat="42.84243" lon="2.20054">
        <ele>455.20001220703</ele>
        <time>2014-04-06T09:04:18.000Z</time>
      </trkpt>
      <trkpt lat="42.84242" lon="2.2005">
        <ele>456.39999389648</ele>
        <time>2014-04-06T09:04:21.000Z</time>
      </trkpt>
      <trkpt lat="42.84241" lon="2.20046">
        <ele>457.60000610352</ele>
        <time>2014-04-06T09:04:26.000Z</time>
      </trkpt>
      <trkpt lat="42.84238" lon="2.20038">
        <ele>459.60000610352</ele>
        <time>2014-04-06T09:04:30.000Z</time>
      </trkpt>
      <trkpt lat="42.84236" lon="2.20029">
        <ele>462.60000610352</ele>
        <time>2014-04-06T09:04:35.000Z</time>
      </trkpt>
      <trkpt lat="42.84237" lon="2.20024">
        <ele>464.60000610352</ele>
        <time>2014-04-06T09:04:38.000Z</time>
      </trkpt>
      <trkpt lat="42.84235" lon="2.20022">
        <ele>465</ele>
        <time>2014-04-06T09:04:48.000Z</time>
      </trkpt>
      <trkpt lat="42.84235" lon="2.20021">
        <ele>465.20001220703</ele>
        <time>2014-04-06T09:04:49.000Z</time>
      </trkpt>
      <trkpt lat="42.84232" lon="2.20012">
        <ele>467.60000610352</ele>
        <time>2014-04-06T09:04:54.000Z</time>
      </trkpt>
      <trkpt lat="42.84231" lon="2.20012">
        <ele>467.60000610352</ele>
        <time>2014-04-06T09:04:55.000Z</time>
      </trkpt>
      <trkpt lat="42.84227" lon="2.20006">
        <ele>468.39999389648</ele>
        <time>2014-04-06T09:05:00.000Z</time>
      </trkpt>
      <trkpt lat="42.8422" lon="2.19995">
        <ele>470.39999389648</ele>
        <time>2014-04-06T09:05:06.000Z</time>
      </trkpt>
      <trkpt lat="42.84216" lon="2.19988">
        <ele>471.60000610352</ele>
        <time>2014-04-06T09:05:10.000Z</time>
      </trkpt>
      <trkpt lat="42.84211" lon="2.19981">
        <ele>472.39999389648</ele>
        <time>2014-04-06T09:05:15.000Z</time>
      </trkpt>
      <trkpt lat="42.84209" lon="2.19981">
        <ele>471.60000610352</ele>
        <time>2014-04-06T09:05:17.000Z</time>
      </trkpt>
      <trkpt lat="42.84204" lon="2.19982">
        <ele>469.79998779297</ele>
        <time>2014-04-06T09:05:22.000Z</time>
      </trkpt>
      <trkpt lat="42.84204" lon="2.19984">
        <ele>469</ele>
        <time>2014-04-06T09:05:23.000Z</time>
      </trkpt>
      <trkpt lat="42.84206" lon="2.19998">
        <ele>465</ele>
        <time>2014-04-06T09:05:29.000Z</time>
      </trkpt>
      <trkpt lat="42.84208" lon="2.2">
        <ele>464.60000610352</ele>
        <time>2014-04-06T09:05:30.000Z</time>
      </trkpt>
      <trkpt lat="42.84211" lon="2.20014">
        <ele>460.20001220703</ele>
        <time>2014-04-06T09:05:35.000Z</time>
      </trkpt>
      <trkpt lat="42.84215" lon="2.20023">
        <ele>457.79998779297</ele>
        <time>2014-04-06T09:05:39.000Z</time>
      </trkpt>
      <trkpt lat="42.84219" lon="2.20033">
        <ele>455.39999389648</ele>
        <time>2014-04-06T09:05:43.000Z</time>
      </trkpt>
      <trkpt lat="42.8422" lon="2.20034">
        <ele>454.79998779297</ele>
        <time>2014-04-06T09:05:44.000Z</time>
      </trkpt>
      <trkpt lat="42.8422" lon="2.20036">
        <ele>454</ele>
        <time>2014-04-06T09:05:45.000Z</time>
      </trkpt>
      <trkpt lat="42.84222" lon="2.20048">
        <ele>449.79998779297</ele>
        <time>2014-04-06T09:05:50.000Z</time>
      </trkpt>
      <trkpt lat="42.84222" lon="2.20051">
        <ele>448.79998779297</ele>
        <time>2014-04-06T09:05:51.000Z</time>
      </trkpt>
      <trkpt lat="42.84222" lon="2.20063">
        <ele>444.20001220703</ele>
        <time>2014-04-06T09:05:56.000Z</time>
      </trkpt>
      <trkpt lat="42.84222" lon="2.20068">
        <ele>442</ele>
        <time>2014-04-06T09:05:59.000Z</time>
      </trkpt>
      <trkpt lat="42.84225" lon="2.20082">
        <ele>437.79998779297</ele>
        <time>2014-04-06T09:06:05.000Z</time>
      </trkpt>
      <trkpt lat="42.84229" lon="2.20091">
        <ele>436</ele>
        <time>2014-04-06T09:06:10.000Z</time>
      </trkpt>
      <trkpt lat="42.84233" lon="2.20099">
        <ele>434.20001220703</ele>
        <time>2014-04-06T09:06:15.000Z</time>
      </trkpt>
      <trkpt lat="42.84235" lon="2.20102">
        <ele>433.60000610352</ele>
        <time>2014-04-06T09:06:17.000Z</time>
      </trkpt>
      <trkpt lat="42.8424" lon="2.20104">
        <ele>434.79998779297</ele>
        <time>2014-04-06T09:06:23.000Z</time>
      </trkpt>
      <trkpt lat="42.84241" lon="2.20104">
        <ele>435.20001220703</ele>
        <time>2014-04-06T09:06:24.000Z</time>
      </trkpt>
      <trkpt lat="42.84243" lon="2.20104">
        <ele>435.79998779297</ele>
        <time>2014-04-06T09:06:26.000Z</time>
      </trkpt>
      <trkpt lat="42.84249" lon="2.20107">
        <ele>436.79998779297</ele>
        <time>2014-04-06T09:06:32.000Z</time>
      </trkpt>
      <trkpt lat="42.84253" lon="2.20111">
        <ele>436.20001220703</ele>
        <time>2014-04-06T09:06:36.000Z</time>
      </trkpt>
      <trkpt lat="42.84255" lon="2.20113">
        <ele>435.60000610352</ele>
        <time>2014-04-06T09:06:38.000Z</time>
      </trkpt>
      <trkpt lat="42.84263" lon="2.20117">
        <ele>434.60000610352</ele>
        <time>2014-04-06T09:06:44.000Z</time>
      </trkpt>
      <trkpt lat="42.8427" lon="2.20121">
        <ele>433.60000610352</ele>
        <time>2014-04-06T09:06:52.000Z</time>
      </trkpt>
      <trkpt lat="42.84272" lon="2.20124">
        <ele>432.20001220703</ele>
        <time>2014-04-06T09:06:56.000Z</time>
      </trkpt>
      <trkpt lat="42.84271" lon="2.20133">
        <ele>428.20001220703</ele>
        <time>2014-04-06T09:07:01.000Z</time>
      </trkpt>
      <trkpt lat="42.84271" lon="2.20138">
        <ele>425.60000610352</ele>
        <time>2014-04-06T09:07:05.000Z</time>
      </trkpt>
      <trkpt lat="42.84274" lon="2.20149">
        <ele>420.60000610352</ele>
        <time>2014-04-06T09:07:11.000Z</time>
      </trkpt>
      <trkpt lat="42.84274" lon="2.20153">
        <ele>419</ele>
        <time>2014-04-06T09:07:13.000Z</time>
      </trkpt>
      <trkpt lat="42.84276" lon="2.20161">
        <ele>415</ele>
        <time>2014-04-06T09:07:17.000Z</time>
      </trkpt>
      <trkpt lat="42.84286" lon="2.20168">
        <ele>411.39999389648</ele>
        <time>2014-04-06T09:07:23.000Z</time>
      </trkpt>
      <trkpt lat="42.84288" lon="2.20168">
        <ele>411.20001220703</ele>
        <time>2014-04-06T09:07:24.000Z</time>
      </trkpt>
      <trkpt lat="42.843" lon="2.20167">
        <ele>411.79998779297</ele>
        <time>2014-04-06T09:07:29.000Z</time>
      </trkpt>
      <trkpt lat="42.84308" lon="2.20165">
        <ele>412.39999389648</ele>
        <time>2014-04-06T09:07:33.000Z</time>
      </trkpt>
      <trkpt lat="42.84313" lon="2.20164">
        <ele>413.20001220703</ele>
        <time>2014-04-06T09:07:35.000Z</time>
      </trkpt>
      <trkpt lat="42.84322" lon="2.20152">
        <ele>420</ele>
        <time>2014-04-06T09:07:41.000Z</time>
      </trkpt>
      <trkpt lat="42.84323" lon="2.20151">
        <ele>420.79998779297</ele>
        <time>2014-04-06T09:07:42.000Z</time>
      </trkpt>
      <trkpt lat="42.84329" lon="2.20141">
        <ele>427.20001220703</ele>
        <time>2014-04-06T09:07:47.000Z</time>
      </trkpt>
      <trkpt lat="42.84335" lon="2.20134">
        <ele>431</ele>
        <time>2014-04-06T09:07:51.000Z</time>
      </trkpt>
      <trkpt lat="42.84344" lon="2.20124">
        <ele>432.79998779297</ele>
        <time>2014-04-06T09:07:56.000Z</time>
      </trkpt>
      <trkpt lat="42.84355" lon="2.20113">
        <ele>434.39999389648</ele>
        <time>2014-04-06T09:08:01.000Z</time>
      </trkpt>
      <trkpt lat="42.84361" lon="2.20105">
        <ele>435.39999389648</ele>
        <time>2014-04-06T09:08:05.000Z</time>
      </trkpt>
      <trkpt lat="42.84366" lon="2.20094">
        <ele>438.79998779297</ele>
        <time>2014-04-06T09:08:11.000Z</time>
      </trkpt>
      <trkpt lat="42.84368" lon="2.20093">
        <ele>438.79998779297</ele>
        <time>2014-04-06T09:08:12.000Z</time>
      </trkpt>
      <trkpt lat="42.84373" lon="2.20086">
        <ele>439.39999389648</ele>
        <time>2014-04-06T09:08:16.000Z</time>
      </trkpt>
      <trkpt lat="42.84382" lon="2.20079">
        <ele>438</ele>
        <time>2014-04-06T09:08:21.000Z</time>
      </trkpt>
      <trkpt lat="42.8439" lon="2.20069">
        <ele>438.20001220703</ele>
        <time>2014-04-06T09:08:26.000Z</time>
      </trkpt>
      <trkpt lat="42.84391" lon="2.20067">
        <ele>438.39999389648</ele>
        <time>2014-04-06T09:08:27.000Z</time>
      </trkpt>
      <trkpt lat="42.84395" lon="2.20061">
        <ele>439.20001220703</ele>
        <time>2014-04-06T09:08:30.000Z</time>
      </trkpt>
      <trkpt lat="42.84404" lon="2.20052">
        <ele>438.79998779297</ele>
        <time>2014-04-06T09:08:35.000Z</time>
      </trkpt>
      <trkpt lat="42.8441" lon="2.20044">
        <ele>438.79998779297</ele>
        <time>2014-04-06T09:08:39.000Z</time>
      </trkpt>
      <trkpt lat="42.84414" lon="2.20041">
        <ele>437.79998779297</ele>
        <time>2014-04-06T09:08:41.000Z</time>
      </trkpt>
      <trkpt lat="42.84425" lon="2.2003">
        <ele>440</ele>
        <time>2014-04-06T09:08:47.000Z</time>
      </trkpt>
      <trkpt lat="42.84432" lon="2.20024">
        <ele>441.79998779297</ele>
        <time>2014-04-06T09:08:52.000Z</time>
      </trkpt>
      <trkpt lat="42.84433" lon="2.20022">
        <ele>442.20001220703</ele>
        <time>2014-04-06T09:08:54.000Z</time>
      </trkpt>
      <trkpt lat="42.84437" lon="2.20019">
        <ele>442.79998779297</ele>
        <time>2014-04-06T09:08:58.000Z</time>
      </trkpt>
      <trkpt lat="42.84448" lon="2.20013">
        <ele>443.60000610352</ele>
        <time>2014-04-06T09:09:06.000Z</time>
      </trkpt>
      <trkpt lat="42.84457" lon="2.20008">
        <ele>444</ele>
        <time>2014-04-06T09:09:11.000Z</time>
      </trkpt>
      <trkpt lat="42.84459" lon="2.20008">
        <ele>443.60000610352</ele>
        <time>2014-04-06T09:09:12.000Z</time>
      </trkpt>
      <trkpt lat="42.84468" lon="2.2001">
        <ele>441</ele>
        <time>2014-04-06T09:09:16.000Z</time>
      </trkpt>
      <trkpt lat="42.84472" lon="2.20014">
        <ele>438.79998779297</ele>
        <time>2014-04-06T09:09:18.000Z</time>
      </trkpt>
      <trkpt lat="42.84485" lon="2.2002">
        <ele>433.39999389648</ele>
        <time>2014-04-06T09:09:24.000Z</time>
      </trkpt>
      <trkpt lat="42.84488" lon="2.20019">
        <ele>433.20001220703</ele>
        <time>2014-04-06T09:09:25.000Z</time>
      </trkpt>
      <trkpt lat="42.84493" lon="2.20016">
        <ele>433.79998779297</ele>
        <time>2014-04-06T09:09:27.000Z</time>
      </trkpt>
      <trkpt lat="42.84506" lon="2.20003">
        <ele>435.60000610352</ele>
        <time>2014-04-06T09:09:33.000Z</time>
      </trkpt>
      <trkpt lat="42.84508" lon="2.20001">
        <ele>435.79998779297</ele>
        <time>2014-04-06T09:09:34.000Z</time>
      </trkpt>
      <trkpt lat="42.84517" lon="2.19996">
        <ele>434.39999389648</ele>
        <time>2014-04-06T09:09:37.000Z</time>
      </trkpt>
      <trkpt lat="42.84529" lon="2.19987">
        <ele>433</ele>
        <time>2014-04-06T09:09:42.000Z</time>
      </trkpt>
      <trkpt lat="42.84536" lon="2.19982">
        <ele>432.20001220703</ele>
        <time>2014-04-06T09:09:45.000Z</time>
      </trkpt>
      <trkpt lat="42.84549" lon="2.19968">
        <ele>431.79998779297</ele>
        <time>2014-04-06T09:09:51.000Z</time>
      </trkpt>
      <trkpt lat="42.84553" lon="2.19963">
        <ele>432</ele>
        <time>2014-04-06T09:09:53.000Z</time>
      </trkpt>
      <trkpt lat="42.84566" lon="2.19947">
        <ele>432.20001220703</ele>
        <time>2014-04-06T09:09:59.000Z</time>
      </trkpt>
      <trkpt lat="42.84575" lon="2.19934">
        <ele>432.39999389648</ele>
        <time>2014-04-06T09:10:04.000Z</time>
      </trkpt>
      <trkpt lat="42.84584" lon="2.1992">
        <ele>433</ele>
        <time>2014-04-06T09:10:09.000Z</time>
      </trkpt>
      <trkpt lat="42.84587" lon="2.19919">
        <ele>433.20001220703</ele>
        <time>2014-04-06T09:10:10.000Z</time>
      </trkpt>
      <trkpt lat="42.84593" lon="2.19922">
        <ele>431.79998779297</ele>
        <time>2014-04-06T09:10:13.000Z</time>
      </trkpt>
      <trkpt lat="42.84598" lon="2.19923">
        <ele>431.39999389648</ele>
        <time>2014-04-06T09:10:15.000Z</time>
      </trkpt>
      <trkpt lat="42.84606" lon="2.19921">
        <ele>431.60000610352</ele>
        <time>2014-04-06T09:10:18.000Z</time>
      </trkpt>
      <trkpt lat="42.84617" lon="2.1993">
        <ele>428.39999389648</ele>
        <time>2014-04-06T09:10:23.000Z</time>
      </trkpt>
      <trkpt lat="42.84618" lon="2.19933">
        <ele>427.79998779297</ele>
        <time>2014-04-06T09:10:24.000Z</time>
      </trkpt>
      <trkpt lat="42.84631" lon="2.19944">
        <ele>424.20001220703</ele>
        <time>2014-04-06T09:10:30.000Z</time>
      </trkpt>
      <trkpt lat="42.84643" lon="2.19953">
        <ele>421.39999389648</ele>
        <time>2014-04-06T09:10:36.000Z</time>
      </trkpt>
      <trkpt lat="42.84645" lon="2.19953">
        <ele>421.20001220703</ele>
        <time>2014-04-06T09:10:37.000Z</time>
      </trkpt>
      <trkpt lat="42.84658" lon="2.19954">
        <ele>420.60000610352</ele>
        <time>2014-04-06T09:10:42.000Z</time>
      </trkpt>
      <trkpt lat="42.84663" lon="2.19953">
        <ele>421</ele>
        <time>2014-04-06T09:10:44.000Z</time>
      </trkpt>
      <trkpt lat="42.84677" lon="2.19945">
        <ele>420.20001220703</ele>
        <time>2014-04-06T09:10:50.000Z</time>
      </trkpt>
      <trkpt lat="42.84696" lon="2.19932">
        <ele>418.20001220703</ele>
        <time>2014-04-06T09:10:58.000Z</time>
      </trkpt>
      <trkpt lat="42.84725" lon="2.1992">
        <ele>412.60000610352</ele>
        <time>2014-04-06T09:11:09.000Z</time>
      </trkpt>
      <trkpt lat="42.84732" lon="2.19912">
        <ele>411.60000610352</ele>
        <time>2014-04-06T09:11:13.000Z</time>
      </trkpt>
      <trkpt lat="42.84738" lon="2.19889">
        <ele>412.39999389648</ele>
        <time>2014-04-06T09:11:19.000Z</time>
      </trkpt>
      <trkpt lat="42.84738" lon="2.19867">
        <ele>414.60000610352</ele>
        <time>2014-04-06T09:11:25.000Z</time>
      </trkpt>
      <trkpt lat="42.84738" lon="2.1986">
        <ele>415.60000610352</ele>
        <time>2014-04-06T09:11:28.000Z</time>
      </trkpt>
      <trkpt lat="42.84736" lon="2.19846">
        <ele>417.60000610352</ele>
        <time>2014-04-06T09:11:35.000Z</time>
      </trkpt>
      <trkpt lat="42.84734" lon="2.1984">
        <ele>418.39999389648</ele>
        <time>2014-04-06T09:11:38.000Z</time>
      </trkpt>
      <trkpt lat="42.84734" lon="2.19837">
        <ele>419</ele>
        <time>2014-04-06T09:11:40.000Z</time>
      </trkpt>
      <trkpt lat="42.84732" lon="2.19833">
        <ele>419.79998779297</ele>
        <time>2014-04-06T09:11:43.000Z</time>
      </trkpt>
      <trkpt lat="42.84737" lon="2.19823">
        <ele>419.79998779297</ele>
        <time>2014-04-06T09:11:48.000Z</time>
      </trkpt>
      <trkpt lat="42.84747" lon="2.19817">
        <ele>417.79998779297</ele>
        <time>2014-04-06T09:11:55.000Z</time>
      </trkpt>
      <trkpt lat="42.84751" lon="2.19816">
        <ele>417</ele>
        <time>2014-04-06T09:11:57.000Z</time>
      </trkpt>
      <trkpt lat="42.84759" lon="2.19826">
        <ele>415.20001220703</ele>
        <time>2014-04-06T09:12:03.000Z</time>
      </trkpt>
      <trkpt lat="42.8476" lon="2.1983">
        <ele>414.60000610352</ele>
        <time>2014-04-06T09:12:04.000Z</time>
      </trkpt>
      <trkpt lat="42.84766" lon="2.19846">
        <ele>412</ele>
        <time>2014-04-06T09:12:10.000Z</time>
      </trkpt>
      <trkpt lat="42.84767" lon="2.19849">
        <ele>411.60000610352</ele>
        <time>2014-04-06T09:12:11.000Z</time>
      </trkpt>
      <trkpt lat="42.84777" lon="2.1986">
        <ele>409</ele>
        <time>2014-04-06T09:12:16.000Z</time>
      </trkpt>
      <trkpt lat="42.84792" lon="2.19869">
        <ele>405.79998779297</ele>
        <time>2014-04-06T09:12:22.000Z</time>
      </trkpt>
      <trkpt lat="42.84798" lon="2.19874">
        <ele>404.39999389648</ele>
        <time>2014-04-06T09:12:25.000Z</time>
      </trkpt>
      <trkpt lat="42.84807" lon="2.19871">
        <ele>403.79998779297</ele>
        <time>2014-04-06T09:12:29.000Z</time>
      </trkpt>
      <trkpt lat="42.84812" lon="2.19864">
        <ele>404.20001220703</ele>
        <time>2014-04-06T09:12:32.000Z</time>
      </trkpt>
      <trkpt lat="42.84824" lon="2.19872">
        <ele>401.39999389648</ele>
        <time>2014-04-06T09:12:38.000Z</time>
      </trkpt>
      <trkpt lat="42.8483" lon="2.19877">
        <ele>399.39999389648</ele>
        <time>2014-04-06T09:12:42.000Z</time>
      </trkpt>
      <trkpt lat="42.84834" lon="2.19879">
        <ele>398.60000610352</ele>
        <time>2014-04-06T09:12:44.000Z</time>
      </trkpt>
      <trkpt lat="42.84846" lon="2.19876">
        <ele>399.39999389648</ele>
        <time>2014-04-06T09:12:49.000Z</time>
      </trkpt>
      <trkpt lat="42.84856" lon="2.19871">
        <ele>400.39999389648</ele>
        <time>2014-04-06T09:12:53.000Z</time>
      </trkpt>
      <trkpt lat="42.84862" lon="2.1988">
        <ele>398.60000610352</ele>
        <time>2014-04-06T09:12:58.000Z</time>
      </trkpt>
      <trkpt lat="42.84866" lon="2.19893">
        <ele>396.20001220703</ele>
        <time>2014-04-06T09:13:04.000Z</time>
      </trkpt>
      <trkpt lat="42.84868" lon="2.19897">
        <ele>395.20001220703</ele>
        <time>2014-04-06T09:13:08.000Z</time>
      </trkpt>
      <trkpt lat="42.84871" lon="2.19905">
        <ele>393.79998779297</ele>
        <time>2014-04-06T09:13:14.000Z</time>
      </trkpt>
      <trkpt lat="42.84873" lon="2.1991">
        <ele>392.79998779297</ele>
        <time>2014-04-06T09:13:18.000Z</time>
      </trkpt>
      <trkpt lat="42.84879" lon="2.19915">
        <ele>392</ele>
        <time>2014-04-06T09:13:24.000Z</time>
      </trkpt>
      <trkpt lat="42.84888" lon="2.19907">
        <ele>393.60000610352</ele>
        <time>2014-04-06T09:13:30.000Z</time>
      </trkpt>
      <trkpt lat="42.84894" lon="2.19901">
        <ele>394.79998779297</ele>
        <time>2014-04-06T09:13:33.000Z</time>
      </trkpt>
      <trkpt lat="42.84898" lon="2.19896">
        <ele>395.79998779297</ele>
        <time>2014-04-06T09:13:35.000Z</time>
      </trkpt>
      <trkpt lat="42.84906" lon="2.19885">
        <ele>398</ele>
        <time>2014-04-06T09:13:40.000Z</time>
      </trkpt>
      <trkpt lat="42.84919" lon="2.19874">
        <ele>399.39999389648</ele>
        <time>2014-04-06T09:13:47.000Z</time>
      </trkpt>
      <trkpt lat="42.8493" lon="2.19864">
        <ele>397.39999389648</ele>
        <time>2014-04-06T09:13:52.000Z</time>
      </trkpt>
      <trkpt lat="42.84939" lon="2.19845">
        <ele>397</ele>
        <time>2014-04-06T09:13:58.000Z</time>
      </trkpt>
      <trkpt lat="42.84948" lon="2.19839">
        <ele>394.60000610352</ele>
        <time>2014-04-06T09:14:03.000Z</time>
      </trkpt>
      <trkpt lat="42.84959" lon="2.19827">
        <ele>392.39999389648</ele>
        <time>2014-04-06T09:14:08.000Z</time>
      </trkpt>
      <trkpt lat="42.84969" lon="2.19814">
        <ele>390.20001220703</ele>
        <time>2014-04-06T09:14:13.000Z</time>
      </trkpt>
      <trkpt lat="42.84971" lon="2.19812">
        <ele>389.60000610352</ele>
        <time>2014-04-06T09:14:14.000Z</time>
      </trkpt>
      <trkpt lat="42.8498" lon="2.19806">
        <ele>387</ele>
        <time>2014-04-06T09:14:18.000Z</time>
      </trkpt>
      <trkpt lat="42.84989" lon="2.19798">
        <ele>385</ele>
        <time>2014-04-06T09:14:22.000Z</time>
      </trkpt>
      <trkpt lat="42.84995" lon="2.1979">
        <ele>383.60000610352</ele>
        <time>2014-04-06T09:14:26.000Z</time>
      </trkpt>
      <trkpt lat="42.85007" lon="2.19783">
        <ele>381.39999389648</ele>
        <time>2014-04-06T09:14:32.000Z</time>
      </trkpt>
      <trkpt lat="42.85009" lon="2.19782">
        <ele>381</ele>
        <time>2014-04-06T09:14:33.000Z</time>
      </trkpt>
      <trkpt lat="42.85012" lon="2.19783">
        <ele>380.60000610352</ele>
        <time>2014-04-06T09:14:34.000Z</time>
      </trkpt>
      <trkpt lat="42.85016" lon="2.19792">
        <ele>378.39999389648</ele>
        <time>2014-04-06T09:14:38.000Z</time>
      </trkpt>
      <trkpt lat="42.85015" lon="2.19796">
        <ele>378</ele>
        <time>2014-04-06T09:14:40.000Z</time>
      </trkpt>
      <trkpt lat="42.85014" lon="2.19801">
        <ele>377.60000610352</ele>
        <time>2014-04-06T09:14:43.000Z</time>
      </trkpt>
      <trkpt lat="42.85021" lon="2.19808">
        <ele>375</ele>
        <time>2014-04-06T09:14:47.000Z</time>
      </trkpt>
      <trkpt lat="42.85043" lon="2.19806">
        <ele>371.39999389648</ele>
        <time>2014-04-06T09:14:54.000Z</time>
      </trkpt>
      <trkpt lat="42.85055" lon="2.19809">
        <ele>368.79998779297</ele>
        <time>2014-04-06T09:14:58.000Z</time>
      </trkpt>
      <trkpt lat="42.85065" lon="2.19825">
        <ele>365</ele>
        <time>2014-04-06T09:15:02.000Z</time>
      </trkpt>
      <trkpt lat="42.85077" lon="2.19849">
        <ele>361.20001220703</ele>
        <time>2014-04-06T09:15:08.000Z</time>
      </trkpt>
      <trkpt lat="42.85088" lon="2.19868">
        <ele>358.39999389648</ele>
        <time>2014-04-06T09:15:13.000Z</time>
      </trkpt>
      <trkpt lat="42.85104" lon="2.19886">
        <ele>355.79998779297</ele>
        <time>2014-04-06T09:15:19.000Z</time>
      </trkpt>
      <trkpt lat="42.85122" lon="2.19893">
        <ele>353.60000610352</ele>
        <time>2014-04-06T09:15:25.000Z</time>
      </trkpt>
      <trkpt lat="42.85142" lon="2.19896">
        <ele>351.60000610352</ele>
        <time>2014-04-06T09:15:31.000Z</time>
      </trkpt>
      <trkpt lat="42.85161" lon="2.19896">
        <ele>349.79998779297</ele>
        <time>2014-04-06T09:15:37.000Z</time>
      </trkpt>
      <trkpt lat="42.85182" lon="2.19899">
        <ele>348</ele>
        <time>2014-04-06T09:15:43.000Z</time>
      </trkpt>
      <trkpt lat="42.85186" lon="2.199">
        <ele>347.60000610352</ele>
        <time>2014-04-06T09:15:44.000Z</time>
      </trkpt>
      <trkpt lat="42.85195" lon="2.19906">
        <ele>346.60000610352</ele>
        <time>2014-04-06T09:15:47.000Z</time>
      </trkpt>
      <trkpt lat="42.85205" lon="2.19914">
        <ele>345.39999389648</ele>
        <time>2014-04-06T09:15:51.000Z</time>
      </trkpt>
      <trkpt lat="42.85223" lon="2.19929">
        <ele>344</ele>
        <time>2014-04-06T09:15:57.000Z</time>
      </trkpt>
      <trkpt lat="42.85234" lon="2.1994">
        <ele>343.20001220703</ele>
        <time>2014-04-06T09:16:02.000Z</time>
      </trkpt>
      <trkpt lat="42.85248" lon="2.19953">
        <ele>342.60000610352</ele>
        <time>2014-04-06T09:16:08.000Z</time>
      </trkpt>
      <trkpt lat="42.85261" lon="2.19957">
        <ele>341.60000610352</ele>
        <time>2014-04-06T09:16:13.000Z</time>
      </trkpt>
      <trkpt lat="42.85281" lon="2.19955">
        <ele>339.79998779297</ele>
        <time>2014-04-06T09:16:20.000Z</time>
      </trkpt>
      <trkpt lat="42.85297" lon="2.19948">
        <ele>338.20001220703</ele>
        <time>2014-04-06T09:16:25.000Z</time>
      </trkpt>
      <trkpt lat="42.85313" lon="2.19943">
        <ele>336.60000610352</ele>
        <time>2014-04-06T09:16:30.000Z</time>
      </trkpt>
      <trkpt lat="42.85328" lon="2.19939">
        <ele>334.79998779297</ele>
        <time>2014-04-06T09:16:35.000Z</time>
      </trkpt>
      <trkpt lat="42.85343" lon="2.19934">
        <ele>332.39999389648</ele>
        <time>2014-04-06T09:16:40.000Z</time>
      </trkpt>
      <trkpt lat="42.85362" lon="2.19931">
        <ele>329</ele>
        <time>2014-04-06T09:16:46.000Z</time>
      </trkpt>
      <trkpt lat="42.85371" lon="2.19925">
        <ele>327.20001220703</ele>
        <time>2014-04-06T09:16:50.000Z</time>
      </trkpt>
      <trkpt lat="42.85375" lon="2.19906">
        <ele>326.20001220703</ele>
        <time>2014-04-06T09:16:55.000Z</time>
      </trkpt>
      <trkpt lat="42.85376" lon="2.19884">
        <ele>325.39999389648</ele>
        <time>2014-04-06T09:17:01.000Z</time>
      </trkpt>
      <trkpt lat="42.85378" lon="2.19866">
        <ele>324.79998779297</ele>
        <time>2014-04-06T09:17:06.000Z</time>
      </trkpt>
      <trkpt lat="42.8538" lon="2.19842">
        <ele>323.79998779297</ele>
        <time>2014-04-06T09:17:12.000Z</time>
      </trkpt>
      <trkpt lat="42.8539" lon="2.19834">
        <ele>321.79998779297</ele>
        <time>2014-04-06T09:17:16.000Z</time>
      </trkpt>
      <trkpt lat="42.85393" lon="2.19835">
        <ele>321.20001220703</ele>
        <time>2014-04-06T09:17:17.000Z</time>
      </trkpt>
      <trkpt lat="42.85407" lon="2.19844">
        <ele>319</ele>
        <time>2014-04-06T09:17:22.000Z</time>
      </trkpt>
      <trkpt lat="42.85425" lon="2.19853">
        <ele>317.20001220703</ele>
        <time>2014-04-06T09:17:28.000Z</time>
      </trkpt>
      <trkpt lat="42.85437" lon="2.19862">
        <ele>316.60000610352</ele>
        <time>2014-04-06T09:17:33.000Z</time>
      </trkpt>
      <trkpt lat="42.85446" lon="2.19869">
        <ele>316.20001220703</ele>
        <time>2014-04-06T09:17:37.000Z</time>
      </trkpt>
      <trkpt lat="42.85456" lon="2.19876">
        <ele>315.60000610352</ele>
        <time>2014-04-06T09:17:41.000Z</time>
      </trkpt>
      <trkpt lat="42.85467" lon="2.1989">
        <ele>315.20001220703</ele>
        <time>2014-04-06T09:17:46.000Z</time>
      </trkpt>
      <trkpt lat="42.85471" lon="2.19909">
        <ele>315.20001220703</ele>
        <time>2014-04-06T09:17:51.000Z</time>
      </trkpt>
      <trkpt lat="42.85468" lon="2.19925">
        <ele>315.39999389648</ele>
        <time>2014-04-06T09:17:56.000Z</time>
      </trkpt>
      <trkpt lat="42.85464" lon="2.19941">
        <ele>315.39999389648</ele>
        <time>2014-04-06T09:18:01.000Z</time>
      </trkpt>
      <trkpt lat="42.8546" lon="2.19956">
        <ele>315.39999389648</ele>
        <time>2014-04-06T09:18:08.000Z</time>
      </trkpt>
      <trkpt lat="42.85457" lon="2.19972">
        <ele>315.39999389648</ele>
        <time>2014-04-06T09:18:17.000Z</time>
      </trkpt>
      <trkpt lat="42.85452" lon="2.19983">
        <ele>315.39999389648</ele>
        <time>2014-04-06T09:18:24.000Z</time>
      </trkpt>
      <trkpt lat="42.85445" lon="2.19999">
        <ele>315.60000610352</ele>
        <time>2014-04-06T09:18:30.000Z</time>
      </trkpt>
      <trkpt lat="42.85436" lon="2.20017">
        <ele>315.39999389648</ele>
        <time>2014-04-06T09:18:36.000Z</time>
      </trkpt>
      <trkpt lat="42.85426" lon="2.20041">
        <ele>314.39999389648</ele>
        <time>2014-04-06T09:18:44.000Z</time>
      </trkpt>
      <trkpt lat="42.85415" lon="2.20061">
        <ele>313.79998779297</ele>
        <time>2014-04-06T09:18:50.000Z</time>
      </trkpt>
      <trkpt lat="42.85404" lon="2.20085">
        <ele>313.60000610352</ele>
        <time>2014-04-06T09:18:57.000Z</time>
      </trkpt>
      <trkpt lat="42.85391" lon="2.20099">
        <ele>314.60000610352</ele>
        <time>2014-04-06T09:19:03.000Z</time>
      </trkpt>
      <trkpt lat="42.85388" lon="2.20103">
        <ele>314.60000610352</ele>
        <time>2014-04-06T09:19:05.000Z</time>
      </trkpt>
      <trkpt lat="42.8539" lon="2.20117">
        <ele>313.79998779297</ele>
        <time>2014-04-06T09:19:10.000Z</time>
      </trkpt>
      <trkpt lat="42.85392" lon="2.20124">
        <ele>313.20001220703</ele>
        <time>2014-04-06T09:19:13.000Z</time>
      </trkpt>
      <trkpt lat="42.85398" lon="2.20141">
        <ele>312</ele>
        <time>2014-04-06T09:19:19.000Z</time>
      </trkpt>
      <trkpt lat="42.854" lon="2.20156">
        <ele>311.39999389648</ele>
        <time>2014-04-06T09:19:24.000Z</time>
      </trkpt>
      <trkpt lat="42.85407" lon="2.20168">
        <ele>311</ele>
        <time>2014-04-06T09:19:29.000Z</time>
      </trkpt>
      <trkpt lat="42.85415" lon="2.2017">
        <ele>311.20001220703</ele>
        <time>2014-04-06T09:19:33.000Z</time>
      </trkpt>
      <trkpt lat="42.85416" lon="2.2017">
        <ele>311.20001220703</ele>
        <time>2014-04-06T09:19:34.000Z</time>
      </trkpt>
      <trkpt lat="42.85418" lon="2.20164">
        <ele>311</ele>
        <time>2014-04-06T09:19:37.000Z</time>
      </trkpt>
      <trkpt lat="42.85424" lon="2.20164">
        <ele>311</ele>
        <time>2014-04-06T09:19:41.000Z</time>
      </trkpt>
      <trkpt lat="42.85431" lon="2.2015">
        <ele>311</ele>
        <time>2014-04-06T09:19:49.000Z</time>
      </trkpt>
      <trkpt lat="42.85429" lon="2.20133">
        <ele>311.20001220703</ele>
        <time>2014-04-06T09:19:54.000Z</time>
      </trkpt>
      <trkpt lat="42.85429" lon="2.20129">
        <ele>311.20001220703</ele>
        <time>2014-04-06T09:19:55.000Z</time>
      </trkpt>
      <trkpt lat="42.8543" lon="2.20127">
        <ele>311.20001220703</ele>
        <time>2014-04-06T09:19:56.000Z</time>
      </trkpt>
      <trkpt lat="42.85436" lon="2.20122">
        <ele>311.20001220703</ele>
        <time>2014-04-06T09:19:59.000Z</time>
      </trkpt>
      <trkpt lat="42.85453" lon="2.20116">
        <ele>310.79998779297</ele>
        <time>2014-04-06T09:20:06.000Z</time>
      </trkpt>
      <trkpt lat="42.85471" lon="2.20111">
        <ele>310.39999389648</ele>
        <time>2014-04-06T09:20:13.000Z</time>
      </trkpt>
      <trkpt lat="42.85484" lon="2.20109">
        <ele>310</ele>
        <time>2014-04-06T09:20:18.000Z</time>
      </trkpt>
      <trkpt lat="42.85494" lon="2.20106">
        <ele>309.79998779297</ele>
        <time>2014-04-06T09:20:22.000Z</time>
      </trkpt>
      <trkpt lat="42.8551" lon="2.20104">
        <ele>310</ele>
        <time>2014-04-06T09:20:29.000Z</time>
      </trkpt>
      <trkpt lat="42.85524" lon="2.20103">
        <ele>310.79998779297</ele>
        <time>2014-04-06T09:20:35.000Z</time>
      </trkpt>
      <trkpt lat="42.85537" lon="2.20102">
        <ele>311.39999389648</ele>
        <time>2014-04-06T09:20:41.000Z</time>
      </trkpt>
      <trkpt lat="42.85548" lon="2.201">
        <ele>311.79998779297</ele>
        <time>2014-04-06T09:20:46.000Z</time>
      </trkpt>
      <trkpt lat="42.85567" lon="2.20095">
        <ele>312.39999389648</ele>
        <time>2014-04-06T09:20:53.000Z</time>
      </trkpt>
      <trkpt lat="42.85577" lon="2.20093">
        <ele>312.60000610352</ele>
        <time>2014-04-06T09:20:57.000Z</time>
      </trkpt>
      <trkpt lat="42.85588" lon="2.20086">
        <ele>314.20001220703</ele>
        <time>2014-04-06T09:21:02.000Z</time>
      </trkpt>
      <trkpt lat="42.85597" lon="2.20074">
        <ele>318</ele>
        <time>2014-04-06T09:21:08.000Z</time>
      </trkpt>
      <trkpt lat="42.85606" lon="2.20062">
        <ele>321.20001220703</ele>
        <time>2014-04-06T09:21:14.000Z</time>
      </trkpt>
      <trkpt lat="42.85612" lon="2.20047">
        <ele>322.79998779297</ele>
        <time>2014-04-06T09:21:20.000Z</time>
      </trkpt>
      <trkpt lat="42.85618" lon="2.20036">
        <ele>324.39999389648</ele>
        <time>2014-04-06T09:21:25.000Z</time>
      </trkpt>
      <trkpt lat="42.85619" lon="2.20034">
        <ele>324.79998779297</ele>
        <time>2014-04-06T09:21:26.000Z</time>
      </trkpt>
      <trkpt lat="42.85625" lon="2.20024">
        <ele>326.39999389648</ele>
        <time>2014-04-06T09:21:31.000Z</time>
      </trkpt>
      <trkpt lat="42.85631" lon="2.20014">
        <ele>327.79998779297</ele>
        <time>2014-04-06T09:21:36.000Z</time>
      </trkpt>
      <trkpt lat="42.85635" lon="2.20005">
        <ele>328.60000610352</ele>
        <time>2014-04-06T09:21:40.000Z</time>
      </trkpt>
      <trkpt lat="42.8564" lon="2.19994">
        <ele>329.20001220703</ele>
        <time>2014-04-06T09:21:45.000Z</time>
      </trkpt>
      <trkpt lat="42.85641" lon="2.1999">
        <ele>329.39999389648</ele>
        <time>2014-04-06T09:21:47.000Z</time>
      </trkpt>
      <trkpt lat="42.85643" lon="2.19983">
        <ele>329.39999389648</ele>
        <time>2014-04-06T09:21:52.000Z</time>
      </trkpt>
      <trkpt lat="42.85648" lon="2.19969">
        <ele>329.60000610352</ele>
        <time>2014-04-06T09:22:02.000Z</time>
      </trkpt>
      <trkpt lat="42.85652" lon="2.19955">
        <ele>329.39999389648</ele>
        <time>2014-04-06T09:22:11.000Z</time>
      </trkpt>
      <trkpt lat="42.85654" lon="2.19945">
        <ele>329.20001220703</ele>
        <time>2014-04-06T09:22:17.000Z</time>
      </trkpt>
      <trkpt lat="42.85655" lon="2.19931">
        <ele>327.79998779297</ele>
        <time>2014-04-06T09:22:25.000Z</time>
      </trkpt>
      <trkpt lat="42.85658" lon="2.19917">
        <ele>327</ele>
        <time>2014-04-06T09:22:33.000Z</time>
      </trkpt>
      <trkpt lat="42.8566" lon="2.19906">
        <ele>326.20001220703</ele>
        <time>2014-04-06T09:22:40.000Z</time>
      </trkpt>
      <trkpt lat="42.85662" lon="2.19894">
        <ele>324.60000610352</ele>
        <time>2014-04-06T09:22:47.000Z</time>
      </trkpt>
      <trkpt lat="42.85666" lon="2.19857">
        <ele>319.60000610352</ele>
        <time>2014-04-06T09:22:58.000Z</time>
      </trkpt>
      <trkpt lat="42.85668" lon="2.19844">
        <ele>318.20001220703</ele>
        <time>2014-04-06T09:23:03.000Z</time>
      </trkpt>
      <trkpt lat="42.85669" lon="2.19843">
        <ele>318.39999389648</ele>
        <time>2014-04-06T09:23:04.000Z</time>
      </trkpt>
      <trkpt lat="42.85673" lon="2.19842">
        <ele>319.79998779297</ele>
        <time>2014-04-06T09:23:10.000Z</time>
      </trkpt>
      <trkpt lat="42.85677" lon="2.19845">
        <ele>321.60000610352</ele>
        <time>2014-04-06T09:23:17.000Z</time>
      </trkpt>
      <trkpt lat="42.85681" lon="2.19846">
        <ele>323.39999389648</ele>
        <time>2014-04-06T09:23:23.000Z</time>
      </trkpt>
      <trkpt lat="42.85685" lon="2.19849">
        <ele>325.39999389648</ele>
        <time>2014-04-06T09:23:28.000Z</time>
      </trkpt>
      <trkpt lat="42.85688" lon="2.19851">
        <ele>327</ele>
        <time>2014-04-06T09:23:32.000Z</time>
      </trkpt>
      <trkpt lat="42.85692" lon="2.19851">
        <ele>328.79998779297</ele>
        <time>2014-04-06T09:23:39.000Z</time>
      </trkpt>
      <trkpt lat="42.85698" lon="2.19852">
        <ele>331.20001220703</ele>
        <time>2014-04-06T09:23:47.000Z</time>
      </trkpt>
      <trkpt lat="42.85705" lon="2.1985">
        <ele>333.60000610352</ele>
        <time>2014-04-06T09:23:58.000Z</time>
      </trkpt>
      <trkpt lat="42.85707" lon="2.19851">
        <ele>334.60000610352</ele>
        <time>2014-04-06T09:24:02.000Z</time>
      </trkpt>
      <trkpt lat="42.85712" lon="2.19848">
        <ele>336</ele>
        <time>2014-04-06T09:24:08.000Z</time>
      </trkpt>
      <trkpt lat="42.85716" lon="2.19849">
        <ele>337.60000610352</ele>
        <time>2014-04-06T09:24:13.000Z</time>
      </trkpt>
      <trkpt lat="42.85719" lon="2.19849">
        <ele>338.60000610352</ele>
        <time>2014-04-06T09:24:16.000Z</time>
      </trkpt>
      <trkpt lat="42.85726" lon="2.19847">
        <ele>340.79998779297</ele>
        <time>2014-04-06T09:24:23.000Z</time>
      </trkpt>
      <trkpt lat="42.85731" lon="2.19846">
        <ele>342.60000610352</ele>
        <time>2014-04-06T09:24:28.000Z</time>
      </trkpt>
      <trkpt lat="42.85732" lon="2.19846">
        <ele>342.79998779297</ele>
        <time>2014-04-06T09:24:29.000Z</time>
      </trkpt>
      <trkpt lat="42.85738" lon="2.19844">
        <ele>345</ele>
        <time>2014-04-06T09:24:36.000Z</time>
      </trkpt>
      <trkpt lat="42.85739" lon="2.19844">
        <ele>345.20001220703</ele>
        <time>2014-04-06T09:24:37.000Z</time>
      </trkpt>
      <trkpt lat="42.85744" lon="2.19847">
        <ele>347.79998779297</ele>
        <time>2014-04-06T09:24:44.000Z</time>
      </trkpt>
      <trkpt lat="42.8575" lon="2.19847">
        <ele>350.20001220703</ele>
        <time>2014-04-06T09:24:51.000Z</time>
      </trkpt>
      <trkpt lat="42.85758" lon="2.19846">
        <ele>351.79998779297</ele>
        <time>2014-04-06T09:24:59.000Z</time>
      </trkpt>
      <trkpt lat="42.85764" lon="2.19845">
        <ele>353</ele>
        <time>2014-04-06T09:25:07.000Z</time>
      </trkpt>
      <trkpt lat="42.85768" lon="2.19844">
        <ele>353.79998779297</ele>
        <time>2014-04-06T09:25:11.000Z</time>
      </trkpt>
      <trkpt lat="42.85772" lon="2.19841">
        <ele>353.79998779297</ele>
        <time>2014-04-06T09:25:15.000Z</time>
      </trkpt>
      <trkpt lat="42.85774" lon="2.19839">
        <ele>354</ele>
        <time>2014-04-06T09:25:18.000Z</time>
      </trkpt>
      <trkpt lat="42.85777" lon="2.19841">
        <ele>355</ele>
        <time>2014-04-06T09:25:23.000Z</time>
      </trkpt>
      <trkpt lat="42.85777" lon="2.19845">
        <ele>355.79998779297</ele>
        <time>2014-04-06T09:25:29.000Z</time>
      </trkpt>
      <trkpt lat="42.85775" lon="2.19849">
        <ele>356.20001220703</ele>
        <time>2014-04-06T09:25:34.000Z</time>
      </trkpt>
      <trkpt lat="42.85776" lon="2.19855">
        <ele>357.79998779297</ele>
        <time>2014-04-06T09:25:41.000Z</time>
      </trkpt>
      <trkpt lat="42.85783" lon="2.19851">
        <ele>358.60000610352</ele>
        <time>2014-04-06T09:25:52.000Z</time>
      </trkpt>
      <trkpt lat="42.85788" lon="2.19849">
        <ele>359.20001220703</ele>
        <time>2014-04-06T09:25:58.000Z</time>
      </trkpt>
      <trkpt lat="42.8579" lon="2.19849">
        <ele>359.39999389648</ele>
        <time>2014-04-06T09:26:02.000Z</time>
      </trkpt>
      <trkpt lat="42.85794" lon="2.19847">
        <ele>360</ele>
        <time>2014-04-06T09:26:08.000Z</time>
      </trkpt>
      <trkpt lat="42.858" lon="2.19842">
        <ele>360.39999389648</ele>
        <time>2014-04-06T09:26:14.000Z</time>
      </trkpt>
      <trkpt lat="42.85809" lon="2.19834">
        <ele>360.60000610352</ele>
        <time>2014-04-06T09:26:22.000Z</time>
      </trkpt>
      <trkpt lat="42.85818" lon="2.19828">
        <ele>363.20001220703</ele>
        <time>2014-04-06T09:26:30.000Z</time>
      </trkpt>
      <trkpt lat="42.85822" lon="2.19827">
        <ele>364.39999389648</ele>
        <time>2014-04-06T09:26:35.000Z</time>
      </trkpt>
      <trkpt lat="42.85823" lon="2.19826">
        <ele>364.79998779297</ele>
        <time>2014-04-06T09:26:36.000Z</time>
      </trkpt>
      <trkpt lat="42.85827" lon="2.19825">
        <ele>366</ele>
        <time>2014-04-06T09:26:41.000Z</time>
      </trkpt>
      <trkpt lat="42.85832" lon="2.1982">
        <ele>368</ele>
        <time>2014-04-06T09:26:46.000Z</time>
      </trkpt>
      <trkpt lat="42.85834" lon="2.19814">
        <ele>369.60000610352</ele>
        <time>2014-04-06T09:26:50.000Z</time>
      </trkpt>
      <trkpt lat="42.85839" lon="2.1981">
        <ele>371</ele>
        <time>2014-04-06T09:26:57.000Z</time>
      </trkpt>
      <trkpt lat="42.8584" lon="2.1981">
        <ele>371.39999389648</ele>
        <time>2014-04-06T09:26:58.000Z</time>
      </trkpt>
      <trkpt lat="42.85843" lon="2.19807">
        <ele>372.20001220703</ele>
        <time>2014-04-06T09:27:03.000Z</time>
      </trkpt>
      <trkpt lat="42.85845" lon="2.19804">
        <ele>373.20001220703</ele>
        <time>2014-04-06T09:27:08.000Z</time>
      </trkpt>
      <trkpt lat="42.85851" lon="2.19803">
        <ele>374.20001220703</ele>
        <time>2014-04-06T09:27:14.000Z</time>
      </trkpt>
      <trkpt lat="42.85853" lon="2.19803">
        <ele>374.60000610352</ele>
        <time>2014-04-06T09:27:17.000Z</time>
      </trkpt>
      <trkpt lat="42.8586" lon="2.19799">
        <ele>376.39999389648</ele>
        <time>2014-04-06T09:27:25.000Z</time>
      </trkpt>
      <trkpt lat="42.85862" lon="2.19797">
        <ele>377</ele>
        <time>2014-04-06T09:27:29.000Z</time>
      </trkpt>
      <trkpt lat="42.85863" lon="2.19794">
        <ele>377.60000610352</ele>
        <time>2014-04-06T09:27:34.000Z</time>
      </trkpt>
      <trkpt lat="42.85868" lon="2.19792">
        <ele>378.60000610352</ele>
        <time>2014-04-06T09:27:42.000Z</time>
      </trkpt>
      <trkpt lat="42.8587" lon="2.1979">
        <ele>379.20001220703</ele>
        <time>2014-04-06T09:27:47.000Z</time>
      </trkpt>
      <trkpt lat="42.85873" lon="2.19786">
        <ele>380.39999389648</ele>
        <time>2014-04-06T09:27:54.000Z</time>
      </trkpt>
      <trkpt lat="42.85877" lon="2.19785">
        <ele>381.20001220703</ele>
        <time>2014-04-06T09:27:59.000Z</time>
      </trkpt>
      <trkpt lat="42.85882" lon="2.19783">
        <ele>382</ele>
        <time>2014-04-06T09:28:04.000Z</time>
      </trkpt>
      <trkpt lat="42.85884" lon="2.19781">
        <ele>382.60000610352</ele>
        <time>2014-04-06T09:28:07.000Z</time>
      </trkpt>
      <trkpt lat="42.85888" lon="2.1978">
        <ele>383.39999389648</ele>
        <time>2014-04-06T09:28:12.000Z</time>
      </trkpt>
      <trkpt lat="42.85891" lon="2.1978">
        <ele>383.79998779297</ele>
        <time>2014-04-06T09:28:16.000Z</time>
      </trkpt>
      <trkpt lat="42.85894" lon="2.19777">
        <ele>384.60000610352</ele>
        <time>2014-04-06T09:28:20.000Z</time>
      </trkpt>
      <trkpt lat="42.85896" lon="2.19776">
        <ele>385</ele>
        <time>2014-04-06T09:28:23.000Z</time>
      </trkpt>
      <trkpt lat="42.85901" lon="2.19781">
        <ele>385</ele>
        <time>2014-04-06T09:28:30.000Z</time>
      </trkpt>
      <trkpt lat="42.85905" lon="2.19781">
        <ele>385.60000610352</ele>
        <time>2014-04-06T09:28:37.000Z</time>
      </trkpt>
      <trkpt lat="42.8591" lon="2.19779">
        <ele>386.60000610352</ele>
        <time>2014-04-06T09:28:45.000Z</time>
      </trkpt>
      <trkpt lat="42.85913" lon="2.19777">
        <ele>387.20001220703</ele>
        <time>2014-04-06T09:28:50.000Z</time>
      </trkpt>
      <trkpt lat="42.85915" lon="2.19772">
        <ele>388.20001220703</ele>
        <time>2014-04-06T09:28:58.000Z</time>
      </trkpt>
      <trkpt lat="42.85917" lon="2.19763">
        <ele>389.60000610352</ele>
        <time>2014-04-06T09:29:05.000Z</time>
      </trkpt>
      <trkpt lat="42.85918" lon="2.19762">
        <ele>390</ele>
        <time>2014-04-06T09:29:06.000Z</time>
      </trkpt>
      <trkpt lat="42.85919" lon="2.19759">
        <ele>390.79998779297</ele>
        <time>2014-04-06T09:29:10.000Z</time>
      </trkpt>
      <trkpt lat="42.85922" lon="2.19756">
        <ele>392</ele>
        <time>2014-04-06T09:29:14.000Z</time>
      </trkpt>
      <trkpt lat="42.85924" lon="2.1975">
        <ele>393.39999389648</ele>
        <time>2014-04-06T09:29:21.000Z</time>
      </trkpt>
      <trkpt lat="42.85926" lon="2.19744">
        <ele>395</ele>
        <time>2014-04-06T09:29:27.000Z</time>
      </trkpt>
      <trkpt lat="42.85929" lon="2.19739">
        <ele>396.60000610352</ele>
        <time>2014-04-06T09:29:34.000Z</time>
      </trkpt>
      <trkpt lat="42.85929" lon="2.19734">
        <ele>397.20001220703</ele>
        <time>2014-04-06T09:29:38.000Z</time>
      </trkpt>
      <trkpt lat="42.8593" lon="2.19728">
        <ele>398.20001220703</ele>
        <time>2014-04-06T09:29:44.000Z</time>
      </trkpt>
      <trkpt lat="42.85932" lon="2.19721">
        <ele>399.79998779297</ele>
        <time>2014-04-06T09:29:52.000Z</time>
      </trkpt>
      <trkpt lat="42.85932" lon="2.19717">
        <ele>400.39999389648</ele>
        <time>2014-04-06T09:29:56.000Z</time>
      </trkpt>
      <trkpt lat="42.85934" lon="2.19712">
        <ele>401.20001220703</ele>
        <time>2014-04-06T09:30:01.000Z</time>
      </trkpt>
      <trkpt lat="42.85935" lon="2.19707">
        <ele>402.20001220703</ele>
        <time>2014-04-06T09:30:07.000Z</time>
      </trkpt>
      <trkpt lat="42.85936" lon="2.19705">
        <ele>402.60000610352</ele>
        <time>2014-04-06T09:30:13.000Z</time>
      </trkpt>
      <trkpt lat="42.85939" lon="2.19702">
        <ele>403.39999389648</ele>
        <time>2014-04-06T09:30:18.000Z</time>
      </trkpt>
      <trkpt lat="42.85942" lon="2.19696">
        <ele>404.20001220703</ele>
        <time>2014-04-06T09:30:25.000Z</time>
      </trkpt>
      <trkpt lat="42.85946" lon="2.19691">
        <ele>405.20001220703</ele>
        <time>2014-04-06T09:30:32.000Z</time>
      </trkpt>
      <trkpt lat="42.85948" lon="2.19689">
        <ele>405.60000610352</ele>
        <time>2014-04-06T09:30:35.000Z</time>
      </trkpt>
      <trkpt lat="42.85949" lon="2.19682">
        <ele>406.20001220703</ele>
        <time>2014-04-06T09:30:42.000Z</time>
      </trkpt>
      <trkpt lat="42.85952" lon="2.19676">
        <ele>406.79998779297</ele>
        <time>2014-04-06T09:30:49.000Z</time>
      </trkpt>
      <trkpt lat="42.85959" lon="2.19669">
        <ele>407.39999389648</ele>
        <time>2014-04-06T09:30:57.000Z</time>
      </trkpt>
      <trkpt lat="42.85963" lon="2.19662">
        <ele>407.20001220703</ele>
        <time>2014-04-06T09:31:03.000Z</time>
      </trkpt>
      <trkpt lat="42.85972" lon="2.19651">
        <ele>406.20001220703</ele>
        <time>2014-04-06T09:31:12.000Z</time>
      </trkpt>
      <trkpt lat="42.85979" lon="2.19639">
        <ele>404.60000610352</ele>
        <time>2014-04-06T09:31:16.000Z</time>
      </trkpt>
      <trkpt lat="42.85982" lon="2.19639">
        <ele>404.39999389648</ele>
        <time>2014-04-06T09:31:17.000Z</time>
      </trkpt>
      <trkpt lat="42.85991" lon="2.19642">
        <ele>404.60000610352</ele>
        <time>2014-04-06T09:31:21.000Z</time>
      </trkpt>
      <trkpt lat="42.85995" lon="2.19639">
        <ele>403.79998779297</ele>
        <time>2014-04-06T09:31:23.000Z</time>
      </trkpt>
      <trkpt lat="42.86001" lon="2.19635">
        <ele>402.79998779297</ele>
        <time>2014-04-06T09:31:26.000Z</time>
      </trkpt>
      <trkpt lat="42.86012" lon="2.19634">
        <ele>401.39999389648</ele>
        <time>2014-04-06T09:31:31.000Z</time>
      </trkpt>
      <trkpt lat="42.86021" lon="2.1963">
        <ele>399.60000610352</ele>
        <time>2014-04-06T09:31:35.000Z</time>
      </trkpt>
      <trkpt lat="42.86026" lon="2.19624">
        <ele>398</ele>
        <time>2014-04-06T09:31:39.000Z</time>
      </trkpt>
      <trkpt lat="42.86032" lon="2.19614">
        <ele>395.60000610352</ele>
        <time>2014-04-06T09:31:43.000Z</time>
      </trkpt>
      <trkpt lat="42.86044" lon="2.19601">
        <ele>392.20001220703</ele>
        <time>2014-04-06T09:31:49.000Z</time>
      </trkpt>
      <trkpt lat="42.86046" lon="2.19599">
        <ele>391.79998779297</ele>
        <time>2014-04-06T09:31:50.000Z</time>
      </trkpt>
      <trkpt lat="42.8605" lon="2.19596">
        <ele>391</ele>
        <time>2014-04-06T09:31:53.000Z</time>
      </trkpt>
      <trkpt lat="42.86051" lon="2.19596">
        <ele>390.79998779297</ele>
        <time>2014-04-06T09:31:55.000Z</time>
      </trkpt>
      <trkpt lat="42.86052" lon="2.19596">
        <ele>390.79998779297</ele>
        <time>2014-04-06T09:31:56.000Z</time>
      </trkpt>
      <trkpt lat="42.86058" lon="2.19583">
        <ele>388</ele>
        <time>2014-04-06T09:32:03.000Z</time>
      </trkpt>
      <trkpt lat="42.86065" lon="2.19568">
        <ele>386.60000610352</ele>
        <time>2014-04-06T09:32:08.000Z</time>
      </trkpt>
      <trkpt lat="42.86068" lon="2.19554">
        <ele>385.20001220703</ele>
        <time>2014-04-06T09:32:13.000Z</time>
      </trkpt>
      <trkpt lat="42.86069" lon="2.19547">
        <ele>384.60000610352</ele>
        <time>2014-04-06T09:32:16.000Z</time>
      </trkpt>
      <trkpt lat="42.86074" lon="2.19527">
        <ele>382.60000610352</ele>
        <time>2014-04-06T09:32:22.000Z</time>
      </trkpt>
      <trkpt lat="42.86075" lon="2.19525">
        <ele>382.20001220703</ele>
        <time>2014-04-06T09:32:23.000Z</time>
      </trkpt>
      <trkpt lat="42.86081" lon="2.19522">
        <ele>381.20001220703</ele>
        <time>2014-04-06T09:32:26.000Z</time>
      </trkpt>
      <trkpt lat="42.86094" lon="2.19513">
        <ele>378.20001220703</ele>
        <time>2014-04-06T09:32:33.000Z</time>
      </trkpt>
      <trkpt lat="42.86102" lon="2.19504">
        <ele>375.79998779297</ele>
        <time>2014-04-06T09:32:38.000Z</time>
      </trkpt>
      <trkpt lat="42.86103" lon="2.19502">
        <ele>375.39999389648</ele>
        <time>2014-04-06T09:32:39.000Z</time>
      </trkpt>
      <trkpt lat="42.86109" lon="2.19493">
        <ele>373.20001220703</ele>
        <time>2014-04-06T09:32:44.000Z</time>
      </trkpt>
      <trkpt lat="42.86112" lon="2.19487">
        <ele>371.60000610352</ele>
        <time>2014-04-06T09:32:47.000Z</time>
      </trkpt>
      <trkpt lat="42.86115" lon="2.19484">
        <ele>370.60000610352</ele>
        <time>2014-04-06T09:32:49.000Z</time>
      </trkpt>
      <trkpt lat="42.86123" lon="2.19477">
        <ele>368</ele>
        <time>2014-04-06T09:32:54.000Z</time>
      </trkpt>
      <trkpt lat="42.86123" lon="2.19478">
        <ele>368</ele>
        <time>2014-04-06T09:32:55.000Z</time>
      </trkpt>
      <trkpt lat="42.86122" lon="2.19486">
        <ele>369.39999389648</ele>
        <time>2014-04-06T09:32:59.000Z</time>
      </trkpt>
      <trkpt lat="42.86122" lon="2.19495">
        <ele>370.79998779297</ele>
        <time>2014-04-06T09:33:02.000Z</time>
      </trkpt>
      <trkpt lat="42.86118" lon="2.19512">
        <ele>373.60000610352</ele>
        <time>2014-04-06T09:33:08.000Z</time>
      </trkpt>
      <trkpt lat="42.86118" lon="2.19514">
        <ele>373.79998779297</ele>
        <time>2014-04-06T09:33:09.000Z</time>
      </trkpt>
      <trkpt lat="42.86119" lon="2.19525">
        <ele>375</ele>
        <time>2014-04-06T09:33:13.000Z</time>
      </trkpt>
      <trkpt lat="42.86116" lon="2.19541">
        <ele>377</ele>
        <time>2014-04-06T09:33:18.000Z</time>
      </trkpt>
      <trkpt lat="42.86118" lon="2.19555">
        <ele>378.20001220703</ele>
        <time>2014-04-06T09:33:24.000Z</time>
      </trkpt>
      <trkpt lat="42.8612" lon="2.19558">
        <ele>378.39999389648</ele>
        <time>2014-04-06T09:33:25.000Z</time>
      </trkpt>
      <trkpt lat="42.86126" lon="2.1957">
        <ele>378.79998779297</ele>
        <time>2014-04-06T09:33:30.000Z</time>
      </trkpt>
      <trkpt lat="42.86128" lon="2.19571">
        <ele>378.79998779297</ele>
        <time>2014-04-06T09:33:31.000Z</time>
      </trkpt>
      <trkpt lat="42.86129" lon="2.19573">
        <ele>378.60000610352</ele>
        <time>2014-04-06T09:33:32.000Z</time>
      </trkpt>
      <trkpt lat="42.86136" lon="2.19577">
        <ele>378.20001220703</ele>
        <time>2014-04-06T09:33:37.000Z</time>
      </trkpt>
      <trkpt lat="42.86145" lon="2.19578">
        <ele>377.20001220703</ele>
        <time>2014-04-06T09:33:43.000Z</time>
      </trkpt>
      <trkpt lat="42.86153" lon="2.19572">
        <ele>375.20001220703</ele>
        <time>2014-04-06T09:33:51.000Z</time>
      </trkpt>
      <trkpt lat="42.86157" lon="2.19563">
        <ele>373.39999389648</ele>
        <time>2014-04-06T09:33:56.000Z</time>
      </trkpt>
      <trkpt lat="42.86155" lon="2.19554">
        <ele>372.39999389648</ele>
        <time>2014-04-06T09:34:01.000Z</time>
      </trkpt>
      <trkpt lat="42.86157" lon="2.19549">
        <ele>371.60000610352</ele>
        <time>2014-04-06T09:34:03.000Z</time>
      </trkpt>
      <trkpt lat="42.86158" lon="2.19546">
        <ele>371</ele>
        <time>2014-04-06T09:34:05.000Z</time>
      </trkpt>
      <trkpt lat="42.8616" lon="2.19538">
        <ele>369.60000610352</ele>
        <time>2014-04-06T09:34:08.000Z</time>
      </trkpt>
      <trkpt lat="42.86168" lon="2.1953">
        <ele>367.39999389648</ele>
        <time>2014-04-06T09:34:13.000Z</time>
      </trkpt>
      <trkpt lat="42.8617" lon="2.19527">
        <ele>367.20001220703</ele>
        <time>2014-04-06T09:34:14.000Z</time>
      </trkpt>
      <trkpt lat="42.86171" lon="2.19525">
        <ele>367</ele>
        <time>2014-04-06T09:34:15.000Z</time>
      </trkpt>
      <trkpt lat="42.86184" lon="2.19513">
        <ele>366</ele>
        <time>2014-04-06T09:34:22.000Z</time>
      </trkpt>
      <trkpt lat="42.86187" lon="2.19509">
        <ele>365.39999389648</ele>
        <time>2014-04-06T09:34:24.000Z</time>
      </trkpt>
      <trkpt lat="42.86192" lon="2.19499">
        <ele>364</ele>
        <time>2014-04-06T09:34:29.000Z</time>
      </trkpt>
      <trkpt lat="42.86202" lon="2.19483">
        <ele>361.39999389648</ele>
        <time>2014-04-06T09:34:35.000Z</time>
      </trkpt>
      <trkpt lat="42.86202" lon="2.19481">
        <ele>361</ele>
        <time>2014-04-06T09:34:36.000Z</time>
      </trkpt>
      <trkpt lat="42.86205" lon="2.19468">
        <ele>358.60000610352</ele>
        <time>2014-04-06T09:34:41.000Z</time>
      </trkpt>
      <trkpt lat="42.86206" lon="2.19467">
        <ele>358.39999389648</ele>
        <time>2014-04-06T09:34:42.000Z</time>
      </trkpt>
      <trkpt lat="42.86212" lon="2.19462">
        <ele>357.60000610352</ele>
        <time>2014-04-06T09:34:47.000Z</time>
      </trkpt>
      <trkpt lat="42.86226" lon="2.19449">
        <ele>355.39999389648</ele>
        <time>2014-04-06T09:34:57.000Z</time>
      </trkpt>
      <trkpt lat="42.86233" lon="2.19449">
        <ele>355.60000610352</ele>
        <time>2014-04-06T09:35:02.000Z</time>
      </trkpt>
      <trkpt lat="42.86235" lon="2.1945">
        <ele>355.79998779297</ele>
        <time>2014-04-06T09:35:04.000Z</time>
      </trkpt>
      <trkpt lat="42.86236" lon="2.19453">
        <ele>356.60000610352</ele>
        <time>2014-04-06T09:35:08.000Z</time>
      </trkpt>
      <trkpt lat="42.86237" lon="2.19455">
        <ele>356.79998779297</ele>
        <time>2014-04-06T09:35:10.000Z</time>
      </trkpt>
      <trkpt lat="42.86241" lon="2.1946">
        <ele>358</ele>
        <time>2014-04-06T09:35:18.000Z</time>
      </trkpt>
      <trkpt lat="42.86243" lon="2.19461">
        <ele>358.39999389648</ele>
        <time>2014-04-06T09:35:23.000Z</time>
      </trkpt>
      <trkpt lat="42.86245" lon="2.19464">
        <ele>359.20001220703</ele>
        <time>2014-04-06T09:35:30.000Z</time>
      </trkpt>
      <trkpt lat="42.86248" lon="2.19467">
        <ele>359.79998779297</ele>
        <time>2014-04-06T09:35:37.000Z</time>
      </trkpt>
      <trkpt lat="42.86249" lon="2.1947">
        <ele>360.39999389648</ele>
        <time>2014-04-06T09:35:41.000Z</time>
      </trkpt>
      <trkpt lat="42.8625" lon="2.19477">
        <ele>362</ele>
        <time>2014-04-06T09:35:48.000Z</time>
      </trkpt>
      <trkpt lat="42.86251" lon="2.19478">
        <ele>362.20001220703</ele>
        <time>2014-04-06T09:35:49.000Z</time>
      </trkpt>
      <trkpt lat="42.86253" lon="2.1948">
        <ele>362.79998779297</ele>
        <time>2014-04-06T09:35:52.000Z</time>
      </trkpt>
      <trkpt lat="42.86254" lon="2.19486">
        <ele>364.20001220703</ele>
        <time>2014-04-06T09:35:58.000Z</time>
      </trkpt>
      <trkpt lat="42.86255" lon="2.19487">
        <ele>364.39999389648</ele>
        <time>2014-04-06T09:35:59.000Z</time>
      </trkpt>
      <trkpt lat="42.86258" lon="2.1949">
        <ele>365.20001220703</ele>
        <time>2014-04-06T09:36:04.000Z</time>
      </trkpt>
      <trkpt lat="42.8626" lon="2.19492">
        <ele>365.79998779297</ele>
        <time>2014-04-06T09:36:08.000Z</time>
      </trkpt>
      <trkpt lat="42.86263" lon="2.19495">
        <ele>366.60000610352</ele>
        <time>2014-04-06T09:36:12.000Z</time>
      </trkpt>
      <trkpt lat="42.86266" lon="2.19498">
        <ele>367.20001220703</ele>
        <time>2014-04-06T09:36:17.000Z</time>
      </trkpt>
      <trkpt lat="42.86268" lon="2.19501">
        <ele>368</ele>
        <time>2014-04-06T09:36:22.000Z</time>
      </trkpt>
      <trkpt lat="42.8627" lon="2.19506">
        <ele>369.39999389648</ele>
        <time>2014-04-06T09:36:28.000Z</time>
      </trkpt>
      <trkpt lat="42.8627" lon="2.19512">
        <ele>370.79998779297</ele>
        <time>2014-04-06T09:36:34.000Z</time>
      </trkpt>
      <trkpt lat="42.8627" lon="2.19516">
        <ele>371.79998779297</ele>
        <time>2014-04-06T09:36:37.000Z</time>
      </trkpt>
      <trkpt lat="42.86271" lon="2.19523">
        <ele>373.39999389648</ele>
        <time>2014-04-06T09:36:43.000Z</time>
      </trkpt>
      <trkpt lat="42.86271" lon="2.19527">
        <ele>374.39999389648</ele>
        <time>2014-04-06T09:36:48.000Z</time>
      </trkpt>
      <trkpt lat="42.86272" lon="2.19531">
        <ele>375.39999389648</ele>
        <time>2014-04-06T09:36:53.000Z</time>
      </trkpt>
      <trkpt lat="42.86275" lon="2.19536">
        <ele>377</ele>
        <time>2014-04-06T09:36:59.000Z</time>
      </trkpt>
      <trkpt lat="42.86277" lon="2.1954">
        <ele>378.20001220703</ele>
        <time>2014-04-06T09:37:04.000Z</time>
      </trkpt>
      <trkpt lat="42.8628" lon="2.19544">
        <ele>379.20001220703</ele>
        <time>2014-04-06T09:37:12.000Z</time>
      </trkpt>
      <trkpt lat="42.86284" lon="2.19542">
        <ele>379.20001220703</ele>
        <time>2014-04-06T09:37:18.000Z</time>
      </trkpt>
      <trkpt lat="42.86286" lon="2.19537">
        <ele>378</ele>
        <time>2014-04-06T09:37:23.000Z</time>
      </trkpt>
      <trkpt lat="42.86288" lon="2.19529">
        <ele>376.20001220703</ele>
        <time>2014-04-06T09:37:29.000Z</time>
      </trkpt>
      <trkpt lat="42.86289" lon="2.19521">
        <ele>374.20001220703</ele>
        <time>2014-04-06T09:37:36.000Z</time>
      </trkpt>
      <trkpt lat="42.86291" lon="2.19513">
        <ele>372.20001220703</ele>
        <time>2014-04-06T09:37:43.000Z</time>
      </trkpt>
      <trkpt lat="42.86294" lon="2.19506">
        <ele>370.79998779297</ele>
        <time>2014-04-06T09:37:49.000Z</time>
      </trkpt>
      <trkpt lat="42.86295" lon="2.19501">
        <ele>369.60000610352</ele>
        <time>2014-04-06T09:37:53.000Z</time>
      </trkpt>
      <trkpt lat="42.86303" lon="2.195">
        <ele>369.60000610352</ele>
        <time>2014-04-06T09:38:07.000Z</time>
      </trkpt>
      <trkpt lat="42.86307" lon="2.19501">
        <ele>370</ele>
        <time>2014-04-06T09:38:09.000Z</time>
      </trkpt>
      <trkpt lat="42.8632" lon="2.195">
        <ele>370.20001220703</ele>
        <time>2014-04-06T09:38:15.000Z</time>
      </trkpt>
      <trkpt lat="42.86335" lon="2.19496">
        <ele>370.60000610352</ele>
        <time>2014-04-06T09:38:21.000Z</time>
      </trkpt>
      <trkpt lat="42.8634" lon="2.19496">
        <ele>371.20001220703</ele>
        <time>2014-04-06T09:38:23.000Z</time>
      </trkpt>
      <trkpt lat="42.86346" lon="2.19505">
        <ele>374.20001220703</ele>
        <time>2014-04-06T09:38:28.000Z</time>
      </trkpt>
      <trkpt lat="42.86352" lon="2.19513">
        <ele>377.39999389648</ele>
        <time>2014-04-06T09:38:33.000Z</time>
      </trkpt>
      <trkpt lat="42.86353" lon="2.19514">
        <ele>378</ele>
        <time>2014-04-06T09:38:34.000Z</time>
      </trkpt>
      <trkpt lat="42.86358" lon="2.19517">
        <ele>379.79998779297</ele>
        <time>2014-04-06T09:38:38.000Z</time>
      </trkpt>
      <trkpt lat="42.86366" lon="2.19507">
        <ele>377.60000610352</ele>
        <time>2014-04-06T09:38:44.000Z</time>
      </trkpt>
      <trkpt lat="42.8637" lon="2.19502">
        <ele>376.39999389648</ele>
        <time>2014-04-06T09:38:46.000Z</time>
      </trkpt>
      <trkpt lat="42.86381" lon="2.19487">
        <ele>375</ele>
        <time>2014-04-06T09:38:52.000Z</time>
      </trkpt>
      <trkpt lat="42.86389" lon="2.19475">
        <ele>373.79998779297</ele>
        <time>2014-04-06T09:38:57.000Z</time>
      </trkpt>
      <trkpt lat="42.86398" lon="2.19459">
        <ele>372</ele>
        <time>2014-04-06T09:39:04.000Z</time>
      </trkpt>
      <trkpt lat="42.86403" lon="2.19452">
        <ele>371.39999389648</ele>
        <time>2014-04-06T09:39:10.000Z</time>
      </trkpt>
      <trkpt lat="42.86408" lon="2.19442">
        <ele>369.79998779297</ele>
        <time>2014-04-06T09:39:15.000Z</time>
      </trkpt>
      <trkpt lat="42.86411" lon="2.19436">
        <ele>369</ele>
        <time>2014-04-06T09:39:18.000Z</time>
      </trkpt>
      <trkpt lat="42.86417" lon="2.19433">
        <ele>369.20001220703</ele>
        <time>2014-04-06T09:39:24.000Z</time>
      </trkpt>
      <trkpt lat="42.8642" lon="2.19432">
        <ele>369.20001220703</ele>
        <time>2014-04-06T09:39:27.000Z</time>
      </trkpt>
      <trkpt lat="42.86429" lon="2.19429">
        <ele>369.39999389648</ele>
        <time>2014-04-06T09:39:35.000Z</time>
      </trkpt>
      <trkpt lat="42.86446" lon="2.19437">
        <ele>372.39999389648</ele>
        <time>2014-04-06T09:39:49.000Z</time>
      </trkpt>
      <trkpt lat="42.86458" lon="2.19439">
        <ele>373.79998779297</ele>
        <time>2014-04-06T09:39:56.000Z</time>
      </trkpt>
      <trkpt lat="42.86471" lon="2.1944">
        <ele>375.20001220703</ele>
        <time>2014-04-06T09:40:01.000Z</time>
      </trkpt>
      <trkpt lat="42.86484" lon="2.19436">
        <ele>375.39999389648</ele>
        <time>2014-04-06T09:40:06.000Z</time>
      </trkpt>
      <trkpt lat="42.86495" lon="2.19427">
        <ele>374.20001220703</ele>
        <time>2014-04-06T09:40:11.000Z</time>
      </trkpt>
      <trkpt lat="42.86507" lon="2.19417">
        <ele>373.60000610352</ele>
        <time>2014-04-06T09:40:17.000Z</time>
      </trkpt>
      <trkpt lat="42.86508" lon="2.19415">
        <ele>373.60000610352</ele>
        <time>2014-04-06T09:40:18.000Z</time>
      </trkpt>
      <trkpt lat="42.86512" lon="2.1941">
        <ele>373.79998779297</ele>
        <time>2014-04-06T09:40:22.000Z</time>
      </trkpt>
      <trkpt lat="42.86514" lon="2.19409">
        <ele>373.79998779297</ele>
        <time>2014-04-06T09:40:23.000Z</time>
      </trkpt>
      <trkpt lat="42.86522" lon="2.19405">
        <ele>375.20001220703</ele>
        <time>2014-04-06T09:40:27.000Z</time>
      </trkpt>
      <trkpt lat="42.86522" lon="2.19403">
        <ele>375</ele>
        <time>2014-04-06T09:40:28.000Z</time>
      </trkpt>
      <trkpt lat="42.86524" lon="2.19386">
        <ele>373</ele>
        <time>2014-04-06T09:40:33.000Z</time>
      </trkpt>
      <trkpt lat="42.86523" lon="2.19367">
        <ele>370</ele>
        <time>2014-04-06T09:40:38.000Z</time>
      </trkpt>
      <trkpt lat="42.86522" lon="2.19363">
        <ele>369.20001220703</ele>
        <time>2014-04-06T09:40:39.000Z</time>
      </trkpt>
      <trkpt lat="42.86519" lon="2.19336">
        <ele>364</ele>
        <time>2014-04-06T09:40:46.000Z</time>
      </trkpt>
      <trkpt lat="42.86516" lon="2.19314">
        <ele>359.79998779297</ele>
        <time>2014-04-06T09:40:52.000Z</time>
      </trkpt>
      <trkpt lat="42.86514" lon="2.19291">
        <ele>356</ele>
        <time>2014-04-06T09:40:59.000Z</time>
      </trkpt>
      <trkpt lat="42.86513" lon="2.19276">
        <ele>353.60000610352</ele>
        <time>2014-04-06T09:41:05.000Z</time>
      </trkpt>
      <trkpt lat="42.86513" lon="2.19271">
        <ele>353</ele>
        <time>2014-04-06T09:41:07.000Z</time>
      </trkpt>
      <trkpt lat="42.8651" lon="2.19252">
        <ele>349.39999389648</ele>
        <time>2014-04-06T09:41:18.000Z</time>
      </trkpt>
      <trkpt lat="42.86509" lon="2.19238">
        <ele>346.60000610352</ele>
        <time>2014-04-06T09:41:26.000Z</time>
      </trkpt>
      <trkpt lat="42.86511" lon="2.19226">
        <ele>344.60000610352</ele>
        <time>2014-04-06T09:41:34.000Z</time>
      </trkpt>
      <trkpt lat="42.86519" lon="2.19218">
        <ele>345</ele>
        <time>2014-04-06T09:41:43.000Z</time>
      </trkpt>
      <trkpt lat="42.86529" lon="2.19219">
        <ele>348.20001220703</ele>
        <time>2014-04-06T09:41:47.000Z</time>
      </trkpt>
      <trkpt lat="42.86545" lon="2.19222">
        <ele>353.79998779297</ele>
        <time>2014-04-06T09:41:53.000Z</time>
      </trkpt>
      <trkpt lat="42.86558" lon="2.19225">
        <ele>358.60000610352</ele>
        <time>2014-04-06T09:41:58.000Z</time>
      </trkpt>
      <trkpt lat="42.86571" lon="2.19227">
        <ele>363</ele>
        <time>2014-04-06T09:42:03.000Z</time>
      </trkpt>
      <trkpt lat="42.86588" lon="2.19231">
        <ele>367.20001220703</ele>
        <time>2014-04-06T09:42:10.000Z</time>
      </trkpt>
      <trkpt lat="42.86604" lon="2.19231">
        <ele>365.79998779297</ele>
        <time>2014-04-06T09:42:16.000Z</time>
      </trkpt>
      <trkpt lat="42.86624" lon="2.19232">
        <ele>363.79998779297</ele>
        <time>2014-04-06T09:42:23.000Z</time>
      </trkpt>
      <trkpt lat="42.86637" lon="2.19235">
        <ele>363</ele>
        <time>2014-04-06T09:42:28.000Z</time>
      </trkpt>
      <trkpt lat="42.86653" lon="2.19238">
        <ele>361.79998779297</ele>
        <time>2014-04-06T09:42:34.000Z</time>
      </trkpt>
      <trkpt lat="42.86663" lon="2.19241">
        <ele>361</ele>
        <time>2014-04-06T09:42:38.000Z</time>
      </trkpt>
      <trkpt lat="42.86676" lon="2.19241">
        <ele>360.20001220703</ele>
        <time>2014-04-06T09:42:43.000Z</time>
      </trkpt>
      <trkpt lat="42.86693" lon="2.19243">
        <ele>359.39999389648</ele>
        <time>2014-04-06T09:42:49.000Z</time>
      </trkpt>
      <trkpt lat="42.86712" lon="2.19246">
        <ele>358.79998779297</ele>
        <time>2014-04-06T09:42:56.000Z</time>
      </trkpt>
      <trkpt lat="42.86726" lon="2.19242">
        <ele>357.39999389648</ele>
        <time>2014-04-06T09:43:01.000Z</time>
      </trkpt>
      <trkpt lat="42.86742" lon="2.19228">
        <ele>354.60000610352</ele>
        <time>2014-04-06T09:43:07.000Z</time>
      </trkpt>
      <trkpt lat="42.86749" lon="2.19214">
        <ele>352.20001220703</ele>
        <time>2014-04-06T09:43:12.000Z</time>
      </trkpt>
      <trkpt lat="42.86755" lon="2.19198">
        <ele>351</ele>
        <time>2014-04-06T09:43:17.000Z</time>
      </trkpt>
      <trkpt lat="42.86762" lon="2.19184">
        <ele>350.20001220703</ele>
        <time>2014-04-06T09:43:22.000Z</time>
      </trkpt>
      <trkpt lat="42.86775" lon="2.19168">
        <ele>349.20001220703</ele>
        <time>2014-04-06T09:43:29.000Z</time>
      </trkpt>
      <trkpt lat="42.86782" lon="2.19162">
        <ele>349.39999389648</ele>
        <time>2014-04-06T09:43:32.000Z</time>
      </trkpt>
      <trkpt lat="42.86786" lon="2.1916">
        <ele>349.60000610352</ele>
        <time>2014-04-06T09:43:34.000Z</time>
      </trkpt>
      <trkpt lat="42.86799" lon="2.19155">
        <ele>350.39999389648</ele>
        <time>2014-04-06T09:43:39.000Z</time>
      </trkpt>
      <trkpt lat="42.86822" lon="2.19135">
        <ele>350</ele>
        <time>2014-04-06T09:43:51.000Z</time>
      </trkpt>
      <trkpt lat="42.86835" lon="2.19123">
        <ele>349.39999389648</ele>
        <time>2014-04-06T09:43:57.000Z</time>
      </trkpt>
      <trkpt lat="42.8685" lon="2.19112">
        <ele>350.20001220703</ele>
        <time>2014-04-06T09:44:04.000Z</time>
      </trkpt>
      <trkpt lat="42.86851" lon="2.1911">
        <ele>350</ele>
        <time>2014-04-06T09:44:05.000Z</time>
      </trkpt>
      <trkpt lat="42.86861" lon="2.19104">
        <ele>350.20001220703</ele>
        <time>2014-04-06T09:44:09.000Z</time>
      </trkpt>
      <trkpt lat="42.86871" lon="2.19096">
        <ele>350.20001220703</ele>
        <time>2014-04-06T09:44:14.000Z</time>
      </trkpt>
      <trkpt lat="42.86882" lon="2.19086">
        <ele>349.20001220703</ele>
        <time>2014-04-06T09:44:20.000Z</time>
      </trkpt>
      <trkpt lat="42.86891" lon="2.19076">
        <ele>348.79998779297</ele>
        <time>2014-04-06T09:44:25.000Z</time>
      </trkpt>
      <trkpt lat="42.86895" lon="2.19073">
        <ele>348.79998779297</ele>
        <time>2014-04-06T09:44:27.000Z</time>
      </trkpt>
      <trkpt lat="42.86906" lon="2.19056">
        <ele>347.20001220703</ele>
        <time>2014-04-06T09:44:34.000Z</time>
      </trkpt>
      <trkpt lat="42.86915" lon="2.19041">
        <ele>345.20001220703</ele>
        <time>2014-04-06T09:44:39.000Z</time>
      </trkpt>
      <trkpt lat="42.86926" lon="2.1902">
        <ele>344</ele>
        <time>2014-04-06T09:44:46.000Z</time>
      </trkpt>
      <trkpt lat="42.86934" lon="2.19005">
        <ele>343</ele>
        <time>2014-04-06T09:44:51.000Z</time>
      </trkpt>
      <trkpt lat="42.86947" lon="2.18984">
        <ele>342</ele>
        <time>2014-04-06T09:44:58.000Z</time>
      </trkpt>
      <trkpt lat="42.86959" lon="2.18965">
        <ele>340.20001220703</ele>
        <time>2014-04-06T09:45:05.000Z</time>
      </trkpt>
      <trkpt lat="42.8697" lon="2.18944">
        <ele>337</ele>
        <time>2014-04-06T09:45:12.000Z</time>
      </trkpt>
      <trkpt lat="42.86981" lon="2.18924">
        <ele>332.79998779297</ele>
        <time>2014-04-06T09:45:19.000Z</time>
      </trkpt>
      <trkpt lat="42.8699" lon="2.1891">
        <ele>330.20001220703</ele>
        <time>2014-04-06T09:45:24.000Z</time>
      </trkpt>
      <trkpt lat="42.86999" lon="2.18886">
        <ele>326.39999389648</ele>
        <time>2014-04-06T09:45:32.000Z</time>
      </trkpt>
      <trkpt lat="42.87" lon="2.18868">
        <ele>323.20001220703</ele>
        <time>2014-04-06T09:45:37.000Z</time>
      </trkpt>
      <trkpt lat="42.87004" lon="2.18845">
        <ele>319.39999389648</ele>
        <time>2014-04-06T09:45:44.000Z</time>
      </trkpt>
      <trkpt lat="42.87006" lon="2.18827">
        <ele>316.79998779297</ele>
        <time>2014-04-06T09:45:49.000Z</time>
      </trkpt>
      <trkpt lat="42.87007" lon="2.18809">
        <ele>315.20001220703</ele>
        <time>2014-04-06T09:45:54.000Z</time>
      </trkpt>
      <trkpt lat="42.87006" lon="2.18792">
        <ele>313.60000610352</ele>
        <time>2014-04-06T09:45:59.000Z</time>
      </trkpt>
      <trkpt lat="42.87003" lon="2.18772">
        <ele>311.39999389648</ele>
        <time>2014-04-06T09:46:05.000Z</time>
      </trkpt>
      <trkpt lat="42.87006" lon="2.18761">
        <ele>310.39999389648</ele>
        <time>2014-04-06T09:46:09.000Z</time>
      </trkpt>
      <trkpt lat="42.87018" lon="2.18753">
        <ele>310.60000610352</ele>
        <time>2014-04-06T09:46:14.000Z</time>
      </trkpt>
      <trkpt lat="42.87033" lon="2.18747">
        <ele>310.79998779297</ele>
        <time>2014-04-06T09:46:20.000Z</time>
      </trkpt>
      <trkpt lat="42.87038" lon="2.18749">
        <ele>311.39999389648</ele>
        <time>2014-04-06T09:46:22.000Z</time>
      </trkpt>
      <trkpt lat="42.87047" lon="2.18761">
        <ele>313.60000610352</ele>
        <time>2014-04-06T09:46:28.000Z</time>
      </trkpt>
      <trkpt lat="42.87055" lon="2.18757">
        <ele>313.60000610352</ele>
        <time>2014-04-06T09:46:33.000Z</time>
      </trkpt>
      <trkpt lat="42.87052" lon="2.18751">
        <ele>312.79998779297</ele>
        <time>2014-04-06T09:46:36.000Z</time>
      </trkpt>
      <trkpt lat="42.87046" lon="2.18736">
        <ele>309.60000610352</ele>
        <time>2014-04-06T09:46:41.000Z</time>
      </trkpt>
      <trkpt lat="42.87044" lon="2.18732">
        <ele>308.79998779297</ele>
        <time>2014-04-06T09:46:42.000Z</time>
      </trkpt>
      <trkpt lat="42.87034" lon="2.18707">
        <ele>303.79998779297</ele>
        <time>2014-04-06T09:46:51.000Z</time>
      </trkpt>
      <trkpt lat="42.87046" lon="2.18683">
        <ele>300</ele>
        <time>2014-04-06T09:47:01.000Z</time>
      </trkpt>
      <trkpt lat="42.87054" lon="2.18668">
        <ele>297.79998779297</ele>
        <time>2014-04-06T09:47:05.000Z</time>
      </trkpt>
      <trkpt lat="42.87055" lon="2.18664">
        <ele>297.39999389648</ele>
        <time>2014-04-06T09:47:06.000Z</time>
      </trkpt>
      <trkpt lat="42.87065" lon="2.1864">
        <ele>295.60000610352</ele>
        <time>2014-04-06T09:47:12.000Z</time>
      </trkpt>
      <trkpt lat="42.87061" lon="2.1862">
        <ele>293.39999389648</ele>
        <time>2014-04-06T09:47:17.000Z</time>
      </trkpt>
      <trkpt lat="42.8706" lon="2.18616">
        <ele>293.20001220703</ele>
        <time>2014-04-06T09:47:18.000Z</time>
      </trkpt>
      <trkpt lat="42.87064" lon="2.18599">
        <ele>291.60000610352</ele>
        <time>2014-04-06T09:47:23.000Z</time>
      </trkpt>
      <trkpt lat="42.87075" lon="2.18593">
        <ele>291</ele>
        <time>2014-04-06T09:47:27.000Z</time>
      </trkpt>
      <trkpt lat="42.87079" lon="2.18592">
        <ele>291</ele>
        <time>2014-04-06T09:47:28.000Z</time>
      </trkpt>
      <trkpt lat="42.87098" lon="2.18587">
        <ele>290.20001220703</ele>
        <time>2014-04-06T09:47:34.000Z</time>
      </trkpt>
      <trkpt lat="42.87116" lon="2.18583">
        <ele>289.60000610352</ele>
        <time>2014-04-06T09:47:40.000Z</time>
      </trkpt>
      <trkpt lat="42.87131" lon="2.18581">
        <ele>289.39999389648</ele>
        <time>2014-04-06T09:47:45.000Z</time>
      </trkpt>
      <trkpt lat="42.87162" lon="2.18576">
        <ele>289</ele>
        <time>2014-04-06T09:47:55.000Z</time>
      </trkpt>
      <trkpt lat="42.87183" lon="2.18574">
        <ele>288.79998779297</ele>
        <time>2014-04-06T09:48:02.000Z</time>
      </trkpt>
      <trkpt lat="42.87198" lon="2.18571">
        <ele>288.60000610352</ele>
        <time>2014-04-06T09:48:07.000Z</time>
      </trkpt>
      <trkpt lat="42.87218" lon="2.18566">
        <ele>288.20001220703</ele>
        <time>2014-04-06T09:48:14.000Z</time>
      </trkpt>
      <trkpt lat="42.87236" lon="2.18562">
        <ele>288</ele>
        <time>2014-04-06T09:48:20.000Z</time>
      </trkpt>
      <trkpt lat="42.8725" lon="2.18557">
        <ele>287.60000610352</ele>
        <time>2014-04-06T09:48:25.000Z</time>
      </trkpt>
      <trkpt lat="42.87252" lon="2.18556">
        <ele>287.79998779297</ele>
        <time>2014-04-06T09:48:26.000Z</time>
      </trkpt>
      <trkpt lat="42.87261" lon="2.18539">
        <ele>287.60000610352</ele>
        <time>2014-04-06T09:48:32.000Z</time>
      </trkpt>
      <trkpt lat="42.87265" lon="2.18519">
        <ele>287.60000610352</ele>
        <time>2014-04-06T09:48:38.000Z</time>
      </trkpt>
      <trkpt lat="42.87267" lon="2.185">
        <ele>287.39999389648</ele>
        <time>2014-04-06T09:48:44.000Z</time>
      </trkpt>
      <trkpt lat="42.87271" lon="2.18486">
        <ele>287.60000610352</ele>
        <time>2014-04-06T09:48:49.000Z</time>
      </trkpt>
      <trkpt lat="42.87281" lon="2.18474">
        <ele>287.79998779297</ele>
        <time>2014-04-06T09:48:55.000Z</time>
      </trkpt>
      <trkpt lat="42.87296" lon="2.1846">
        <ele>288.20001220703</ele>
        <time>2014-04-06T09:49:02.000Z</time>
      </trkpt>
      <trkpt lat="42.8731" lon="2.18449">
        <ele>288.39999389648</ele>
        <time>2014-04-06T09:49:08.000Z</time>
      </trkpt>
      <trkpt lat="42.87319" lon="2.18442">
        <ele>288.60000610352</ele>
        <time>2014-04-06T09:49:12.000Z</time>
      </trkpt>
      <trkpt lat="42.87326" lon="2.18436">
        <ele>288.79998779297</ele>
        <time>2014-04-06T09:49:15.000Z</time>
      </trkpt>
      <trkpt lat="42.87339" lon="2.18423">
        <ele>289.20001220703</ele>
        <time>2014-04-06T09:49:21.000Z</time>
      </trkpt>
      <trkpt lat="42.87354" lon="2.18407">
        <ele>289.60000610352</ele>
        <time>2014-04-06T09:49:28.000Z</time>
      </trkpt>
      <trkpt lat="42.87369" lon="2.184">
        <ele>290.20001220703</ele>
        <time>2014-04-06T09:49:34.000Z</time>
      </trkpt>
      <trkpt lat="42.87383" lon="2.18396">
        <ele>290.60000610352</ele>
        <time>2014-04-06T09:49:39.000Z</time>
      </trkpt>
      <trkpt lat="42.87399" lon="2.18394">
        <ele>291</ele>
        <time>2014-04-06T09:49:45.000Z</time>
      </trkpt>
      <trkpt lat="42.87433" lon="2.18382">
        <ele>291.39999389648</ele>
        <time>2014-04-06T09:49:58.000Z</time>
      </trkpt>
      <trkpt lat="42.87452" lon="2.18376">
        <ele>291.39999389648</ele>
        <time>2014-04-06T09:50:05.000Z</time>
      </trkpt>
      <trkpt lat="42.87469" lon="2.18372">
        <ele>291.60000610352</ele>
        <time>2014-04-06T09:50:11.000Z</time>
      </trkpt>
      <trkpt lat="42.87487" lon="2.18364">
        <ele>291.79998779297</ele>
        <time>2014-04-06T09:50:17.000Z</time>
      </trkpt>
      <trkpt lat="42.87499" lon="2.18349">
        <ele>292</ele>
        <time>2014-04-06T09:50:22.000Z</time>
      </trkpt>
      <trkpt lat="42.87509" lon="2.18342">
        <ele>292</ele>
        <time>2014-04-06T09:50:26.000Z</time>
      </trkpt>
    </trkseg>
  </trk>
</gpx>